GFSSW_sfc_wetblb_000.txt.gz
Wetbulb
58.33 58.12 57.29 57.31 56.57 56.38 56.33 55.97 55.51 55.72 56.00 56.47 56.52 56.27 56.39 56.33 56.07 58.76 56.17 59.43 60.07 60.76 60.38 57.52 58.21 57.34 56.79 54.13 53.59 52.86 46.13 46.77 46.95 47.40 47.35 50.30 48.48 51.41 52.60 53.69 54.34 57.33 57.50 61.54 63.75
57.81 57.29 57.75 57.12 57.38 56.45 56.55 55.75 55.40 56.02 56.13 56.22 55.95 55.96 55.93 56.08 58.17 58.08 61.36 62.06 63.09 62.40 57.35 56.22 55.39 56.16 53.35 52.30 52.31 49.69 47.04 46.49 48.64 48.77 47.72 48.45 48.89 48.76 49.27 51.09 51.41 54.08 60.04 63.99 63.67
57.93 57.58 57.24 57.05 56.84 56.24 56.25 55.54 55.44 55.95 55.94 55.91 55.75 55.52 55.54 56.56 57.15 56.30 62.18 62.66 63.86 62.64 59.04 59.43 57.30 54.60 51.36 52.53 51.04 49.95 46.40 48.26 48.20 49.02 49.67 48.35 48.45 49.67 49.11 48.04 50.49 51.67 54.39 61.81 62.38
57.16 57.01 56.93 57.00 56.78 56.28 55.84 55.28 55.55 55.50 55.44 54.91 55.40 55.64 56.01 58.07 48.69 56.52 63.35 64.12 63.73 61.46 60.07 57.32 55.02 51.86 50.57 48.93 51.55 47.67 49.33 49.07 48.57 49.01 48.65 47.27 49.38 47.65 48.89 50.04 53.00 54.55 56.01 61.22 60.53
55.84 56.51 56.78 56.28 56.41 56.16 55.72 55.23 55.19 54.60 54.43 54.29 55.02 55.44 57.62 55.96 54.13 59.14 62.60 64.52 60.20 60.47 57.49 55.59 53.72 52.84 49.54 50.17 50.08 48.55 48.52 49.38 49.40 49.16 49.82 50.60 48.73 49.32 49.15 51.93 53.79 55.35 57.84 59.86 60.86
56.33 56.41 56.34 56.31 56.05 55.84 55.41 54.85 54.08 53.28 53.40 53.88 54.33 54.90 57.53 51.50 58.34 59.18 59.06 58.79 58.62 58.26 55.66 55.55 53.85 53.88 50.66 49.69 48.93 50.17 49.40 48.86 49.85 50.54 50.52 48.80 49.30 50.79 51.41 52.55 51.76 53.98 56.31 58.76 60.81
56.54 56.65 56.39 55.61 55.61 55.50 55.32 54.58 53.26 53.12 53.73 54.16 54.08 57.23 57.98 55.00 58.25 58.95 58.62 57.82 58.34 58.13 55.77 56.64 56.75 53.12 52.72 49.92 52.52 50.99 47.98 49.75 50.36 51.17 50.12 50.81 48.31 48.14 52.23 52.84 51.75 51.97 53.97 56.65 59.39
56.85 56.61 56.27 56.15 54.97 54.60 54.19 53.57 53.26 53.53 53.59 53.71 53.49 58.48 54.99 58.56 59.20 57.47 57.91 56.86 57.82 58.98 57.64 57.53 57.39 55.63 54.28 53.57 50.50 48.17 49.39 45.46 49.87 50.99 51.73 50.45 45.56 50.34 52.77 51.99 51.50 52.45 52.78 54.43 57.95
56.55 56.50 56.01 55.66 55.44 54.26 53.82 53.86 54.16 53.94 53.72 53.01 56.37 59.63 53.60 59.08 55.38 57.31 57.47 55.31 56.56 58.00 57.48 57.05 56.87 52.74 52.13 48.25 46.57 48.05 43.67 45.88 47.73 51.22 50.88 49.77 47.24 51.03 53.47 52.93 52.05 52.93 53.79 53.86 54.98
56.29 56.31 56.03 55.70 55.36 55.00 54.80 54.86 55.00 54.10 55.00 58.53 60.15 56.37 54.34 52.32 55.03 55.63 57.46 57.33 55.73 55.86 54.68 54.30 53.34 49.92 49.61 47.78 41.61 43.35 44.23 45.32 44.81 49.01 48.45 47.27 47.93 50.98 52.55 52.52 52.55 52.64 53.37 54.34 54.23
55.60 56.72 55.94 55.56 55.30 54.51 53.81 56.98 56.16 55.19 58.46 53.68 52.39 52.34 51.98 53.81 56.35 55.19 56.43 55.82 56.27 54.32 50.42 51.97 48.71 46.68 47.96 48.84 47.87 46.83 45.36 44.69 47.81 49.63 47.57 47.43 48.20 49.71 52.07 52.50 53.05 53.33 53.85 54.62 57.24
55.06 56.21 55.70 55.53 55.34 54.65 56.11 59.59 59.05 58.81 50.86 54.60 54.54 53.79 55.11 56.43 51.59 53.27 56.98 53.10 51.90 48.74 50.72 47.78 46.25 48.87 49.73 49.00 47.76 46.86 45.33 45.29 47.91 49.04 47.64 48.41 47.20 49.83 51.24 51.79 52.73 52.92 54.04 55.89 56.62
55.03 55.16 56.10 54.80 54.68 55.99 61.79 61.52 64.43 63.91 51.58 51.93 53.96 52.87 53.81 55.71 52.20 52.06 55.31 52.82 50.29 48.76 47.68 47.21 47.84 49.75 48.52 48.33 46.85 47.25 45.39 46.23 45.52 48.41 49.04 47.41 46.35 47.46 50.38 51.68 52.48 53.46 54.32 54.96 54.76
54.96 55.34 55.33 54.11 54.97 63.22 60.60 63.26 65.73 65.55 47.71 46.47 50.19 52.33 53.98 54.46 50.62 55.21 55.85 53.26 50.19 47.46 49.10 48.26 49.81 48.74 48.16 47.62 47.68 44.61 48.76 47.39 45.99 44.82 41.28 47.68 39.56 45.97 48.34 48.93 50.67 51.73 52.86 53.08 53.71
54.96 55.65 54.01 53.41 59.79 59.23 62.16 65.51 66.31 64.11 40.35 48.54 50.11 56.66 53.86 52.28 52.67 52.64 56.40 53.87 48.54 48.47 49.33 47.03 48.27 48.39 47.41 47.06 48.60 46.72 49.22 47.28 46.84 45.03 44.61 45.17 42.61 45.49 48.27 46.44 48.41 50.60 51.96 53.01 54.16
55.35 56.25 54.09 58.01 63.53 63.79 65.68 66.58 64.60 51.21 38.88 45.96 50.63 50.34 49.92 51.31 51.54 53.33 52.73 55.58 54.93 50.21 50.78 49.04 51.58 50.32 49.29 49.79 49.40 50.64 48.91 48.34 47.91 46.03 40.77 43.91 43.48 42.02 45.26 46.84 48.44 50.57 51.99 53.17 53.73
56.10 55.78 57.44 64.90 61.19 66.72 68.08 61.95 49.39 43.07 48.80 45.40 47.22 50.03 49.41 48.38 50.03 51.05 50.17 49.66 48.12 44.88 44.99 48.16 48.28 50.81 50.82 48.52 51.07 49.21 46.76 40.85 39.33 40.66 38.24 45.57 42.12 44.26 48.07 49.45 50.09 50.16 51.29 53.05 54.53
56.78 55.81 61.27 65.89 66.84 68.35 64.55 53.36 42.56 45.52 45.74 49.46 48.97 49.48 46.97 49.07 48.79 49.54 49.21 46.66 49.71 49.52 46.10 43.50 41.28 47.77 50.30 48.02 45.57 47.02 45.70 40.88 32.81 35.10 38.40 44.54 38.79 42.39 49.19 50.37 50.79 51.18 51.51 52.61 53.29
55.41 66.35 66.17 67.31 68.83 67.85 57.15 51.03 45.98 46.08 48.90 47.46 48.27 45.88 45.87 47.99 48.59 48.72 47.57 46.06 47.00 48.99 44.57 43.86 42.91 49.25 49.06 49.70 48.74 46.41 42.80 45.95 41.01 40.99 37.12 40.06 44.27 47.37 48.98 48.62 49.52 49.58 50.48 51.18 52.64
61.19 60.23 60.07 67.03 68.84 63.96 55.13 47.50 48.65 50.85 49.80 49.38 44.50 47.43 44.40 46.01 46.50 47.43 46.57 48.58 47.14 49.16 50.00 45.72 42.26 46.59 47.63 49.98 50.25 47.53 47.96 41.54 43.16 33.59 30.79 37.26 39.38 39.58 44.95 46.67 47.98 48.40 49.23 50.77 52.59
63.02 53.89 63.07 67.04 66.20 55.39 51.38 50.04 49.15 51.43 52.51 48.27 47.37 46.16 47.65 45.87 47.37 46.53 46.35 48.15 49.91 49.05 50.20 47.60 45.96 43.98 47.32 45.73 44.63 46.02 44.73 44.32 42.78 40.67 33.77 32.41 36.85 46.19 46.20 47.09 47.04 48.57 50.08 51.01 51.63
62.10 50.65 64.26 67.09 51.24 52.61 51.77 50.64 49.13 50.73 53.01 51.73 51.68 49.66 48.20 48.09 46.85 46.63 46.15 48.01 50.73 50.43 46.15 46.87 45.03 42.36 42.72 47.31 48.79 47.08 44.98 44.09 39.06 36.64 40.10 38.34 36.30 48.66 48.60 48.99 48.94 48.86 49.80 51.17 51.87
55.31 56.28 63.45 63.71 49.62 54.73 51.94 50.70 51.57 50.11 50.48 50.31 49.49 51.06 51.64 48.85 44.94 47.77 48.09 50.73 51.27 49.88 46.78 47.78 45.43 39.90 40.72 45.27 47.54 44.20 45.70 44.61 44.18 40.10 35.58 35.05 36.86 49.13 48.22 48.73 49.08 48.61 50.01 50.23 50.63
57.68 51.53 54.09 56.02 57.72 52.65 50.26 49.16 48.59 53.04 51.27 52.09 50.93 51.54 50.10 48.36 49.99 47.11 46.74 49.51 50.87 49.40 46.78 48.62 44.98 41.32 37.40 40.17 43.46 41.20 42.69 43.86 42.55 38.09 37.02 38.10 40.03 44.61 46.38 46.42 47.67 48.48 49.43 49.27 49.26
58.44 53.58 53.74 52.04 53.39 52.72 52.42 50.57 48.62 47.35 51.60 52.22 49.67 49.84 49.15 46.00 47.38 46.50 48.48 47.71 49.02 46.66 48.59 48.30 42.17 42.76 42.85 43.09 43.10 42.16 41.69 42.35 40.92 41.73 36.44 39.96 40.33 43.99 46.10 46.67 46.86 47.94 48.42 48.25 47.77
55.40 54.43 55.82 54.18 54.29 52.08 48.56 49.69 48.90 49.29 50.01 48.50 48.59 50.31 50.22 46.60 46.80 45.65 47.15 46.74 46.30 48.63 47.73 48.08 42.30 40.39 38.73 43.18 42.55 39.89 41.75 42.15 42.09 42.18 42.00 42.23 41.32 47.46 47.70 48.20 46.67 46.68 46.90 46.56 46.23
59.52 60.36 57.08 49.52 52.65 51.74 50.97 50.32 50.07 51.53 51.34 51.91 51.44 50.33 47.66 49.36 51.51 51.61 51.64 50.87 49.56 47.84 46.50 43.47 42.22 39.36 36.30 39.88 38.71 36.23 40.42 42.63 42.84 44.07 43.26 38.57 43.67 46.94 45.59 45.82 45.96 46.06 46.42 45.03 44.49

GFSSW_sfc_wetblb_003.txt.gz
Wetbulb
57.05 58.12 57.88 58.11 57.38 56.39 56.07 55.92 55.54 55.45 55.83 56.05 56.27 56.36 55.86 55.69 55.63 55.85 54.07 56.79 58.11 60.58 59.16 54.08 54.32 54.54 53.48 50.86 51.73 49.26 40.92 39.18 41.84 46.47 43.06 45.88 44.95 46.10 49.82 50.43 52.13 54.36 57.06 58.86 59.49
57.14 57.06 57.19 57.08 56.42 56.22 56.02 55.90 55.95 55.34 56.30 56.44 56.35 56.28 55.34 55.40 54.99 55.51 61.01 61.01 62.18 61.08 54.34 52.62 51.69 52.84 48.46 48.28 49.19 44.28 39.95 41.61 45.30 45.31 42.86 44.45 43.74 45.61 46.52 47.82 48.68 55.84 58.87 59.72 59.22
57.08 56.95 56.93 56.78 56.87 56.56 56.05 55.93 55.49 55.39 56.28 56.33 55.80 55.28 55.13 55.44 55.14 54.55 62.15 62.68 63.42 61.50 55.09 54.98 55.43 52.66 48.10 47.66 46.71 43.51 41.36 43.77 44.33 45.34 45.51 43.66 44.47 46.32 46.11 44.53 47.68 54.18 56.67 58.09 58.32
56.10 56.01 56.20 56.62 56.72 56.22 55.75 55.28 55.28 55.76 55.71 55.36 54.97 54.99 55.65 54.78 47.54 51.89 62.49 62.79 63.70 60.37 57.04 55.60 53.55 47.33 45.23 43.70 46.30 42.37 45.32 45.45 44.48 45.73 44.94 43.94 44.18 43.83 42.74 45.38 49.81 53.56 59.25 59.06 57.92
54.98 55.04 55.46 56.46 56.62 55.83 55.39 55.06 55.02 54.88 54.29 53.82 54.06 54.81 54.19 53.90 53.25 56.62 64.46 63.36 60.26 57.33 56.25 55.05 52.20 48.49 45.66 45.90 45.85 44.32 44.53 45.75 45.93 45.99 46.15 47.72 44.56 45.13 44.15 48.06 49.73 51.58 59.25 58.56 58.56
54.83 55.24 56.23 56.30 56.44 55.53 55.18 54.95 54.32 53.94 53.18 53.30 53.71 54.27 53.31 49.04 57.34 57.52 56.94 58.88 56.73 56.64 56.41 55.12 51.75 51.98 49.31 46.22 44.45 46.63 45.66 44.42 44.82 45.23 46.58 45.72 44.86 46.47 46.32 47.49 48.91 52.63 56.44 56.63 57.88
55.11 55.26 56.11 56.13 55.94 54.86 54.98 54.59 54.02 53.39 52.96 53.18 53.55 54.43 55.48 55.00 55.61 54.09 56.30 53.84 53.69 54.48 53.12 53.78 53.06 50.18 48.70 46.78 49.24 47.43 43.24 44.51 45.40 46.96 45.88 46.56 43.05 44.10 47.22 47.59 47.44 49.18 51.17 55.19 58.36
56.66 56.41 55.99 55.79 54.85 54.48 54.52 53.94 53.61 52.92 52.71 52.95 53.06 53.57 52.03 59.19 53.44 54.24 54.04 53.70 55.05 55.75 54.55 54.27 54.07 51.31 49.70 48.04 47.04 43.98 43.58 39.25 45.01 47.37 47.67 45.47 39.47 44.86 48.08 48.11 45.92 47.42 48.79 49.85 55.39
56.33 56.21 55.85 55.28 54.98 54.19 53.61 53.06 52.68 52.70 53.04 52.89 51.40 54.18 51.48 57.26 53.53 54.40 53.69 53.21 54.63 55.57 53.83 54.98 52.66 49.04 48.13 42.57 39.89 41.51 37.01 40.81 43.32 47.74 47.17 44.24 41.43 46.04 47.71 47.65 46.87 46.52 46.60 48.05 49.38
55.87 55.96 55.71 55.26 54.68 54.12 53.60 53.90 54.65 53.42 53.32 55.30 56.21 51.65 56.47 51.04 53.78 53.57 53.46 54.68 54.11 53.83 52.46 50.81 48.21 43.88 43.07 40.83 36.43 38.54 40.07 40.61 40.74 43.23 43.83 41.52 41.58 45.18 48.03 48.41 47.64 45.26 48.48 50.48 53.62
55.96 55.99 55.33 55.08 54.80 54.32 52.53 51.30 50.56 49.48 53.31 50.37 51.67 52.82 50.37 51.54 53.16 52.25 54.40 53.17 53.25 51.12 45.73 48.85 43.63 39.51 42.08 44.08 44.88 43.58 41.60 41.40 41.65 46.03 43.93 42.92 42.70 45.38 47.96 46.67 47.70 50.49 52.31 52.24 53.00
55.92 55.56 55.40 55.08 54.72 54.17 52.11 54.31 54.94 54.88 47.27 55.25 52.71 52.44 54.92 53.11 50.11 51.38 54.17 50.43 49.76 45.33 47.46 43.67 40.74 45.43 47.58 47.30 45.54 44.05 42.53 41.69 43.56 46.51 43.23 40.94 41.48 45.22 48.18 47.81 47.88 50.31 50.04 50.83 52.29
55.15 55.93 54.93 54.90 54.54 52.51 53.28 57.06 60.73 59.05 46.40 51.37 52.87 52.11 53.07 54.08 50.46 49.67 52.27 50.85 47.48 45.64 45.38 42.51 44.87 48.76 47.52 45.78 44.66 43.75 42.30 41.67 42.13 44.51 43.48 41.83 40.18 43.60 47.04 48.91 50.02 49.55 49.80 50.64 50.97
54.61 54.99 54.33 53.67 52.49 57.41 56.20 59.78 61.28 59.93 40.34 45.28 49.15 51.33 53.33 53.06 49.45 52.34 52.83 50.56 48.45 45.52 46.12 44.66 48.34 47.99 46.26 45.15 44.78 41.94 46.67 45.60 43.80 40.43 35.28 41.11 32.60 40.84 45.04 46.18 47.77 48.32 48.10 48.87 50.24
54.66 55.09 53.37 54.86 53.91 56.26 58.36 61.30 60.34 56.80 27.94 47.37 49.10 55.44 52.28 50.80 50.12 50.56 53.53 52.04 46.63 46.01 46.80 44.20 45.45 45.65 44.91 45.07 46.61 44.40 47.24 44.77 43.77 39.82 37.94 39.84 36.02 40.55 45.91 43.59 44.98 45.92 47.59 47.80 48.84
54.84 55.62 53.47 53.63 53.76 59.88 62.36 62.16 55.10 40.15 30.94 45.76 49.21 49.29 47.79 49.89 50.34 50.70 50.69 52.96 52.45 47.99 46.92 45.46 48.61 46.61 45.55 48.35 47.49 47.85 45.98 45.16 43.61 40.54 31.18 40.03 38.51 39.40 42.05 43.75 45.31 47.62 48.80 48.55 48.29
55.57 55.28 54.16 60.41 57.15 62.35 62.19 54.46 39.86 32.40 47.69 43.40 45.59 48.75 47.39 46.91 47.79 48.97 48.13 45.73 43.30 39.69 40.40 45.04 45.60 47.06 48.71 44.91 47.63 45.26 41.05 31.19 30.41 28.53 28.69 43.14 39.99 39.38 44.14 46.48 46.98 47.07 47.06 48.21 48.89
55.77 55.47 58.66 64.00 64.24 63.36 58.57 47.63 32.36 45.20 43.96 48.07 47.36 47.71 45.23 47.33 47.07 48.20 45.74 42.04 45.44 45.47 42.33 39.33 35.81 44.28 47.68 44.77 41.82 42.89 41.40 31.02 27.34 24.79 31.46 39.41 35.40 37.45 45.46 47.01 47.64 48.05 47.88 48.77 48.56
55.41 59.55 61.14 62.08 64.31 61.07 52.32 37.72 39.67 43.72 46.99 45.95 46.52 43.99 43.87 47.03 46.38 46.01 42.98 42.02 43.81 44.67 40.50 39.99 39.59 46.23 46.69 46.70 45.69 43.87 36.05 41.81 34.95 32.03 28.73 35.05 39.37 43.64 45.78 45.90 46.89 46.42 47.10 46.99 47.28
56.51 57.08 56.66 62.54 63.56 57.61 47.11 43.12 47.00 48.78 48.60 47.37 42.10 45.27 41.15 43.36 43.73 43.92 43.27 46.19 45.60 46.98 46.22 43.11 37.61 44.26 46.12 47.37 47.41 43.83 44.77 35.41 33.74 25.94 24.35 31.88 36.17 36.59 42.65 43.93 45.90 44.44 44.83 45.76 47.22
56.22 48.63 57.93 62.46 59.51 49.58 40.57 44.65 48.11 50.82 51.30 47.81 45.90 44.32 45.60 43.20 44.62 43.79 43.68 45.97 47.57 47.01 46.20 44.12 41.95 40.11 44.93 42.06 40.90 42.03 40.80 40.57 39.03 32.66 25.47 23.29 30.61 42.13 42.59 44.09 43.62 44.48 45.31 45.54 45.90
54.32 45.24 59.49 59.78 44.12 45.78 44.02 50.85 47.66 49.11 51.44 50.12 49.29 47.85 45.99 45.88 44.62 44.35 43.53 45.38 48.83 48.26 42.75 43.62 39.78 30.33 39.68 44.96 46.17 43.64 41.86 41.34 28.80 31.16 29.80 26.86 29.43 43.55 44.14 45.02 44.81 45.78 46.55 46.21 46.15
50.42 51.87 58.46 58.45 37.57 38.70 49.98 49.53 50.21 48.39 48.76 48.77 47.91 49.08 49.01 45.63 41.16 45.28 45.40 48.85 49.24 46.18 42.95 43.96 37.43 29.40 36.22 41.59 44.23 41.04 43.17 43.71 40.25 31.59 29.05 23.83 29.31 45.45 46.53 46.28 47.19 44.56 45.00 45.23 45.89
52.83 42.57 50.06 51.07 51.56 49.03 48.29 46.65 46.78 50.82 49.75 50.61 48.87 49.40 47.25 45.35 46.91 43.84 44.51 48.48 48.26 46.09 45.82 46.05 41.64 33.67 28.95 35.20 38.89 35.86 40.01 41.17 39.60 28.66 30.38 30.49 36.03 40.20 43.73 43.59 43.81 44.18 44.38 43.90 44.44
53.71 46.85 46.46 37.45 43.70 47.56 48.43 47.99 46.30 45.28 49.76 50.06 47.37 47.92 46.00 40.16 43.36 42.78 45.19 45.60 47.38 45.78 46.35 43.95 35.14 38.11 39.18 40.07 40.68 39.49 39.05 39.52 37.52 36.67 30.35 34.48 37.78 40.70 41.65 42.35 43.14 44.59 44.87 44.48 43.50
52.19 49.39 49.07 46.10 47.01 46.83 44.61 46.09 46.53 47.59 47.58 46.62 45.66 47.92 47.53 41.26 43.62 41.31 44.83 44.08 43.63 45.45 44.12 44.73 34.16 31.58 31.40 40.52 39.61 36.17 38.39 38.43 38.80 39.36 38.61 38.38 38.03 43.73 43.83 43.87 43.45 43.50 43.12 41.77 41.74
54.43 54.06 52.19 46.73 45.67 43.81 43.00 47.31 48.22 48.12 47.89 50.27 47.97 45.07 41.47 45.72 47.06 47.02 47.03 46.61 46.93 44.29 40.79 37.07 31.36 30.27 29.12 36.01 33.84 28.10 34.41 39.82 40.22 40.85 39.33 31.36 39.21 42.43 41.26 41.75 41.20 40.52 41.21 40.65 40.78

GFSSW_sfc_wetblb_006.txt.gz
Wetbulb
56.80 56.78 56.89 57.03 57.72 57.56 56.92 56.04 55.44 55.43 55.24 55.41 55.55 55.88 55.71 55.07 55.14 54.31 50.25 54.47 56.45 60.53 58.03 52.55 53.31 53.19 51.04 47.76 48.42 46.88 39.50 37.58 40.34 43.65 45.34 46.64 45.84 45.56 49.29 51.71 52.75 53.53 56.03 57.35 56.35
57.02 57.01 57.20 57.00 56.57 56.36 55.94 55.75 55.28 56.25 55.22 55.79 56.03 55.29 54.86 54.88 53.65 53.69 58.95 61.21 61.55 61.12 52.55 51.25 49.65 50.91 46.91 45.75 47.58 43.99 39.40 40.35 44.77 46.57 44.02 43.75 44.52 45.45 47.72 51.84 52.52 54.47 57.61 56.71 55.46
57.58 57.03 56.94 56.94 56.51 56.23 55.88 55.46 55.22 55.65 54.83 55.83 54.99 54.69 54.58 54.66 53.60 54.35 61.63 61.92 62.20 60.70 52.70 53.43 52.98 51.38 47.00 45.24 44.87 42.10 40.06 42.83 43.55 46.56 44.92 43.32 43.90 45.26 45.98 46.23 54.05 54.08 54.55 54.90 54.69
56.13 56.07 56.19 56.22 56.28 56.10 55.81 55.14 55.13 55.23 54.44 54.19 54.31 54.45 54.82 53.56 45.23 51.93 61.88 62.88 63.24 57.63 54.40 54.16 51.98 49.37 46.31 45.49 45.56 40.37 42.60 43.75 43.77 44.08 43.35 43.10 43.72 43.70 43.72 46.26 56.58 57.60 57.10 56.32 54.92
54.88 54.76 55.11 55.39 55.87 56.42 55.24 54.77 54.71 54.39 53.96 53.29 53.85 54.17 52.76 52.31 51.36 56.22 62.50 63.21 61.55 57.43 54.17 52.61 51.62 49.32 44.82 44.69 44.28 41.70 42.28 43.79 44.46 45.99 43.69 44.49 42.73 43.42 43.08 47.38 57.79 58.11 57.76 56.69 56.51
54.42 54.42 54.83 55.03 56.25 56.38 54.85 54.65 54.09 53.93 53.14 52.74 53.24 54.12 50.99 47.03 56.43 55.61 58.24 58.80 55.90 54.45 54.60 53.87 52.05 50.89 47.53 45.73 43.13 44.17 43.42 42.96 43.52 44.39 44.87 43.75 43.10 44.76 44.02 47.24 56.20 57.20 56.33 57.04 57.56
54.66 54.70 54.76 55.01 56.23 55.99 54.69 54.30 53.92 53.43 52.47 52.83 52.95 53.04 52.92 52.59 56.48 55.10 54.13 53.77 54.74 55.16 53.12 53.02 54.04 49.31 48.33 45.55 46.12 44.51 40.85 41.70 41.17 43.53 43.17 45.55 41.48 41.57 45.98 47.45 54.85 56.33 56.73 56.94 57.32
54.60 55.43 55.73 55.65 55.01 54.36 54.09 53.90 53.45 52.62 52.23 52.66 52.76 52.07 50.00 58.06 55.69 53.29 51.83 52.46 54.02 54.61 53.72 53.70 53.38 50.89 47.21 46.46 45.52 42.64 41.23 37.19 42.63 44.69 45.41 43.41 38.10 43.81 44.43 44.94 46.26 51.40 54.84 55.15 55.74
55.32 55.85 55.40 55.02 54.70 53.94 53.67 53.01 52.56 52.31 52.70 52.62 50.36 51.97 47.96 58.85 51.87 53.43 52.42 51.77 53.41 54.24 53.42 53.37 51.92 46.76 45.99 40.23 38.03 39.62 34.76 37.59 40.82 45.29 44.14 41.98 39.23 43.58 45.18 45.12 43.87 43.55 46.22 49.68 51.50
55.38 55.43 55.06 54.96 54.46 53.81 52.86 52.65 54.08 53.36 52.83 54.33 54.71 49.57 54.22 53.01 52.00 51.72 51.94 52.88 52.54 52.09 51.01 49.14 46.07 42.57 41.57 38.94 33.37 35.96 37.45 35.89 39.01 41.81 43.29 40.39 39.37 43.39 44.55 47.27 47.87 48.74 50.20 51.82 51.62
55.36 55.32 55.10 54.86 54.46 53.96 52.41 49.74 48.05 47.35 51.70 47.27 49.55 51.03 51.49 52.17 51.49 50.11 52.14 51.50 51.65 49.41 43.88 47.00 42.32 38.17 40.24 42.04 42.95 43.06 40.10 38.54 39.14 43.61 42.18 41.29 41.21 42.49 46.17 48.99 48.38 49.17 50.85 50.90 50.19
55.12 54.96 55.06 54.69 54.38 53.88 50.67 53.20 53.22 52.86 46.25 53.52 54.09 52.63 53.20 50.72 48.52 49.74 52.72 48.61 48.28 43.51 45.63 42.78 39.07 43.83 46.00 46.15 44.54 43.51 41.41 39.92 42.49 45.23 42.01 40.96 40.17 43.53 47.03 46.99 48.49 49.17 49.69 49.83 50.00
54.33 54.65 54.59 54.33 53.98 51.62 50.29 53.34 58.39 57.32 46.06 48.89 51.50 50.37 51.24 52.42 47.98 47.60 50.62 49.13 46.06 43.74 43.33 40.58 43.26 47.04 46.36 43.94 43.24 42.08 40.54 39.67 40.28 41.92 41.91 42.56 39.11 42.54 45.41 46.67 47.40 47.32 49.06 50.05 50.04
53.96 54.02 53.58 53.64 51.03 53.33 52.02 56.24 56.98 55.40 37.70 43.16 47.33 49.32 51.82 51.66 47.49 50.47 51.04 49.12 47.32 43.43 44.06 43.10 46.93 46.36 44.44 43.23 42.86 39.67 44.52 43.53 41.61 38.09 33.39 38.93 30.58 38.72 42.45 44.04 46.14 47.39 47.65 49.12 49.51
53.72 54.00 53.11 53.40 51.41 54.64 57.06 60.26 58.71 53.88 25.08 44.79 47.62 53.55 50.73 48.86 48.96 48.48 51.76 50.65 45.26 44.13 44.82 42.21 43.79 43.79 42.73 43.09 44.63 42.61 45.19 42.77 41.71 37.53 35.98 37.16 33.92 37.28 43.03 41.11 42.85 43.82 46.51 47.01 48.32
53.74 54.02 53.02 52.44 51.99 55.62 60.44 58.53 51.58 38.09 28.41 43.69 47.85 46.86 45.59 47.86 47.95 48.30 48.93 51.56 50.16 46.01 45.05 43.96 46.58 44.62 43.57 46.13 45.67 45.90 43.96 42.96 41.22 38.11 29.77 37.93 36.13 36.17 38.54 41.71 43.99 44.82 45.65 46.91 46.77
53.99 54.39 52.85 58.69 55.85 59.78 59.15 49.44 37.51 29.68 46.09 41.66 43.55 46.89 45.50 44.60 46.50 47.08 45.10 43.28 40.94 37.91 38.48 43.27 43.51 45.55 46.82 43.58 45.57 43.39 39.40 29.94 29.33 27.10 27.63 40.55 36.72 37.27 43.49 45.23 46.06 45.27 45.23 46.02 46.46
54.35 53.28 53.86 58.45 62.19 59.73 53.24 44.20 31.09 42.29 42.21 45.71 45.45 45.67 43.19 45.60 44.74 45.64 43.56 40.05 43.61 43.35 39.50 37.01 34.22 42.30 45.81 42.79 40.02 41.09 39.19 29.96 26.66 23.96 29.56 38.41 32.89 35.98 44.65 47.35 48.00 48.19 46.91 47.16 47.12
54.35 54.37 58.64 59.23 61.48 56.29 48.68 34.63 38.00 42.38 45.19 44.51 45.07 42.14 41.96 44.87 44.74 43.37 40.65 39.98 42.10 42.39 38.79 37.36 37.69 44.24 44.28 44.64 44.39 41.57 34.42 40.36 32.59 29.40 27.40 32.74 37.07 41.33 44.77 44.89 46.57 46.76 48.12 45.22 44.91
53.99 53.42 52.71 59.28 58.53 52.49 44.22 39.96 45.19 47.36 47.36 45.79 40.42 43.33 39.24 41.87 42.08 41.86 41.27 44.16 43.79 44.65 44.33 41.49 35.60 42.41 44.17 46.59 45.67 41.02 42.91 34.75 31.43 24.78 22.89 29.78 33.28 34.79 39.98 41.66 42.85 42.29 42.52 43.95 44.77
53.90 45.83 51.40 60.16 52.52 46.12 37.98 41.90 47.03 48.66 49.81 45.28 43.71 42.15 43.31 41.26 42.59 41.31 41.56 44.02 45.84 45.52 44.23 42.89 38.74 38.24 43.52 40.29 38.72 40.12 38.34 38.12 36.44 30.08 24.47 21.80 28.76 39.76 41.57 42.26 41.42 42.03 43.21 43.46 43.76
50.90 42.75 55.68 51.16 39.73 42.09 41.49 47.93 46.96 47.10 49.61 48.40 47.71 46.53 43.60 44.11 43.14 41.97 41.68 43.68 47.22 46.29 40.35 42.25 36.86 28.77 37.61 42.97 44.22 41.57 39.75 37.98 27.47 30.71 27.37 25.00 28.53 41.57 41.64 43.08 44.28 44.09 44.03 44.55 44.23
47.99 49.11 56.10 49.51 32.56 31.72 46.43 47.90 47.90 46.55 46.55 46.88 46.11 47.31 47.12 43.59 39.70 43.51 43.53 46.77 46.08 44.32 41.55 41.63 34.49 27.86 34.33 39.78 41.97 39.73 40.88 41.58 36.47 29.64 28.51 22.46 26.65 43.07 43.13 42.69 43.50 41.95 43.07 43.24 43.14
49.59 40.38 46.29 48.64 45.74 44.61 43.99 44.33 44.87 48.72 47.96 48.34 46.96 47.98 45.32 43.41 44.94 41.89 42.83 46.31 45.55 44.03 44.79 44.57 39.04 32.68 29.18 33.51 36.37 33.24 37.54 39.81 36.48 26.74 28.93 28.69 33.58 38.55 40.13 40.77 41.71 41.88 41.83 41.16 41.31
50.83 42.78 44.10 34.73 39.20 45.36 46.48 45.83 44.39 43.42 47.69 47.99 45.36 46.08 43.77 38.67 41.48 40.77 43.53 43.80 45.21 44.77 44.32 41.71 33.61 35.60 36.41 38.10 37.94 36.70 36.14 36.13 35.43 35.16 30.11 33.35 34.68 39.09 40.02 40.50 41.71 42.42 41.87 41.45 40.69
49.31 46.12 45.64 40.24 44.69 44.72 43.28 44.69 44.71 45.68 45.91 44.65 43.35 45.95 44.99 39.60 41.96 40.13 42.58 41.71 41.13 43.31 42.80 41.29 31.71 30.32 30.55 38.50 37.81 33.64 36.25 36.42 36.44 37.32 36.18 36.97 36.15 41.12 41.30 41.72 41.05 40.62 40.09 39.87 40.71
53.94 51.53 47.76 42.23 41.16 41.08 40.40 45.09 45.96 47.00 45.89 47.91 46.11 43.13 40.63 44.16 44.58 44.50 45.15 45.68 44.94 42.45 37.67 35.08 29.80 27.62 27.16 32.79 31.74 26.56 33.65 37.59 37.70 38.81 37.39 31.16 37.45 40.35 39.45 40.10 38.73 38.46 39.25 39.21 39.15

GFSSW_sfc_wetblb_009.txt.gz
Wetbulb
57.02 56.70 56.72 56.64 56.41 56.37 56.76 56.56 55.34 55.48 54.97 55.04 54.88 55.33 55.29 54.78 54.38 53.34 49.73 52.95 55.04 59.61 57.84 51.04 50.70 51.68 51.79 46.99 46.19 43.64 37.97 35.46 39.58 42.91 47.18 51.87 45.02 47.07 52.01 54.87 53.84 54.09 54.17 60.72 61.96
57.40 57.32 57.30 56.97 56.49 56.13 55.87 55.65 55.29 55.42 55.53 54.78 54.85 54.96 54.56 54.45 51.98 51.65 57.56 60.35 60.74 61.46 51.26 50.25 48.69 50.33 46.34 45.21 44.73 42.27 36.10 39.21 44.11 46.31 46.39 45.38 48.13 50.22 51.56 51.85 52.62 52.54 54.70 59.63 59.98
56.90 56.85 56.81 56.83 56.47 56.10 55.80 55.77 55.18 55.34 55.36 54.59 54.58 54.32 53.94 54.08 50.65 51.87 60.89 61.00 62.17 60.64 52.15 52.33 51.11 49.40 44.96 43.76 42.60 41.44 40.04 41.74 42.58 48.14 47.24 44.98 43.56 45.58 50.34 47.52 52.82 51.51 52.74 56.32 58.29
55.96 55.68 55.66 55.79 55.94 55.86 55.66 54.99 55.33 55.14 54.77 54.46 53.95 53.80 54.16 52.05 42.34 51.76 62.02 62.96 62.99 55.61 52.79 51.63 49.26 46.35 45.05 43.74 44.87 39.42 43.01 42.82 43.30 45.22 43.66 42.72 43.53 45.71 43.90 51.51 55.40 55.58 54.43 54.74 55.36
54.94 54.87 54.81 55.12 55.17 55.24 55.42 54.86 54.86 54.38 54.33 53.52 53.21 53.48 51.54 50.45 50.02 55.40 63.45 63.31 57.21 54.67 51.37 50.61 49.18 48.00 44.79 44.04 43.77 40.95 40.49 41.79 43.56 44.01 42.37 43.65 41.77 43.40 42.23 49.32 56.59 56.02 54.48 54.35 54.82
54.55 54.12 54.35 54.33 54.69 55.33 55.59 54.59 54.16 53.72 53.32 52.67 52.78 53.32 49.24 44.16 53.98 54.84 58.05 56.71 56.26 53.19 52.02 51.57 49.93 50.80 46.88 44.81 41.90 43.38 41.43 40.66 42.31 43.37 43.01 42.25 41.54 41.59 42.38 53.21 54.37 54.54 53.48 53.75 54.06
54.20 53.99 54.10 54.47 54.62 55.56 55.22 54.24 53.67 53.26 52.55 52.23 52.53 52.57 52.30 49.28 54.10 54.28 55.70 55.00 55.03 53.24 50.77 53.73 53.81 50.00 46.71 43.33 45.37 43.25 39.68 40.25 40.00 41.26 41.19 43.55 39.41 39.69 43.41 53.86 53.72 54.20 54.60 54.40 54.74
54.18 53.93 54.10 54.24 54.75 54.57 54.02 53.52 53.40 53.04 52.21 52.36 52.86 51.80 47.96 55.91 55.37 54.90 50.30 51.01 53.02 55.04 54.35 52.50 53.08 50.26 46.53 45.40 44.06 40.74 39.01 36.03 40.93 42.63 42.46 41.24 36.59 41.71 44.26 52.50 51.98 52.63 52.19 53.38 52.87
53.80 54.25 55.21 55.02 54.75 53.68 53.17 52.88 52.57 51.99 52.01 52.34 49.34 50.66 47.06 56.99 51.90 53.10 51.47 50.58 52.03 52.56 52.13 52.63 51.01 45.16 44.69 39.71 36.76 37.69 33.42 35.95 39.19 43.45 41.78 40.36 37.77 42.25 41.43 48.36 44.64 47.44 48.73 49.98 50.66
54.93 55.33 55.11 54.97 54.50 53.36 52.41 52.28 52.71 52.51 52.26 53.44 53.49 47.45 51.25 48.89 51.38 50.65 51.44 51.62 51.04 51.49 49.87 48.84 45.34 41.90 40.36 37.11 31.71 33.92 35.51 33.62 37.24 40.06 40.77 38.38 38.17 41.88 45.18 46.14 46.08 46.63 47.18 48.05 49.31
55.19 55.35 55.11 54.67 54.33 53.28 51.37 49.79 46.22 46.00 49.80 45.18 47.14 49.74 51.34 54.32 50.47 49.17 50.43 51.30 50.49 47.88 42.83 44.74 41.39 36.99 38.32 39.95 41.09 39.91 37.54 36.84 36.84 41.68 40.43 38.80 39.29 42.68 45.38 47.51 47.17 46.78 46.93 47.62 48.34
54.83 54.87 54.89 54.91 54.29 53.82 49.58 50.83 51.44 53.02 47.11 51.85 52.40 51.84 53.36 51.25 46.45 48.24 51.55 47.16 46.30 41.60 43.72 41.76 38.05 41.82 44.86 44.39 42.68 41.60 38.70 37.25 40.48 42.73 41.64 41.11 39.26 42.62 44.89 45.49 47.42 46.89 46.69 47.05 47.88
54.30 54.46 54.66 54.23 53.95 51.03 48.68 50.80 55.76 54.65 45.91 47.10 51.37 50.22 49.76 50.48 45.70 45.59 49.28 47.40 44.41 42.17 41.83 39.11 41.28 45.65 44.51 42.47 42.15 40.78 38.05 37.79 38.91 40.73 41.45 41.33 38.32 39.71 43.93 45.31 47.18 47.20 47.55 47.64 47.84
53.89 54.03 53.52 53.39 49.74 50.72 50.00 54.00 55.77 52.19 36.75 41.68 45.53 47.55 50.15 49.89 45.80 49.00 49.76 47.69 45.66 41.48 42.42 42.16 45.85 44.37 42.59 41.46 41.29 38.08 42.77 41.43 40.08 37.41 33.62 38.05 29.20 37.13 40.50 42.47 44.88 45.99 46.60 47.57 48.10
53.73 53.79 53.11 53.40 50.06 53.36 55.62 59.07 56.58 51.15 23.98 42.73 45.83 51.87 48.78 47.71 46.57 46.58 50.84 49.10 43.25 43.18 43.14 40.92 42.03 42.27 41.34 41.06 42.96 41.09 43.41 40.84 39.92 35.46 34.43 35.28 31.95 35.02 40.77 39.77 42.18 43.86 46.89 48.14 48.33
53.81 53.74 52.03 52.09 49.92 53.37 58.01 53.82 50.08 36.67 26.91 41.94 46.07 44.75 44.35 46.18 45.83 46.81 48.51 50.28 48.08 44.19 43.78 42.59 44.60 43.19 41.99 44.38 43.79 44.32 42.51 41.04 39.06 36.22 28.45 35.47 33.68 33.68 36.68 39.95 41.82 44.31 46.54 48.02 46.67
53.61 53.67 52.64 55.96 54.52 58.50 55.74 48.01 35.01 29.60 43.68 40.17 41.72 44.55 43.17 42.67 44.73 44.64 43.18 41.74 40.18 36.69 36.69 41.29 41.54 43.45 44.77 41.88 43.65 42.01 37.63 28.91 28.44 26.18 26.74 37.54 34.83 35.31 41.72 42.90 43.87 44.44 44.48 45.43 45.82
53.58 52.80 52.80 53.92 59.14 56.99 50.48 41.52 30.62 40.28 40.80 43.65 43.80 43.41 41.52 43.69 43.03 43.43 41.52 38.52 41.92 41.21 37.64 35.40 32.86 40.68 43.94 41.23 38.49 38.96 37.85 30.07 26.05 23.33 28.58 36.56 31.16 35.39 42.73 45.31 46.13 45.70 45.15 44.82 46.77
53.05 51.59 55.78 58.06 59.42 53.38 46.64 32.74 36.22 40.39 43.11 42.83 43.51 40.26 40.16 43.13 42.62 41.63 38.96 38.52 40.73 41.18 37.91 35.58 36.18 42.74 42.67 43.09 42.75 39.32 33.50 38.39 31.07 28.22 27.10 30.89 34.90 40.25 42.39 43.51 44.35 44.95 44.79 43.09 43.27
53.68 51.40 51.23 57.43 53.97 50.71 42.64 38.71 43.59 46.85 45.18 44.05 39.20 41.43 38.08 40.16 40.52 39.92 39.57 42.42 41.94 42.90 42.84 40.64 33.96 40.63 42.79 44.36 43.41 40.34 41.98 33.19 30.22 23.66 21.91 28.48 30.74 31.76 37.91 40.28 41.56 40.96 41.49 42.18 42.79
50.19 43.84 48.13 55.57 48.97 43.44 35.85 39.96 46.51 47.02 47.78 43.32 41.40 40.34 41.13 39.50 40.75 39.35 39.76 42.44 44.21 44.50 43.37 41.34 36.69 36.60 41.36 38.90 36.94 38.96 36.42 35.50 34.53 28.79 23.30 20.95 28.91 37.59 39.48 40.31 40.09 40.29 41.75 42.03 41.84
47.19 38.59 52.56 48.18 39.65 39.69 39.56 45.43 47.12 45.15 48.13 47.06 46.02 44.09 41.49 42.40 41.11 40.41 40.20 41.97 44.92 44.47 39.03 40.79 35.59 28.58 35.69 41.57 42.53 39.65 37.58 35.53 26.02 28.66 26.01 23.13 27.70 39.57 40.63 41.46 42.15 41.36 41.77 41.97 42.24
45.63 48.79 54.77 47.05 32.69 30.04 42.00 47.01 46.04 44.64 45.05 45.18 44.27 45.45 45.13 42.15 38.69 41.52 41.80 44.87 43.65 42.64 40.10 39.98 33.28 27.90 33.64 38.42 40.08 37.50 39.43 37.84 33.87 29.15 28.84 20.55 25.69 41.02 41.27 41.17 41.48 40.91 41.72 41.50 41.24
46.01 40.66 44.63 46.34 41.55 39.30 40.87 42.80 42.97 47.00 46.20 46.38 45.02 45.99 43.61 42.13 43.01 40.21 41.18 44.41 43.32 42.75 44.59 43.23 37.00 31.66 28.76 32.24 34.66 31.87 35.95 37.24 34.48 25.69 27.58 27.37 30.79 37.12 38.14 38.92 39.55 40.18 40.17 39.57 39.86
47.18 40.68 43.63 35.58 39.23 44.68 44.70 43.76 42.51 41.56 46.00 46.05 43.89 44.55 42.24 37.73 39.36 39.21 41.92 41.86 43.15 44.16 43.09 39.91 32.14 34.03 34.60 36.25 36.02 34.82 34.74 35.98 34.90 33.73 29.84 32.31 32.78 36.85 38.72 39.14 39.76 40.22 39.72 39.51 39.23
47.98 42.95 42.93 37.99 42.39 43.41 41.79 43.61 43.18 43.78 44.28 42.63 42.51 43.95 42.96 38.75 40.88 39.18 40.87 39.44 38.65 42.79 40.85 38.18 31.37 29.76 30.49 35.95 35.56 32.28 34.58 34.34 34.42 34.72 34.91 34.68 34.53 39.55 40.09 40.51 39.87 39.78 39.07 38.39 39.12
49.66 49.99 45.23 39.40 39.27 40.17 39.37 44.11 44.73 45.06 45.27 45.76 45.11 42.02 38.75 42.07 43.34 43.54 43.44 43.29 42.73 41.14 36.02 32.48 29.16 26.03 24.14 30.88 30.17 24.88 31.81 36.05 35.69 37.03 35.66 31.34 36.47 38.97 38.61 39.56 38.45 38.09 38.51 38.22 39.32

GFSSW_sfc_wetblb_012.txt.gz
Wetbulb
57.18 57.26 57.12 57.00 57.08 56.94 56.61 55.85 55.91 55.10 55.05 54.79 54.93 54.90 55.09 54.52 54.11 52.57 48.16 52.61 53.28 59.58 56.81 49.81 49.15 49.28 48.39 45.42 45.00 41.40 36.88 34.18 40.51 44.92 45.80 52.21 46.07 48.70 53.80 54.17 54.11 54.29 56.39 60.76 65.34
57.20 57.18 57.18 57.68 57.14 56.98 56.63 55.57 55.79 55.04 54.85 54.94 54.38 54.65 54.48 53.97 50.74 49.95 56.37 60.02 59.98 60.15 49.34 48.51 46.86 48.76 44.75 44.26 44.39 40.52 36.24 37.43 42.61 46.83 48.50 51.72 48.14 50.02 52.63 51.98 50.89 52.26 60.04 63.53 64.52
57.15 57.13 56.61 57.02 56.99 56.70 56.57 55.95 55.55 54.97 54.62 54.64 54.38 54.23 53.64 53.56 49.02 49.81 60.13 60.70 61.20 59.18 50.72 50.60 49.76 47.90 43.57 42.54 41.85 38.75 38.47 40.62 42.09 49.52 49.76 45.27 48.38 47.86 51.63 47.86 51.03 53.62 57.36 60.24 61.84
56.06 55.77 56.07 55.66 55.78 56.09 55.81 55.48 55.05 54.83 54.54 54.45 53.77 53.36 53.64 51.44 40.67 49.64 62.88 61.68 62.27 55.47 51.36 49.39 47.63 44.82 43.64 42.25 44.06 39.10 42.86 42.99 42.95 47.52 44.52 45.30 44.78 49.30 47.30 50.02 55.07 57.98 59.24 58.75 59.34
55.18 54.92 54.88 54.82 55.20 55.07 55.43 55.23 54.58 54.47 54.38 53.58 53.49 53.21 50.55 48.92 48.77 56.41 63.37 62.81 57.73 52.24 50.18 49.02 46.48 46.21 44.45 44.44 43.79 41.94 42.25 42.38 42.92 43.23 42.27 43.39 42.70 47.86 43.26 51.09 54.61 57.33 58.06 57.37 58.00
54.97 54.41 54.64 54.33 54.65 54.76 54.54 54.91 54.19 53.79 53.41 52.80 52.52 52.79 47.71 43.14 52.17 57.23 58.40 55.28 53.70 51.85 50.30 49.63 48.90 49.08 46.39 43.37 42.80 43.89 40.41 41.49 42.60 40.81 39.92 41.17 40.60 40.91 41.88 52.24 52.31 54.59 55.23 55.47 56.36
54.57 54.21 53.97 54.21 54.62 54.18 55.17 54.63 53.70 53.31 52.75 52.23 52.21 51.51 50.12 48.10 53.38 54.44 56.38 53.76 53.84 53.00 50.24 51.28 50.88 47.87 46.13 43.65 44.97 41.85 39.15 39.71 40.45 40.02 40.21 42.74 38.48 37.44 44.75 52.37 51.32 51.91 52.71 51.11 52.13
54.93 53.78 53.70 54.02 53.85 53.89 54.22 53.67 53.12 53.02 52.48 52.21 52.40 50.90 47.32 54.61 54.97 54.96 50.94 49.27 54.17 53.57 51.78 52.61 52.63 49.54 47.16 45.52 42.42 39.82 38.05 35.07 38.91 40.87 41.09 39.49 34.20 40.15 47.50 51.33 49.22 50.16 51.45 51.39 51.20
54.33 53.57 53.41 53.90 54.25 53.82 53.31 52.73 52.77 52.16 52.04 52.14 49.81 49.18 45.99 55.17 52.09 52.15 50.86 49.34 50.90 52.04 52.47 52.74 51.06 45.33 43.94 39.78 36.48 37.19 32.11 34.54 37.48 41.01 40.70 39.21 35.27 41.14 42.86 49.38 46.61 47.12 47.58 49.63 49.91
54.12 53.92 54.62 54.61 54.52 53.20 52.33 52.48 51.88 52.20 51.80 52.76 52.31 45.94 49.38 47.29 51.86 50.10 50.73 51.21 50.39 49.91 49.69 47.95 44.90 41.61 40.06 37.56 32.01 32.83 33.58 32.62 34.67 38.39 39.76 37.58 38.69 42.73 44.58 45.58 45.23 44.77 46.23 47.70 47.96
55.16 55.19 55.02 54.64 54.35 52.82 51.05 49.55 45.41 44.82 48.81 43.80 45.10 45.89 49.12 51.65 50.94 47.33 49.58 50.14 49.17 47.79 42.80 44.29 40.66 36.56 37.55 39.22 38.87 38.55 36.33 34.44 34.46 39.19 39.98 38.71 39.04 41.40 44.77 44.55 43.86 44.41 45.36 45.87 46.88
54.86 54.68 54.80 54.70 54.15 52.75 50.75 48.04 49.48 51.59 46.23 50.65 50.60 50.25 52.21 51.42 45.68 46.56 50.08 45.99 45.21 41.72 43.08 41.21 37.65 40.95 43.35 42.66 41.22 39.79 36.84 35.40 37.89 41.30 40.80 39.47 37.66 40.44 42.60 43.53 44.12 44.62 44.89 45.71 46.09
54.24 54.41 54.60 54.20 53.87 52.49 48.64 49.15 55.09 52.89 45.26 46.93 50.25 49.53 49.67 50.55 45.18 44.86 48.17 46.31 43.00 41.14 40.68 38.42 39.93 44.07 42.68 41.13 40.90 38.98 37.32 35.90 36.69 41.04 40.53 39.42 37.19 38.66 43.04 45.39 46.10 45.86 45.31 46.22 46.54
53.77 53.85 53.62 53.34 50.09 49.13 47.69 52.13 55.55 51.30 36.22 41.12 44.02 46.66 48.70 48.07 44.52 47.82 48.30 46.70 44.05 40.06 41.28 41.17 43.89 42.58 40.94 40.42 39.98 36.19 41.02 39.41 38.39 36.41 32.94 37.26 30.09 35.70 39.60 41.80 43.94 44.56 44.38 45.09 45.84
53.43 53.57 53.12 52.31 48.64 52.20 54.31 58.31 55.20 48.89 23.71 41.20 44.28 50.29 47.08 46.25 45.17 45.17 49.73 47.36 41.59 41.63 41.50 39.28 40.39 40.83 40.09 39.43 41.84 39.42 42.44 39.81 37.75 34.76 33.30 33.96 31.83 33.36 40.39 39.76 42.00 43.41 44.92 44.92 44.84
53.38 53.61 52.80 51.11 48.89 52.08 55.78 50.99 48.17 36.03 26.21 39.81 44.35 42.86 43.44 44.88 44.30 45.79 47.35 49.11 46.17 43.21 42.81 40.77 43.06 42.03 40.40 42.87 42.14 42.87 41.10 39.34 37.33 34.78 27.64 33.09 32.20 31.73 36.02 39.80 41.91 43.38 45.33 45.49 45.02
53.26 53.43 52.16 54.09 53.32 57.52 52.96 45.88 34.65 28.76 41.79 38.23 39.95 42.37 42.02 41.66 43.20 43.14 41.88 40.50 38.72 36.04 35.74 40.16 40.28 42.05 43.05 40.34 41.95 40.97 36.38 28.32 27.74 25.13 26.10 35.23 33.05 34.08 40.01 41.84 44.00 44.20 44.39 44.66 44.25
53.13 52.59 52.15 53.31 54.76 54.77 47.31 40.00 29.90 38.62 38.90 41.71 41.74 41.51 40.19 41.99 41.33 41.37 39.53 37.68 40.77 39.38 36.04 34.41 31.56 39.12 42.42 39.66 37.65 37.07 36.63 29.18 24.70 22.79 27.94 34.81 30.35 34.84 41.04 43.23 45.28 44.94 44.31 44.17 44.78
52.58 50.86 52.08 56.79 54.25 51.33 43.26 29.17 33.74 38.19 41.53 41.20 41.63 38.86 38.22 41.18 41.15 40.10 37.41 37.11 38.77 39.39 36.90 34.24 34.60 40.77 41.21 41.68 41.54 37.37 32.25 37.10 30.43 27.66 26.45 29.68 34.24 38.70 41.11 41.60 42.82 43.37 43.51 42.99 43.04
51.45 51.61 51.52 55.76 52.98 48.65 39.34 36.22 42.00 45.45 43.63 42.40 37.22 39.50 36.12 38.54 38.66 38.17 37.68 40.55 40.21 41.75 41.39 39.34 33.02 38.92 41.01 42.74 42.30 38.43 40.44 31.76 29.32 22.86 21.35 26.82 29.46 31.01 36.96 39.84 41.71 41.38 41.24 41.41 41.88
47.70 44.18 47.72 53.27 47.55 42.42 33.05 37.65 44.64 48.11 46.11 42.00 40.21 38.95 39.16 38.43 39.00 37.67 37.94 41.03 42.60 42.80 42.69 39.09 35.94 35.31 39.31 37.56 35.57 37.63 35.14 33.78 32.90 27.75 21.94 19.37 27.17 36.18 38.76 41.82 39.63 39.76 40.93 41.25 41.12
43.82 38.61 50.25 47.02 39.31 37.74 37.69 44.02 46.38 44.02 45.97 45.28 44.03 42.04 39.97 40.59 39.34 38.62 38.72 40.23 42.69 43.06 38.31 39.26 35.03 28.53 34.32 39.71 41.04 38.16 35.76 33.77 25.25 26.52 25.03 22.08 26.08 37.18 38.82 40.32 40.72 40.23 41.00 40.43 40.86
44.09 48.07 53.22 46.63 31.78 29.46 39.49 44.40 45.80 43.18 43.64 43.52 42.72 43.71 43.83 40.61 37.46 39.87 40.38 43.08 41.84 40.89 39.12 39.20 32.79 28.08 32.24 36.13 38.07 35.70 37.73 35.21 32.09 29.06 27.77 21.63 26.14 39.46 39.59 39.55 40.14 39.10 39.70 40.01 39.93
46.31 41.34 45.01 43.30 39.83 38.48 38.94 40.45 41.70 45.11 44.32 44.78 43.84 44.49 42.06 40.31 41.65 39.12 39.61 42.64 42.21 41.78 44.27 42.14 34.99 31.35 27.86 30.76 33.25 32.09 35.61 35.13 33.23 24.84 26.73 26.54 29.00 36.14 37.32 38.09 38.63 39.23 39.06 38.68 38.71
43.83 41.12 43.98 35.69 38.32 39.17 40.85 41.94 40.73 40.57 44.37 44.63 42.48 42.65 41.19 36.96 37.74 37.36 40.36 39.99 42.01 43.38 41.82 37.94 31.92 32.75 33.16 34.42 34.31 33.09 33.29 34.87 33.08 32.09 29.25 30.46 30.76 34.70 38.13 38.17 38.74 39.50 38.51 38.30 38.31
46.44 41.22 39.50 38.51 43.22 43.09 39.91 41.86 41.76 41.95 42.56 41.07 41.22 42.12 41.40 37.70 39.53 38.12 39.62 37.70 36.65 41.49 38.33 36.12 29.22 29.35 30.56 34.19 33.39 31.59 33.67 33.47 33.30 33.51 33.27 32.76 33.03 37.97 38.28 39.07 38.61 38.84 38.38 37.68 37.92
48.14 47.48 43.05 36.95 38.11 39.68 38.53 43.21 43.59 43.87 43.40 44.15 43.41 40.75 38.01 41.08 42.28 41.72 41.46 40.79 40.87 39.58 34.02 30.39 28.32 25.83 23.06 28.79 27.53 24.44 31.13 32.92 32.92 33.99 34.08 30.22 34.94 37.82 37.29 38.71 38.76 38.05 38.20 37.97 38.07

GFSSW_sfc_wetblb_015.txt.gz
Wetbulb
56.72 56.96 57.25 56.89 57.24 57.04 57.09 56.28 55.56 55.29 55.43 55.13 54.87 54.55 54.40 54.24 53.77 52.64 48.58 54.15 55.37 60.09 57.59 51.95 52.03 52.58 52.72 51.06 49.89 46.79 43.85 43.98 46.73 48.04 48.53 53.09 50.81 53.60 57.10 56.27 56.08 56.11 60.59 63.24 66.29
56.76 57.08 57.13 56.97 56.48 57.18 56.71 56.33 56.04 55.95 55.60 54.69 54.52 54.09 54.12 53.79 50.73 49.03 56.22 59.10 59.69 60.81 52.11 50.64 49.11 51.73 49.92 49.69 49.39 46.95 43.57 43.15 48.32 52.36 51.12 53.04 52.55 53.13 54.98 54.73 53.28 59.06 63.41 65.45 65.42
56.56 56.95 56.78 56.53 56.67 56.35 56.16 56.35 55.87 55.93 55.36 54.48 54.31 53.91 53.53 53.39 48.91 51.17 60.47 60.01 60.59 59.55 52.66 53.06 51.84 51.38 48.39 48.51 48.10 45.72 45.03 45.23 45.73 53.01 54.93 52.91 50.28 53.44 54.73 53.04 54.78 57.91 59.91 62.23 63.45
56.06 55.95 55.87 55.58 55.39 55.90 55.03 55.15 55.62 55.54 54.69 54.21 53.97 53.60 53.40 51.18 44.39 53.35 63.42 61.50 61.42 55.28 53.00 51.87 50.54 48.34 47.40 46.52 48.11 44.33 45.72 44.63 46.30 52.09 52.82 50.00 50.55 53.39 56.07 54.65 57.42 61.84 63.22 62.51 61.83
55.80 55.23 55.37 55.05 55.03 54.94 54.50 55.15 54.87 54.68 54.18 53.56 53.43 53.01 51.30 49.34 50.26 58.70 62.74 62.31 59.14 53.14 52.05 50.67 48.94 48.75 46.98 47.70 46.94 44.95 46.02 44.88 45.12 48.34 49.12 48.02 49.35 53.09 52.09 55.42 60.00 62.25 62.95 63.09 63.03
55.34 54.76 54.92 54.46 54.67 54.56 54.75 54.23 54.73 54.30 53.94 52.96 52.38 52.51 48.39 44.75 54.41 60.33 59.43 57.31 55.16 52.81 51.58 51.40 50.00 50.48 48.68 46.89 46.68 47.35 44.52 44.25 44.53 44.67 44.47 46.40 45.16 49.31 49.28 55.81 59.68 61.04 61.48 62.28 61.81
54.99 54.59 54.58 54.20 54.20 54.00 54.20 54.09 54.09 53.80 52.71 52.19 51.81 51.45 49.62 49.47 54.78 59.12 57.01 55.87 54.76 54.03 51.22 52.29 52.88 51.10 50.13 46.56 46.92 44.37 43.19 43.65 44.39 44.84 44.23 46.67 44.09 42.33 50.04 55.03 57.02 59.30 58.39 58.78 58.88
54.86 54.71 53.97 53.43 53.84 53.48 53.73 53.85 53.61 53.26 52.15 51.58 52.25 50.63 48.22 55.68 56.78 54.96 54.40 53.47 55.42 55.04 53.84 54.58 53.78 51.25 49.88 48.22 45.51 43.07 43.20 40.58 43.85 45.62 44.92 44.44 40.12 46.15 48.64 53.32 53.43 54.66 55.01 55.70 55.09
54.52 54.23 53.90 53.29 53.20 53.47 53.49 53.18 53.10 52.06 51.64 52.10 49.99 49.55 48.19 55.77 52.90 54.30 53.15 52.07 53.27 53.76 54.44 54.19 53.96 49.98 46.49 43.76 41.82 42.18 39.37 39.81 42.28 45.33 45.07 44.83 41.44 47.08 49.04 52.63 50.80 51.97 53.34 54.09 54.93
53.90 53.82 53.43 53.61 54.13 53.37 52.31 52.31 51.89 51.97 51.47 52.42 52.02 47.75 50.44 49.31 53.64 51.67 53.18 53.68 53.24 51.30 50.42 50.22 47.50 45.38 43.77 42.42 37.45 39.07 39.19 40.11 41.21 43.40 45.69 44.90 43.62 46.89 48.65 51.14 50.04 50.94 51.88 52.86 52.58
53.92 53.86 54.80 54.66 54.38 52.59 51.14 49.82 47.44 46.84 49.09 47.00 47.56 46.59 49.15 53.22 52.01 50.85 52.57 53.14 52.89 50.61 46.20 47.01 44.45 42.14 43.66 43.00 41.57 41.38 40.53 39.93 41.00 43.68 44.86 42.77 43.60 45.23 47.80 48.46 49.13 50.07 50.94 51.52 51.78
54.35 54.74 54.56 54.78 54.26 52.34 50.97 48.06 49.49 53.89 48.88 50.68 50.39 50.45 52.21 53.03 48.78 49.29 54.17 50.08 50.55 45.15 46.23 45.66 42.10 44.83 45.92 45.39 43.64 42.79 40.88 39.58 42.48 44.59 44.94 43.71 43.10 46.13 47.25 47.04 48.14 49.60 50.45 51.38 51.93
54.52 54.34 54.50 54.39 53.42 51.02 49.26 50.07 54.48 55.93 48.86 48.46 50.86 50.20 50.97 52.02 48.03 47.72 52.24 50.45 46.38 44.60 43.76 43.28 44.09 46.28 45.17 43.92 43.49 42.22 41.54 40.17 41.15 44.06 45.02 44.43 42.21 44.05 46.88 48.20 48.78 49.34 50.27 51.36 52.55
53.67 53.75 53.51 53.41 49.99 50.39 48.99 53.62 53.76 54.77 39.79 42.74 45.92 48.80 49.93 49.84 47.40 50.30 51.69 50.11 46.82 43.00 44.57 44.89 46.12 44.55 43.83 42.98 43.64 41.02 44.21 42.82 42.12 41.56 38.88 41.93 37.47 41.49 45.10 46.12 47.84 48.83 49.94 50.85 51.52
53.37 53.55 53.31 53.08 50.24 50.23 54.57 59.33 54.62 51.39 29.73 43.36 46.11 51.87 49.41 47.35 47.44 48.41 51.83 49.87 44.75 44.26 45.27 43.26 44.47 43.72 43.08 43.13 45.42 42.60 44.60 43.62 41.25 40.02 39.87 39.92 40.17 39.42 45.08 44.27 46.79 48.33 48.93 49.62 50.17
53.33 53.51 53.24 51.56 50.44 52.62 56.19 54.66 51.16 39.23 29.95 41.82 46.68 45.58 46.08 46.71 46.86 48.26 49.81 50.73 48.74 45.58 45.58 44.04 46.94 45.84 44.93 45.22 45.08 45.62 44.27 42.97 41.59 40.26 35.66 37.95 38.62 38.50 41.66 45.46 46.87 48.35 48.92 49.12 49.31
53.19 53.68 52.80 53.02 51.96 58.86 55.23 48.82 38.41 33.23 43.38 40.50 42.36 45.02 44.39 44.15 44.85 45.32 44.11 43.66 43.16 40.85 40.03 43.12 43.22 45.27 46.43 44.59 45.52 44.77 42.09 35.95 34.94 35.22 33.41 38.20 37.15 40.93 44.19 46.41 48.92 48.12 49.07 49.63 50.10
52.87 52.53 52.18 52.80 54.73 53.49 49.40 42.84 33.61 39.26 40.25 43.71 43.22 43.72 42.24 44.45 43.54 43.03 42.38 41.16 43.83 42.68 39.83 38.08 36.62 42.97 45.21 44.41 42.96 41.70 42.09 36.70 28.99 30.67 34.44 38.28 36.04 41.57 44.47 47.34 49.89 50.43 50.27 49.71 49.71
52.37 51.06 50.78 54.86 54.77 52.81 45.45 33.91 35.21 38.80 43.22 42.20 43.27 41.25 41.99 43.76 42.95 42.62 40.78 40.69 42.23 43.24 40.69 38.86 38.36 44.33 44.36 45.55 45.71 41.14 38.54 41.35 34.49 31.53 32.36 36.02 39.16 43.49 43.83 44.62 47.12 47.44 48.35 48.71 49.22
50.40 49.25 51.53 57.41 55.01 49.38 41.34 36.39 41.63 45.37 45.61 43.84 39.22 42.16 39.44 41.51 41.43 41.18 41.37 43.59 43.19 44.96 45.21 42.39 37.33 42.30 44.14 45.87 44.92 43.40 42.80 37.31 36.22 29.04 26.88 32.40 34.26 38.15 40.83 42.85 45.50 45.86 47.18 48.06 48.20
50.22 47.87 50.82 53.49 49.84 45.09 37.42 38.09 45.40 48.59 47.04 43.80 41.94 41.09 41.51 40.96 41.51 40.64 40.52 43.78 45.28 44.88 45.85 42.46 41.35 39.94 42.77 41.41 41.03 41.41 39.27 37.01 37.31 33.77 29.79 27.98 34.20 41.93 43.55 45.00 44.91 47.30 47.55 47.53 47.00
45.88 41.00 51.81 48.93 41.74 39.71 39.54 43.45 46.19 46.85 47.59 47.23 45.46 44.05 42.31 42.89 41.59 41.05 40.90 43.27 44.86 46.16 42.96 42.65 39.79 36.73 38.80 43.02 44.57 43.04 40.42 39.06 34.38 30.88 30.46 31.16 34.92 41.74 43.39 45.42 46.06 46.03 45.67 46.70 46.65
43.49 48.99 54.23 48.35 36.00 35.29 41.36 45.53 47.37 45.11 45.62 46.10 45.40 45.80 46.10 42.70 39.89 42.17 42.78 45.08 44.67 44.64 42.67 42.82 38.44 34.31 37.17 40.13 42.45 41.19 40.52 37.78 35.97 34.66 31.43 33.68 35.04 42.03 42.69 43.10 45.09 45.68 44.67 44.37 44.99
47.83 43.81 47.52 43.71 41.41 40.52 40.92 42.37 43.62 46.37 46.24 46.32 45.08 46.13 44.35 43.01 43.25 41.10 41.97 44.66 45.44 44.44 43.85 43.87 37.53 36.84 34.16 35.84 38.26 37.20 38.90 38.10 38.11 34.03 32.57 34.57 37.02 39.44 42.21 42.04 42.65 43.27 43.84 44.19 43.82
45.51 43.43 46.90 38.75 38.44 40.22 42.19 43.08 42.81 42.49 46.54 46.53 44.97 44.70 43.27 39.88 40.97 40.02 42.64 42.51 44.13 44.44 43.32 42.00 36.90 36.77 36.29 36.75 37.50 37.25 37.52 37.47 36.83 36.98 35.75 36.44 35.36 39.75 42.76 43.70 43.40 43.44 43.04 42.29 42.18
43.66 42.42 41.28 40.92 42.82 41.18 39.92 42.98 42.86 43.95 44.70 43.88 43.67 44.61 45.03 40.65 42.27 40.02 41.92 40.88 40.48 43.32 40.66 38.88 34.59 34.23 34.66 35.91 35.42 35.41 36.94 37.25 37.58 37.30 36.88 36.61 37.34 42.43 42.68 43.18 42.12 42.16 41.82 41.59 41.78
49.19 47.01 44.57 36.95 40.99 39.60 39.42 42.17 43.88 45.57 45.12 45.51 45.28 43.28 41.61 44.25 44.45 43.07 42.97 42.33 43.13 41.99 37.23 35.46 33.04 32.06 29.45 31.42 31.68 30.64 34.81 36.79 36.91 37.93 39.71 35.70 41.21 41.93 41.24 41.23 42.86 42.35 42.36 41.93 42.49

GFSSW_sfc_wetblb_018.txt.gz
Wetbulb
57.30 57.62 57.73 57.87 57.59 57.40 57.46 57.05 56.75 56.50 56.13 55.75 55.21 55.05 54.76 54.45 54.14 55.49 52.70 56.92 57.72 60.74 58.71 57.76 57.08 55.85 55.74 52.94 54.25 53.27 47.20 46.74 49.90 51.38 52.66 56.43 54.13 56.14 59.33 57.77 59.25 60.40 62.02 65.25 67.87
57.02 56.81 57.37 57.49 57.23 56.89 56.74 56.72 56.32 56.27 56.14 55.72 54.81 54.51 54.65 54.22 53.80 53.24 59.01 59.66 59.86 60.93 56.15 54.09 52.64 53.97 51.91 51.84 52.99 50.67 47.79 47.28 53.71 55.64 54.82 55.17 54.57 54.61 56.79 57.16 57.32 61.34 65.40 66.94 67.37
56.78 56.83 56.71 56.72 56.76 56.60 56.12 55.71 55.94 56.26 55.70 55.45 54.64 54.21 54.34 54.09 52.57 54.08 61.15 60.59 60.37 60.39 56.09 55.01 54.00 53.78 50.09 51.93 51.60 51.04 47.89 49.50 53.63 56.82 55.36 53.90 54.12 56.06 56.12 56.23 58.46 60.10 63.26 64.23 64.89
56.64 56.74 56.12 56.00 55.99 56.01 55.85 55.19 55.53 56.14 55.60 54.67 54.25 53.73 53.96 54.35 47.14 56.57 63.85 61.26 61.23 59.84 55.63 54.59 54.09 51.05 48.71 48.35 51.85 48.43 50.56 49.39 53.98 56.88 54.60 52.85 55.34 54.57 57.48 57.50 60.54 63.42 65.25 65.27 64.25
55.98 55.96 55.96 55.66 55.53 55.39 54.99 54.86 55.15 55.37 55.00 54.01 53.67 53.18 54.46 52.90 52.35 62.68 62.24 61.60 59.32 56.21 54.92 53.52 51.80 50.73 47.76 50.03 50.76 49.03 49.52 49.71 49.91 52.75 55.75 55.04 53.29 55.02 56.80 58.99 63.20 64.58 64.59 64.68 64.23
55.87 55.46 55.15 55.24 55.04 54.53 54.99 54.74 54.52 54.79 54.08 53.53 53.09 52.96 52.90 48.60 57.26 62.72 61.46 58.77 56.92 56.23 55.51 55.13 52.50 53.10 51.21 50.50 50.06 50.45 48.98 47.95 47.95 52.96 52.94 52.24 51.63 55.38 54.40 60.80 62.83 63.17 63.35 64.35 64.03
55.74 55.40 55.31 54.90 54.44 54.46 54.80 54.37 54.37 54.05 53.32 52.75 52.40 52.94 52.23 52.72 57.83 62.54 60.06 58.24 57.73 56.94 55.82 56.65 55.19 52.03 52.17 50.04 50.59 48.93 45.95 47.22 47.32 51.24 50.60 52.82 48.90 48.18 54.10 59.09 60.62 61.16 62.39 63.44 64.01
56.08 55.33 54.76 54.39 53.86 53.76 53.96 53.90 53.88 53.35 52.71 52.04 52.61 52.54 51.95 58.23 60.13 59.33 59.61 57.45 58.97 58.22 56.87 57.17 56.90 53.80 51.99 51.02 47.78 46.19 47.00 44.08 47.16 49.66 47.61 49.63 45.24 49.86 53.86 57.51 59.15 60.27 61.57 62.04 61.86
55.41 54.92 53.84 53.69 53.16 53.49 53.63 53.53 52.99 52.71 51.90 52.56 53.01 52.38 51.53 58.68 54.29 56.95 58.23 54.48 56.39 56.93 57.03 55.67 55.65 52.13 50.88 48.14 44.35 45.42 42.06 43.20 44.87 49.31 48.08 47.68 44.99 50.25 54.90 57.11 57.72 59.23 60.06 60.57 59.68
54.95 54.35 54.02 53.70 53.45 53.64 52.77 52.64 52.27 52.14 52.89 54.20 55.10 51.87 55.50 51.64 56.17 55.79 56.46 56.18 54.50 54.74 52.80 52.49 52.08 49.35 48.31 46.47 40.12 42.16 43.03 43.87 43.51 47.77 47.58 46.97 48.07 50.16 54.51 56.28 56.36 57.87 58.93 59.31 59.55
54.72 54.11 54.21 54.56 54.50 52.72 52.19 54.08 51.98 51.19 52.48 51.86 50.58 51.22 51.05 55.47 56.59 53.50 55.06 54.84 54.82 52.57 49.45 50.48 47.29 44.75 46.94 47.21 45.84 45.56 44.61 43.81 45.96 48.97 49.01 47.88 48.44 49.46 52.54 55.33 55.99 56.70 57.56 58.28 58.74
54.21 53.98 54.74 54.82 54.38 52.60 53.45 52.56 54.45 57.38 51.88 54.95 53.66 52.96 54.52 54.97 51.20 52.18 56.27 52.22 51.54 48.22 49.92 47.61 45.29 48.03 49.37 47.82 46.68 46.28 44.46 44.94 46.02 48.36 49.32 48.98 48.47 50.42 51.22 53.04 55.24 56.47 57.16 57.82 58.21
53.98 54.88 54.58 54.42 53.10 51.81 53.04 54.01 59.69 58.95 53.08 52.09 54.61 52.82 53.22 54.60 50.31 50.43 53.99 52.63 49.23 47.32 47.65 46.67 47.68 48.63 48.56 47.62 46.29 46.13 45.36 45.39 45.07 47.42 49.31 48.95 47.06 48.98 50.54 51.97 53.13 54.88 56.99 57.86 58.45
54.44 53.89 53.76 52.90 50.99 54.94 53.01 57.20 58.58 58.60 47.44 46.35 49.07 52.57 52.75 53.45 48.80 53.48 55.06 52.89 49.42 47.15 48.03 47.68 49.07 48.04 48.25 46.51 47.44 44.43 47.13 47.50 46.42 45.70 42.27 48.26 40.99 47.73 49.77 50.32 52.17 53.54 55.54 56.79 58.23
53.87 53.63 53.25 52.75 56.03 53.53 58.56 62.40 61.41 57.99 34.77 47.46 48.49 54.61 52.70 49.83 50.53 51.60 55.01 53.30 48.33 48.11 48.68 46.19 47.24 47.22 46.66 46.43 48.13 45.93 48.59 48.54 47.09 46.85 45.41 45.14 43.00 46.81 49.80 48.70 51.30 53.70 55.50 57.37 58.95
53.53 53.52 53.16 52.57 55.63 58.35 60.26 62.03 59.59 46.69 34.36 44.56 49.07 48.56 48.90 49.47 49.62 52.33 52.37 54.35 52.86 49.30 49.87 48.27 50.55 49.80 48.63 48.89 49.20 49.59 48.45 47.46 47.23 46.33 39.96 43.92 43.33 43.93 47.60 49.68 51.68 53.91 54.73 55.93 56.34
53.27 53.70 53.62 56.84 54.92 62.05 63.87 58.21 45.23 39.14 46.24 43.34 45.21 48.17 47.79 46.90 48.07 49.77 49.08 48.79 47.13 44.23 44.72 47.20 47.21 49.27 50.35 48.03 49.78 49.08 46.67 40.41 38.09 38.73 37.67 43.41 42.03 44.64 48.89 51.04 53.53 53.29 53.76 55.02 55.08
52.97 53.14 53.64 57.22 60.65 60.29 57.94 49.45 38.14 42.64 43.76 46.84 46.81 47.90 45.88 47.31 46.94 47.70 47.77 46.37 48.23 47.93 45.71 42.77 40.85 46.29 48.85 48.22 46.46 47.07 46.47 40.68 31.86 34.64 38.72 42.86 39.46 45.77 49.47 51.74 54.92 55.47 54.57 54.59 54.25
52.76 52.59 51.59 57.20 57.82 58.01 52.75 43.71 42.17 44.81 47.66 45.76 46.23 44.53 44.86 46.74 46.76 47.47 46.82 46.73 47.16 48.56 43.95 43.20 41.83 47.90 48.13 49.39 49.02 45.23 43.29 46.80 40.56 38.83 38.61 41.50 44.71 48.50 48.87 49.82 52.42 53.77 53.54 53.33 54.17
52.82 51.27 54.73 60.63 60.74 55.83 49.76 42.85 45.43 49.44 48.87 47.69 42.59 45.49 43.03 45.24 44.81 45.72 46.24 47.51 46.93 48.56 50.15 47.12 41.51 46.00 47.19 49.31 48.94 47.47 48.20 41.80 43.12 33.21 31.66 38.98 39.98 42.23 45.94 47.66 50.52 52.21 52.39 53.30 54.15
54.67 50.64 58.90 62.82 60.23 53.54 46.16 46.16 47.76 52.97 51.74 47.12 45.34 44.52 45.48 45.00 45.97 44.77 45.06 47.12 48.54 48.19 50.20 48.63 45.89 43.78 46.61 45.78 45.32 44.96 44.26 42.99 43.85 41.01 34.78 33.32 39.38 47.54 47.32 49.63 50.03 52.12 52.96 53.74 54.14
54.15 47.57 59.04 59.36 50.58 49.98 46.95 47.91 48.64 51.30 51.53 49.67 49.53 48.12 47.03 47.37 46.07 45.79 45.10 47.09 49.79 49.93 46.93 48.03 47.01 42.37 44.04 47.07 48.31 47.38 45.70 44.81 39.20 36.36 39.05 38.40 39.26 47.42 49.10 50.01 51.68 52.29 53.11 54.55 54.68
50.32 53.37 57.46 54.24 45.42 46.92 47.55 48.46 50.91 49.39 49.46 49.77 48.44 49.70 49.96 47.97 44.67 46.95 47.28 47.27 47.89 48.74 48.11 48.27 45.19 40.10 41.00 44.49 46.73 45.21 46.06 45.05 43.48 42.48 37.28 37.46 39.51 47.34 49.03 49.34 51.13 51.93 53.55 53.41 53.43
52.19 48.98 52.86 51.54 51.33 48.58 46.65 47.01 46.80 50.65 49.87 50.33 49.46 50.70 49.16 47.00 48.29 46.02 46.43 46.54 48.06 48.48 43.91 47.33 45.52 43.58 40.09 41.56 44.95 42.54 44.26 44.85 44.12 38.91 39.01 39.93 41.33 44.46 46.70 48.12 49.98 51.10 52.71 52.55 51.80
53.01 50.48 53.19 46.53 46.49 48.58 49.24 47.91 46.46 46.92 50.30 50.94 48.84 49.71 48.95 45.34 45.90 45.49 47.11 45.80 47.58 45.36 47.98 48.21 43.00 42.90 42.11 42.14 42.22 42.61 43.42 43.71 42.23 43.20 39.19 41.56 41.57 43.98 46.63 48.13 49.92 51.30 51.38 50.66 49.93
51.25 50.46 51.19 50.04 48.67 47.41 45.45 46.68 46.29 48.16 49.22 48.38 48.88 49.53 49.94 47.09 47.92 46.04 47.62 46.92 46.34 47.74 47.36 45.41 42.57 40.80 39.15 41.08 40.93 40.15 43.16 43.87 44.23 44.34 43.33 43.63 43.05 48.68 49.51 49.55 49.63 49.51 49.36 48.79 48.76
56.22 53.66 53.13 43.58 47.23 46.43 45.84 47.42 47.56 51.14 48.81 49.74 51.46 50.10 48.40 48.57 50.22 51.12 50.08 49.70 49.15 47.66 45.33 43.69 40.96 38.87 36.31 37.82 38.46 36.05 40.86 42.93 43.63 45.15 44.53 41.17 45.79 48.13 46.82 47.50 48.79 49.45 49.05 48.68 48.98

GFSSW_sfc_wetblb_021.txt.gz
Wetbulb
57.77 57.50 57.14 58.32 57.94 57.61 57.32 57.24 56.82 56.96 56.90 56.59 56.22 55.50 55.37 55.03 54.02 56.34 54.49 57.82 59.22 61.61 58.05 58.58 57.06 57.43 56.03 53.67 53.92 54.58 48.14 45.74 48.45 50.89 52.75 58.09 56.23 58.56 59.17 56.13 60.05 62.04 62.45 64.94 68.45
57.75 57.56 57.03 57.60 57.12 57.00 57.06 56.54 56.32 56.48 56.71 56.58 55.88 55.06 55.10 54.39 54.22 54.86 60.40 61.33 60.16 61.73 57.09 55.14 54.15 54.51 52.36 52.43 52.47 50.16 47.07 48.03 54.09 55.24 52.14 56.09 55.55 55.70 55.65 53.96 57.78 61.72 65.35 67.14 67.39
57.54 57.17 56.56 56.86 57.02 56.36 56.42 55.98 55.93 56.19 56.42 56.18 55.12 55.00 54.88 54.95 54.37 56.03 62.74 61.03 60.56 61.39 57.98 56.30 55.22 53.27 51.13 52.37 51.87 50.42 48.59 51.21 53.16 56.54 57.91 55.22 54.61 56.74 55.45 53.57 58.51 59.95 63.19 65.88 65.83
57.55 56.85 56.42 56.44 56.19 56.26 55.86 55.22 55.55 56.11 55.97 55.24 54.72 54.58 54.44 55.52 49.15 60.32 63.65 61.63 61.03 60.15 57.54 54.56 53.00 51.27 50.30 48.88 51.97 49.13 51.42 51.11 53.71 56.05 54.80 53.18 55.75 54.50 50.51 51.64 59.71 62.97 64.97 65.52 64.95
57.18 56.57 56.03 55.89 56.01 55.84 55.52 55.02 55.36 55.54 55.12 54.39 53.99 53.88 54.75 54.74 55.07 62.95 62.22 61.76 58.74 58.26 55.58 53.04 52.17 51.90 48.72 50.02 50.71 49.59 50.51 51.81 54.92 55.42 53.83 54.98 53.83 53.83 54.79 57.69 61.84 64.15 65.30 64.24 64.62
56.87 56.51 55.88 55.46 55.44 55.09 55.22 54.88 55.04 55.06 54.23 53.73 53.28 52.86 54.47 50.37 58.68 62.59 59.77 58.44 58.06 57.79 54.91 54.49 52.86 53.10 50.98 50.49 50.52 51.89 51.24 50.38 52.62 53.98 55.76 52.93 52.53 54.82 56.83 60.09 61.38 62.80 62.59 62.13 62.08
56.77 56.43 55.63 55.35 55.37 54.57 54.39 54.85 54.59 54.66 53.32 52.94 52.69 54.82 53.90 54.47 59.43 62.74 59.50 57.71 58.30 56.65 54.83 56.41 56.38 53.37 53.43 51.01 53.26 51.03 47.44 48.83 50.54 52.93 53.21 53.87 49.26 50.71 57.32 59.68 59.40 60.19 60.85 61.65 61.71
56.88 56.25 54.94 55.05 54.62 53.83 54.06 54.34 53.93 53.31 52.71 52.44 52.58 55.47 52.90 59.81 61.14 60.41 61.38 59.27 59.78 58.84 57.93 58.49 58.13 55.14 53.15 53.71 50.36 47.97 48.43 44.80 48.88 52.34 53.02 52.91 45.78 51.90 57.07 57.88 57.61 58.67 59.92 60.63 61.76
56.45 55.79 54.73 54.07 53.81 53.60 54.05 53.89 52.71 52.37 52.21 52.62 55.03 55.05 53.41 58.57 55.62 58.30 59.96 56.52 58.02 58.48 58.06 57.21 56.80 53.52 52.90 48.90 46.16 46.60 42.29 44.76 46.48 51.87 51.67 51.08 47.20 52.16 56.76 56.64 56.86 58.48 59.98 60.62 60.77
56.07 55.18 54.52 54.13 53.71 53.63 53.62 52.68 52.76 51.98 53.88 56.52 56.74 53.48 57.40 53.15 56.44 56.78 58.76 57.91 56.38 56.18 54.74 54.44 52.93 50.43 49.75 48.10 40.22 42.65 43.27 45.10 45.38 49.69 50.72 47.38 48.16 51.02 55.31 55.76 56.98 58.20 59.44 60.11 59.92
55.80 54.81 54.28 54.22 54.60 53.59 52.32 55.61 53.84 53.66 54.90 53.69 53.92 53.23 53.00 56.29 58.19 56.03 56.49 55.85 56.21 55.16 50.36 51.87 47.21 44.44 47.14 48.58 47.71 46.84 45.52 44.06 46.87 49.24 47.79 46.66 48.29 50.56 54.18 55.37 56.03 56.98 58.45 59.69 60.37
55.34 54.36 54.34 55.07 54.79 52.98 54.57 54.67 57.12 59.37 53.78 55.96 54.83 54.32 55.78 55.99 52.10 53.71 56.45 52.78 52.45 48.24 50.44 48.62 45.75 49.05 49.41 48.56 46.48 45.94 44.59 45.20 47.19 49.03 49.25 47.55 47.89 50.86 52.97 54.31 56.05 56.59 57.36 58.53 60.05
54.91 54.46 54.95 54.57 53.17 52.61 55.59 56.44 61.90 61.06 54.36 53.68 55.16 53.85 53.93 55.63 51.43 51.93 54.44 53.99 50.70 48.48 48.55 46.22 48.10 50.38 48.72 47.32 45.92 46.20 44.77 45.60 45.67 48.77 50.00 48.92 47.30 50.30 52.95 54.82 56.33 57.78 58.65 59.18 59.61
54.62 54.61 54.04 52.83 50.90 57.43 55.28 58.93 60.32 59.72 49.40 48.50 51.35 53.85 54.84 54.76 50.32 54.46 55.25 53.75 50.20 47.68 48.58 46.59 50.81 49.01 47.02 46.16 47.57 44.69 49.07 47.98 46.99 46.47 42.24 49.10 40.34 47.71 51.34 51.71 53.41 55.61 57.63 58.95 59.73
54.55 54.22 53.29 52.86 58.79 55.33 60.87 64.15 62.22 61.10 36.89 49.29 50.48 56.76 54.37 50.87 51.50 52.11 56.40 53.52 49.31 48.34 48.42 46.81 48.80 48.45 46.53 47.92 49.87 46.87 50.19 49.32 48.34 46.90 46.05 46.27 43.17 42.53 51.32 49.91 51.88 54.34 55.91 57.83 59.58
54.33 53.86 53.27 53.29 56.04 60.39 62.82 64.57 62.19 47.89 36.45 45.69 50.27 49.29 49.86 50.53 49.93 52.96 52.17 54.52 54.26 49.32 50.48 47.19 52.76 51.28 50.46 50.49 50.46 50.94 49.36 48.76 48.85 46.31 40.64 44.11 43.33 44.22 48.45 50.63 52.74 54.94 56.60 58.45 60.11
53.98 53.85 53.97 57.36 56.28 63.11 64.87 60.39 47.18 40.10 47.91 44.71 46.04 48.92 48.27 46.97 47.99 49.52 48.66 47.51 46.16 43.76 43.68 48.41 48.81 50.98 51.72 48.48 50.69 49.63 47.12 40.33 38.82 39.08 38.36 45.80 43.81 45.31 48.72 52.69 53.88 54.92 56.60 58.81 59.18
53.22 53.19 54.03 58.01 61.02 62.95 62.45 52.62 40.51 44.60 45.36 48.13 47.68 47.83 45.62 47.57 47.42 47.81 47.48 45.77 48.90 48.89 44.47 42.73 41.66 48.54 51.28 50.01 47.14 47.91 46.75 41.20 33.26 35.59 39.33 45.87 40.43 44.91 52.27 52.61 54.46 57.05 57.46 58.09 57.47
52.72 54.19 53.81 56.93 59.42 60.65 56.25 45.30 44.01 45.40 48.32 46.38 46.96 44.82 45.61 47.26 47.03 46.91 46.54 46.13 48.50 49.68 44.35 43.61 42.64 49.79 49.90 50.98 49.96 46.95 44.29 48.82 43.19 43.22 39.39 41.54 44.62 49.91 51.48 51.53 53.58 55.80 56.28 56.48 56.12
54.37 52.11 54.26 60.09 60.28 58.99 51.81 44.32 47.83 50.07 50.27 48.65 43.54 46.44 44.16 45.86 44.84 45.62 46.59 49.54 48.88 51.18 52.74 47.61 42.47 47.72 49.17 50.96 50.96 48.95 50.22 42.61 43.22 34.01 33.07 39.79 41.39 43.91 47.84 48.86 52.15 54.28 55.02 55.78 55.91
54.90 50.40 58.56 61.69 59.76 54.32 46.43 47.59 49.55 52.54 52.10 48.12 46.23 45.36 46.74 45.97 46.40 45.58 46.14 49.43 51.18 50.87 52.40 49.50 46.51 45.93 48.34 46.97 45.83 47.02 45.24 45.62 45.52 44.16 36.71 34.88 40.54 48.14 46.83 49.84 51.18 53.66 55.56 55.77 55.81
53.97 47.10 60.39 62.67 49.40 51.74 48.40 50.12 49.38 51.71 54.29 50.96 50.63 48.53 47.21 47.68 46.49 46.15 45.36 47.88 52.58 52.41 47.95 50.00 47.23 43.39 45.39 49.99 50.79 49.87 47.73 47.38 40.92 39.03 41.45 40.46 40.20 49.12 49.94 51.18 52.50 53.32 55.35 56.44 56.87
51.81 53.07 60.91 59.55 46.57 50.47 51.63 50.15 50.84 51.10 51.19 50.78 48.41 50.19 50.34 47.67 44.83 47.24 47.98 50.86 51.64 51.67 49.05 51.01 45.65 40.81 42.71 46.91 49.08 46.17 47.51 47.69 46.51 44.97 39.81 37.86 40.75 49.81 50.03 49.93 51.46 52.73 54.66 55.72 56.39
53.00 48.41 53.52 55.21 54.56 51.12 49.31 48.37 47.89 52.93 51.53 52.17 49.95 51.94 50.42 48.82 50.55 48.21 48.94 49.55 51.14 51.48 45.43 48.98 47.38 44.06 40.02 43.45 47.07 44.95 46.06 47.16 45.98 41.00 40.91 41.96 43.12 46.27 47.91 48.42 49.72 51.74 53.60 55.30 55.80
54.19 50.53 53.17 47.30 50.47 52.03 50.83 49.22 47.26 47.59 52.11 53.22 50.90 50.17 49.33 46.50 48.25 47.89 50.48 48.52 50.04 46.29 49.63 50.47 44.44 46.42 46.64 46.37 45.80 45.39 44.93 45.96 44.34 44.78 42.01 43.46 43.27 45.49 47.47 48.31 49.96 51.38 52.58 53.15 54.43
51.57 51.53 53.72 51.82 52.26 50.60 47.64 48.36 47.41 49.56 50.75 49.91 49.39 50.38 50.79 48.45 49.25 47.25 50.29 49.76 48.81 50.67 50.30 50.39 44.63 44.61 42.66 46.10 45.01 43.21 45.15 45.11 45.12 45.51 44.97 44.95 44.47 49.24 50.25 50.63 50.11 50.47 51.57 51.71 53.02
56.66 57.54 54.77 49.96 51.80 48.75 49.83 49.01 48.70 52.11 51.95 53.07 52.07 51.33 50.45 51.78 54.07 54.35 54.46 53.41 52.55 50.62 49.22 47.98 45.47 41.69 37.82 41.81 42.10 37.53 43.04 44.82 45.34 46.48 46.18 42.85 46.90 49.33 48.85 48.92 49.49 50.26 51.27 51.59 52.49

GFSSW_sfc_wetblb_024.txt.gz
Wetbulb
58.79 58.55 58.27 57.17 57.42 57.02 57.08 57.32 56.64 56.56 56.94 57.02 56.74 56.10 55.86 56.03 54.88 55.12 52.60 57.17 59.06 61.89 58.97 56.93 55.63 54.28 55.34 52.99 53.58 52.45 45.34 44.03 45.94 47.81 49.85 52.00 52.12 57.24 59.56 56.43 57.53 58.33 61.62 65.19 66.74
58.25 57.92 57.78 57.74 56.95 56.20 56.40 56.78 56.54 56.44 56.55 56.65 56.24 55.64 55.63 55.43 53.29 53.31 59.18 62.75 61.30 62.36 55.41 54.52 53.09 53.40 52.01 51.31 51.47 48.71 45.66 45.95 52.90 55.23 50.61 52.44 53.40 55.21 55.39 55.39 57.33 59.39 65.11 66.38 66.39
58.14 57.96 57.34 56.78 57.18 56.68 55.96 56.13 55.91 56.19 56.40 56.33 55.89 55.42 55.39 54.35 53.73 56.42 63.13 61.44 61.54 60.79 55.71 56.51 55.23 53.52 49.72 51.14 50.39 49.39 45.82 49.62 53.44 53.76 53.92 53.92 53.93 56.54 54.38 52.19 55.57 52.24 61.44 64.09 64.09
58.15 57.66 57.25 56.49 56.52 56.68 56.21 55.11 55.51 55.49 55.84 55.54 55.00 54.87 55.10 54.57 48.41 58.93 64.43 61.92 61.85 57.98 55.86 55.68 53.14 50.16 48.26 48.01 50.77 47.26 49.39 50.74 53.85 55.45 53.96 51.78 55.93 53.57 54.14 52.83 57.35 58.55 63.16 63.38 63.15
57.79 57.61 57.10 56.32 56.06 55.88 55.79 55.26 55.36 55.46 55.42 54.83 54.42 54.19 54.03 54.26 54.66 61.95 63.49 61.54 57.70 56.18 55.75 53.73 50.74 50.00 48.00 49.47 49.97 48.33 50.26 51.31 54.77 55.09 54.04 56.37 54.32 53.80 51.96 55.37 57.52 57.33 63.14 62.53 63.04
57.40 57.06 56.91 56.07 56.21 55.04 55.31 55.11 55.11 55.42 55.05 54.26 53.89 53.69 53.68 49.78 59.21 61.83 60.80 58.86 55.81 56.04 55.39 53.34 51.98 52.93 50.47 49.66 48.66 50.48 51.07 50.66 53.71 53.98 53.76 53.67 53.49 53.32 53.97 57.40 56.36 59.73 60.90 61.69 61.33
57.32 57.00 56.51 55.97 55.78 54.68 54.56 54.47 55.01 54.93 54.42 53.56 53.42 53.72 53.16 52.61 60.20 61.52 58.18 56.48 57.62 57.23 53.84 55.17 55.35 52.78 52.84 50.63 53.26 51.88 47.91 49.05 50.49 53.24 52.19 54.19 50.34 50.67 57.11 58.98 58.26 58.60 58.76 59.39 60.30
57.59 56.98 56.14 55.28 54.49 54.47 53.91 54.04 54.48 54.31 53.63 52.98 53.09 54.58 51.84 60.03 60.79 59.51 60.19 58.50 58.97 57.95 56.37 58.00 57.98 54.74 52.66 54.06 50.57 48.06 48.17 43.68 48.74 51.80 52.82 51.86 44.23 50.91 56.74 56.64 56.42 57.67 58.23 58.65 58.89
57.21 56.76 55.64 54.52 54.08 53.89 53.80 54.52 54.47 53.64 53.38 53.33 53.31 55.34 52.90 59.50 56.34 57.92 59.43 57.24 57.68 57.86 58.14 57.61 56.03 53.07 52.85 48.18 45.88 47.86 41.17 43.61 45.85 51.69 51.84 49.98 45.97 50.98 54.89 55.83 55.69 56.51 57.54 58.48 59.26
56.84 56.39 55.40 54.50 53.95 53.88 54.11 53.86 54.40 52.89 53.47 56.17 56.34 51.96 56.73 53.93 55.55 57.00 58.73 57.81 56.19 56.14 54.21 53.62 52.06 49.50 49.51 46.57 38.90 41.20 41.93 44.03 44.44 47.34 50.37 48.22 47.56 50.46 53.03 55.55 55.80 56.44 57.54 58.71 58.72
56.55 56.19 55.01 54.44 54.40 54.36 52.46 53.84 52.21 51.86 54.23 51.99 53.82 52.57 53.67 55.90 57.43 55.77 57.07 55.92 55.82 54.08 49.48 52.06 47.58 44.80 46.62 47.90 47.83 46.16 45.16 44.14 46.16 49.06 47.83 47.21 47.07 48.25 51.96 53.63 55.19 56.01 57.01 57.96 58.51
56.21 55.80 54.75 54.56 54.72 54.28 54.11 54.21 57.48 58.88 52.79 56.02 52.73 54.79 56.12 56.54 51.88 53.85 56.47 52.73 52.67 48.15 50.50 48.41 44.28 48.50 49.91 49.16 47.65 46.30 44.72 43.87 46.05 48.07 47.38 46.12 45.83 48.93 51.06 52.73 54.91 55.57 56.86 58.03 58.65
55.74 55.35 54.77 54.42 54.14 52.92 54.07 54.94 60.79 59.95 52.80 53.43 54.75 52.77 54.03 55.09 51.24 51.75 53.88 52.85 50.18 47.78 48.02 46.10 46.95 50.55 49.20 47.32 45.52 45.55 45.10 44.95 44.21 45.95 46.31 46.97 44.04 47.11 50.03 52.77 54.42 56.01 56.88 58.21 58.61
55.15 54.42 54.30 53.44 50.28 56.63 54.80 58.47 58.93 60.47 47.58 48.95 50.90 53.10 54.51 54.51 49.87 54.84 54.77 53.35 50.88 47.44 47.68 47.40 50.96 48.71 47.81 46.23 46.71 43.68 49.11 47.50 46.26 44.80 40.10 47.68 38.16 43.25 48.38 49.83 52.28 54.41 55.70 56.97 58.23
54.48 54.15 53.34 52.99 56.59 55.27 61.30 61.94 63.30 60.90 36.51 49.99 50.74 56.80 54.67 50.81 50.73 51.55 55.30 54.04 48.86 48.35 49.28 46.41 46.89 46.84 45.81 47.07 49.62 44.99 49.21 48.35 47.34 44.92 44.41 43.52 39.90 44.26 48.19 47.34 50.90 53.91 56.25 57.78 58.67
54.17 54.36 53.44 53.29 54.36 57.93 61.85 64.04 61.91 47.35 35.90 46.34 50.35 49.29 48.86 49.86 49.58 51.49 51.88 53.81 54.14 49.46 48.85 48.25 51.71 50.46 49.32 50.30 50.43 50.90 48.57 48.55 46.96 45.34 36.80 41.99 40.55 42.17 45.47 47.28 45.60 53.31 55.33 57.14 58.54
54.14 54.12 53.78 57.38 55.00 61.65 61.93 60.09 45.38 38.42 47.88 45.02 45.92 48.26 47.66 46.83 47.62 48.78 48.22 47.23 45.30 43.06 42.97 46.75 46.64 50.44 51.77 47.31 49.67 48.00 45.27 38.92 35.75 35.71 36.80 45.12 42.58 43.10 48.72 49.06 49.78 51.25 54.66 56.81 58.64
53.66 53.16 53.79 56.34 59.64 62.14 61.08 52.50 38.74 44.02 45.38 47.91 47.18 47.45 45.25 46.66 46.63 47.23 47.19 44.60 47.67 46.68 44.24 41.56 39.94 47.50 50.14 48.00 44.92 45.63 44.75 40.37 29.92 29.84 38.28 45.00 40.12 44.04 51.34 53.27 53.90 56.12 56.81 58.38 58.65
52.80 53.97 53.57 56.09 58.19 60.34 54.95 44.11 42.48 46.05 47.96 46.96 46.44 44.14 44.64 46.36 46.25 46.07 45.67 45.11 46.66 47.48 42.58 41.06 41.41 49.55 50.17 50.34 48.97 45.87 43.29 47.75 41.78 43.63 39.23 40.64 43.08 47.61 51.00 50.90 51.87 55.36 56.23 56.97 57.26
52.81 51.52 51.85 58.36 59.96 56.44 50.65 44.11 46.83 50.46 50.17 48.37 42.87 45.33 42.73 44.76 44.16 44.82 44.45 47.63 47.04 50.82 51.40 44.53 37.54 47.66 49.25 50.14 50.10 47.45 48.70 42.44 43.12 33.81 32.04 38.31 40.07 42.09 47.34 48.24 50.76 53.67 54.70 56.26 56.95
53.17 48.32 56.39 60.11 58.75 52.43 45.27 46.60 49.42 51.98 51.28 48.18 45.44 44.75 45.85 45.41 45.25 44.47 44.55 47.52 51.06 50.66 51.42 48.95 45.76 45.48 48.50 46.11 43.83 46.26 44.29 44.76 43.92 43.93 36.98 34.66 38.65 47.48 47.02 49.05 50.45 52.82 55.40 55.86 56.15
52.12 44.15 58.26 60.67 46.28 47.69 46.82 48.84 49.72 51.03 52.00 50.78 50.07 47.92 46.60 47.67 45.93 45.33 44.60 47.91 51.61 50.98 47.25 49.48 46.61 43.14 43.99 49.32 50.74 48.69 46.65 45.83 42.04 38.78 42.76 40.23 39.17 49.65 49.63 50.01 52.16 52.52 54.35 56.27 56.56
48.26 50.59 59.38 58.12 41.73 45.00 49.44 49.42 50.60 49.80 50.68 50.38 48.95 49.94 49.54 47.48 44.70 46.92 47.60 52.23 53.01 51.04 48.56 50.42 45.47 39.56 41.41 46.50 49.18 45.99 46.80 46.33 47.03 46.01 40.16 37.27 39.57 49.63 49.38 48.92 50.73 51.93 53.44 55.63 56.13
49.62 45.13 51.88 54.09 50.89 47.92 47.61 47.21 47.00 52.09 50.45 51.45 50.39 50.69 48.84 46.96 48.85 46.60 47.63 50.33 52.21 52.02 46.82 51.55 46.55 42.87 38.74 42.19 46.60 44.81 45.77 46.12 45.27 40.87 40.52 39.79 41.94 45.93 47.73 48.18 49.53 51.03 52.45 53.90 55.29
51.48 48.19 51.19 45.30 47.58 49.13 50.96 48.74 46.79 46.94 50.47 52.30 49.50 48.30 48.66 46.11 46.86 46.95 49.14 49.47 50.54 46.79 49.39 49.87 43.45 45.16 45.39 46.35 46.48 45.68 45.12 45.28 43.69 44.70 40.11 43.26 43.05 45.78 47.69 48.76 50.04 51.27 52.10 51.97 52.09
48.12 49.23 52.86 49.83 49.85 48.80 48.27 48.27 47.37 48.16 49.61 49.07 48.85 49.34 50.27 47.77 48.26 46.54 49.04 49.82 48.26 50.14 49.38 50.36 44.58 45.91 43.57 46.17 46.02 43.39 45.07 45.30 44.64 44.42 44.51 44.40 44.01 48.82 49.92 50.53 49.91 50.15 49.97 51.25 51.24
53.05 56.60 52.61 48.21 48.75 47.91 48.91 49.98 49.39 50.88 51.67 52.10 51.36 50.38 49.12 51.29 53.77 54.32 54.89 54.38 52.75 50.54 49.02 48.93 46.74 42.55 38.62 42.34 41.21 35.42 42.41 43.83 44.51 45.96 45.49 41.36 46.62 49.23 48.11 48.51 49.86 50.49 50.62 51.08 51.32

GFSSW_sfc_wetblb_027.txt.gz
Wetbulb
59.24 58.83 58.55 58.29 57.56 56.58 56.08 55.97 55.92 56.58 56.67 56.60 57.15 56.77 56.24 56.29 55.02 52.48 49.06 53.19 54.46 59.68 59.62 54.35 52.57 50.92 50.56 47.43 49.96 46.18 37.45 36.65 39.90 46.38 48.25 52.28 50.90 55.67 56.21 53.56 55.56 58.62 60.45 62.27 61.86
59.45 58.89 58.23 58.37 57.35 56.92 55.97 55.81 55.26 56.14 56.40 56.59 56.82 56.64 56.23 55.60 50.88 49.78 56.12 60.64 61.10 61.75 53.55 51.23 50.34 49.93 44.95 45.79 46.95 43.64 37.13 40.02 50.09 51.08 49.43 51.74 51.74 52.72 52.73 53.00 54.35 55.62 61.62 62.22 60.54
59.35 58.80 58.14 57.99 57.40 56.96 55.54 55.85 54.92 55.87 56.14 56.17 56.47 56.21 55.31 54.04 50.23 54.62 62.82 60.90 62.05 60.90 52.98 52.44 52.47 50.12 45.34 46.69 46.20 43.59 40.99 45.02 51.83 52.79 52.48 50.79 52.68 54.67 52.24 49.74 53.05 53.33 56.31 59.66 60.27
58.76 58.29 58.04 57.58 57.44 56.71 55.14 54.74 55.21 55.43 55.98 56.13 55.88 55.60 55.01 51.68 45.71 54.89 62.98 62.40 62.38 56.08 53.19 51.54 50.87 46.21 44.67 43.26 46.43 41.39 46.69 47.52 53.10 52.98 52.78 50.99 53.60 50.76 49.53 52.21 54.60 55.16 57.15 58.97 60.37
57.82 57.79 57.71 57.29 56.75 56.59 55.06 54.37 54.70 55.46 55.69 55.48 55.36 54.72 51.60 50.22 52.83 60.70 62.06 61.93 55.95 53.93 51.64 51.06 49.94 47.14 43.91 45.31 46.02 44.60 46.45 49.31 54.54 54.25 52.84 54.29 52.37 52.19 50.63 53.72 57.75 59.34 59.24 59.45 60.59
57.42 57.27 57.14 56.98 56.60 56.22 55.29 54.38 54.50 55.28 55.23 55.43 54.70 54.42 49.52 47.61 58.96 61.13 58.40 56.01 53.57 52.19 53.35 52.95 50.41 49.59 47.35 47.12 45.85 47.67 46.82 47.81 51.37 53.24 53.94 51.98 52.23 51.21 52.33 54.61 55.51 58.06 58.65 59.71 60.69
57.60 57.19 56.74 56.55 56.17 55.38 55.12 54.12 53.87 54.87 55.30 54.87 54.19 52.10 50.21 48.98 56.05 56.43 58.69 54.52 52.93 53.51 51.72 53.55 52.93 51.01 50.13 47.68 51.66 49.09 44.39 44.88 48.05 50.83 50.86 52.07 46.18 46.07 53.36 55.34 54.56 55.20 58.06 57.51 59.36
57.80 57.09 56.33 55.90 54.95 54.40 54.36 53.66 53.99 54.83 54.89 54.62 53.91 50.62 47.99 59.12 56.15 55.84 54.65 53.91 54.56 54.90 54.69 54.42 55.12 52.21 49.98 50.41 49.13 44.54 43.46 39.85 45.57 50.58 50.99 48.85 39.63 49.56 51.83 53.31 51.93 53.81 55.09 55.85 56.50
57.33 56.87 56.13 55.13 54.21 53.89 53.70 53.91 54.24 54.99 54.73 54.21 49.84 49.65 49.95 60.39 55.41 56.51 55.87 55.54 55.99 55.24 54.83 56.44 53.14 49.60 49.40 44.19 41.11 41.64 37.11 40.64 43.43 49.16 48.68 46.25 41.96 50.29 52.41 53.62 52.53 53.07 53.27 53.98 54.10
57.02 56.70 55.87 54.81 54.01 53.56 53.45 54.08 54.22 53.40 53.22 53.30 52.92 47.14 52.45 53.56 55.47 55.81 55.61 56.14 54.75 54.69 52.89 51.36 47.56 43.93 44.19 41.38 33.98 39.32 40.08 39.50 40.11 45.45 47.83 43.74 42.89 46.57 51.35 52.65 52.57 51.26 51.94 53.19 53.18
56.84 56.54 55.68 54.52 53.97 53.81 51.75 50.48 48.12 48.13 49.05 48.66 50.09 49.84 52.68 55.14 55.21 53.19 54.93 54.28 53.59 51.54 45.46 48.46 42.05 39.36 42.86 45.78 45.79 44.93 42.07 40.16 42.20 45.34 46.22 44.30 43.55 45.30 47.37 50.66 50.12 51.85 53.68 54.11 53.71
56.43 56.05 55.62 54.46 53.97 54.07 50.93 48.87 52.92 52.52 47.94 53.68 52.41 52.61 53.68 55.04 50.83 52.12 54.16 49.88 49.90 44.92 48.38 44.72 40.22 46.07 48.49 48.12 45.88 45.43 43.34 42.14 43.30 45.71 43.76 43.14 41.91 45.09 47.21 48.53 51.96 49.99 51.55 53.21 54.18
56.10 55.78 55.05 53.85 53.91 52.19 49.52 50.91 55.32 54.10 47.32 52.48 54.98 52.85 51.55 53.56 50.21 50.06 51.59 50.20 47.43 45.67 46.61 42.61 45.30 49.99 47.86 45.69 44.40 44.81 42.11 41.67 41.61 41.58 40.83 42.23 39.36 43.46 46.82 49.65 52.26 52.90 54.27 55.45 55.00
55.39 54.91 53.77 53.16 49.57 51.39 50.14 54.84 54.33 52.98 42.31 47.52 50.75 52.31 52.56 52.76 48.68 53.34 53.12 51.27 48.62 46.10 46.26 44.56 49.51 47.56 46.17 44.52 45.76 41.27 47.15 45.58 44.78 41.71 34.42 42.69 32.41 42.57 45.88 47.54 49.48 50.64 51.30 54.67 55.01
54.93 54.40 53.15 53.11 51.16 51.23 56.54 58.30 54.92 54.41 31.59 48.65 49.80 55.54 53.12 49.81 49.84 49.29 54.88 52.35 46.01 47.13 46.97 44.09 46.25 45.25 44.29 44.85 47.45 43.48 46.92 45.28 45.83 42.36 40.67 40.68 35.95 38.98 46.26 44.47 47.69 47.49 50.44 50.83 55.73
54.67 54.10 53.29 52.44 51.27 51.63 54.49 55.59 57.33 43.00 32.17 46.26 49.94 48.11 47.65 49.11 48.79 49.01 49.53 51.75 51.89 47.76 47.52 46.87 49.31 48.05 46.75 48.61 48.12 48.61 46.44 45.78 44.36 40.68 31.65 39.80 38.01 38.10 41.17 45.35 46.86 49.87 51.96 52.74 52.57
54.21 53.90 53.10 54.44 49.66 56.07 54.02 53.62 40.79 32.29 47.11 44.23 44.50 47.49 46.00 45.05 45.88 46.37 45.66 43.86 42.18 39.24 39.54 44.24 45.93 48.15 50.55 45.80 47.87 46.24 40.83 32.55 30.53 29.23 29.82 42.80 38.60 40.21 45.80 47.34 49.70 50.21 50.73 49.91 54.12
53.87 53.17 53.23 53.52 54.67 55.50 55.55 48.44 35.89 42.12 42.98 48.15 46.32 46.12 42.71 45.15 44.60 45.18 44.05 41.16 44.11 43.12 40.79 39.15 36.27 45.22 48.50 45.12 44.02 42.80 41.55 33.77 27.28 29.18 31.93 43.01 36.56 40.52 47.90 50.58 51.44 51.76 50.34 51.49 53.71
53.33 52.53 51.39 52.17 53.62 53.93 51.82 40.66 37.67 44.02 45.68 46.01 44.63 41.71 41.65 44.76 43.67 43.00 42.87 42.19 43.55 43.87 38.87 38.38 39.52 47.95 49.38 49.11 46.84 43.53 37.89 45.69 37.12 37.30 32.99 36.06 40.53 46.10 47.84 47.81 48.67 48.79 49.72 52.20 53.01
51.48 50.19 49.69 53.72 55.27 52.55 47.42 41.10 44.89 48.82 49.14 47.49 41.16 42.97 39.25 41.91 41.51 41.21 41.13 44.66 44.92 48.49 48.46 43.51 38.26 45.25 47.22 49.23 47.95 44.38 45.92 37.20 36.87 28.07 26.47 32.71 34.94 38.07 43.28 45.23 48.04 47.50 50.82 52.17 52.56
51.16 46.57 50.68 54.58 54.30 49.56 39.35 42.57 46.70 51.26 50.16 47.72 44.04 42.35 42.69 42.77 42.07 41.08 41.96 44.89 46.75 47.91 48.23 44.95 43.00 42.56 46.46 44.09 41.86 42.06 40.30 40.62 39.87 34.87 28.17 25.75 32.24 41.68 43.18 45.58 46.44 49.48 52.57 53.05 52.66
50.00 42.11 52.19 55.40 42.82 42.67 40.15 45.40 47.49 49.17 51.43 49.12 48.39 46.80 43.60 45.53 42.50 41.37 41.59 46.57 49.18 49.28 44.90 45.54 41.90 35.38 42.30 47.13 48.01 45.29 43.10 42.53 30.53 32.07 31.76 29.08 31.86 43.90 43.79 45.74 46.96 47.28 52.13 53.21 53.28
46.27 46.95 53.49 52.16 36.62 38.05 42.39 45.85 48.34 48.11 48.38 48.13 47.28 48.44 47.73 45.69 41.92 43.38 46.07 49.90 50.36 48.62 45.20 46.33 39.48 29.70 35.21 41.13 45.48 42.40 43.78 43.83 43.22 36.41 31.82 25.81 31.57 44.56 45.33 44.20 46.06 46.00 48.13 52.06 52.50
46.91 41.49 48.93 49.80 45.14 41.26 39.97 42.72 44.41 50.14 49.16 49.85 48.58 48.93 46.27 44.17 46.87 43.24 45.13 49.41 50.25 48.16 45.77 47.83 42.66 36.44 29.95 36.77 42.53 39.96 43.43 43.76 40.39 30.17 30.94 32.07 37.77 42.09 42.64 43.77 44.78 45.94 45.92 48.77 51.89
46.66 42.14 48.04 41.69 43.31 42.06 43.81 44.45 44.40 44.58 49.14 49.71 47.24 46.92 44.96 40.49 43.14 42.83 46.37 46.78 49.14 46.49 46.83 45.21 37.74 40.33 42.39 44.28 44.50 43.08 43.04 43.69 40.65 39.82 34.00 37.65 39.86 42.77 42.38 43.25 43.93 45.75 46.56 47.10 48.07
44.46 43.41 48.41 45.21 45.88 44.30 42.52 43.71 44.97 46.30 47.28 45.95 45.86 46.82 45.76 42.92 45.00 42.44 46.63 45.60 44.35 45.92 44.51 45.87 37.85 38.15 36.55 43.23 41.87 38.84 41.67 41.84 41.41 41.71 39.67 40.02 39.56 44.11 45.01 45.01 44.80 45.45 45.86 46.53 46.94
47.61 49.32 48.47 44.38 44.69 42.32 41.66 45.26 45.96 47.91 48.59 49.37 48.84 46.96 44.82 48.12 49.85 49.48 50.03 49.47 48.86 45.13 42.78 41.89 36.14 32.87 30.61 37.18 36.05 28.40 36.09 39.98 41.29 42.02 40.75 35.19 40.00 43.52 43.80 44.98 44.36 44.82 46.24 46.34 46.99

GFSSW_sfc_wetblb_033.txt.gz
Wetbulb
59.51 59.09 58.99 58.78 58.26 57.52 56.96 56.80 55.92 55.21 55.06 55.50 55.76 56.02 56.21 56.07 54.72 50.54 46.40 51.52 51.92 58.35 57.85 50.31 49.70 47.74 46.19 43.87 44.55 42.58 37.26 34.88 37.00 38.15 45.58 50.90 50.99 53.16 55.49 55.63 57.43 59.20 58.19 60.14 62.50
59.60 59.60 59.01 58.82 58.08 57.45 56.97 56.71 55.60 55.57 54.68 55.27 55.75 55.89 56.27 55.72 50.07 48.27 54.90 57.95 58.96 59.66 50.65 47.13 46.98 46.45 41.74 40.95 42.39 40.75 35.95 39.06 42.05 44.88 46.80 50.50 48.74 52.06 52.98 53.84 54.86 55.93 59.62 61.06 61.35
59.69 59.48 58.98 58.51 58.19 57.65 57.15 56.30 55.58 55.43 54.52 55.00 55.65 55.64 55.72 54.13 48.64 52.41 61.83 59.85 60.39 60.30 50.03 49.71 49.07 47.05 41.85 41.34 41.50 40.15 39.18 41.71 43.69 49.71 49.94 49.33 48.79 52.99 52.33 50.11 53.70 53.72 55.69 58.61 59.34
58.95 58.64 58.38 58.29 58.27 57.54 56.64 55.69 55.61 54.76 54.20 55.06 55.09 55.42 55.29 50.31 42.40 49.51 62.74 62.13 61.13 56.89 50.49 47.76 46.57 43.65 40.77 41.21 42.88 39.05 43.02 43.48 44.95 51.38 50.36 49.44 50.70 48.86 48.86 51.61 56.85 56.36 57.71 57.89 57.80
57.95 57.77 57.78 57.84 57.97 57.35 56.12 55.49 55.39 54.50 54.33 54.80 55.33 55.21 50.11 44.95 47.26 56.81 62.28 61.79 57.62 51.75 48.05 47.44 46.68 45.46 41.32 41.68 41.50 41.39 43.72 44.78 48.05 51.42 50.55 52.39 49.06 50.11 50.20 54.67 57.26 57.54 57.31 56.99 57.68
57.89 57.40 57.04 57.20 57.25 56.81 56.14 55.24 54.66 54.47 54.04 54.58 55.16 54.32 47.54 39.68 55.17 58.12 55.55 53.49 51.48 48.94 48.60 48.52 48.51 48.61 45.28 43.71 42.44 46.67 45.39 49.60 50.03 50.88 51.88 49.74 49.66 51.39 50.83 56.74 56.62 56.31 55.60 55.89 55.68
58.30 57.43 57.07 56.93 56.85 56.24 55.69 54.98 54.35 54.23 54.27 54.60 54.50 51.58 47.23 42.73 53.98 54.67 54.58 50.90 50.13 49.19 48.74 50.82 50.73 48.28 47.09 44.57 48.09 47.45 42.93 48.48 48.95 49.23 49.34 50.50 45.60 47.99 52.57 56.71 55.66 55.13 55.84 56.07 55.93
58.81 57.62 56.58 56.22 55.79 55.35 54.74 54.23 53.88 54.13 54.43 54.41 53.79 48.23 45.32 53.68 53.81 54.74 52.68 52.67 52.44 50.54 50.71 51.78 50.78 49.21 47.43 47.49 46.54 42.72 41.04 38.54 46.83 48.71 49.41 47.10 40.59 46.57 52.96 54.05 54.27 55.78 56.40 56.64 56.17
57.95 57.65 56.64 55.43 54.88 54.41 53.80 53.84 54.07 54.43 54.55 54.55 47.53 47.10 45.53 55.91 53.27 56.53 54.21 51.94 51.88 50.79 50.58 52.98 49.88 45.76 46.47 41.53 37.77 39.04 34.38 37.44 43.41 48.60 47.14 44.99 41.91 47.27 51.71 53.97 53.02 55.29 55.79 55.18 55.17
56.92 57.39 56.47 55.39 54.62 53.66 52.95 53.44 53.56 52.97 52.38 52.65 50.96 41.65 47.09 48.64 53.95 53.89 52.89 53.06 51.23 50.66 49.67 47.99 44.17 40.88 40.37 38.82 32.27 34.58 35.97 35.30 37.29 40.94 45.55 44.12 41.19 48.13 49.88 52.40 52.99 51.74 54.73 55.23 54.46
56.30 57.25 56.67 55.49 54.60 53.09 51.25 49.02 46.78 47.02 47.59 44.36 42.82 43.12 46.88 51.87 53.12 51.78 52.27 51.16 50.68 48.41 42.50 45.31 39.97 36.63 38.88 41.41 42.57 41.19 39.22 37.47 40.41 44.90 43.53 42.55 42.24 47.01 48.17 48.82 48.77 49.01 50.98 55.55 55.99
55.99 56.49 56.47 55.39 53.94 53.45 50.10 45.63 47.86 48.43 42.88 49.53 49.85 48.85 51.77 52.86 48.54 49.61 52.44 47.31 46.77 42.10 44.53 41.35 37.82 43.04 44.97 45.00 44.02 42.46 40.13 40.61 42.13 43.54 42.18 41.04 41.36 44.86 47.60 49.22 50.50 49.62 49.90 51.41 56.09
55.18 56.15 56.07 54.58 53.39 51.22 47.41 48.58 52.91 50.62 40.47 46.87 50.88 50.28 51.51 52.31 48.49 47.13 49.93 47.66 44.46 42.46 41.96 38.71 42.07 46.59 45.53 43.13 41.95 40.14 39.15 39.49 40.57 41.44 39.64 39.83 37.73 40.68 44.07 48.70 49.93 50.97 51.91 52.33 53.28
54.03 55.27 54.59 53.05 49.46 49.73 48.71 52.75 52.60 50.46 38.62 42.88 48.19 50.64 52.19 50.07 45.82 51.12 50.41 48.80 44.53 42.99 42.43 41.13 45.07 44.30 42.63 41.44 41.96 37.57 42.64 41.86 40.94 37.87 32.25 37.60 30.29 37.75 41.42 45.82 48.39 50.55 49.56 51.36 52.29
53.33 54.46 53.39 53.28 49.11 49.85 53.26 53.11 51.99 50.63 23.03 42.22 48.03 54.05 49.42 46.30 46.36 47.01 50.82 48.35 43.34 43.94 42.83 40.34 42.54 41.59 40.64 41.91 44.04 40.85 43.86 41.87 41.62 38.12 34.90 35.69 32.20 35.24 40.26 40.22 45.96 48.98 50.03 51.60 52.19
53.13 53.99 53.29 51.82 50.52 49.75 51.96 53.91 53.14 34.90 25.15 41.91 48.02 45.60 44.12 45.62 45.60 46.25 47.57 49.13 47.56 44.43 43.40 42.51 45.89 43.71 43.03 45.40 45.00 45.18 42.29 40.60 39.29 37.07 29.15 35.79 33.25 33.50 38.28 41.96 44.61 49.69 50.63 50.73 50.00
52.91 54.22 52.96 53.27 47.17 52.01 53.58 52.50 38.77 28.03 41.75 41.55 42.29 44.49 42.64 42.13 43.10 43.94 42.67 41.94 40.03 36.61 36.35 40.56 42.01 43.93 46.63 41.50 43.97 42.40 36.89 29.15 28.46 27.39 27.19 37.69 34.37 36.80 41.55 43.83 45.01 45.50 48.19 48.68 51.08
52.37 53.19 53.44 53.42 51.88 51.17 55.02 47.30 33.20 38.19 39.59 46.31 43.83 43.00 40.03 42.16 42.03 42.43 40.29 38.06 40.64 40.13 36.25 34.84 33.14 42.10 45.83 42.44 39.92 39.11 37.36 29.96 26.06 24.85 29.34 37.95 32.94 37.84 44.39 45.55 46.14 46.19 46.23 46.94 49.19
51.82 51.88 52.25 53.40 53.10 50.15 50.00 38.99 34.01 39.18 44.69 40.94 42.24 39.11 38.66 41.57 41.45 40.16 38.52 38.13 40.41 41.67 36.76 34.71 36.00 43.18 45.28 45.88 44.44 40.70 35.43 39.73 32.73 31.69 29.30 32.48 37.13 41.39 44.05 44.46 44.90 44.74 47.10 48.33 49.60
45.96 48.07 49.15 53.83 53.49 47.96 44.92 39.29 40.80 45.93 47.53 45.37 37.83 40.15 36.27 38.12 38.37 38.17 37.59 41.19 40.85 42.77 43.10 40.22 34.56 41.84 44.03 45.72 45.60 42.13 43.24 33.63 32.99 27.34 26.28 29.82 31.02 34.30 40.76 42.84 43.62 44.24 45.20 48.31 50.38
46.04 43.19 50.11 53.42 52.60 43.75 37.26 38.53 42.69 47.54 47.58 44.59 41.40 38.99 39.52 38.36 38.73 36.52 38.43 41.13 43.04 43.64 44.07 42.37 38.01 37.19 42.85 40.45 39.52 39.32 37.30 36.78 36.29 31.09 26.27 23.95 30.41 38.12 41.41 43.20 43.46 44.59 45.27 47.15 50.44
43.93 37.50 50.76 52.73 42.33 39.56 36.40 40.63 43.88 44.87 47.46 46.21 46.01 43.81 40.56 39.83 38.19 38.28 38.23 41.04 44.07 45.75 41.58 42.96 37.79 30.88 38.62 43.12 44.51 41.46 38.98 37.84 29.23 30.18 28.37 26.91 30.21 40.77 41.08 42.42 43.23 46.19 46.42 47.74 50.65
39.51 42.74 51.38 50.11 37.05 36.00 39.41 41.20 43.67 43.31 43.65 43.85 44.19 45.15 44.01 39.58 36.78 39.10 40.06 45.51 46.29 44.35 42.15 43.20 36.41 29.03 34.04 38.63 40.94 38.70 40.15 40.34 37.28 31.53 29.53 25.18 30.13 41.59 40.83 41.20 42.82 44.82 46.50 48.39 50.27
41.45 37.00 44.32 46.30 44.63 39.58 37.43 38.67 40.35 45.70 43.55 45.46 44.88 46.05 43.38 40.50 42.10 40.06 41.82 45.58 46.59 45.60 45.49 44.33 37.61 34.83 30.59 34.74 37.78 35.19 39.16 39.28 37.67 29.11 29.75 29.31 34.34 39.82 41.63 41.13 42.17 42.23 43.78 46.84 49.82
40.94 38.17 43.22 37.94 38.84 40.57 39.75 39.60 38.77 39.76 43.85 44.23 41.84 43.68 42.19 37.88 38.52 38.90 42.86 43.77 45.29 44.74 43.54 42.63 35.72 35.63 36.51 37.74 39.99 39.11 39.20 39.44 37.12 36.28 32.01 35.52 35.12 39.84 39.78 40.77 40.73 41.23 42.28 44.49 48.27
37.84 40.09 43.28 40.24 41.93 39.59 39.44 37.46 38.54 40.89 41.74 40.90 40.25 43.82 43.09 39.88 40.15 38.74 42.55 41.43 41.60 42.80 40.86 41.72 34.35 35.75 34.03 37.72 37.11 35.50 38.34 37.85 37.66 37.93 37.28 36.98 36.49 39.38 39.85 39.80 40.88 41.19 42.63 42.86 44.24
42.58 44.33 43.20 40.68 40.09 38.39 37.66 38.15 39.27 42.66 43.44 44.43 44.76 43.92 41.45 43.69 45.28 43.96 45.40 45.90 44.90 42.57 39.34 38.06 33.81 31.56 30.15 32.91 32.31 28.63 33.68 36.43 37.69 38.91 38.53 33.33 37.59 38.71 38.97 40.40 39.63 41.00 42.62 43.13 43.86

GFSSW_sfc_wetblb_036.txt.gz
Wetbulb
59.59 59.46 59.28 59.04 58.46 57.92 57.30 56.89 56.66 55.52 55.48 55.30 55.26 55.43 55.57 56.01 54.37 49.85 45.90 51.14 51.55 57.68 58.10 48.96 48.12 47.05 45.03 42.83 43.10 40.42 35.24 32.48 35.08 36.78 40.91 49.86 49.64 52.43 56.36 54.64 56.84 58.10 58.43 60.37 62.78
60.04 59.93 59.49 59.19 58.09 57.70 57.47 56.98 56.25 55.74 55.14 54.93 54.98 55.07 55.99 55.71 50.08 47.26 54.68 57.51 58.64 58.82 49.55 46.21 45.43 44.50 40.54 39.81 41.22 38.99 34.72 37.03 40.96 40.80 45.14 49.05 47.92 52.28 53.24 53.61 53.98 56.75 60.15 61.51 61.71
60.23 59.72 59.56 58.97 58.21 57.81 57.35 56.44 55.89 55.70 55.28 54.64 54.71 55.31 55.51 53.34 46.72 49.97 60.92 59.79 59.57 58.98 48.90 48.34 47.80 45.65 40.78 39.88 40.23 37.97 37.65 41.18 42.77 43.73 49.06 48.16 48.42 52.48 52.60 49.59 53.55 54.39 57.48 59.53 60.11
59.61 59.20 58.84 58.58 58.24 57.92 56.96 55.79 55.75 55.23 54.91 54.62 54.74 55.45 55.43 49.11 40.82 47.57 62.91 61.91 60.93 55.77 49.11 46.19 45.17 42.06 39.79 38.59 40.78 37.68 42.22 42.60 43.45 50.47 48.73 48.10 50.52 49.11 48.76 51.16 56.71 57.35 58.11 59.04 58.26
58.60 58.33 58.25 58.38 57.96 57.40 56.54 55.81 55.57 54.90 54.68 54.64 54.88 55.38 49.90 41.28 44.25 56.39 61.76 61.27 56.02 51.41 47.22 46.42 45.25 44.06 39.97 40.27 40.27 39.72 42.40 44.16 45.96 50.27 49.71 51.10 48.95 50.17 51.43 55.36 56.75 56.90 57.08 57.09 58.15
58.05 58.20 57.87 57.68 57.38 57.19 56.48 55.61 54.86 54.66 54.37 54.53 55.05 54.38 46.21 37.00 52.45 56.00 55.73 52.12 51.18 47.59 46.68 46.84 46.86 47.36 44.25 42.53 42.48 44.58 45.24 47.21 49.59 49.49 50.95 50.30 50.04 49.66 52.28 55.65 55.45 56.19 55.43 56.56 57.47
56.81 58.05 57.70 57.43 57.01 56.67 56.09 55.39 54.45 54.41 54.33 54.55 54.64 51.15 45.67 41.82 52.74 50.72 53.32 50.50 50.23 48.54 47.31 49.28 49.58 46.07 45.68 43.06 46.67 45.63 43.76 46.95 47.97 49.38 49.11 49.39 43.54 47.60 54.29 55.69 54.14 54.35 54.31 54.71 56.57
56.85 57.32 57.35 56.71 56.21 55.83 55.24 54.55 54.11 54.51 54.43 54.68 53.86 47.43 43.80 51.29 52.00 53.68 51.84 51.50 51.52 49.69 48.83 49.96 49.46 47.14 45.02 46.31 44.38 40.61 40.58 38.71 46.37 48.02 48.08 45.41 38.25 49.07 54.76 53.72 52.75 53.31 54.37 55.48 54.75
56.13 56.51 56.81 56.29 55.57 54.92 54.53 53.90 53.86 54.53 54.57 54.29 48.48 45.73 42.24 53.31 50.33 53.86 53.83 52.02 50.79 49.40 49.22 52.00 48.40 44.26 44.27 39.64 37.55 38.01 32.82 37.01 43.05 47.86 46.88 42.69 39.73 48.31 53.59 54.03 52.60 53.45 54.54 55.65 54.74
55.10 55.65 56.29 56.31 55.28 54.23 53.27 53.56 53.29 52.55 52.71 52.55 50.57 40.93 43.85 46.48 51.80 52.65 52.32 52.28 50.12 49.44 47.95 46.29 43.01 39.69 38.85 37.78 32.61 33.62 34.32 34.10 35.15 40.46 44.66 43.31 39.43 46.52 51.39 52.50 53.13 53.20 54.00 55.09 54.27
54.92 55.26 55.61 56.37 55.47 53.80 51.08 48.70 45.32 45.81 47.69 45.45 42.09 40.10 44.02 50.51 52.71 49.87 50.98 50.24 49.32 47.25 41.44 43.82 39.16 35.57 38.26 40.19 41.49 39.92 37.48 36.44 37.81 42.28 41.85 43.38 41.93 45.51 49.02 50.95 51.25 51.60 52.75 54.21 53.86
54.68 55.14 55.51 56.23 55.26 53.39 50.07 45.06 47.90 47.70 42.61 47.80 48.17 46.57 49.17 51.64 48.84 49.30 50.89 46.35 45.61 41.06 43.01 40.52 36.85 41.80 43.42 42.57 42.05 40.53 38.19 37.57 40.81 41.33 40.83 39.02 39.92 46.32 47.43 49.63 51.14 51.72 51.56 53.29 55.27
53.43 54.09 55.00 55.59 53.68 51.39 47.42 47.66 52.87 52.07 41.13 44.43 48.44 47.87 49.51 51.51 47.54 47.77 48.78 45.98 43.02 40.84 41.00 37.82 40.14 44.73 43.44 41.07 40.37 38.72 37.23 38.15 38.21 40.69 38.60 38.73 36.04 41.35 45.31 48.21 49.46 51.26 51.89 52.89 54.20
52.75 53.00 53.69 53.46 50.46 48.49 46.84 52.30 53.35 51.20 36.64 40.61 45.63 48.66 50.39 50.63 45.45 50.56 49.42 47.43 43.27 41.23 41.24 39.59 43.49 42.83 40.81 39.98 40.96 35.62 41.72 40.22 39.35 36.35 31.75 36.45 29.73 35.98 40.69 46.34 47.04 49.57 48.82 50.65 52.04
52.19 52.73 53.22 53.51 49.37 47.89 51.65 52.56 51.68 49.76 24.86 41.13 46.59 53.24 50.17 45.70 45.53 46.26 49.10 46.95 42.47 42.79 41.84 40.06 40.37 40.80 39.13 40.75 42.47 39.83 42.54 40.67 39.56 35.98 34.27 34.61 32.12 34.40 39.01 39.70 45.91 48.03 49.78 50.15 51.51
52.17 52.57 53.07 52.63 51.03 49.15 52.10 53.42 52.23 37.14 24.56 38.54 46.61 44.62 42.79 44.02 44.13 44.62 46.16 48.15 46.09 43.31 41.68 40.71 43.70 42.31 41.67 43.38 43.41 43.80 40.67 38.86 37.86 35.52 29.02 33.77 32.24 32.85 36.29 41.02 45.20 48.20 50.02 51.26 50.79
51.88 52.30 53.06 53.45 49.33 50.76 53.31 51.32 40.58 28.92 39.81 39.03 42.04 42.95 40.78 40.37 41.61 42.16 41.86 41.12 38.75 35.24 34.89 38.91 40.57 42.37 44.69 40.02 41.98 39.94 35.67 28.44 27.22 27.23 27.16 35.91 32.91 35.43 40.44 40.78 43.56 44.00 48.09 50.50 51.47
51.43 51.16 52.43 53.26 52.64 50.00 53.73 46.04 32.55 36.70 37.58 44.12 42.30 41.47 38.42 40.75 40.34 41.11 39.14 37.45 38.96 38.81 34.99 33.82 32.31 40.98 44.09 41.72 38.81 37.69 36.36 28.77 25.10 23.90 28.37 35.98 31.48 37.17 41.81 44.23 44.98 44.59 44.56 47.39 47.65
50.63 46.51 49.18 52.77 53.90 51.18 47.96 36.77 33.46 36.81 42.41 39.92 40.45 37.60 37.05 39.60 39.69 38.76 37.84 37.01 40.04 40.68 35.98 33.03 34.34 41.51 43.64 43.83 41.97 38.19 34.21 38.04 31.53 30.34 28.58 30.77 36.14 39.70 41.41 42.93 44.49 44.21 44.06 43.74 46.15
46.03 45.37 43.45 53.13 54.00 48.92 42.07 37.75 41.25 42.96 46.25 43.99 36.30 39.07 34.95 36.84 37.16 37.18 36.27 39.72 39.48 42.32 42.19 39.46 32.96 39.84 42.18 43.95 43.12 40.08 41.68 32.84 31.52 26.91 25.50 28.53 29.36 32.45 38.66 40.21 42.15 43.14 44.50 45.53 46.65
45.34 39.94 43.60 52.66 52.57 44.96 34.53 37.09 42.07 46.60 46.25 42.81 40.33 38.26 38.21 36.87 37.43 35.48 37.17 39.42 41.47 40.54 41.86 39.78 36.28 35.27 41.31 39.01 38.17 37.56 35.58 34.84 34.81 30.37 26.16 23.03 29.31 37.50 39.47 41.68 41.57 41.52 44.23 45.14 48.10
43.51 33.41 48.57 52.10 41.71 42.28 38.34 38.80 43.21 44.80 46.54 44.55 44.05 43.01 39.68 38.55 36.71 36.72 37.07 40.37 42.70 43.48 39.43 41.22 36.62 29.28 36.76 41.12 42.08 39.71 37.77 36.21 28.90 29.25 27.68 26.31 28.98 39.72 39.61 39.92 40.80 42.88 43.92 44.69 47.74
39.16 38.69 50.32 48.41 35.74 36.31 40.79 39.68 41.94 43.03 42.85 42.60 42.30 43.83 43.00 38.54 34.62 37.84 38.54 42.36 44.04 42.72 40.72 41.87 34.63 28.32 32.77 36.68 39.14 37.50 38.76 38.14 35.28 30.81 28.95 24.21 29.54 40.33 40.14 40.64 41.09 41.62 43.53 45.28 48.15
40.17 32.84 42.79 44.25 43.36 37.79 37.22 37.32 37.12 44.21 42.61 43.64 42.88 44.43 41.79 39.39 39.54 37.21 38.62 44.07 44.71 43.74 45.12 43.78 36.34 33.71 30.13 33.86 36.52 34.13 37.69 37.71 36.13 28.56 29.36 28.98 33.38 38.48 40.20 39.98 41.55 42.05 40.80 42.26 47.27
40.65 34.50 41.00 34.60 37.18 38.96 38.94 38.31 36.63 37.63 43.15 43.71 40.63 42.25 40.52 37.05 36.66 37.51 40.81 42.18 42.93 44.41 41.86 41.15 34.37 35.04 35.60 37.08 37.60 37.23 37.50 36.93 35.52 34.85 31.70 34.55 33.58 38.58 39.45 39.64 39.69 40.18 40.18 42.24 46.26
36.94 36.74 41.11 38.16 38.86 38.49 39.41 37.10 36.94 38.91 41.10 39.10 39.26 41.40 42.12 39.15 39.11 37.45 41.17 40.28 40.11 41.24 40.19 39.67 34.31 34.11 32.93 35.90 35.89 34.87 36.26 36.10 36.39 35.89 35.32 35.30 35.06 39.79 38.37 38.16 39.26 39.37 41.80 42.89 44.40
40.68 41.35 41.56 38.12 37.83 36.16 36.10 37.68 38.04 40.89 42.56 43.65 42.22 41.00 39.55 42.48 45.14 44.25 44.21 43.63 42.10 40.34 38.24 36.51 33.36 31.09 30.03 32.09 32.66 29.01 32.95 35.97 35.72 36.83 37.45 33.12 37.55 38.76 37.29 38.84 38.43 39.97 41.45 41.01 40.86

GFSSW_sfc_wetblb_039.txt.gz
Wetbulb
60.01 59.86 59.47 59.26 58.80 58.16 57.97 57.58 56.99 56.30 56.23 55.87 55.17 55.03 55.62 56.16 54.89 50.85 49.34 54.26 54.16 57.57 58.14 52.69 51.99 51.38 49.76 49.01 48.49 46.60 44.02 40.13 40.49 40.81 44.04 52.45 52.02 54.56 58.35 56.37 57.33 58.80 59.31 60.92 60.39
60.58 60.62 60.24 59.55 58.42 57.80 57.54 57.50 56.55 56.15 55.98 55.80 55.28 55.17 55.72 55.91 50.93 49.19 56.77 57.48 58.59 59.26 51.68 50.00 49.17 48.12 46.81 46.85 47.88 46.79 42.59 42.12 45.09 45.29 46.87 51.51 52.22 54.07 54.53 54.71 54.91 56.84 60.98 60.65 60.07
61.01 60.55 60.04 59.46 58.69 57.94 57.52 56.77 56.09 56.06 55.66 55.37 55.38 55.67 55.73 54.69 48.41 52.71 60.95 59.15 59.40 59.42 52.18 51.87 51.06 49.39 46.32 46.54 46.03 44.65 43.20 44.79 45.96 46.37 51.02 50.80 51.41 54.26 53.71 52.10 54.91 54.67 57.32 59.64 59.84
58.07 59.53 59.74 59.33 58.82 58.10 57.22 56.31 56.11 55.94 55.47 55.19 55.40 55.57 55.67 51.43 44.90 51.21 62.82 62.52 60.50 57.54 51.98 49.93 48.70 47.54 45.44 44.55 46.39 43.41 45.56 45.77 46.28 51.32 51.50 50.80 52.44 52.94 52.36 53.29 57.54 58.05 58.88 59.29 58.12
56.48 57.43 59.03 59.37 58.94 57.76 56.78 56.07 56.11 55.77 55.26 55.04 55.50 55.60 51.85 45.22 44.02 58.98 61.62 61.13 57.83 53.47 49.95 49.07 48.81 48.25 45.33 45.35 44.80 43.66 45.42 47.12 49.27 52.02 51.90 52.65 50.67 51.44 52.91 56.44 58.61 58.97 58.68 58.29 58.86
55.97 56.32 57.62 58.78 58.40 57.69 56.84 56.03 55.56 55.26 54.89 54.85 55.29 54.72 48.64 41.25 55.02 58.34 56.63 54.52 53.81 51.58 49.70 50.01 49.97 50.36 47.64 46.93 45.44 47.38 47.47 50.32 51.41 51.96 52.61 51.60 51.93 52.27 53.86 57.01 56.51 56.25 56.32 57.99 58.07
55.69 56.19 56.35 57.99 58.03 57.42 56.82 55.88 55.24 54.85 54.81 54.83 54.98 51.51 47.21 44.54 54.95 55.76 54.75 53.18 52.67 51.69 49.96 51.07 52.23 49.94 49.57 47.36 48.82 48.27 47.14 49.54 50.86 51.59 51.47 51.75 47.97 49.69 55.16 56.42 55.31 55.47 56.35 57.47 57.75
55.46 55.22 55.62 56.30 57.14 56.82 56.08 55.15 54.71 54.83 54.75 54.81 54.10 50.14 44.85 52.19 53.75 54.49 54.05 54.06 53.20 52.63 51.30 52.12 52.39 50.42 49.28 50.00 47.36 43.98 44.65 41.84 48.96 50.74 50.55 49.15 43.74 50.79 55.58 54.92 54.13 55.24 55.61 55.93 57.24
54.95 54.69 54.89 55.20 55.90 55.84 55.11 54.49 54.28 54.59 54.57 54.32 49.94 49.33 43.52 53.08 50.26 53.97 55.37 53.64 52.33 51.49 51.52 52.02 52.11 48.42 48.36 44.94 42.96 42.55 39.41 41.30 46.18 51.10 49.65 47.76 44.77 51.03 55.73 54.38 53.39 54.55 55.12 55.97 55.24
54.24 54.32 54.46 54.57 55.16 55.26 53.66 53.67 53.67 52.93 53.13 52.85 50.81 45.11 46.46 47.79 52.44 54.50 55.03 54.40 52.45 51.81 50.55 49.90 47.51 45.64 44.65 43.73 37.93 39.62 40.44 41.51 41.48 45.54 48.51 46.89 45.70 50.77 53.86 54.00 53.32 54.44 55.41 56.01 56.81
53.81 54.26 54.59 54.85 55.03 54.48 52.33 50.13 46.37 46.51 49.06 47.23 46.38 43.68 43.63 51.15 54.29 51.94 53.35 52.29 52.32 50.63 46.08 47.62 44.80 41.76 43.16 44.39 43.88 43.49 42.30 40.96 43.16 45.79 46.13 46.95 46.53 49.27 52.42 53.14 53.24 54.32 55.26 56.10 56.87
53.48 53.73 53.91 54.71 55.30 53.54 51.73 47.06 47.75 49.30 43.67 49.05 48.71 47.48 48.97 52.59 48.74 51.66 53.17 49.27 48.95 44.94 46.61 44.96 42.35 45.10 45.06 44.82 44.45 43.71 41.79 41.28 43.41 44.15 44.05 43.42 43.79 47.34 51.24 52.50 53.97 54.61 55.14 56.26 57.43
52.82 52.76 52.74 53.37 54.07 52.38 49.91 48.37 53.03 52.99 44.04 45.58 48.20 47.79 49.11 51.30 48.04 49.13 50.55 48.61 46.27 43.69 44.45 42.75 44.04 46.81 44.93 43.69 42.70 42.56 41.89 40.96 41.43 43.15 43.26 42.59 41.91 44.40 48.88 51.57 53.31 54.68 56.08 56.30 56.61
52.09 52.20 51.68 53.56 51.28 50.62 48.21 52.65 53.32 52.59 37.82 40.58 44.57 48.20 50.46 51.34 47.11 52.44 50.92 49.72 46.67 43.74 43.61 44.03 45.95 45.19 44.35 43.16 43.70 40.61 44.41 43.17 41.88 40.75 37.55 41.32 36.54 40.14 45.63 48.76 50.48 53.25 54.09 55.32 56.25
51.46 52.20 51.52 53.30 49.68 47.80 51.32 52.87 52.69 50.45 26.89 42.38 46.51 53.45 50.90 47.28 47.67 47.71 50.42 49.71 45.20 44.72 45.26 43.50 43.89 43.73 42.57 43.56 44.88 43.23 44.90 43.71 42.98 40.47 39.82 39.50 38.54 40.86 42.72 44.41 49.15 52.11 53.10 54.46 56.16
51.30 51.99 51.47 51.67 51.61 51.01 52.78 54.38 52.55 39.15 26.84 38.78 46.66 45.45 45.21 45.35 45.85 46.69 48.19 50.47 48.94 45.61 45.26 44.49 46.94 46.02 45.61 45.70 45.56 46.16 43.88 41.57 41.49 40.63 35.84 38.15 38.95 40.21 42.20 44.83 48.08 51.44 53.72 54.19 55.56
51.05 51.26 51.43 53.15 48.83 52.14 54.38 51.57 38.55 32.01 40.92 38.31 42.21 43.54 42.44 41.67 42.94 44.33 43.87 44.11 42.44 38.63 39.21 42.28 43.83 46.41 46.90 44.33 45.51 44.19 41.14 36.01 33.73 34.47 34.00 39.30 37.90 41.85 45.40 45.40 47.21 48.74 51.43 54.71 56.35
50.69 50.58 50.93 51.09 54.04 52.70 53.20 43.69 32.25 36.78 38.04 44.01 43.79 42.06 39.70 41.93 42.29 42.34 41.58 41.08 43.06 41.63 38.27 37.48 35.96 43.64 46.67 45.60 43.43 41.99 41.74 36.43 28.80 30.31 33.97 38.45 36.13 41.94 46.74 47.98 48.56 48.86 48.90 49.70 53.59
50.21 48.39 47.52 49.52 52.53 51.76 47.02 35.01 34.95 38.09 41.75 40.95 42.23 38.90 38.63 40.86 41.46 41.44 40.93 41.35 43.04 43.55 39.52 36.97 37.41 44.79 46.31 46.74 45.92 41.71 39.54 41.78 35.64 34.15 34.64 36.60 40.21 44.53 45.90 47.36 48.66 48.86 49.35 48.97 50.40
45.79 45.03 44.63 50.45 53.11 49.70 42.18 36.54 39.47 42.74 45.78 45.17 37.81 40.81 36.20 38.23 39.39 39.96 38.85 42.14 41.95 44.09 46.41 42.88 37.33 42.70 44.84 47.14 46.21 44.19 44.52 38.25 37.38 30.71 28.86 34.22 35.20 38.05 42.94 44.88 46.31 47.97 49.63 50.57 51.60
44.40 38.86 44.60 50.14 52.10 44.73 35.75 37.45 40.86 45.34 46.96 43.43 41.67 40.75 39.60 38.24 39.88 37.87 39.17 41.97 43.54 42.48 44.87 43.08 41.20 39.08 44.36 42.84 41.84 41.46 40.62 38.84 39.60 36.57 32.45 30.23 35.36 43.38 44.51 45.72 46.98 47.22 48.11 50.39 51.53
41.90 32.85 44.91 49.46 38.80 40.71 37.05 40.05 42.61 43.14 46.62 45.27 45.41 43.92 41.75 40.25 38.22 38.85 39.54 42.81 43.57 44.51 41.96 44.66 41.13 36.35 39.87 44.05 44.98 43.58 42.56 41.47 37.34 33.84 33.61 33.21 35.55 44.50 45.64 45.31 45.26 46.74 47.22 50.30 51.41
37.65 37.53 45.64 45.96 33.42 35.02 39.72 39.70 41.57 41.46 43.21 43.78 43.16 44.71 45.53 41.19 37.86 39.72 40.10 44.09 43.97 44.17 43.21 43.96 38.76 34.51 36.84 40.56 42.80 42.20 42.13 40.68 38.52 37.03 33.56 34.81 37.01 43.94 44.69 46.00 46.21 45.83 47.32 48.27 51.31
38.98 32.47 39.67 41.48 41.03 37.01 36.57 36.66 37.58 43.19 42.50 44.87 43.96 45.43 44.33 42.22 41.70 39.10 39.93 44.10 44.59 45.11 44.57 45.80 39.73 37.81 34.25 37.93 41.04 38.88 40.21 40.63 40.93 35.60 36.23 36.53 39.83 43.83 46.01 45.17 47.09 47.26 46.77 46.89 47.92
39.88 35.00 39.44 32.31 34.82 36.60 38.39 37.56 36.70 36.92 42.80 44.31 41.88 43.13 42.14 38.60 40.00 38.85 42.01 44.26 45.11 45.07 44.95 45.06 38.45 38.68 39.10 40.01 40.33 40.28 40.61 39.78 39.18 40.11 38.27 40.55 37.87 43.13 45.74 46.14 46.30 45.04 45.41 48.06 49.82
36.23 36.24 39.60 38.66 37.12 36.11 37.73 36.30 36.39 38.48 39.91 39.75 40.06 42.28 43.03 40.92 41.47 39.36 43.06 42.92 42.80 43.06 42.98 42.49 38.69 38.20 36.79 38.87 39.65 38.97 39.96 40.28 40.16 39.36 39.39 39.65 39.98 45.02 45.29 44.60 44.17 43.57 46.49 46.53 46.13
42.10 40.26 39.40 37.73 36.42 33.57 34.50 36.82 37.70 40.64 41.55 42.88 42.45 41.71 40.38 42.56 45.91 45.96 46.51 46.71 45.93 43.82 41.08 40.33 37.43 35.98 33.97 35.51 37.16 33.63 37.66 39.85 39.86 40.85 41.96 38.31 43.99 43.99 42.92 43.24 43.82 44.42 44.69 43.50 42.69

GFSSW_sfc_wetblb_042.txt.gz
Wetbulb
60.87 60.78 60.31 59.90 59.33 58.64 58.26 58.11 57.49 56.94 56.61 56.62 56.39 56.15 56.06 56.44 55.68 54.92 54.92 57.23 57.38 57.42 57.70 56.65 55.88 54.83 54.78 52.64 53.59 52.42 46.86 44.88 44.68 45.06 46.66 54.17 52.26 57.72 60.10 58.63 59.64 60.75 61.64 63.09 61.74
59.04 60.54 61.11 60.42 59.24 58.44 57.92 57.77 57.09 56.85 56.88 56.48 56.20 56.16 56.34 56.22 54.60 53.94 57.80 58.57 59.15 59.67 54.85 53.21 51.17 52.43 51.02 51.30 52.50 50.16 47.10 45.27 48.83 49.42 48.41 51.09 53.48 55.97 56.81 56.68 57.90 58.55 60.28 61.07 61.80
57.34 57.71 58.59 60.37 59.51 58.70 58.01 57.22 56.77 56.85 56.84 56.48 56.38 56.54 56.17 56.18 53.14 56.05 59.90 59.09 59.69 59.40 55.23 55.15 52.95 51.51 49.12 50.92 50.77 50.25 47.14 49.62 50.02 50.21 50.27 50.83 54.55 57.15 55.58 54.38 57.51 56.84 57.19 59.07 59.76
55.86 56.21 57.28 58.84 59.91 59.02 57.90 56.87 56.91 57.00 56.78 56.02 55.86 56.47 56.07 55.44 45.43 56.23 62.79 61.53 60.65 59.81 55.13 54.47 53.30 51.19 49.62 48.45 50.81 47.23 50.57 50.52 50.22 51.92 52.33 52.48 54.97 54.30 55.85 57.02 59.62 60.51 59.54 58.95 57.77
55.34 55.81 56.07 57.05 58.96 58.83 57.71 56.89 56.79 56.75 56.27 55.73 55.82 56.02 55.53 50.32 48.33 60.85 62.44 61.93 59.24 57.43 53.62 52.97 52.48 51.63 48.56 49.88 50.04 48.46 50.11 51.54 52.88 52.53 55.07 55.40 54.10 53.37 55.11 58.55 60.29 60.21 59.22 57.94 57.65
55.15 55.53 56.28 56.96 57.58 58.50 57.86 56.98 56.24 56.12 56.00 55.58 55.53 55.17 52.50 45.76 56.86 60.72 59.52 58.11 57.17 55.58 53.12 53.86 52.99 53.60 51.29 50.61 49.61 51.19 51.01 53.91 53.69 53.75 54.91 53.68 54.67 55.52 57.13 59.73 58.97 58.90 57.82 57.59 56.46
54.78 55.27 55.45 55.76 56.46 57.32 57.74 56.94 55.95 55.69 55.79 55.50 55.22 54.28 50.68 49.30 56.73 60.61 57.93 56.41 56.62 55.22 52.55 54.16 55.21 53.36 53.13 50.41 52.16 51.67 49.31 52.86 53.44 54.48 54.27 55.25 51.40 53.61 58.27 58.31 56.99 57.12 58.72 57.25 56.24
54.68 54.68 54.64 54.78 55.33 55.71 56.45 56.29 55.51 55.53 55.43 55.33 54.83 53.49 48.98 54.57 57.29 57.07 58.65 56.92 56.69 56.49 54.49 55.42 55.19 53.93 52.60 53.45 51.06 48.95 49.11 44.77 50.90 53.95 54.30 53.99 47.32 54.97 58.34 56.98 56.15 57.41 57.29 58.51 57.22
53.97 54.08 54.07 53.78 54.23 54.76 55.51 55.53 55.11 54.96 54.52 54.28 53.04 52.18 47.64 54.69 52.42 55.25 58.67 55.08 57.21 56.04 55.64 54.20 54.73 53.13 52.49 48.52 46.47 48.13 43.62 44.38 46.92 54.24 53.06 52.35 48.17 54.78 57.79 56.28 55.48 56.28 56.52 57.52 57.61
53.30 53.63 53.70 53.89 54.13 54.36 54.45 54.08 55.53 53.44 54.58 54.93 53.46 48.41 51.55 48.15 53.96 57.30 57.62 56.43 54.97 55.02 53.35 52.95 53.05 50.29 49.43 46.72 40.61 42.71 43.60 45.71 45.56 50.45 52.46 50.97 49.79 54.29 56.87 56.29 54.86 56.15 56.37 56.51 57.89
53.06 53.34 53.36 53.97 54.44 54.63 55.50 57.83 53.44 50.84 51.78 50.83 50.68 49.40 46.77 53.19 57.16 55.93 57.94 56.18 55.31 53.54 49.40 52.40 48.66 45.20 46.45 47.25 47.74 46.84 45.15 44.50 47.07 49.62 48.23 48.47 49.54 51.71 55.91 56.16 55.40 55.52 56.83 57.26 57.66
52.64 52.56 53.07 52.94 53.35 54.53 56.28 53.48 52.59 52.53 46.95 52.52 51.80 51.72 53.47 53.51 50.72 54.37 56.93 52.61 51.59 48.15 50.84 48.90 46.10 48.75 49.11 48.79 47.47 47.01 45.29 44.68 47.37 48.13 47.62 47.91 47.10 50.84 54.97 55.88 56.43 56.39 57.05 57.61 58.30
52.28 52.16 52.65 52.10 54.06 54.07 55.43 54.90 57.06 56.22 48.26 49.35 51.59 50.11 51.04 52.18 49.51 51.41 54.20 52.80 49.88 48.01 48.62 46.92 47.98 49.75 48.44 47.59 46.20 46.89 45.41 44.86 44.73 47.35 47.91 46.55 45.35 47.97 52.94 56.25 57.26 58.20 58.42 59.09 59.04
51.79 51.86 51.92 51.95 51.05 55.40 53.16 56.32 57.29 56.56 43.48 44.09 46.03 49.94 51.70 52.26 48.19 54.37 55.34 52.49 49.66 47.38 48.48 48.32 50.20 47.99 47.84 46.43 47.82 43.90 47.91 46.64 46.06 45.08 41.56 46.17 39.52 45.84 49.90 52.19 54.84 56.37 58.17 58.35 59.09
51.85 51.65 51.56 51.45 51.30 52.83 55.05 58.28 57.54 54.88 30.74 45.34 47.53 54.84 52.77 48.97 49.07 50.94 55.51 52.45 47.88 47.56 48.36 46.42 47.56 47.36 45.93 46.89 48.72 45.62 48.29 47.18 46.84 45.61 44.41 44.04 41.79 45.24 47.92 47.74 51.57 55.14 57.25 58.86 59.17
51.78 51.50 51.37 51.22 50.40 55.02 57.28 58.39 55.66 42.61 30.55 41.42 48.84 47.22 46.57 48.74 48.67 51.01 50.69 53.28 52.59 48.96 49.64 48.57 50.80 49.75 48.39 49.26 49.37 49.46 47.47 46.77 47.20 46.14 39.34 42.93 42.65 43.95 46.07 47.15 49.49 53.01 56.08 58.15 59.61
51.31 51.25 50.76 52.55 48.29 56.95 57.86 54.75 41.18 34.13 43.08 40.53 44.46 47.08 45.73 44.57 46.44 47.97 47.19 46.85 44.81 42.10 43.10 46.97 47.49 49.89 49.93 47.30 49.29 48.41 45.60 39.49 37.49 38.03 37.32 44.04 42.11 44.56 48.31 50.01 51.37 51.97 53.51 56.89 59.36
51.06 50.66 50.32 51.47 53.19 56.58 54.00 45.83 32.99 37.72 40.07 45.21 45.64 46.23 42.98 44.72 45.83 46.79 45.92 44.31 47.66 46.52 43.99 41.48 39.46 46.58 49.81 48.29 45.99 46.61 46.06 40.29 31.57 34.09 38.53 42.71 39.25 45.02 50.13 51.72 52.69 53.98 54.95 55.41 56.34
50.43 49.07 47.65 50.00 53.44 52.83 47.76 36.84 35.51 39.51 43.69 42.71 43.87 42.60 42.22 43.36 44.77 45.47 45.43 44.76 47.01 47.89 42.53 41.59 41.31 48.35 49.46 50.14 49.45 45.82 43.08 46.98 40.84 40.91 38.83 41.49 43.68 48.01 49.19 49.62 51.01 52.25 53.95 54.90 55.39
47.86 44.65 45.06 50.53 53.27 47.55 41.64 37.13 39.46 44.48 45.92 46.01 39.70 44.35 40.07 40.71 41.78 43.53 44.22 47.11 46.30 48.56 49.89 46.22 41.02 46.75 48.40 50.38 49.54 47.74 49.11 41.61 43.21 33.54 31.97 39.07 40.12 43.09 45.35 46.83 49.58 50.18 52.20 54.82 56.27
46.76 39.12 47.04 51.10 50.76 41.28 35.04 38.88 41.26 46.73 47.95 45.49 43.66 41.93 43.44 41.53 41.90 42.88 43.64 45.58 48.61 48.01 49.74 48.07 45.34 43.74 47.62 46.13 45.56 45.74 44.56 44.84 44.52 42.41 35.78 34.32 39.20 47.83 47.41 48.70 50.02 51.01 52.31 54.36 56.06
43.01 34.27 48.56 50.95 36.13 37.84 36.30 41.90 43.08 44.55 48.63 47.17 47.47 46.51 44.26 43.89 41.39 42.22 43.00 45.75 49.34 49.73 45.39 48.67 45.89 41.44 43.47 47.97 48.86 47.94 46.09 46.28 40.51 38.46 41.10 39.87 40.17 49.15 50.33 51.01 50.93 51.19 51.81 54.15 56.01
37.61 39.04 48.24 47.68 30.40 32.64 39.43 40.78 43.38 43.70 44.89 45.99 45.26 47.57 48.00 44.84 40.87 44.06 45.00 49.26 49.26 48.89 46.96 48.35 44.12 39.07 40.36 43.78 46.62 44.98 46.54 46.53 45.74 43.75 40.55 38.48 41.00 49.59 50.08 50.46 52.08 52.13 52.50 52.45 53.91
38.67 32.43 39.86 41.01 42.66 37.67 36.62 38.70 38.63 44.84 44.39 47.01 46.34 47.63 46.68 44.53 45.96 42.90 44.34 46.56 48.62 49.49 47.08 49.01 45.91 42.32 38.03 41.38 44.86 42.76 44.67 46.10 45.30 41.09 41.35 41.95 43.54 47.55 49.15 50.01 51.37 52.02 52.69 52.32 52.69
39.16 35.60 38.76 32.71 35.63 38.87 39.84 39.31 38.08 38.75 44.56 46.54 45.29 45.80 45.26 41.70 43.11 42.68 44.17 45.79 46.78 46.21 48.48 48.73 42.74 44.54 44.36 44.64 44.68 44.07 43.80 45.24 43.95 44.91 41.77 43.88 43.87 46.91 48.61 50.27 51.00 51.10 50.53 51.47 52.68
35.20 38.58 42.16 38.38 38.65 37.53 39.13 37.64 37.94 40.23 41.86 41.17 42.80 45.52 46.09 43.34 43.71 42.15 44.40 45.10 45.55 47.53 47.40 48.78 42.83 44.65 41.79 44.56 44.22 42.71 44.65 44.97 45.53 45.50 45.45 45.55 44.69 49.86 51.19 51.85 50.85 49.59 50.37 51.45 52.16
42.56 45.44 42.96 38.49 37.72 35.75 37.72 37.73 38.96 41.94 43.37 44.56 44.71 43.62 43.31 45.36 47.95 47.44 47.80 47.57 47.60 47.34 46.49 46.23 44.31 41.43 37.80 42.94 42.67 38.09 42.92 44.72 45.72 47.16 46.70 43.09 47.35 50.31 49.64 49.81 50.77 50.50 51.29 50.89 50.70

GFSSW_sfc_wetblb_045.txt.gz
Wetbulb
59.18 59.67 60.90 60.91 60.27 59.53 59.01 58.55 57.98 57.59 57.45 57.13 57.18 57.08 57.18 56.98 55.85 58.77 57.08 58.18 59.15 59.75 57.10 57.65 57.01 56.35 56.31 54.42 54.33 53.78 47.55 44.22 45.44 46.56 47.78 52.80 52.40 57.92 60.65 58.86 60.44 62.00 62.88 63.55 63.47
57.57 57.91 58.57 59.38 60.15 59.55 58.88 58.36 57.65 57.43 57.53 57.45 57.13 56.89 57.05 56.64 56.48 55.45 59.41 59.77 59.66 60.31 57.05 54.25 52.64 53.73 52.36 52.86 53.14 50.75 47.96 46.64 50.13 50.88 49.96 52.19 54.50 56.92 56.89 57.43 58.32 60.49 62.56 62.83 63.12
55.81 55.86 56.46 57.89 59.00 59.53 59.20 58.35 57.55 57.61 57.61 57.17 56.80 56.77 56.48 56.42 54.88 54.71 59.78 60.23 60.08 60.30 57.71 54.98 55.08 52.55 51.09 52.44 52.13 51.39 47.72 50.80 51.05 52.15 52.53 51.99 53.37 57.67 56.51 54.04 51.77 57.69 58.58 60.80 61.50
55.31 55.09 55.05 55.70 57.76 58.87 58.81 57.89 57.86 57.75 57.47 57.23 56.68 56.84 56.27 57.35 46.66 60.26 62.38 60.55 60.83 59.80 56.67 55.18 53.27 51.30 50.92 49.48 52.44 48.94 51.72 51.70 52.02 52.32 52.71 53.54 53.63 54.64 56.40 57.50 60.77 61.94 59.64 58.97 58.51
55.26 55.22 54.99 55.31 56.36 57.83 58.05 57.82 57.85 57.68 57.24 56.81 56.48 56.16 56.72 53.09 52.80 63.27 63.29 61.82 58.59 58.39 55.68 54.90 53.28 53.12 49.86 49.89 51.35 50.30 51.28 52.92 54.14 53.62 55.67 56.54 55.45 54.45 56.77 59.64 61.40 59.84 58.60 58.01 58.06
54.52 54.99 55.27 55.22 55.54 56.64 57.09 57.42 57.46 57.13 56.83 56.58 56.21 55.50 54.82 48.92 56.70 61.32 61.69 58.85 58.05 56.91 55.90 55.49 54.51 54.84 52.68 51.18 50.25 52.41 51.82 53.49 54.24 54.63 55.87 54.36 55.57 56.75 58.33 60.66 59.10 58.94 57.74 57.40 57.01
54.14 54.53 54.58 55.00 55.12 55.34 56.26 56.48 56.96 56.74 56.62 56.39 55.86 56.09 52.17 51.87 57.54 61.10 59.50 57.65 57.94 57.32 55.05 56.51 56.54 54.48 54.45 51.20 53.25 52.11 49.70 52.86 51.91 53.77 53.52 56.07 47.02 53.63 58.98 58.64 56.71 57.83 58.36 58.00 57.92
53.97 53.98 54.09 54.34 54.07 54.26 54.85 55.29 56.12 56.78 56.22 55.47 55.43 56.18 50.66 57.30 57.68 58.39 59.77 57.06 57.69 58.33 56.62 57.45 57.38 55.12 54.03 54.57 52.03 49.38 50.30 45.33 51.44 53.94 55.04 52.50 40.76 55.47 58.73 57.16 56.11 56.45 58.77 58.23 58.48
53.57 53.40 53.57 53.54 53.66 53.85 54.48 54.99 55.86 56.44 55.03 54.63 55.43 54.33 50.09 56.21 52.50 55.38 60.41 55.79 56.42 56.65 57.24 56.46 56.29 53.75 53.92 49.08 47.22 48.65 44.46 45.43 47.32 53.09 53.82 52.21 45.66 55.91 58.15 57.02 56.22 56.10 57.80 58.32 57.85
53.40 53.24 53.02 53.16 53.44 53.65 54.09 54.85 56.77 54.25 55.64 57.60 56.42 51.22 53.85 50.47 52.53 53.72 59.66 57.93 55.98 55.74 54.66 54.63 53.56 50.63 50.26 47.54 41.60 43.54 44.20 46.43 46.07 46.69 51.72 50.10 50.04 55.07 57.31 56.02 56.09 55.68 57.00 57.72 56.13
53.25 53.17 52.90 53.06 53.37 52.99 55.18 58.11 54.55 53.56 54.62 50.32 52.57 51.01 49.36 53.43 57.28 55.14 56.96 56.22 56.24 54.40 49.65 53.20 49.29 46.77 48.41 48.96 48.01 47.54 46.42 45.73 47.76 50.40 48.31 48.79 49.37 50.42 56.51 56.75 55.13 56.18 55.57 56.91 57.22
53.34 52.69 52.63 52.78 52.84 53.32 56.32 53.29 54.17 54.96 48.34 53.67 53.33 53.11 55.45 54.58 51.36 53.17 58.11 52.48 52.53 49.02 51.47 50.51 47.00 50.44 50.22 49.41 47.63 47.50 45.79 45.64 47.94 49.52 48.81 48.36 47.98 50.48 55.09 55.97 56.24 55.67 56.65 56.15 57.40
53.11 52.70 52.33 52.33 52.90 53.62 55.06 54.94 59.22 58.61 48.32 48.55 52.39 52.22 52.43 54.07 50.00 51.04 54.88 53.11 51.02 49.17 49.60 47.54 49.57 51.31 48.63 47.54 46.85 47.32 46.29 45.80 45.55 49.06 50.00 48.29 46.59 48.34 52.62 56.08 56.90 57.04 57.06 57.98 57.63
52.22 52.32 51.76 51.86 48.93 53.59 53.23 57.93 59.47 58.44 43.09 44.55 49.12 51.76 52.95 53.13 49.17 54.24 55.51 53.48 51.34 48.25 49.37 48.76 51.56 49.00 48.15 47.37 48.16 44.96 49.14 47.38 46.80 45.97 41.80 48.75 38.87 45.17 50.44 52.45 55.28 56.45 56.77 57.33 58.52
51.64 51.81 51.32 51.29 50.24 53.23 57.13 59.69 60.06 57.30 30.58 46.84 49.25 55.65 53.48 49.84 50.53 50.96 55.31 52.73 48.87 48.74 49.61 47.14 48.66 48.28 46.95 47.76 49.54 46.72 49.61 48.19 47.94 46.58 46.12 45.43 42.30 45.99 49.27 48.78 52.23 55.65 56.90 57.82 58.75
51.04 51.83 51.36 50.02 50.88 53.76 59.48 59.86 57.79 41.89 31.33 43.43 49.92 48.22 48.79 49.67 49.88 52.00 51.25 53.76 53.09 49.58 50.03 49.25 52.47 50.79 49.70 50.33 50.09 50.93 48.68 48.35 48.55 46.77 40.33 44.29 43.82 42.29 46.39 47.64 49.65 54.19 56.69 57.94 58.29
50.69 51.58 51.32 51.93 48.25 55.02 56.09 54.35 40.34 33.38 43.74 41.89 45.07 48.31 47.86 47.06 47.68 49.23 47.65 46.80 45.23 42.89 44.13 47.08 48.28 50.72 51.22 47.87 50.51 49.25 46.62 39.79 38.52 38.90 38.10 45.36 43.18 44.97 48.07 50.34 51.02 51.77 54.07 57.48 59.23
50.42 50.90 50.02 52.17 54.33 52.85 51.55 45.54 32.67 38.24 40.02 46.75 46.21 48.20 45.10 47.42 47.35 47.74 47.17 44.59 47.93 47.66 45.41 42.65 40.78 48.04 50.85 48.63 47.07 47.33 46.91 41.37 32.10 36.05 39.11 45.55 40.26 44.23 51.12 52.05 52.65 53.91 55.17 55.79 57.79
50.24 49.97 49.34 51.42 54.02 51.71 43.70 34.88 36.63 39.41 43.21 42.98 45.02 44.08 44.87 46.33 46.51 46.55 45.89 45.02 46.57 48.76 43.76 43.35 43.05 49.68 50.24 50.76 50.22 47.36 44.34 49.31 42.10 44.05 39.96 42.73 45.52 48.45 50.07 49.59 51.08 52.21 54.35 56.12 57.13
46.85 46.27 46.66 50.45 53.83 49.58 38.43 35.91 39.85 43.74 44.00 45.03 40.22 45.13 43.13 44.35 43.69 45.23 44.88 47.35 46.42 49.14 50.93 47.37 42.18 47.93 49.29 51.37 51.25 49.00 50.71 43.11 44.20 35.29 33.73 40.15 42.13 42.80 46.63 47.83 49.41 50.38 52.36 54.52 57.00
45.99 40.04 48.09 51.53 50.27 42.18 32.32 37.82 42.44 45.22 45.87 43.57 43.52 42.64 45.20 45.12 44.47 44.05 44.48 47.12 48.53 48.60 50.37 48.94 46.14 45.35 49.12 46.85 46.14 46.78 46.01 46.65 45.90 43.22 36.89 35.97 40.87 48.67 47.92 49.41 49.55 51.46 52.21 53.57 54.95
42.86 34.89 48.71 50.50 36.36 38.54 34.22 39.87 43.41 44.21 46.48 45.24 47.11 46.44 45.04 46.85 44.68 43.76 43.58 46.03 49.16 49.93 46.67 49.21 47.09 42.63 44.86 50.14 50.92 49.16 47.26 47.16 41.51 40.18 42.96 41.66 41.68 51.16 50.96 51.50 51.67 52.47 52.74 54.40 55.38
38.63 39.71 49.48 48.27 31.18 35.71 38.73 39.79 43.03 43.25 43.94 44.20 45.45 47.93 49.31 46.29 43.44 45.49 45.89 49.33 50.74 49.06 47.91 49.21 44.81 40.40 42.10 46.35 49.00 46.61 48.28 48.19 47.92 46.61 41.75 39.43 41.62 50.69 51.01 50.91 51.86 52.10 53.41 53.96 55.14
39.23 33.05 39.58 42.20 42.59 38.96 36.49 37.22 37.97 44.31 44.29 45.13 45.99 47.81 47.05 46.36 48.26 45.21 45.32 47.96 50.93 49.16 48.34 49.96 46.36 43.27 39.89 43.29 46.37 43.78 45.48 46.97 46.27 42.32 41.90 42.46 44.30 48.12 49.70 50.36 51.44 52.54 53.96 54.04 54.80
39.48 36.60 39.74 32.35 36.43 39.95 39.98 38.86 37.59 38.01 44.37 45.48 43.86 45.45 44.34 42.79 44.55 44.26 46.47 47.41 47.36 48.23 48.83 49.18 43.20 45.02 45.60 46.75 46.37 45.77 45.47 45.80 44.60 45.23 42.20 44.48 44.83 47.89 50.04 50.88 51.14 53.40 53.15 52.47 53.58
34.73 39.12 41.50 40.41 39.80 38.90 38.96 37.39 37.82 39.93 41.55 41.27 42.04 45.00 46.48 43.90 45.13 43.48 45.58 45.60 44.59 47.72 47.27 49.66 43.68 45.11 42.93 46.24 45.84 43.58 45.08 45.34 45.45 45.84 45.58 45.80 45.33 50.67 51.24 51.64 51.35 51.94 52.24 52.82 54.00
41.82 45.53 42.22 39.11 38.19 38.17 38.86 38.58 38.32 41.57 43.60 44.67 44.14 43.49 44.29 46.46 50.05 49.44 49.41 48.84 48.21 47.48 46.35 46.84 45.58 42.77 39.60 44.65 44.37 40.28 43.86 44.83 45.68 46.95 46.93 43.69 47.92 51.03 50.25 50.41 51.55 52.36 52.77 53.64 54.60

GFSSW_sfc_wetblb_048.txt.gz
Wetbulb
57.71 57.98 58.57 58.92 59.18 60.13 59.96 59.47 58.71 58.37 58.16 58.24 57.91 57.66 57.54 57.21 56.03 57.77 56.28 59.60 61.05 60.30 57.50 58.44 57.55 56.42 55.74 53.86 54.22 53.24 45.70 43.71 45.60 46.23 47.67 52.01 51.16 55.56 55.41 56.57 55.91 56.42 58.46 61.33 61.48
56.11 56.22 56.24 56.67 57.89 58.53 59.39 59.35 58.67 58.32 58.25 58.17 57.69 57.53 57.11 56.70 55.36 54.69 60.57 60.90 60.13 60.36 55.19 55.18 52.82 54.01 51.79 51.82 52.34 49.44 45.93 46.65 49.97 50.11 49.16 50.76 51.56 54.35 50.67 54.50 51.46 51.50 57.15 61.49 61.62
55.47 55.35 55.37 55.30 56.33 57.52 58.16 58.50 58.52 58.67 58.50 58.14 57.82 57.61 56.51 56.20 54.45 55.70 61.01 60.93 60.39 60.02 56.28 56.53 54.25 52.57 49.66 51.56 50.99 50.12 46.53 50.12 50.38 51.42 51.74 50.59 52.00 54.25 54.23 52.17 51.56 51.84 56.99 59.62 59.70
55.05 54.85 54.91 55.11 55.12 56.40 57.13 57.16 58.04 58.68 58.61 58.12 58.08 57.67 56.79 56.84 47.04 59.03 61.95 61.02 60.98 58.46 55.57 54.22 52.58 50.33 48.78 48.82 51.95 47.69 50.30 51.19 51.27 52.88 51.72 51.00 55.08 54.38 56.67 57.19 57.23 58.19 59.42 59.02 58.15
53.83 54.54 54.74 54.87 54.90 55.66 55.90 56.42 57.10 58.10 58.16 58.01 57.87 57.63 55.82 52.99 53.40 61.36 63.39 60.96 57.23 55.96 54.86 53.31 52.19 51.30 49.29 50.77 50.36 49.00 50.08 51.56 53.70 53.53 52.66 54.58 53.02 52.15 56.30 59.09 60.05 58.98 58.47 58.06 57.24
53.98 52.76 54.24 55.07 54.86 55.20 55.03 55.35 55.93 56.84 57.66 57.87 57.66 56.46 54.60 47.48 58.31 61.66 62.35 59.39 56.36 55.31 54.79 54.95 53.42 54.55 51.72 51.08 49.52 50.92 51.19 50.77 53.99 53.06 54.10 49.98 49.27 50.68 56.74 59.07 58.35 58.20 57.40 56.96 56.34
54.06 53.86 53.85 54.28 54.70 54.75 54.56 54.56 55.10 55.67 57.12 57.42 56.86 56.16 52.57 50.94 58.07 57.95 59.90 58.46 56.44 55.82 54.08 55.99 55.88 53.54 53.29 51.12 53.08 51.41 47.57 49.80 52.23 53.21 52.47 52.85 47.05 47.30 52.79 57.87 57.22 57.11 56.74 56.82 56.01
54.03 53.61 52.73 53.37 53.83 54.13 53.94 54.07 54.72 55.57 56.86 57.14 56.01 54.89 49.48 58.47 59.29 57.75 59.01 57.66 57.25 57.10 56.74 57.35 57.02 54.22 52.50 53.74 51.46 48.36 48.12 44.38 50.60 52.76 53.05 51.09 42.85 49.30 54.28 55.83 54.88 56.79 57.08 56.12 55.71
54.43 53.41 53.09 52.24 52.62 53.29 53.41 53.61 54.23 55.79 56.80 56.09 54.24 54.07 49.17 56.97 54.78 55.91 57.82 55.41 55.08 55.99 57.04 56.78 55.19 52.11 51.97 48.24 45.83 47.15 42.17 45.04 47.55 52.35 51.96 50.67 44.12 49.32 53.53 56.02 54.20 56.15 55.96 56.39 56.29
53.97 53.81 53.08 52.85 52.74 52.69 52.63 52.02 54.43 55.87 56.50 57.67 56.16 50.16 52.89 51.19 54.63 54.63 56.33 57.83 53.86 53.92 53.06 52.80 51.31 48.25 48.17 45.81 39.76 42.67 43.54 45.33 45.68 49.73 50.02 49.37 48.18 50.47 54.37 55.30 54.20 54.94 55.35 55.31 54.93
53.39 53.61 53.33 52.93 52.69 52.56 51.70 54.48 52.27 53.22 55.01 50.99 50.17 49.12 50.74 55.78 56.11 51.80 53.92 56.02 54.62 52.22 47.31 50.63 46.64 44.19 46.93 48.74 47.79 46.08 44.92 45.12 48.01 50.82 49.54 47.53 48.42 49.36 50.58 53.53 53.94 54.14 55.12 54.89 55.63
52.77 52.85 53.41 52.90 52.47 52.62 51.83 50.92 51.50 54.95 46.94 51.62 52.10 53.13 54.46 56.09 50.66 52.62 53.81 51.57 50.31 47.18 49.59 47.93 45.42 49.68 50.79 50.06 47.77 46.17 44.36 44.72 47.41 50.50 48.33 46.58 47.11 50.89 50.80 53.78 54.25 54.26 54.85 54.47 55.84
51.69 52.79 53.06 52.38 52.56 50.68 49.44 52.10 57.69 57.78 47.22 47.10 49.05 48.77 50.66 52.70 50.28 51.14 52.96 51.28 48.30 46.79 47.87 45.69 48.36 51.95 49.59 47.84 45.75 45.70 44.52 45.15 45.68 48.58 49.64 47.58 44.91 48.30 53.16 54.46 54.85 55.69 56.16 56.25 55.64
51.56 52.17 51.82 51.75 48.22 51.68 49.12 55.94 57.44 58.69 41.51 41.18 45.46 49.71 50.26 51.58 47.09 53.73 54.24 51.67 48.84 46.16 47.95 47.75 50.83 49.60 48.44 45.75 46.54 43.11 48.10 47.44 46.26 44.73 40.29 47.63 38.34 45.82 48.61 50.62 53.27 54.26 55.39 55.85 56.29
51.71 52.01 51.47 51.09 49.63 49.85 54.00 56.34 58.67 56.68 26.87 44.80 47.59 55.77 53.29 48.84 49.62 49.72 54.24 52.40 47.21 47.27 48.32 46.22 47.90 47.42 46.71 46.63 48.69 45.67 49.95 48.29 47.15 44.79 44.34 44.20 41.57 44.60 48.58 47.93 51.35 54.04 55.21 56.50 57.26
51.65 51.60 50.97 49.24 49.95 51.44 54.61 55.35 56.56 39.85 28.60 42.05 49.83 47.89 47.83 49.19 48.76 50.99 50.31 53.12 52.18 48.18 48.86 47.76 51.67 50.02 49.40 50.02 49.86 50.37 48.21 47.93 47.40 45.19 38.60 43.72 42.73 41.60 44.97 46.98 50.03 54.16 55.84 56.36 57.14
51.34 51.17 50.53 49.55 46.34 53.89 55.17 50.22 38.24 31.41 42.09 39.67 44.64 48.09 46.51 46.46 46.47 47.76 47.03 46.03 44.70 41.30 42.49 46.03 46.87 50.33 51.14 47.47 49.72 48.27 45.39 38.59 37.07 37.44 36.98 45.34 42.42 44.42 48.45 50.21 51.44 53.36 55.12 56.70 57.54
50.95 50.61 50.01 49.20 52.24 52.31 50.27 43.27 30.48 37.20 38.87 46.88 45.87 47.18 44.43 46.82 46.96 46.85 45.84 43.61 47.67 45.93 43.00 40.59 39.37 46.71 50.50 47.75 46.19 46.21 45.16 40.15 32.27 33.06 37.35 44.99 40.02 44.04 50.61 52.15 52.50 52.87 54.27 56.87 57.53
50.54 49.38 47.97 50.38 52.89 51.50 43.17 32.88 33.77 37.75 42.32 40.84 44.25 42.59 44.07 46.55 46.53 45.80 45.63 44.90 46.70 47.30 41.85 40.72 41.68 49.01 49.91 50.14 48.97 46.30 42.90 48.15 41.27 41.57 38.22 41.34 44.43 49.13 50.52 49.64 50.60 51.82 53.43 54.92 55.70
47.66 45.42 45.87 52.12 52.21 47.75 38.29 33.14 36.97 42.02 43.61 43.13 38.18 42.26 41.21 44.54 44.13 44.53 44.60 47.92 47.09 48.92 49.19 45.75 41.67 47.84 48.87 50.27 49.98 47.42 49.72 42.22 43.45 34.49 32.79 39.19 40.84 41.55 46.16 47.50 49.02 49.83 52.47 54.93 56.81
45.74 39.64 47.16 50.62 51.87 41.98 32.13 34.35 38.70 43.83 44.53 41.58 40.01 40.19 41.74 42.15 45.43 43.50 44.43 47.47 49.45 48.65 48.77 47.14 44.85 44.68 47.95 45.43 44.29 45.66 44.84 46.07 46.04 42.89 36.07 34.78 39.40 47.13 48.12 49.96 49.71 51.90 52.39 55.29 56.57
42.95 34.73 48.75 50.63 36.91 37.97 34.39 38.31 41.33 41.03 44.30 43.71 43.91 42.11 42.46 44.26 43.32 44.57 43.48 47.03 50.58 49.91 45.09 47.59 46.35 41.05 43.81 48.62 50.06 48.73 46.50 46.93 40.78 38.95 42.86 41.45 40.42 51.58 50.53 51.45 52.29 51.99 53.26 54.73 56.44
38.83 38.62 47.76 47.99 30.24 32.65 37.85 37.26 40.00 40.02 40.74 42.40 42.15 43.89 45.09 43.90 42.02 45.83 46.77 49.93 50.81 49.02 47.23 47.62 43.21 37.97 41.02 46.02 48.70 45.70 47.43 47.37 47.44 46.14 41.32 36.38 39.97 51.06 51.45 50.65 51.88 53.16 53.08 53.78 54.60
38.91 32.32 39.90 41.86 41.55 36.86 35.39 36.32 35.81 41.64 41.18 42.74 43.24 44.55 43.40 43.75 46.67 44.46 45.84 48.90 51.65 49.57 47.27 49.22 44.94 41.45 37.42 42.21 46.08 43.73 45.79 47.30 46.14 39.94 40.32 41.79 43.64 47.61 49.21 49.92 50.79 52.16 52.76 53.09 54.55
39.31 35.56 39.20 32.46 34.66 37.99 38.44 37.92 36.13 35.68 40.80 42.48 41.82 42.65 41.98 40.22 42.78 43.10 46.91 47.16 48.85 49.12 49.68 49.01 42.77 44.11 44.40 45.55 46.38 45.53 45.19 45.30 43.94 44.69 41.47 43.79 43.73 47.23 49.28 50.37 51.63 53.44 53.73 53.15 52.85
33.84 37.59 41.50 39.00 38.22 37.09 37.83 36.88 36.42 38.36 38.79 38.18 40.23 42.77 43.59 41.52 43.27 41.46 45.56 46.35 45.66 48.23 47.29 48.56 42.42 43.93 41.27 44.96 45.06 43.85 45.75 45.62 45.23 45.34 45.13 45.63 44.93 49.97 50.95 51.26 51.51 51.27 51.75 52.14 52.55
41.16 44.34 41.80 38.34 37.34 35.77 35.96 37.61 38.07 40.42 41.72 42.07 42.44 42.55 42.54 44.47 46.99 48.05 49.34 49.10 49.55 47.72 46.27 45.92 44.80 40.87 36.51 43.44 42.86 37.71 44.45 45.39 45.71 46.46 46.07 42.54 47.36 50.35 49.76 50.40 50.92 51.65 52.32 52.39 52.95

GFSSW_sfc_wetblb_051.txt.gz
Wetbulb
56.85 56.59 56.79 56.95 56.66 57.12 58.06 58.57 58.99 58.93 58.94 58.90 58.67 58.31 58.38 57.87 56.38 54.73 52.29 56.62 57.53 60.74 57.64 55.26 53.30 52.51 51.62 48.94 49.18 47.16 37.94 36.38 39.96 43.59 45.63 50.66 51.07 54.08 55.19 52.37 54.47 54.34 54.74 58.74 61.46
55.39 55.54 55.70 55.62 55.95 56.14 56.95 57.52 57.52 58.29 58.63 58.67 58.38 58.20 58.14 57.38 53.35 51.75 57.88 61.11 60.43 60.47 51.91 51.09 50.87 50.77 46.30 46.48 46.35 42.38 36.62 40.16 46.79 46.33 45.07 47.98 46.29 52.21 51.88 50.96 52.11 52.49 56.57 60.93 60.88
55.20 54.74 55.03 55.24 55.79 55.78 55.98 56.21 56.75 57.72 58.31 58.43 58.25 58.38 57.57 56.35 51.80 54.55 61.00 61.52 61.14 59.88 52.58 52.42 52.90 49.58 45.47 44.80 45.46 44.20 39.76 45.44 47.30 47.06 47.82 45.65 49.33 54.28 51.43 50.28 52.20 52.71 55.55 59.17 58.83
54.78 54.57 54.30 54.51 55.29 55.75 55.45 54.83 55.78 56.95 57.59 58.31 58.65 58.58 57.59 54.21 44.05 55.38 61.09 61.21 61.12 55.21 53.15 51.35 50.04 45.10 43.98 42.81 46.62 42.72 46.74 46.83 47.16 49.46 48.25 49.35 51.52 51.06 53.77 54.26 57.26 58.55 59.10 58.88 57.49
52.96 53.29 54.03 54.23 55.05 55.22 54.88 54.50 54.57 55.62 56.53 57.59 58.42 58.62 53.89 49.61 51.23 59.63 62.07 61.05 56.51 54.38 52.02 50.14 48.67 47.13 44.24 46.03 47.49 44.70 46.58 49.14 49.15 50.82 50.44 52.02 49.19 50.65 49.09 56.27 57.80 58.74 58.54 57.11 56.18
53.85 52.61 52.58 53.81 54.06 54.47 54.63 54.24 54.11 54.36 55.52 56.73 58.06 57.17 52.22 45.42 56.65 60.15 59.80 57.46 54.42 51.86 50.83 51.62 50.16 50.88 48.47 47.99 45.84 48.17 47.38 47.07 48.39 49.51 51.47 49.49 49.29 51.00 51.16 56.17 56.50 56.95 56.53 56.28 54.97
54.17 54.10 52.47 52.38 53.23 53.57 54.04 53.73 53.64 53.85 54.81 56.15 56.97 55.68 50.63 48.68 56.17 55.46 58.17 57.08 54.89 52.85 50.50 52.64 52.74 49.00 49.36 46.99 51.08 49.51 45.23 46.06 46.31 49.04 48.51 50.94 47.12 48.17 53.21 53.77 56.00 55.53 55.60 55.87 54.95
54.19 54.06 53.55 52.50 52.28 52.87 53.13 52.82 53.09 53.46 54.18 55.88 56.57 52.59 46.39 56.40 56.55 55.97 56.29 54.50 56.65 54.40 53.42 54.13 54.00 50.76 49.21 49.76 48.31 44.97 44.23 38.61 45.39 49.64 50.66 50.35 43.08 49.74 52.48 50.94 53.64 53.92 54.72 54.48 54.42
54.08 53.69 53.64 53.19 52.64 52.51 52.46 52.63 52.65 53.32 54.14 55.60 51.89 49.52 47.05 57.04 53.46 55.73 53.96 53.56 55.39 54.12 53.16 55.33 52.34 47.76 47.68 42.52 40.21 41.77 37.27 39.49 43.08 50.04 49.36 48.15 44.41 49.83 53.27 53.81 53.27 53.95 53.79 52.59 54.52
53.48 53.62 53.35 53.40 52.86 52.23 51.90 52.01 52.16 53.65 55.13 56.61 54.50 46.72 51.49 48.31 53.58 54.95 54.29 53.53 53.41 51.38 50.55 50.12 46.36 42.47 41.49 38.71 33.89 37.53 39.12 40.01 42.12 46.30 48.90 45.08 44.63 48.25 51.98 52.81 50.91 51.72 53.33 53.21 53.99
52.80 53.02 52.82 53.33 53.09 52.28 50.33 47.58 47.76 47.68 51.36 48.89 48.34 46.48 48.19 53.91 55.23 51.30 52.49 51.66 53.25 49.45 43.52 46.38 40.62 37.97 40.48 43.26 44.82 43.70 41.98 39.66 42.86 47.76 46.00 44.44 45.82 45.75 49.72 50.79 49.45 51.24 52.36 52.49 52.19
52.59 51.98 52.78 52.90 53.09 52.26 48.90 43.92 48.79 48.56 43.88 51.99 52.86 51.89 51.90 54.79 49.78 51.30 50.90 48.07 48.58 44.46 45.60 43.26 39.79 44.87 47.33 47.19 46.51 45.41 41.09 39.82 46.62 49.58 46.16 43.54 44.10 46.51 49.43 49.84 50.74 51.26 51.14 51.58 52.92
52.57 51.94 52.47 52.28 52.36 49.01 45.60 46.08 51.64 49.16 43.47 46.31 49.35 47.50 48.20 50.17 47.67 48.38 48.48 48.57 46.25 44.63 44.61 41.34 44.47 48.44 47.26 46.18 44.77 43.19 40.90 40.67 42.96 45.55 45.15 42.15 41.26 45.04 48.94 52.37 53.54 53.26 52.96 53.31 53.18
52.26 51.80 51.56 51.45 46.90 46.19 44.78 52.88 53.37 51.58 38.57 39.26 42.84 46.33 47.86 48.07 45.70 51.82 52.97 48.55 46.30 43.88 45.22 43.93 48.08 46.81 46.64 45.45 45.06 38.99 44.91 46.03 45.11 41.25 34.91 40.99 31.53 43.38 48.27 49.06 51.52 52.42 51.92 52.58 54.02
51.74 51.67 51.31 51.34 46.09 44.10 50.01 50.73 51.92 52.71 20.91 40.72 43.98 50.68 48.38 44.48 46.75 46.31 52.34 49.09 43.98 44.60 44.24 42.82 45.28 45.32 44.41 45.66 46.79 42.51 47.60 46.38 44.99 40.40 38.29 39.11 34.90 39.27 47.71 45.49 47.58 50.73 52.19 52.23 54.90
51.62 51.70 51.04 47.88 47.17 47.51 50.27 50.57 51.08 37.03 26.82 39.22 47.50 46.28 44.72 44.16 45.65 47.78 46.82 49.86 49.74 45.24 45.28 44.72 48.75 47.25 46.08 48.49 48.06 48.20 46.63 44.97 43.40 40.02 31.66 39.41 38.21 37.54 42.52 44.68 48.68 51.18 52.12 53.03 53.57
51.73 51.70 49.92 48.10 41.67 49.31 51.00 47.88 35.77 28.04 39.97 36.91 43.56 46.17 44.80 43.20 43.06 44.65 43.64 42.10 40.07 38.11 38.47 43.50 44.64 47.96 48.44 44.59 47.00 44.80 40.00 32.41 31.40 29.74 29.25 42.40 39.84 39.18 45.15 47.65 50.00 50.49 51.82 53.34 54.41
51.28 51.13 50.00 48.01 47.44 47.66 48.16 41.33 29.01 33.77 34.64 43.35 42.75 45.61 42.28 44.51 44.51 44.36 42.81 40.02 43.49 42.61 38.98 36.54 34.92 44.26 47.93 45.79 42.45 42.68 40.55 32.93 27.93 27.33 33.38 42.32 36.35 40.07 47.62 48.98 49.55 50.63 53.57 53.64 54.35
50.86 48.41 46.83 47.05 47.47 48.58 42.35 31.77 28.93 33.99 39.09 37.42 39.64 38.14 41.36 44.60 44.35 43.40 41.89 40.99 43.84 44.13 38.30 37.22 38.05 46.53 47.25 48.44 46.07 42.16 38.45 43.86 38.82 38.73 34.12 37.52 41.02 46.20 48.03 46.54 46.79 47.52 48.53 51.73 53.01
46.78 45.07 44.00 48.49 47.74 45.91 37.47 32.57 34.92 39.65 40.14 39.63 34.00 38.86 36.17 40.49 42.02 41.47 41.11 44.90 44.22 46.08 46.84 42.55 37.45 45.20 46.61 48.03 47.37 44.61 45.94 37.26 39.12 30.31 30.20 35.71 36.86 37.69 42.78 45.57 45.64 44.88 46.14 48.98 50.63
45.58 39.41 45.01 48.82 46.67 39.76 30.41 31.87 35.91 41.28 41.51 37.70 36.47 35.93 37.54 36.99 39.77 40.29 41.78 45.24 46.20 45.72 47.00 44.44 41.12 40.55 45.23 43.96 42.67 41.98 41.02 42.25 41.50 37.62 29.63 27.80 33.50 43.75 44.33 47.41 45.83 45.19 47.68 49.03 50.27
43.53 34.09 45.24 47.46 35.78 36.05 31.15 34.63 39.22 38.16 41.44 39.22 40.21 38.95 37.59 38.63 37.53 38.15 40.85 44.76 48.04 47.39 43.50 45.27 41.93 35.56 39.48 46.59 48.29 45.48 42.54 42.43 34.81 35.06 36.51 30.67 34.04 47.26 46.10 47.49 47.81 47.57 48.32 48.19 51.43
39.33 38.48 46.25 44.85 29.85 31.73 34.68 34.92 37.57 36.83 37.92 38.37 37.00 40.44 40.88 37.96 35.05 39.51 43.41 48.54 49.33 46.81 44.60 44.92 38.72 33.47 35.75 41.55 45.90 43.03 44.15 45.14 43.88 41.90 35.16 30.17 34.80 48.76 48.61 47.90 47.20 46.57 47.59 48.88 49.54
38.11 32.05 39.20 41.28 37.83 33.23 32.06 32.11 32.87 39.32 37.75 39.06 38.61 39.44 37.06 37.61 40.18 37.94 42.12 47.85 49.00 47.13 47.45 46.83 41.16 36.93 32.31 37.60 43.84 41.16 43.24 44.13 42.21 33.87 35.59 35.15 39.14 44.54 47.27 46.32 46.14 46.34 47.57 47.38 49.16
38.14 34.16 37.32 32.55 33.77 34.42 34.20 34.22 32.11 32.64 38.39 38.72 36.12 36.69 36.01 33.88 36.95 37.01 42.68 44.19 46.44 47.88 46.44 45.11 37.29 40.55 41.02 42.94 44.35 44.28 43.72 43.39 42.06 42.15 36.92 39.95 41.95 44.70 45.83 45.21 47.18 48.94 49.29 48.81 49.07
32.64 35.82 38.09 34.41 37.05 34.83 34.38 32.10 31.79 34.79 35.70 34.98 34.19 36.81 37.60 34.81 37.36 36.40 40.66 41.47 41.32 45.90 44.13 44.96 37.52 40.11 38.56 42.66 43.35 41.41 43.43 43.41 42.88 43.69 43.60 43.24 42.37 48.19 47.91 48.48 47.55 49.17 49.55 48.22 47.99
42.28 40.30 38.81 35.64 35.07 33.37 32.51 32.74 34.27 36.68 37.87 39.63 38.07 36.24 35.33 38.12 41.53 44.18 46.22 46.91 46.02 43.26 42.08 42.38 38.62 36.52 32.43 40.61 39.94 33.71 39.50 42.96 43.86 45.31 43.37 38.44 42.29 46.75 46.78 46.84 47.68 47.42 48.53 48.73 48.66

GFSSW_sfc_wetblb_054.txt.gz
Wetbulb
55.97 55.50 55.62 55.99 56.25 56.21 56.03 56.58 56.69 57.17 57.79 58.67 58.81 58.69 58.92 58.48 56.99 53.56 49.30 54.19 55.97 60.18 58.70 53.38 50.67 49.53 48.47 45.72 47.02 44.65 36.74 33.79 36.89 41.24 43.78 50.05 51.09 52.14 54.58 53.24 54.18 54.81 55.29 57.58 60.58
54.73 54.65 54.69 54.85 55.63 55.78 55.93 55.78 55.50 56.00 57.13 57.79 58.21 58.48 58.45 57.90 53.88 50.75 56.31 61.46 61.45 61.28 51.32 49.32 49.15 49.76 45.13 43.53 44.26 41.18 34.81 38.06 42.84 44.02 46.24 50.87 49.08 50.76 51.79 51.77 51.62 52.20 56.40 60.23 59.34
54.41 54.15 54.07 53.64 54.97 55.21 55.47 55.29 54.88 54.98 55.69 56.93 57.59 58.23 58.02 56.86 50.28 51.19 60.48 61.71 62.07 60.43 50.70 50.65 51.38 49.44 43.47 42.81 42.32 40.07 38.60 44.40 44.88 46.66 48.33 48.89 49.33 53.23 49.64 47.19 52.79 53.85 54.56 59.32 58.05
53.71 53.17 53.67 53.65 54.04 54.52 54.68 54.48 54.85 54.29 54.39 55.35 56.92 57.23 57.86 53.72 40.34 53.74 61.49 61.35 61.32 53.91 50.89 49.95 48.44 43.88 41.53 40.84 43.33 39.27 44.44 45.65 45.28 47.90 49.08 48.61 50.68 51.42 52.40 54.04 58.21 58.21 58.88 58.05 57.08
54.28 54.27 53.58 53.15 53.46 54.12 53.68 53.93 54.36 54.42 54.06 54.27 56.00 56.87 53.95 48.59 49.16 56.87 61.34 60.32 55.90 52.77 50.09 48.57 46.75 45.06 41.76 43.04 45.02 43.65 45.16 47.38 47.52 50.54 49.10 51.26 49.27 49.92 52.19 55.98 57.85 58.33 57.67 56.86 56.44
53.91 53.88 54.14 54.24 53.20 53.75 53.64 53.32 53.37 53.68 53.99 54.10 55.21 56.78 50.65 44.26 53.33 56.14 58.09 55.97 52.67 50.00 49.59 49.43 48.41 48.48 45.88 45.35 44.22 46.58 46.96 46.29 45.88 49.24 50.13 48.42 48.86 49.68 50.61 56.49 56.18 56.36 55.57 55.61 54.80
54.03 54.05 54.18 54.13 54.13 53.52 53.50 53.20 53.08 53.00 53.76 53.77 54.40 55.30 49.34 46.84 53.74 53.91 57.59 54.90 53.29 51.48 48.81 50.63 50.97 47.66 47.34 45.42 48.84 47.58 43.15 44.61 44.76 47.38 47.50 48.58 44.51 46.55 52.87 55.81 54.58 54.07 54.53 54.94 54.56
53.83 53.95 53.72 53.45 53.41 53.29 53.09 52.71 52.63 52.84 53.22 53.90 53.98 53.64 45.34 54.77 53.63 53.75 53.73 52.94 54.64 53.84 52.21 52.02 51.61 49.52 47.29 47.93 46.24 43.48 41.87 36.93 43.22 48.38 48.55 46.01 41.09 47.03 52.69 53.85 53.21 53.36 53.43 53.39 53.55
53.52 53.33 53.80 53.08 52.67 52.87 52.69 52.42 52.41 52.93 53.32 54.40 51.85 49.32 44.26 56.37 52.53 54.53 53.66 51.47 53.10 54.07 51.81 53.60 50.04 46.67 46.24 40.59 37.44 39.19 34.93 37.72 41.10 46.59 48.28 46.11 42.23 47.77 50.14 51.58 52.86 52.47 52.51 51.93 52.52
53.20 53.16 53.10 53.10 52.46 52.51 52.20 52.08 52.00 52.41 52.21 55.62 54.41 45.33 48.32 45.89 51.95 53.25 52.96 52.76 50.77 51.02 49.10 47.74 45.31 41.45 39.83 36.89 30.99 34.86 35.64 34.62 36.72 45.72 46.21 45.31 43.45 45.44 51.31 52.93 52.18 51.59 51.20 51.54 51.50
52.77 53.02 52.69 52.44 52.40 52.47 50.37 46.32 43.42 45.49 49.18 47.73 47.91 45.87 47.11 50.61 54.77 50.84 52.49 50.45 49.35 47.01 41.34 44.98 40.96 36.72 38.76 40.17 41.50 41.32 39.62 38.32 41.74 45.86 46.54 44.06 43.22 45.26 47.95 49.39 50.88 51.54 50.35 51.01 52.12
52.54 52.85 52.63 52.31 52.27 52.33 48.94 43.04 44.28 43.29 38.60 47.73 50.42 50.44 51.87 53.16 48.15 50.39 50.88 45.69 46.06 42.31 43.33 41.36 39.42 43.24 44.36 43.91 42.97 42.05 40.03 39.83 42.51 46.86 45.15 42.28 43.03 43.92 46.25 48.33 48.98 50.57 51.29 51.47 52.37
52.21 52.23 52.48 51.68 51.64 48.89 45.68 44.71 49.29 48.22 39.92 44.30 48.28 48.66 49.77 51.64 46.77 46.13 48.24 46.23 44.63 42.62 42.06 39.27 42.84 46.02 44.34 42.88 41.85 41.97 40.52 39.54 39.94 44.53 43.10 42.91 39.94 43.74 47.80 49.81 51.52 52.52 52.90 52.71 52.02
52.01 51.94 51.62 50.82 46.89 45.67 44.14 49.79 49.54 48.57 36.62 38.64 42.86 45.01 47.58 47.76 43.56 50.34 50.37 45.52 44.56 42.81 43.32 41.74 45.88 44.37 43.42 42.38 43.17 38.76 44.77 42.53 42.57 39.34 33.82 39.46 30.94 40.14 44.89 46.01 49.91 51.34 50.63 50.98 52.23
51.79 51.70 51.54 51.00 44.85 43.31 47.48 49.66 51.16 47.16 17.37 38.04 42.89 50.27 47.37 43.01 45.08 44.81 49.38 46.88 42.38 42.84 43.04 41.02 43.38 42.72 41.84 42.96 45.26 41.83 45.65 43.43 43.43 38.72 36.11 37.09 33.45 36.67 45.08 43.70 47.29 50.18 50.92 50.98 52.52
51.67 51.94 51.60 47.89 46.21 46.25 48.39 49.21 49.10 36.62 24.10 37.85 45.06 41.95 41.33 42.31 43.41 45.40 45.65 48.54 46.87 42.68 42.88 42.93 46.56 44.57 44.22 46.31 46.24 47.24 44.29 42.62 40.79 37.77 30.87 37.29 35.34 34.34 41.51 45.54 47.87 50.01 51.71 51.89 52.60
51.58 51.59 50.52 48.17 39.93 45.58 47.64 45.97 34.57 25.77 37.96 35.52 42.12 44.49 40.91 39.66 40.37 42.45 40.95 40.74 38.11 35.03 35.75 41.46 42.17 45.29 46.54 42.77 45.05 43.82 38.39 30.67 29.47 28.90 28.65 39.56 37.18 37.85 44.78 48.34 50.02 49.84 50.74 52.05 53.46
51.23 50.80 50.36 48.33 45.53 45.27 45.92 40.11 27.73 32.55 32.98 40.03 40.28 43.65 41.00 41.46 40.39 41.45 40.13 36.57 40.64 39.53 36.25 34.95 33.40 42.36 45.76 43.49 40.85 40.86 39.53 31.34 26.83 26.77 31.36 39.77 34.41 39.20 45.71 47.31 51.56 52.11 51.98 52.82 52.41
50.96 48.60 46.91 46.25 46.59 45.73 39.37 30.52 29.80 32.79 37.29 36.30 37.71 35.30 39.56 43.02 43.26 40.52 39.15 38.52 40.86 41.69 35.29 34.67 36.13 44.91 45.79 46.25 44.53 41.28 37.77 42.01 36.16 36.52 31.44 35.06 39.68 43.87 45.18 45.12 46.52 49.52 51.31 51.10 52.02
47.07 45.45 44.14 46.46 46.58 43.26 34.53 31.33 35.39 39.64 39.38 38.41 32.18 36.03 32.22 35.92 38.75 39.54 39.55 42.76 41.97 44.36 44.22 40.13 34.83 43.19 45.07 45.69 44.86 43.22 45.12 35.91 36.71 29.09 27.04 33.86 36.56 36.39 41.43 43.18 44.05 44.55 48.56 50.53 52.42
45.77 40.01 45.16 46.82 47.11 38.83 28.63 31.62 35.66 40.20 39.91 36.65 35.24 34.97 35.70 35.35 36.57 36.15 39.61 43.74 44.72 44.32 45.27 42.29 38.36 39.09 43.61 41.05 39.94 40.45 38.79 40.67 39.88 36.16 28.92 26.94 32.82 41.63 42.36 45.22 43.77 43.31 46.53 48.29 51.44
44.09 34.48 44.00 46.99 34.93 34.19 29.58 33.84 38.62 37.59 40.36 38.45 38.68 36.47 36.22 36.90 35.62 36.22 37.32 41.31 47.18 46.61 41.09 42.84 39.38 34.64 38.15 43.89 45.21 42.02 41.17 40.76 34.25 33.38 34.20 29.78 34.00 44.43 44.47 45.92 46.57 46.56 46.60 47.93 50.42
39.73 38.35 45.30 43.62 29.04 29.42 32.65 33.65 36.66 36.38 36.76 35.49 36.08 37.74 38.12 35.26 31.77 37.08 38.97 44.46 47.01 46.26 42.87 43.20 37.32 30.37 34.86 39.74 42.68 39.95 42.31 43.10 41.74 38.50 34.25 29.80 33.60 46.02 45.16 45.95 47.29 46.08 45.11 46.44 49.26
36.70 32.06 38.58 40.03 36.78 32.41 30.64 31.03 31.56 37.99 36.11 37.12 36.77 37.80 35.81 33.98 36.44 34.30 36.42 42.25 46.66 46.40 46.40 45.23 39.38 36.88 32.30 35.25 39.84 38.51 41.24 42.99 40.98 32.21 34.79 35.07 38.11 43.14 45.58 46.14 48.00 46.40 46.81 46.39 47.16
37.10 33.66 36.85 31.69 32.97 33.63 33.04 33.24 31.02 30.80 36.76 38.08 35.01 34.77 33.89 31.08 32.73 32.89 37.77 41.84 45.16 46.20 45.73 43.94 36.63 39.47 40.34 41.83 42.16 40.97 41.26 42.16 39.50 39.31 36.01 38.79 40.04 43.48 44.56 45.10 46.16 46.71 47.35 47.12 47.18
32.63 35.25 37.99 34.06 36.33 34.17 33.41 31.29 30.99 33.21 34.69 33.14 32.88 35.02 35.64 32.23 33.33 31.62 35.43 38.98 40.57 44.87 43.22 44.11 37.01 37.67 36.55 41.07 41.69 39.34 41.04 42.50 42.07 42.32 41.79 41.53 40.82 46.28 48.17 46.51 45.34 47.09 47.42 46.67 46.84
42.97 40.81 38.64 35.86 34.18 33.52 31.92 31.48 33.09 34.74 35.87 37.13 36.45 34.99 33.22 35.35 37.90 39.50 40.78 42.41 43.92 43.14 40.79 40.47 38.46 35.28 32.84 38.61 39.44 33.38 38.47 40.12 41.13 42.70 42.43 37.84 42.87 46.58 46.03 46.35 46.06 46.13 47.16 47.29 46.94

GFSSW_sfc_wetblb_057.txt.gz
Wetbulb
54.94 54.72 54.68 54.87 54.84 55.02 55.08 55.13 55.26 54.61 54.83 55.07 56.56 57.61 58.05 57.77 56.59 53.24 48.51 52.91 54.76 60.64 58.52 50.67 49.00 47.97 46.72 44.55 45.18 42.59 35.86 32.00 35.35 36.47 40.41 50.44 49.20 50.96 53.40 51.97 53.47 54.57 55.14 57.80 60.06
54.28 54.20 54.03 54.12 54.47 54.62 54.89 54.96 54.89 54.73 54.45 54.60 55.32 56.89 56.27 56.59 53.66 50.14 55.89 60.27 60.77 60.45 51.00 49.34 48.21 48.57 44.05 43.36 42.87 39.76 34.39 36.54 41.41 41.47 42.33 49.93 48.10 49.78 50.40 50.81 51.08 51.87 56.61 59.29 58.51
54.76 53.83 53.81 53.49 53.32 54.02 54.42 54.33 54.34 54.21 54.39 54.53 55.04 55.33 55.73 55.92 48.27 47.98 59.98 60.86 62.16 60.06 49.35 48.89 49.81 47.93 42.02 42.27 41.60 38.87 37.25 41.10 43.67 43.54 47.16 48.00 47.92 51.66 48.79 46.00 51.27 52.39 53.18 57.63 56.79
53.48 53.59 54.08 54.11 53.72 53.06 53.82 53.66 53.83 53.50 53.41 53.54 54.18 54.90 55.98 52.93 36.78 50.98 61.93 61.99 62.23 54.22 49.16 47.64 46.68 43.48 39.73 39.49 41.73 37.81 42.25 42.69 43.42 44.61 48.34 47.23 49.08 50.00 50.77 52.27 57.16 56.34 55.79 55.61 55.45
54.38 53.71 53.47 53.63 54.26 54.46 53.87 53.44 53.59 53.82 53.32 53.37 53.87 54.35 53.91 47.02 47.89 54.10 61.02 60.38 55.04 50.37 48.00 46.83 45.53 44.07 40.11 41.48 43.03 40.85 43.58 45.62 46.40 47.16 47.17 50.01 48.23 49.96 52.73 55.11 57.28 57.03 56.33 55.25 54.77
54.13 54.01 54.04 53.74 54.09 54.23 54.21 53.55 53.44 53.58 53.62 53.21 53.48 54.01 50.03 41.85 50.66 54.12 56.67 54.42 50.96 48.69 48.17 47.74 45.82 46.63 44.25 43.44 42.52 45.09 45.25 44.93 44.80 48.12 48.76 46.95 47.36 47.35 51.52 55.47 55.75 55.25 54.88 54.30 55.00
53.82 53.80 53.57 53.40 53.84 53.80 53.62 53.60 53.35 53.24 53.47 53.21 53.16 51.59 47.85 44.04 51.85 51.29 51.32 51.83 51.35 49.57 47.21 49.20 48.78 46.00 45.70 43.62 47.08 45.65 41.68 42.93 43.07 46.76 46.43 47.58 43.78 45.05 50.01 54.88 53.82 53.18 53.04 54.19 54.11
52.84 53.59 53.31 53.29 53.35 52.79 52.73 52.66 53.20 53.24 53.43 53.69 53.33 51.41 43.79 53.06 51.58 52.11 51.46 51.15 53.28 51.90 50.97 50.60 50.03 47.29 45.61 46.50 44.66 41.42 39.88 35.55 41.52 46.36 47.41 46.05 40.38 44.19 51.91 53.43 51.71 52.03 53.15 52.87 53.42
53.51 53.41 53.14 52.73 52.69 52.21 52.17 52.36 52.75 53.18 53.55 53.44 50.24 49.52 43.51 54.36 51.20 53.73 52.59 49.76 51.63 52.26 51.08 53.01 48.61 44.96 44.35 39.36 36.31 36.59 32.39 35.33 39.39 45.45 44.90 44.25 41.52 44.71 52.90 53.52 51.65 51.35 51.19 51.02 49.38
53.02 52.81 53.16 52.77 52.13 51.74 51.66 52.12 52.23 51.48 51.14 53.12 53.48 44.10 46.81 45.98 49.57 52.09 52.29 51.52 48.87 49.47 48.42 46.80 43.89 40.17 38.03 36.18 29.95 32.05 34.05 32.87 35.34 40.59 44.07 41.90 43.29 43.94 48.18 48.46 51.37 50.34 50.40 50.06 50.14
52.91 52.69 52.62 52.94 52.28 51.74 50.08 46.83 41.14 43.23 45.22 44.88 46.19 46.17 47.11 50.32 53.74 50.35 51.20 49.06 48.41 45.95 40.65 42.98 38.12 36.41 40.11 39.44 39.53 38.60 36.92 35.63 39.32 43.27 43.84 43.08 40.88 43.97 47.80 50.11 49.54 49.40 49.57 49.53 49.80
52.81 52.54 52.46 52.28 52.41 51.71 48.74 42.97 42.75 44.95 39.42 45.76 44.82 47.70 51.21 51.89 46.41 48.62 50.85 45.29 44.22 39.41 41.62 39.55 36.87 41.90 43.04 42.21 40.24 39.10 37.17 37.17 40.83 43.89 43.83 41.92 40.96 43.76 45.46 46.72 50.38 50.54 49.72 49.28 50.32
52.50 52.50 52.32 52.12 51.88 47.87 44.71 44.66 49.35 48.92 39.89 43.14 45.57 44.58 45.80 49.47 45.48 45.62 47.84 44.43 41.85 39.97 40.12 37.70 40.91 44.81 42.75 40.59 39.28 39.01 37.43 37.93 38.46 41.63 41.61 40.32 38.54 41.54 45.76 47.61 49.57 51.32 52.14 51.04 50.46
52.18 51.95 51.54 51.25 45.47 45.45 43.50 48.75 48.52 49.23 34.06 35.73 41.72 43.94 47.26 48.29 43.25 49.36 48.20 45.49 43.37 39.92 41.40 39.97 44.56 42.71 40.88 39.80 40.48 35.86 42.23 42.00 39.72 37.06 33.28 38.38 29.92 36.38 43.10 44.48 47.76 49.18 50.62 51.13 51.37
51.63 51.71 51.51 51.18 43.12 42.14 45.44 47.60 48.02 46.83 16.61 36.47 41.79 48.76 47.21 42.60 42.46 45.05 48.49 44.15 39.86 41.31 41.88 39.66 41.11 40.93 39.97 41.28 42.84 39.60 44.13 42.26 40.57 37.42 34.64 34.90 31.41 35.50 42.51 42.73 44.81 47.85 50.02 51.04 51.60
51.59 51.75 51.58 48.70 46.69 45.67 46.68 46.75 46.80 35.37 22.21 35.27 42.59 41.07 40.72 41.72 41.46 44.22 43.38 46.95 45.36 41.56 41.23 42.20 43.65 43.34 42.18 44.59 44.06 45.31 42.24 40.47 38.77 36.11 29.54 35.44 33.82 32.84 38.90 43.01 45.22 47.46 50.30 50.91 51.03
51.46 51.50 50.34 47.58 39.75 44.50 44.99 44.09 35.85 26.43 36.54 34.22 39.35 40.47 39.95 38.17 39.10 41.69 39.38 39.46 37.61 33.16 33.45 39.17 39.32 42.33 44.45 41.18 43.29 41.54 36.73 29.36 28.07 27.79 27.78 37.52 34.37 35.73 41.38 45.89 47.51 47.84 49.84 51.23 51.36
50.83 50.68 49.79 48.52 45.87 44.93 43.27 37.70 27.55 31.61 31.16 38.54 38.11 40.56 37.72 38.81 39.07 39.55 38.46 35.03 39.87 38.31 33.90 32.48 30.36 39.92 43.88 41.92 40.20 40.02 38.00 29.97 25.76 25.59 29.37 37.85 33.12 38.01 43.94 46.52 48.45 49.96 51.06 51.55 51.43
50.32 48.40 45.99 46.44 45.40 44.81 36.25 28.90 30.46 32.90 36.30 35.06 36.53 34.27 37.46 41.35 39.24 38.57 36.80 36.72 39.56 39.96 35.02 32.79 33.81 43.04 43.48 44.66 43.63 39.15 35.15 40.53 33.62 34.16 30.49 33.49 37.96 42.64 44.17 43.95 45.36 48.04 48.95 49.49 50.61
46.23 45.43 44.28 46.38 46.86 43.49 32.41 29.30 34.78 39.58 38.08 37.83 30.84 34.47 31.92 34.97 36.70 36.35 36.75 40.76 40.63 42.99 42.60 37.98 32.94 42.32 43.15 43.53 43.35 42.01 43.14 34.75 34.64 28.28 26.51 31.10 33.61 35.00 40.58 42.44 43.85 43.93 47.08 48.86 50.94
45.12 40.19 45.49 47.11 46.38 38.28 26.74 28.97 34.49 38.53 39.01 35.14 33.88 32.99 33.79 33.68 35.80 35.34 37.01 41.37 43.88 42.80 43.01 40.59 36.34 36.67 42.03 38.54 37.68 38.62 37.78 38.45 38.82 34.02 27.74 26.27 30.66 40.32 41.94 44.11 43.37 43.01 44.19 48.32 49.75
43.46 34.29 45.02 46.67 34.59 35.11 29.34 31.67 37.50 36.12 39.43 37.84 37.91 35.81 33.89 34.54 33.81 35.15 36.39 38.47 45.40 45.21 39.84 41.58 37.45 33.62 36.89 42.26 43.50 41.52 39.35 39.49 32.26 31.64 31.79 28.49 33.31 42.74 43.55 43.76 44.05 43.53 44.32 45.25 49.11
38.99 37.79 45.23 43.31 29.36 29.30 33.06 32.35 34.63 35.13 35.47 35.59 34.80 36.82 37.68 33.72 30.39 34.00 37.16 42.03 44.92 43.67 42.68 43.50 35.88 31.34 33.57 37.28 40.61 38.27 39.63 40.38 39.60 36.45 32.02 29.27 33.36 44.19 44.09 43.57 44.58 44.75 45.06 45.54 46.18
35.50 31.35 37.67 39.65 35.74 32.81 30.92 30.57 30.67 36.91 35.76 36.69 35.35 36.81 34.96 32.73 35.24 32.55 34.30 39.91 42.05 45.78 46.22 44.60 38.19 34.51 31.08 34.52 38.67 36.83 39.83 40.54 39.51 31.85 32.10 33.99 37.43 41.24 43.43 44.46 45.39 45.93 46.01 44.53 45.27
35.88 32.98 37.24 31.19 32.25 33.69 33.56 32.48 29.42 30.62 35.47 36.99 33.87 33.77 33.00 29.75 31.40 31.12 35.55 37.58 41.31 45.84 45.76 42.67 35.46 37.95 38.17 39.61 40.77 40.52 39.40 38.96 37.09 38.39 34.92 37.21 37.27 42.41 43.78 44.71 46.21 47.35 45.89 45.26 45.07
31.92 34.78 38.13 32.65 36.19 33.58 33.63 31.31 30.51 31.40 32.84 31.65 31.27 34.01 33.98 30.68 31.90 29.79 33.37 35.05 35.88 41.75 42.01 43.74 35.24 36.65 34.06 39.33 39.65 38.13 40.25 40.72 39.94 39.46 38.99 39.17 37.89 44.37 46.58 46.72 44.71 45.80 46.32 45.46 45.08
41.87 40.62 39.07 36.13 33.64 32.69 31.10 32.17 32.44 34.50 35.14 35.49 34.88 33.10 31.77 34.08 36.76 37.09 37.72 37.99 39.71 38.81 38.51 38.54 36.25 34.74 30.70 36.81 36.79 31.96 37.10 39.94 39.99 41.33 41.17 36.82 40.88 45.47 44.38 44.63 44.97 45.79 45.21 45.75 46.46

GFSSW_sfc_wetblb_060.txt.gz
Wetbulb
54.37 54.30 53.75 53.68 53.49 54.04 54.16 54.15 54.13 53.52 53.89 54.31 54.24 54.69 54.92 55.55 55.24 52.97 46.97 52.29 53.48 59.16 57.78 49.61 47.57 46.46 45.40 42.90 42.84 41.22 35.03 31.45 34.43 35.48 39.43 45.92 46.52 49.42 51.87 50.72 52.72 53.61 53.78 56.82 58.82
55.18 54.83 54.23 54.20 53.82 53.29 53.33 54.24 54.08 53.42 53.95 53.81 53.85 54.66 54.75 54.92 52.39 49.34 54.54 59.93 59.78 61.12 49.99 48.25 46.77 47.22 43.24 42.42 42.19 39.49 33.61 35.87 40.17 40.24 40.66 42.82 46.25 47.32 48.69 49.23 50.13 50.79 55.53 58.89 57.44
53.74 53.89 54.00 53.92 54.23 54.63 54.55 54.02 53.75 54.02 53.39 54.22 54.26 54.53 54.65 54.70 47.28 44.51 60.74 60.65 61.25 59.80 49.09 48.06 49.14 46.76 41.20 40.45 40.38 37.98 36.25 39.58 41.69 42.84 42.34 40.86 46.52 50.49 47.64 45.38 49.21 49.62 51.15 56.61 56.69
53.39 53.33 53.53 53.45 53.70 53.95 54.26 54.12 54.04 54.28 54.08 53.47 53.46 54.14 54.53 52.49 36.30 49.57 61.78 61.89 62.32 54.51 48.50 46.67 45.23 42.14 38.82 38.27 40.88 36.66 41.28 41.13 42.70 43.12 43.75 45.29 47.33 47.60 47.54 48.66 54.23 54.82 54.30 56.78 55.51
53.85 53.36 52.93 52.80 53.29 53.56 53.62 53.29 53.62 54.16 54.22 53.48 53.54 53.55 51.21 44.95 45.95 52.31 61.42 61.38 54.90 49.65 46.93 45.96 43.91 42.52 38.96 39.55 40.87 38.43 41.74 43.49 45.17 44.85 45.41 48.71 47.16 47.72 51.02 54.32 55.87 56.30 55.75 54.98 55.35
53.76 53.78 53.48 52.73 52.34 52.70 53.33 52.67 52.61 53.15 53.72 53.44 53.63 53.01 47.70 38.90 48.69 52.48 52.95 52.53 49.34 47.55 47.05 46.31 44.34 45.22 42.08 41.76 41.24 43.65 43.43 43.65 43.84 45.44 46.77 46.37 45.30 46.59 48.76 55.01 54.80 55.39 53.55 54.09 54.72
53.33 53.43 53.62 53.11 52.69 53.11 52.98 52.59 52.19 52.48 53.21 53.40 53.46 50.29 44.95 42.23 49.47 50.04 51.19 49.07 49.90 47.92 46.51 47.85 46.86 44.43 44.09 41.84 45.41 43.97 40.10 41.56 41.72 43.04 45.01 46.48 42.76 43.57 48.82 54.49 53.57 53.11 52.40 53.70 54.13
52.66 53.37 53.10 53.09 52.98 52.84 52.61 52.15 51.63 52.02 52.90 53.30 53.35 48.79 41.22 52.13 50.22 51.01 49.35 49.71 51.16 50.42 49.50 49.58 48.55 45.12 44.23 45.42 43.23 39.75 38.28 34.06 39.77 44.31 44.61 45.41 38.80 42.25 50.75 52.54 50.99 51.47 52.60 52.65 52.75
53.15 53.12 52.79 52.57 52.59 52.35 52.24 51.93 51.31 52.45 53.52 53.60 48.69 46.57 40.93 53.91 49.38 52.08 51.22 47.98 48.89 50.45 49.56 52.07 47.37 43.45 42.66 38.81 36.44 35.70 31.05 33.07 37.90 42.97 43.68 42.74 39.79 43.44 50.41 52.07 50.31 50.41 50.83 51.88 50.54
53.00 53.08 52.86 52.49 52.28 52.15 51.73 51.08 50.86 51.71 51.47 50.90 51.26 41.49 43.75 42.28 48.79 51.12 51.19 50.24 47.10 48.16 46.84 45.44 42.34 38.43 37.24 35.93 31.16 32.02 32.07 31.52 33.94 38.76 41.35 40.26 41.59 42.69 50.43 51.13 50.47 49.52 49.39 50.87 48.96
52.75 52.86 52.76 52.57 52.26 52.11 49.70 44.71 42.27 42.35 43.78 42.53 43.84 42.54 46.14 50.81 53.06 48.91 50.24 47.80 45.79 44.58 39.68 41.81 37.30 35.05 38.86 38.54 37.87 36.77 34.56 33.26 36.56 39.99 39.66 39.05 39.71 43.29 44.78 48.30 46.81 48.38 50.20 49.26 48.54
52.36 52.59 52.59 52.55 52.33 51.81 47.56 41.36 42.43 44.27 38.46 43.92 43.77 43.99 47.89 50.48 45.32 47.09 49.87 44.06 42.28 38.33 40.93 37.99 36.24 40.88 42.49 40.84 39.30 37.71 34.65 34.78 38.69 41.93 40.33 38.36 39.50 41.54 44.11 45.91 48.22 48.61 48.57 48.72 48.90
52.15 52.43 52.38 52.03 51.68 46.03 43.45 43.79 49.17 46.76 39.61 40.60 43.56 42.62 43.79 46.20 42.72 43.99 46.74 43.99 40.77 38.36 39.61 37.39 39.36 43.22 41.29 38.74 37.67 36.70 34.97 35.33 36.59 39.44 39.19 38.15 37.36 39.19 44.11 45.22 49.13 50.59 50.45 49.94 49.37
51.70 51.93 51.67 51.14 45.57 43.79 41.52 47.06 47.41 47.17 33.15 34.04 40.24 42.86 45.22 46.42 41.25 48.11 48.04 44.87 41.26 38.67 39.19 38.49 42.67 40.86 39.00 38.45 39.07 34.29 40.31 39.85 38.29 35.21 30.88 36.91 28.99 35.44 38.96 43.06 46.16 47.60 50.18 50.08 49.80
51.13 51.58 51.37 51.14 42.51 41.58 43.23 47.63 46.74 46.72 16.89 35.45 41.10 47.44 47.39 41.18 40.93 44.34 47.35 43.49 39.80 39.54 40.24 37.80 39.12 39.49 38.03 39.02 40.73 38.29 41.75 39.87 38.81 34.59 32.46 33.48 30.01 34.23 41.26 40.90 43.34 45.49 48.07 50.44 50.81
50.77 50.95 50.77 48.06 46.32 45.82 46.64 45.08 45.18 33.88 22.27 33.22 40.85 40.37 41.05 42.44 41.19 43.89 43.14 44.02 43.73 40.93 39.89 39.93 42.13 41.57 41.55 42.60 42.23 44.44 40.83 38.76 37.07 34.50 28.00 34.31 32.42 31.52 35.63 41.11 43.13 44.80 47.79 49.77 50.87
50.26 50.40 49.07 48.25 42.12 43.71 44.36 42.22 31.45 26.35 35.89 32.96 35.09 39.87 38.98 37.38 38.83 40.37 38.81 38.05 35.82 31.95 32.77 37.61 38.86 40.33 42.80 39.14 41.00 40.09 35.77 28.53 27.17 27.57 27.35 35.42 32.57 36.21 40.83 42.46 44.77 45.27 46.37 49.12 51.01
49.61 49.61 48.11 49.16 47.25 44.86 42.07 34.82 24.77 32.05 32.59 38.15 37.34 37.01 35.10 37.99 37.10 38.68 36.14 33.86 38.78 36.65 33.49 32.36 28.93 38.10 41.52 39.80 37.29 37.67 37.61 29.41 25.58 25.19 28.33 35.81 32.13 37.39 42.85 44.80 45.39 46.19 47.16 48.92 49.61
48.91 44.60 46.36 47.88 46.73 45.24 37.42 25.55 27.85 32.59 36.09 34.71 35.85 33.53 35.18 38.70 37.31 37.88 35.37 34.16 38.11 39.71 34.09 31.72 32.01 40.81 41.51 42.62 42.40 37.35 33.88 39.66 31.93 31.86 29.38 31.92 36.46 41.69 43.79 43.59 42.82 44.77 46.68 47.33 48.91
40.94 41.35 43.52 48.26 47.64 43.76 33.37 26.09 32.20 38.64 37.24 36.51 30.56 34.25 31.28 33.88 35.22 34.87 35.67 39.70 38.48 42.20 41.48 37.58 32.25 41.10 42.30 42.37 41.36 40.63 41.95 33.68 32.66 27.28 25.90 29.31 31.71 33.77 39.64 41.71 42.88 42.94 45.97 46.90 48.49
42.75 37.79 44.10 48.35 47.26 38.08 28.14 28.06 31.62 36.52 37.93 34.59 33.04 31.97 32.80 32.28 34.39 34.19 37.09 39.14 42.09 41.63 41.67 38.34 35.01 36.25 40.49 36.82 36.36 37.13 35.34 36.24 36.35 32.16 27.45 26.10 29.70 39.04 40.97 42.99 42.93 42.68 43.75 46.61 47.27
40.77 32.02 45.70 47.07 34.55 33.95 30.70 32.61 35.75 33.89 37.99 36.40 37.24 35.30 33.26 33.72 32.17 33.93 35.61 38.24 40.87 43.15 37.76 40.38 36.49 31.70 35.81 40.75 41.65 38.45 37.21 38.29 31.30 29.90 31.12 29.06 32.72 41.03 42.29 43.16 43.03 43.32 43.22 42.53 46.90
36.55 36.66 45.53 44.50 29.54 30.29 34.17 32.67 33.33 32.77 34.43 34.78 33.66 35.91 36.00 32.62 29.45 34.32 35.76 40.63 40.29 40.32 41.67 43.03 34.79 28.60 31.68 36.28 38.17 35.92 37.94 38.72 37.53 34.44 30.20 29.64 31.88 43.29 43.01 43.40 43.30 42.96 43.72 44.28 44.19
36.14 30.00 36.57 39.87 37.82 32.51 30.82 30.45 30.18 35.36 33.41 35.65 34.86 35.64 33.96 31.60 34.55 32.15 33.50 38.54 39.99 39.48 45.38 44.88 39.16 32.96 29.18 33.12 37.37 34.38 37.29 38.78 37.79 30.11 30.17 31.21 35.22 40.31 42.55 43.08 44.64 44.05 44.28 44.82 44.61
36.65 31.19 36.30 30.40 32.29 33.55 33.49 31.73 30.01 29.90 34.11 35.67 32.89 33.31 32.29 29.03 29.94 29.70 34.96 35.30 38.98 42.01 44.05 41.50 34.82 37.29 38.07 38.93 38.96 37.97 37.90 37.27 35.34 35.26 32.32 34.61 35.50 40.64 42.33 43.34 44.58 45.68 45.96 45.70 45.94
31.62 33.92 37.64 35.00 35.74 33.82 33.28 30.07 30.67 31.50 32.56 30.96 30.75 33.18 33.18 29.72 30.74 28.69 31.77 32.62 32.94 38.19 37.81 41.84 33.44 35.14 34.04 38.52 38.19 35.39 37.45 37.93 37.38 37.20 36.62 37.52 36.73 42.83 44.56 43.97 43.91 44.97 45.20 44.99 45.46
40.31 40.20 38.81 35.76 34.16 31.79 31.58 32.06 31.21 34.14 33.84 34.73 33.63 31.89 30.58 32.67 35.36 36.15 35.99 36.36 36.53 34.60 34.92 36.44 34.04 31.61 29.60 35.81 34.89 29.52 34.51 37.09 38.76 39.97 38.73 35.66 39.26 43.74 42.97 43.69 44.18 45.34 45.28 45.75 46.18

GFSSW_sfc_wetblb_063.txt.gz
Wetbulb
55.03 54.89 54.91 55.26 55.10 55.15 55.01 54.40 54.38 53.79 53.77 53.76 53.92 54.03 54.23 55.27 54.55 52.98 48.68 52.57 55.10 59.71 57.49 52.61 50.83 50.73 49.84 48.66 48.73 47.09 43.51 40.52 41.57 40.96 44.64 46.80 48.73 52.28 55.01 53.84 54.90 55.85 55.30 57.76 60.39
53.99 53.95 54.25 54.20 54.62 54.75 54.84 54.86 54.69 54.55 54.26 54.23 54.16 54.53 54.86 54.65 51.67 48.75 55.23 58.48 59.45 60.76 50.64 49.45 47.83 49.17 47.84 47.94 47.72 46.49 42.62 42.62 45.39 45.37 45.62 47.10 47.31 48.78 51.63 51.85 52.74 53.81 56.12 59.22 59.95
53.16 53.25 53.42 53.44 53.56 54.22 54.33 54.13 54.05 53.69 54.16 54.33 54.50 54.63 54.31 53.87 46.50 46.29 61.16 60.94 60.42 60.59 52.58 51.99 51.53 50.57 47.00 46.98 46.12 44.39 43.25 44.41 45.35 46.77 46.75 45.64 48.46 52.53 51.07 50.14 52.78 52.34 54.16 57.18 58.00
53.05 53.19 53.42 53.22 53.14 53.23 53.81 53.49 53.12 52.50 53.08 53.39 54.10 54.06 54.10 52.52 36.44 51.32 62.06 61.36 61.72 57.54 50.90 50.22 49.91 47.28 45.40 44.37 45.85 42.89 45.19 45.51 46.57 46.38 46.86 45.66 50.85 51.29 52.09 52.33 56.21 56.84 56.57 57.21 55.75
52.79 52.88 53.20 53.19 53.48 53.40 53.41 53.43 53.00 52.34 52.56 53.08 53.83 53.95 50.67 44.29 43.68 52.99 58.64 61.79 59.40 52.80 49.33 47.86 47.38 46.10 44.06 43.77 44.02 42.97 45.11 45.73 46.99 47.32 47.38 50.52 50.15 50.60 51.56 55.59 58.20 57.85 57.18 56.52 55.60
53.22 53.22 52.82 52.76 52.56 52.53 53.20 53.10 52.89 52.70 52.31 52.48 53.33 52.96 47.59 37.43 49.49 53.02 51.93 54.07 52.37 49.88 49.46 48.60 47.49 48.20 45.79 44.70 44.63 46.59 45.56 46.75 47.72 47.50 49.08 48.99 48.76 49.65 51.81 57.12 56.45 55.88 55.23 55.53 55.74
52.89 53.27 53.14 52.54 52.33 52.19 52.58 52.64 52.38 52.35 52.60 52.02 52.84 50.69 43.66 40.48 50.54 51.08 51.11 52.11 52.32 50.23 48.73 49.84 49.85 47.82 47.80 45.45 48.04 47.20 44.61 45.95 46.54 46.76 47.52 50.29 46.95 47.42 52.85 56.35 53.82 53.49 54.24 54.57 55.19
52.30 53.02 53.14 53.12 52.85 52.67 52.59 52.36 52.13 52.29 52.46 53.11 52.91 49.17 40.36 50.22 52.52 51.46 51.44 50.12 51.66 51.25 50.88 51.47 51.14 48.54 47.18 48.52 46.05 44.28 43.29 40.47 44.07 47.18 47.75 48.62 43.02 47.60 52.40 54.58 52.99 53.06 53.41 54.00 54.52
52.39 53.06 52.94 52.76 52.61 52.47 52.23 52.08 51.71 51.90 53.44 53.54 48.92 46.00 39.31 52.29 49.62 52.81 51.92 47.90 49.51 50.56 51.43 52.41 50.05 46.95 46.66 43.14 41.56 40.89 38.67 38.42 41.14 46.45 47.31 47.48 44.48 48.20 53.11 53.76 53.23 54.22 53.10 53.36 53.32
52.04 52.67 52.77 52.47 52.23 52.13 51.75 51.38 50.82 52.06 51.32 51.12 49.78 41.51 43.85 41.42 49.36 52.11 52.19 51.39 47.61 48.53 48.44 48.08 46.00 43.24 42.28 41.27 34.66 37.63 37.75 38.61 39.44 44.01 45.33 44.80 45.39 48.76 51.46 53.16 53.09 53.88 54.04 52.32 51.87
51.54 51.81 52.59 52.43 52.37 51.97 50.00 44.54 42.63 41.87 43.69 42.34 43.02 41.42 43.02 50.80 53.93 51.14 51.85 50.13 48.57 46.72 42.99 45.17 42.05 38.38 40.58 42.82 41.98 40.76 39.20 38.44 41.11 43.50 42.77 43.19 43.77 46.14 47.84 51.64 52.21 53.37 53.53 52.12 51.31
51.04 51.86 52.14 52.25 51.98 51.58 46.92 41.19 43.23 42.86 36.56 43.22 43.40 43.37 46.93 48.69 42.76 47.21 51.26 46.18 43.95 39.79 43.33 41.12 39.10 43.90 43.16 42.89 42.03 41.03 39.66 39.56 42.10 43.51 43.27 44.28 43.96 47.57 47.67 49.08 51.76 52.69 53.04 52.57 52.36
51.16 51.74 51.56 51.69 51.44 46.04 44.13 43.82 47.79 46.48 37.29 39.67 43.20 42.00 43.17 45.15 40.66 41.87 47.80 46.01 42.33 39.94 40.77 39.88 42.06 44.72 42.63 40.60 40.11 40.26 39.46 39.20 39.38 41.95 43.78 42.88 42.44 44.40 47.57 48.81 50.49 52.21 53.34 53.48 52.87
50.33 50.66 50.78 50.69 45.09 44.46 40.87 47.39 48.09 46.95 33.52 34.45 38.85 42.20 43.94 44.97 39.84 46.43 47.47 45.80 42.82 39.75 40.88 40.43 44.14 41.88 41.58 39.92 41.51 37.34 42.04 41.64 39.86 38.87 36.96 42.78 35.58 42.19 45.58 46.03 48.29 50.59 53.04 53.89 53.60
50.06 50.71 50.64 50.43 45.26 42.53 44.39 47.81 47.56 46.15 20.13 36.87 40.51 48.05 46.49 40.62 41.75 43.70 48.29 44.88 40.60 40.60 41.59 39.27 40.51 40.68 39.35 40.61 42.65 40.39 43.64 41.84 40.96 39.30 38.33 38.94 37.26 40.84 43.22 44.95 47.74 50.09 51.70 54.08 54.50
49.53 50.05 50.31 47.55 47.33 46.41 47.37 45.83 44.87 32.30 21.52 35.07 41.28 40.72 40.00 42.09 42.16 44.39 43.36 46.05 45.79 41.85 42.67 41.84 45.00 44.17 43.31 43.40 43.67 44.77 42.67 41.79 40.68 39.28 33.09 38.84 38.19 39.78 41.90 45.09 47.18 49.42 50.92 52.72 54.42
49.39 49.87 48.47 49.30 43.16 45.68 46.09 42.12 30.38 23.64 37.01 33.09 34.73 38.73 38.14 37.81 39.72 40.85 38.78 37.98 37.12 34.45 35.84 39.91 40.69 43.67 44.68 41.38 43.15 43.51 40.82 33.64 32.11 32.22 32.38 38.85 36.43 40.96 45.50 47.36 47.91 49.33 50.85 52.23 54.32
48.98 48.58 46.89 48.53 48.40 47.29 43.70 34.81 23.36 30.52 33.18 38.89 37.45 37.32 34.69 38.97 38.46 39.11 37.36 34.53 39.63 39.09 36.63 34.26 31.83 40.73 43.88 42.42 40.32 40.57 40.36 34.92 28.53 29.71 33.77 37.99 35.51 41.39 47.91 49.25 49.51 49.57 50.22 51.49 53.39
47.99 44.02 44.40 46.33 49.05 47.28 37.80 25.19 26.30 30.52 36.06 34.61 35.99 33.10 34.61 37.81 37.69 38.20 36.59 35.71 38.05 40.48 35.40 33.88 34.49 41.72 42.65 44.01 44.37 39.93 37.06 43.03 35.87 35.84 34.40 37.31 40.46 44.87 47.70 47.75 47.98 48.80 50.51 51.15 52.98
41.82 40.75 40.89 47.61 48.19 43.86 32.99 28.15 29.31 37.33 36.71 36.20 30.82 34.36 30.51 33.30 34.45 36.45 36.14 38.64 38.20 42.25 43.54 39.40 34.05 41.49 42.80 44.47 43.81 43.16 44.33 36.65 36.77 30.16 28.59 34.24 35.81 38.45 43.98 45.87 47.73 48.71 49.18 51.53 52.79
40.59 36.32 42.57 47.59 46.83 38.29 28.27 29.68 31.38 35.68 36.03 33.98 32.67 31.95 32.68 32.13 33.49 34.73 35.93 37.88 39.25 41.27 43.26 41.23 38.83 37.82 41.93 39.72 38.69 39.92 39.24 39.97 40.31 36.92 32.47 30.83 35.36 44.54 46.15 47.51 47.38 49.10 49.52 49.38 52.47
39.12 30.37 44.75 47.15 33.99 34.79 30.93 32.55 35.54 33.78 37.78 36.28 36.74 35.33 33.57 33.86 32.24 33.34 33.82 37.05 40.40 40.22 38.95 42.12 38.57 33.17 36.87 42.12 43.96 42.75 40.99 41.40 35.89 33.34 35.38 34.52 36.74 45.07 47.47 47.56 47.50 48.74 49.25 49.85 48.97
35.92 35.38 44.59 43.88 28.17 29.54 34.39 32.73 33.70 32.97 34.54 34.69 33.92 35.62 37.00 33.47 30.38 33.99 35.10 40.19 40.35 39.55 37.90 43.63 36.78 31.50 33.76 39.02 41.15 39.48 41.23 41.38 40.06 37.95 35.85 33.51 36.38 45.51 46.41 47.68 48.46 47.84 49.82 49.81 50.12
35.90 29.73 35.95 38.59 37.51 32.34 31.35 30.78 30.08 35.17 33.71 34.60 34.55 36.18 34.24 32.51 35.27 32.36 33.14 37.79 40.53 40.90 44.06 45.22 40.01 34.74 30.86 34.82 39.18 36.53 38.72 40.70 40.68 35.01 35.70 36.36 38.99 43.46 45.35 47.61 49.63 49.79 50.15 50.23 50.40
35.87 30.81 35.05 28.46 29.93 32.71 33.16 32.06 29.55 29.57 34.64 35.63 32.27 33.58 32.69 29.24 30.77 30.94 34.65 35.36 38.12 41.83 42.41 43.07 35.40 38.27 38.64 39.15 39.15 38.36 38.16 39.56 37.68 39.12 36.08 38.84 38.91 43.02 44.86 46.84 49.25 50.22 48.99 48.83 49.77
32.16 33.72 36.02 33.11 34.97 31.59 33.25 30.86 30.09 31.49 33.30 31.40 31.42 33.66 34.13 30.91 31.96 30.22 32.91 33.76 33.43 37.54 37.03 38.78 36.04 37.29 35.08 38.82 38.68 36.95 39.06 38.98 39.14 39.44 39.33 40.14 40.25 45.87 47.35 46.72 46.66 48.16 48.95 48.95 49.68
39.46 39.56 36.59 32.59 32.05 32.00 32.54 32.16 31.85 34.53 35.09 36.00 34.81 33.17 31.49 33.37 36.56 37.13 37.63 37.34 36.90 34.34 34.12 35.01 36.13 34.14 30.96 35.49 35.98 33.30 36.68 38.08 39.72 40.94 40.55 37.04 42.63 46.71 46.18 46.33 46.79 48.63 49.71 48.88 49.77

GFSSW_sfc_wetblb_066.txt.gz
Wetbulb
54.12 54.12 54.19 54.37 54.36 54.55 54.57 54.43 54.31 53.81 54.17 54.63 54.57 54.81 55.32 55.56 54.47 54.40 51.07 55.27 57.42 60.12 59.22 58.94 56.66 55.12 55.21 53.16 53.97 53.60 46.96 44.81 45.64 46.07 47.95 51.16 50.21 53.28 56.46 54.79 57.56 58.99 58.85 60.65 61.97
53.75 53.69 53.84 53.83 53.92 54.41 54.35 53.89 53.97 53.48 53.29 53.82 54.29 54.91 55.44 54.94 53.39 50.17 57.40 58.40 58.92 61.02 56.65 55.60 53.07 53.06 51.13 50.94 51.77 49.84 46.45 46.56 49.04 49.88 48.81 50.88 51.36 52.10 52.41 53.45 55.45 57.72 60.57 60.91 61.44
53.04 53.32 53.52 53.86 53.88 54.13 54.17 53.87 53.58 53.35 53.40 53.20 53.91 54.87 54.83 54.56 48.76 48.20 61.74 61.85 60.48 60.60 58.08 57.11 55.10 51.74 48.55 50.68 50.10 49.24 46.13 49.11 49.33 50.89 50.84 50.82 51.27 53.53 52.74 51.01 54.39 55.34 58.14 59.72 60.47
52.99 53.11 53.22 53.32 53.12 53.43 54.11 53.82 53.39 52.75 52.64 52.89 52.90 54.25 54.68 53.75 38.83 54.95 60.18 61.75 61.08 60.08 55.30 54.14 52.53 49.06 48.01 47.21 50.20 46.50 49.25 49.50 50.08 50.62 50.24 50.12 52.55 52.43 54.09 54.93 58.42 58.17 59.55 60.07 58.76
52.88 52.93 53.04 52.91 52.96 52.67 53.19 53.10 53.08 52.47 52.45 52.35 52.65 53.40 52.71 46.17 44.30 51.67 58.54 61.37 60.24 57.23 53.68 52.51 50.98 50.04 47.34 48.38 49.08 47.42 48.11 50.14 50.84 50.68 50.81 51.99 51.22 51.95 53.36 56.84 59.81 59.69 59.56 59.45 58.92
53.31 53.00 52.80 52.72 52.88 52.86 53.20 53.10 52.98 52.93 52.85 52.66 52.33 52.61 49.93 40.98 48.99 53.66 55.48 55.89 56.94 56.24 53.75 53.36 51.64 52.43 49.22 48.59 47.77 48.87 49.00 49.14 49.75 50.41 51.50 50.21 50.79 52.08 53.44 56.67 58.94 59.19 58.95 58.73 58.27
52.74 53.00 53.16 52.85 52.94 52.95 53.04 53.14 52.81 52.89 52.97 52.57 52.54 51.89 47.67 44.67 50.04 51.83 51.23 52.14 56.47 54.83 53.74 55.83 54.72 50.52 49.94 47.73 50.64 49.54 46.61 48.75 49.68 50.46 50.01 51.75 48.54 49.67 54.26 57.88 57.52 58.01 58.67 58.62 58.35
52.69 53.12 53.18 53.18 53.04 53.06 52.88 52.80 52.47 52.81 53.02 53.09 52.96 50.83 44.55 51.34 53.03 50.94 52.14 50.89 51.39 56.00 53.79 54.76 55.55 52.50 50.35 50.83 49.16 47.02 47.57 43.65 48.62 49.09 50.18 50.98 44.25 49.78 55.18 56.90 56.54 57.28 58.12 58.17 58.59
52.12 52.60 52.71 52.66 52.60 52.48 52.50 52.25 52.26 52.46 53.16 53.22 51.71 49.45 43.45 52.68 49.05 51.70 54.41 49.24 49.35 53.83 54.32 54.55 53.84 51.13 50.65 46.15 44.68 46.30 42.39 44.02 45.55 49.02 49.32 50.56 46.56 52.55 55.69 55.68 55.49 57.31 58.22 58.24 58.40
51.37 52.06 52.40 52.41 52.46 51.95 51.81 51.70 51.38 51.99 53.20 53.14 52.20 44.16 47.55 46.02 47.92 52.54 55.00 53.65 48.93 48.26 49.79 51.07 50.59 47.63 47.45 45.17 39.00 42.20 42.77 44.49 44.10 47.35 48.38 47.98 48.49 51.44 53.55 54.77 55.58 57.23 58.36 58.39 58.05
50.90 51.12 51.96 52.26 52.18 51.83 50.73 49.90 46.67 45.86 45.77 42.30 45.00 45.49 47.58 50.55 53.13 49.91 53.53 52.28 50.80 46.50 44.75 49.19 45.37 42.41 45.37 46.80 46.30 45.26 44.15 43.64 45.41 46.94 45.08 45.71 47.18 49.93 52.23 53.54 55.34 56.46 57.60 58.13 57.87
50.16 50.80 51.46 51.84 51.98 51.47 51.12 45.87 43.04 44.04 37.48 44.79 45.32 45.43 47.55 50.24 44.35 48.69 52.57 47.04 46.69 41.41 45.43 46.51 42.48 46.08 48.18 47.33 45.51 44.34 43.22 43.50 45.53 46.95 46.38 45.53 46.77 50.41 51.74 52.35 54.42 56.44 57.36 58.04 57.97
50.02 50.34 50.68 51.19 50.98 50.90 47.94 46.18 50.70 48.12 39.41 41.30 45.21 44.34 45.24 46.72 41.91 43.90 47.43 45.36 43.71 43.27 42.43 43.16 43.78 47.45 46.80 44.69 42.76 43.51 42.64 43.46 43.13 45.32 47.14 46.27 45.33 48.04 50.77 52.79 54.31 55.84 57.38 58.55 58.11
50.06 50.46 50.61 50.39 47.76 49.06 46.62 50.08 51.41 49.95 35.14 37.57 40.99 44.33 45.34 45.70 39.97 46.87 49.03 44.91 41.68 41.13 44.35 43.13 45.41 44.49 45.23 43.99 44.42 40.82 45.84 44.73 43.99 42.36 38.87 46.55 39.15 46.19 48.69 49.53 51.67 53.88 56.31 57.22 58.25
49.45 50.00 49.97 49.69 46.97 46.02 47.72 51.64 51.06 48.18 24.63 38.94 41.58 50.01 46.23 42.22 42.63 43.37 49.61 45.02 38.38 40.34 44.07 42.01 41.85 41.65 42.28 43.93 46.16 43.03 46.56 45.02 44.70 42.98 41.85 42.54 41.29 44.31 47.69 46.87 49.17 51.84 54.98 57.54 58.87
48.97 49.36 49.42 48.13 49.93 49.29 51.39 50.97 48.40 33.63 24.53 36.53 42.64 42.14 40.77 42.05 41.74 45.75 43.26 46.02 45.13 40.38 41.14 42.91 47.42 44.85 44.32 46.21 46.92 46.72 44.43 44.30 44.63 43.10 36.82 41.71 42.21 42.74 46.07 46.98 48.94 51.41 53.60 56.40 58.81
48.32 48.50 48.23 49.18 44.25 49.77 50.89 46.70 33.54 26.79 37.94 35.59 37.33 40.83 39.93 38.99 41.01 41.76 38.44 37.50 36.79 33.33 33.92 39.17 42.57 46.29 46.80 43.52 46.49 45.36 42.48 36.77 35.34 35.82 34.61 43.85 41.76 44.16 48.21 49.60 51.25 51.83 53.38 56.07 58.73
47.88 47.86 48.19 48.50 51.13 50.44 46.76 37.23 25.56 32.03 33.97 40.43 39.50 40.27 36.37 40.86 40.52 40.69 39.29 35.22 39.96 39.45 36.38 32.65 33.00 43.04 46.33 44.73 42.63 42.76 42.69 38.71 31.44 33.91 37.68 43.54 38.54 44.47 49.82 51.51 52.79 53.64 54.18 55.04 57.52
47.25 46.67 46.16 48.04 50.89 49.92 38.63 28.76 29.64 32.93 37.27 36.72 38.69 35.75 36.43 39.42 38.85 39.30 38.63 38.08 39.39 41.17 36.14 35.30 35.45 44.69 45.85 46.72 46.08 42.97 40.48 46.14 39.91 41.02 39.06 41.67 43.90 47.91 49.90 50.36 51.17 52.53 53.54 55.23 56.63
44.68 43.88 43.39 49.29 51.23 46.26 34.94 29.12 33.12 37.95 39.39 38.40 32.26 35.99 32.71 35.19 36.26 36.71 36.66 40.43 39.86 42.13 44.27 40.95 35.88 42.90 44.15 46.62 47.67 45.94 47.36 39.35 40.64 33.14 32.22 38.75 40.57 41.30 46.17 48.04 49.57 52.00 53.49 54.95 57.01
43.54 38.18 45.87 49.77 49.25 39.37 29.83 31.77 35.39 39.22 39.48 36.09 35.06 34.34 35.10 34.11 35.63 35.83 35.63 38.71 40.90 39.98 43.15 42.80 41.08 40.27 43.61 42.00 42.30 43.15 42.16 43.43 43.80 41.39 35.93 34.35 40.04 47.52 48.14 49.56 49.75 52.02 53.56 54.18 56.54
40.84 31.38 47.34 49.79 34.61 36.53 30.83 34.41 37.58 37.51 40.08 38.20 38.43 37.32 36.19 36.29 34.53 35.18 34.08 36.29 40.84 41.74 39.37 42.92 41.39 37.66 39.96 45.12 46.89 46.09 43.93 43.83 38.63 37.55 40.46 40.23 40.68 48.64 49.78 51.46 51.40 52.10 53.08 54.67 54.21
35.16 36.44 46.72 46.36 30.55 31.36 34.07 35.10 36.72 36.13 37.05 37.11 36.16 38.17 38.95 35.81 32.40 35.65 35.37 40.16 40.90 39.26 39.73 44.04 39.31 34.42 36.07 41.35 44.23 42.88 44.20 44.20 43.90 43.15 38.97 36.72 40.13 48.99 49.05 50.77 52.06 52.39 53.39 54.46 54.87
37.22 30.79 37.18 40.19 38.85 34.34 32.40 32.51 33.00 38.47 37.55 38.76 37.21 38.44 37.20 35.38 37.45 34.53 35.36 37.03 39.66 41.10 42.96 44.91 41.56 37.40 33.36 36.58 40.96 39.51 41.91 43.90 42.77 38.16 38.74 39.64 41.80 45.43 47.01 48.51 50.31 52.09 53.86 54.92 55.39
36.51 32.49 36.81 30.79 32.29 33.98 33.97 33.64 31.97 32.49 37.53 38.60 35.78 35.60 34.74 31.85 33.86 33.67 36.78 37.40 38.75 41.14 40.67 42.17 36.79 39.70 40.63 40.96 41.20 40.53 40.55 42.23 40.94 42.00 39.00 41.52 42.20 45.37 47.49 48.70 50.49 52.11 52.87 53.21 53.45
33.28 33.55 37.18 35.16 35.49 33.02 31.36 31.43 31.30 34.74 35.30 34.32 34.06 35.79 36.88 33.56 35.12 32.65 35.43 36.43 34.72 38.75 38.24 40.90 35.74 37.67 35.88 39.89 40.60 39.14 41.90 42.46 43.06 43.18 42.51 43.17 43.01 48.96 50.01 50.82 50.60 50.32 52.06 52.48 53.55
39.41 39.95 36.98 34.02 33.60 32.22 32.49 33.47 33.28 35.95 37.61 38.70 37.28 35.15 34.85 36.94 39.12 40.42 40.72 40.16 39.53 36.81 35.53 35.96 35.12 34.92 31.38 37.76 36.91 34.46 40.32 41.46 42.14 43.85 43.71 41.05 44.88 48.56 48.35 49.15 50.37 51.10 50.88 51.80 53.07

GFSSW_sfc_wetblb_069.txt.gz
Wetbulb
53.90 54.15 54.17 54.24 54.22 54.09 54.27 54.15 53.85 53.69 53.92 53.88 53.93 54.33 54.69 55.88 54.71 54.90 50.54 55.89 57.62 60.25 58.92 58.94 58.85 57.46 56.40 54.20 55.53 55.05 47.76 45.89 47.24 48.15 48.88 52.55 50.64 53.86 55.12 54.20 54.89 58.34 59.49 61.38 64.00
53.29 53.27 53.51 53.68 53.94 54.52 54.71 54.21 54.10 53.63 53.52 53.41 53.84 54.59 54.79 55.14 53.91 51.63 60.03 61.63 60.19 59.61 56.35 56.30 55.46 55.38 52.47 52.57 53.15 50.75 47.23 47.27 51.19 51.29 50.08 51.76 51.84 52.64 52.13 52.61 53.40 55.95 60.83 62.61 63.18
52.81 53.05 53.12 53.52 53.39 53.65 53.95 54.14 54.15 53.11 53.18 53.50 53.67 53.97 53.92 54.48 50.01 53.13 59.69 62.08 62.59 59.96 57.05 57.11 57.36 54.56 50.99 52.07 51.31 50.91 47.02 50.38 51.35 51.45 52.01 51.49 51.57 53.46 52.14 50.99 53.73 54.99 57.28 61.13 61.99
52.69 52.88 53.19 53.26 53.23 53.29 53.83 53.76 53.58 53.01 53.15 53.23 53.24 53.30 53.71 53.80 41.20 53.24 59.92 61.60 59.99 59.26 57.91 56.16 55.47 52.34 50.01 48.62 51.31 47.94 50.37 50.81 51.10 51.76 51.16 50.50 52.41 51.55 52.56 53.28 56.41 58.27 59.59 60.50 61.33
52.94 52.61 52.94 53.00 53.18 53.41 53.93 53.78 53.92 53.72 53.37 53.45 53.35 53.20 52.38 49.69 49.33 53.59 59.13 61.36 61.22 57.50 56.10 53.76 53.16 52.43 48.89 49.63 50.28 49.00 49.86 51.02 51.49 51.02 51.33 52.03 50.88 51.34 51.92 54.57 56.78 59.21 60.71 60.50 61.19
53.00 53.07 52.68 52.90 52.95 53.19 53.72 53.43 53.45 53.53 53.61 53.29 53.49 52.34 49.70 44.66 56.38 53.15 52.54 51.36 54.30 57.63 56.17 55.04 53.23 53.95 50.99 50.16 49.69 50.94 50.41 50.44 50.64 50.93 51.22 49.87 50.69 51.75 52.86 55.19 56.00 58.40 60.01 60.92 61.08
52.05 53.24 52.91 52.85 52.83 52.75 53.03 53.16 53.04 53.16 53.61 53.23 53.20 52.84 47.58 47.87 56.22 55.71 52.39 51.09 49.70 52.13 54.31 56.28 55.76 52.89 52.94 49.92 52.06 50.89 47.54 49.31 50.20 50.30 49.72 50.93 48.20 49.59 53.32 54.51 55.22 57.65 59.97 60.56 61.04
51.43 51.98 53.10 52.95 52.77 53.00 52.96 52.65 52.63 53.04 53.39 53.13 53.57 53.32 45.51 53.99 56.28 54.07 54.17 51.97 52.39 51.33 51.02 55.53 56.92 54.45 52.08 52.36 50.16 47.94 48.03 44.17 49.58 50.40 51.03 50.30 45.33 50.59 54.10 54.95 55.40 57.88 58.97 59.97 60.77
51.06 51.70 52.48 52.52 52.51 52.51 52.29 52.20 52.19 52.93 53.13 53.73 53.38 51.28 45.45 54.40 50.42 52.48 53.70 50.19 52.43 52.96 51.24 53.45 53.70 51.37 51.93 47.60 45.69 47.38 43.17 45.09 47.19 51.27 49.81 49.12 47.17 51.66 55.48 54.72 55.14 57.22 58.65 59.72 60.33
50.50 51.12 51.77 52.19 52.16 51.60 51.67 51.44 52.54 52.53 53.10 55.26 53.58 47.30 49.95 46.63 51.44 51.77 56.26 54.76 51.92 49.13 48.05 49.98 49.94 47.32 47.62 46.50 39.76 43.07 44.06 46.06 46.06 49.79 49.10 47.82 48.73 51.28 54.22 54.94 55.32 56.47 58.52 59.69 59.84
49.72 50.20 50.84 51.60 51.76 51.11 51.06 53.11 49.19 49.07 49.30 44.76 45.86 47.37 48.18 50.88 53.96 51.96 53.62 52.95 51.67 47.75 41.07 46.17 44.04 42.72 45.01 46.49 47.21 46.97 46.27 45.57 48.40 50.39 48.23 47.89 47.85 50.27 52.42 53.73 54.34 56.19 57.24 59.19 59.91
49.75 50.12 50.10 51.19 51.40 50.72 51.64 47.63 46.00 47.55 39.77 46.88 46.99 47.06 48.82 49.65 44.43 48.87 54.32 48.96 46.09 41.86 44.29 42.26 41.00 45.37 47.30 47.81 47.02 46.47 44.88 45.27 48.03 49.11 47.41 47.06 46.43 49.19 51.36 52.56 53.83 55.37 56.71 58.24 60.14
49.48 49.67 49.70 50.59 50.22 50.08 50.23 48.56 52.85 51.71 41.84 43.92 47.02 46.37 47.42 48.53 44.10 45.09 51.09 49.33 44.16 40.93 42.43 39.28 43.65 46.45 46.13 46.01 45.60 46.14 45.02 45.39 45.22 47.96 48.74 46.97 45.35 47.71 50.87 52.65 53.31 54.83 55.94 57.88 59.69
49.35 49.32 50.39 50.04 46.75 50.15 47.63 51.44 53.86 52.73 37.31 41.43 43.73 47.06 48.21 47.35 42.61 48.56 50.68 48.45 42.29 38.91 40.95 43.07 46.24 45.18 44.60 44.41 46.81 43.07 47.67 46.74 45.71 44.72 41.20 47.98 39.72 47.10 49.53 50.70 52.15 53.73 55.42 56.51 59.05
49.07 49.00 49.81 48.93 47.43 46.14 49.75 53.27 53.67 48.98 27.75 41.31 44.12 51.77 48.34 44.49 44.73 45.47 50.06 48.28 41.11 38.93 40.13 39.84 43.65 42.62 42.68 44.73 47.46 45.24 48.39 46.81 46.10 44.52 44.20 43.95 41.74 45.23 49.36 47.78 50.00 51.84 54.17 57.09 58.75
48.42 48.57 48.81 47.90 48.70 49.09 52.50 53.38 50.14 36.76 27.68 38.53 44.06 43.45 44.18 45.54 44.41 46.48 45.18 47.78 46.39 40.85 41.24 39.76 45.95 45.00 44.45 45.80 47.38 48.64 46.85 46.52 46.10 44.62 38.28 42.94 42.89 43.64 47.13 48.59 49.40 51.59 53.37 56.58 58.46
47.85 48.08 47.30 48.30 44.96 52.42 52.48 46.73 35.40 29.29 38.78 36.88 39.45 42.50 42.15 41.59 42.83 42.81 40.05 39.09 37.23 33.16 34.77 38.85 40.23 45.32 46.99 42.50 46.41 45.70 43.53 37.62 36.24 36.60 35.67 45.29 43.07 45.08 48.97 50.43 50.91 51.76 53.47 56.37 58.46
47.56 47.58 47.62 48.51 48.79 50.65 48.57 39.77 27.88 34.36 36.21 40.24 40.71 40.93 37.75 40.83 42.96 42.52 40.57 36.12 39.91 37.71 35.06 33.51 31.68 41.90 46.08 44.66 41.99 44.33 43.68 39.16 32.75 34.35 38.82 45.50 40.35 45.44 51.11 52.18 53.13 53.73 54.72 55.50 57.71
46.95 46.16 45.75 47.66 50.80 50.45 41.77 31.74 32.13 35.46 38.26 37.38 39.53 35.81 37.13 40.57 40.69 41.95 40.66 38.99 39.54 39.84 32.99 34.52 33.27 43.34 45.25 46.52 45.18 43.10 40.85 46.34 41.12 42.66 40.55 42.95 45.86 49.06 51.10 50.55 51.71 52.30 54.00 55.52 57.31
44.17 42.94 43.60 50.27 51.41 46.59 35.72 30.39 36.07 39.42 40.41 39.53 33.60 36.57 34.82 37.97 38.26 39.57 39.06 40.48 38.72 41.97 42.85 38.78 33.73 42.19 43.70 46.45 46.45 44.82 47.74 39.60 41.32 33.34 32.78 40.31 43.09 43.62 46.76 48.64 50.50 51.90 53.52 55.51 57.51
42.72 37.43 45.80 50.58 49.69 39.62 30.61 33.16 36.82 40.82 40.76 37.69 36.37 36.33 37.28 37.04 38.18 37.11 37.78 40.33 40.07 39.59 42.30 41.48 38.62 38.89 43.70 41.56 41.03 41.22 41.99 43.71 43.80 42.04 35.84 35.39 41.28 49.73 49.06 50.20 50.41 52.55 53.67 55.19 57.55
41.12 33.26 48.00 49.73 35.64 37.23 31.64 36.07 39.40 38.69 41.51 39.09 39.47 38.14 37.52 38.49 36.99 36.52 36.53 37.76 40.25 39.65 37.83 41.90 39.20 35.22 39.95 46.43 46.92 45.21 44.22 44.57 39.50 38.14 41.95 41.33 41.41 50.39 51.31 51.91 52.38 52.32 53.63 55.06 55.63
35.60 37.68 47.31 46.65 31.24 33.01 36.00 36.36 38.32 37.18 38.27 38.39 37.43 39.11 40.46 37.46 34.24 38.12 38.82 41.90 40.62 38.26 37.50 39.23 38.01 31.83 34.73 41.84 45.52 42.87 45.03 45.72 45.26 44.05 38.38 37.48 40.94 51.20 50.92 50.36 52.18 52.71 53.72 54.71 55.62
37.80 32.16 37.97 41.98 40.34 35.80 34.21 34.39 34.04 39.93 38.38 39.52 38.88 40.15 38.45 36.68 39.81 36.35 37.14 39.22 40.55 38.72 41.81 41.70 39.40 36.23 33.83 37.81 42.37 40.76 43.34 45.21 44.21 39.77 39.99 40.97 43.39 47.47 48.66 48.82 50.16 52.27 53.66 54.97 55.57
36.91 34.01 37.34 31.48 34.36 35.74 36.43 35.61 33.50 34.12 39.03 39.68 37.27 37.90 36.30 32.86 35.07 35.40 38.30 39.72 41.02 40.17 39.70 40.53 35.77 39.32 40.46 42.00 42.85 42.05 42.05 43.33 42.34 43.05 39.58 42.15 42.56 45.82 47.98 48.68 49.93 51.48 52.78 53.38 54.07
33.57 33.92 38.18 35.96 37.60 35.11 34.84 33.78 33.42 35.70 36.77 35.62 35.77 37.43 38.11 35.19 36.16 34.54 37.45 38.14 36.81 39.54 37.33 39.07 34.74 37.06 37.50 41.43 41.54 40.19 42.18 42.16 42.81 43.39 43.43 43.65 42.83 48.71 49.88 51.04 50.38 50.97 51.96 52.43 53.50
40.72 41.62 38.41 34.23 35.20 33.50 33.64 34.64 34.27 36.87 38.01 39.41 38.64 37.73 36.65 38.17 41.30 42.75 43.03 42.32 40.83 38.61 36.25 35.42 34.67 33.96 33.29 37.72 38.07 34.41 40.43 41.77 42.55 44.60 44.80 41.12 45.13 48.72 48.51 48.83 50.69 51.64 52.42 51.80 52.98

GFSSW_sfc_wetblb_072.txt.gz
Wetbulb
53.54 53.50 53.70 53.84 53.87 53.96 54.04 53.92 53.99 53.45 53.55 53.77 54.17 54.69 54.72 54.80 53.64 53.59 50.49 55.83 56.10 59.67 57.82 55.64 57.28 57.75 57.47 53.71 53.75 53.74 46.23 44.22 45.48 46.42 48.22 52.53 51.04 53.21 54.25 52.43 53.76 54.82 56.51 60.33 64.77
53.10 53.11 53.37 53.36 53.62 53.79 53.66 53.66 53.67 53.44 53.55 53.72 54.11 54.62 54.70 54.32 50.93 51.17 58.78 62.32 62.20 59.00 52.58 51.54 53.32 55.19 52.79 51.79 51.74 49.43 46.54 46.13 49.34 49.74 49.54 51.21 51.12 51.99 52.00 51.87 52.10 53.68 59.36 62.79 63.07
53.01 53.03 53.35 53.42 53.33 53.68 54.09 54.21 54.04 53.71 53.84 53.92 54.26 54.74 54.32 53.63 49.56 52.66 58.95 61.85 61.92 61.24 56.68 51.60 53.75 54.39 51.01 51.58 50.39 49.49 46.19 49.26 49.77 50.86 51.67 50.20 50.27 52.72 50.93 49.55 53.20 53.85 57.82 60.48 62.18
52.37 52.66 52.59 52.79 52.91 53.36 54.09 54.12 53.90 53.46 53.45 53.64 53.91 54.28 54.37 51.09 43.14 52.50 59.71 62.23 60.75 60.47 56.97 52.46 51.09 50.15 49.58 47.91 50.40 46.56 49.08 49.87 50.19 51.02 50.66 49.58 51.35 50.36 51.17 52.76 55.13 54.99 57.98 59.56 60.37
52.20 52.90 53.03 53.05 53.23 53.24 53.65 53.57 53.59 53.04 53.04 53.21 53.66 53.97 50.88 46.71 48.69 56.31 60.84 61.43 58.82 57.75 54.40 52.64 50.59 50.47 47.84 49.46 49.62 47.61 48.45 49.78 50.59 50.72 50.66 50.96 49.62 50.01 50.70 53.28 54.66 55.20 59.82 59.73 60.07
52.51 51.99 52.54 52.91 52.88 52.85 53.11 53.18 53.16 53.26 53.40 53.20 53.28 53.31 48.27 40.52 53.53 56.36 54.21 51.55 50.45 52.49 55.86 53.89 52.11 52.78 50.30 49.69 48.82 49.86 49.00 48.99 50.24 50.21 50.73 49.12 49.37 50.00 51.56 53.55 53.57 54.11 57.71 60.02 60.29
51.78 52.00 51.77 52.25 52.27 52.20 52.41 52.74 52.54 52.85 53.42 53.08 53.27 52.31 46.95 44.67 52.38 53.07 54.23 52.82 51.35 49.88 48.39 56.04 55.03 51.72 51.63 48.66 51.46 49.87 46.74 48.70 49.12 49.67 49.13 50.33 47.03 47.46 51.28 52.94 52.37 52.96 56.02 59.26 60.59
50.55 51.51 52.24 52.39 52.62 52.47 52.18 51.89 51.93 52.49 53.13 53.39 53.46 51.92 44.21 53.44 54.09 53.24 54.54 53.57 55.12 52.59 50.20 50.02 52.71 51.97 51.13 52.32 49.90 47.16 46.96 42.88 47.78 48.97 49.83 49.39 43.69 49.07 52.61 52.38 51.75 53.81 56.00 58.63 60.03
50.11 50.93 51.72 51.74 51.94 51.67 51.43 51.03 50.92 52.26 53.45 54.13 51.88 50.03 45.16 55.88 51.12 52.98 53.15 50.27 52.04 52.53 51.36 51.29 50.00 48.59 50.09 46.46 44.00 45.19 40.52 42.28 44.40 49.21 49.18 48.76 45.49 50.03 52.93 53.14 52.50 54.00 56.26 57.91 59.23
49.81 50.17 51.11 51.43 51.33 50.81 50.43 50.18 51.60 52.78 53.55 54.43 53.92 47.33 49.93 47.57 51.20 52.74 54.62 54.91 51.54 51.12 49.16 46.99 45.66 44.16 45.45 43.71 37.60 40.00 41.09 42.70 43.70 48.14 49.39 47.52 46.70 49.55 52.66 53.40 53.32 53.68 55.03 57.41 58.81
49.29 49.48 50.43 50.93 51.04 50.53 49.07 49.22 47.94 47.15 50.76 46.29 46.46 46.94 47.78 51.86 50.93 49.48 53.10 51.92 52.25 49.34 43.46 44.32 40.85 39.39 42.68 45.25 45.65 44.86 43.34 42.90 46.49 49.45 48.50 47.61 46.91 48.49 51.24 51.84 53.06 53.88 54.93 56.99 58.88
49.77 49.71 49.73 50.27 50.43 50.32 48.07 46.84 46.77 47.30 40.18 46.66 46.73 46.75 48.45 49.08 44.45 47.04 51.37 47.64 47.15 43.03 46.17 42.28 37.23 43.06 44.46 46.02 44.82 43.89 42.48 43.05 46.89 49.26 48.06 47.32 46.53 48.79 50.01 50.86 52.55 53.55 54.58 55.93 59.00
49.23 49.34 49.65 50.37 50.16 48.05 48.72 48.85 52.23 51.73 40.73 43.65 47.43 46.57 47.37 49.22 45.05 45.42 47.25 47.78 45.04 42.78 42.93 39.72 42.33 43.39 41.24 42.43 43.15 43.46 42.55 43.41 43.56 46.87 48.61 46.38 44.41 46.85 49.66 50.91 52.05 53.81 55.03 56.49 58.63
49.17 49.12 49.91 50.02 45.52 48.20 47.11 51.57 53.01 51.87 35.85 41.66 44.48 47.51 49.25 48.27 43.91 48.59 48.84 46.88 44.72 41.08 42.62 40.43 44.57 41.82 39.93 40.49 43.19 40.17 46.32 45.82 45.16 43.87 39.77 47.34 38.08 45.53 48.36 49.08 50.72 52.12 53.65 54.59 57.07
48.29 48.53 49.09 48.74 44.45 43.33 47.80 52.27 52.87 48.35 26.07 43.31 44.25 52.15 49.19 45.18 46.04 45.69 49.27 46.78 42.24 40.97 41.47 38.73 40.96 40.68 38.96 41.08 44.90 42.24 47.41 46.05 45.66 43.53 43.24 42.97 40.23 43.83 47.89 47.48 49.53 51.73 53.52 54.98 56.19
48.22 48.03 48.65 46.15 46.96 47.73 50.92 51.57 49.08 33.96 26.78 39.31 45.16 44.62 44.25 46.14 45.87 47.11 45.09 48.13 47.33 42.19 42.49 40.57 45.00 41.65 41.46 44.45 45.52 46.91 44.59 44.15 45.52 43.66 36.58 41.51 41.19 41.75 45.29 47.96 50.07 52.10 52.87 55.03 56.39
48.10 47.88 47.13 46.79 42.11 48.63 49.51 45.62 33.27 27.94 39.16 36.94 39.14 42.37 42.05 40.75 41.28 43.92 41.26 39.38 37.56 33.14 33.81 38.44 38.85 42.49 43.64 39.23 44.29 43.22 40.19 33.75 33.41 34.41 34.22 43.13 40.89 43.41 48.72 49.90 50.34 50.77 52.39 55.18 57.24
47.89 47.53 47.06 46.43 47.89 49.65 46.44 37.20 27.23 35.19 37.06 40.55 40.52 39.56 37.63 39.42 39.89 42.91 41.01 37.54 40.68 39.38 34.92 32.11 31.34 39.04 43.61 41.20 39.30 40.40 40.30 35.18 28.86 31.69 35.75 43.20 38.57 44.03 50.90 51.69 52.54 53.04 53.97 55.70 56.57
47.21 45.26 44.73 47.43 49.06 47.97 39.71 27.94 30.72 35.41 38.59 37.42 38.34 35.79 36.81 38.40 40.45 40.54 41.07 39.56 40.92 40.98 32.84 33.20 33.97 43.37 43.68 44.37 42.98 39.60 36.59 43.02 38.96 40.84 37.90 41.57 44.24 48.99 50.41 50.15 50.98 51.41 53.03 54.00 55.62
42.84 42.08 41.85 49.77 49.69 45.19 34.40 29.68 35.21 40.00 40.15 39.86 33.75 36.87 33.30 36.82 38.09 38.99 39.22 41.10 39.77 42.62 43.08 37.26 32.02 40.48 42.57 44.53 44.08 41.72 44.10 36.64 39.47 30.22 30.23 39.61 40.84 42.19 46.97 48.35 49.76 50.74 53.43 55.56 56.73
41.07 36.32 43.53 50.05 49.06 38.36 28.42 31.61 36.09 40.34 40.51 36.94 35.77 35.21 36.18 36.27 37.78 37.17 38.13 39.65 41.02 39.94 41.97 39.55 35.76 36.51 39.56 39.04 38.41 39.69 39.22 40.54 41.49 39.54 34.85 34.17 39.30 47.66 48.74 49.96 50.07 52.14 53.73 55.89 58.12
39.37 31.47 46.46 49.25 34.67 34.97 30.18 34.40 38.79 38.68 41.02 39.06 38.99 37.46 36.33 37.62 36.60 36.79 37.07 38.71 41.83 40.76 36.69 40.38 36.84 31.82 34.91 42.24 45.24 43.77 40.28 41.02 36.33 34.87 38.88 39.01 40.18 51.46 52.11 51.98 52.72 52.17 53.41 55.16 57.62
36.43 36.06 45.21 46.33 29.56 31.73 34.68 34.95 37.01 36.74 37.65 37.43 36.88 38.50 38.84 35.97 33.37 37.05 38.68 42.98 42.27 40.56 36.46 36.90 35.47 29.06 32.36 38.93 42.90 40.28 41.47 41.66 41.90 42.07 37.49 35.44 38.80 50.93 51.33 51.10 51.82 52.96 53.61 55.06 55.78
37.40 30.50 36.71 41.33 39.21 34.45 32.41 33.17 33.62 39.56 37.66 38.93 37.94 39.52 37.75 35.34 37.91 36.04 37.22 41.39 42.36 40.30 40.07 40.28 35.53 33.63 30.02 34.43 37.86 38.16 40.82 42.46 41.74 36.02 38.23 39.05 42.48 46.28 48.64 48.93 50.86 52.71 53.20 53.65 55.04
37.35 32.58 36.63 31.05 33.68 34.56 35.00 34.95 33.32 33.44 38.42 39.12 36.50 36.48 36.04 33.52 34.88 34.75 38.18 38.95 40.22 39.78 40.08 38.50 34.33 36.97 37.18 38.04 39.76 40.18 40.18 40.99 40.29 42.02 38.82 41.74 42.24 45.96 46.58 48.45 50.27 51.49 52.10 52.15 52.71
34.90 32.74 36.35 34.65 36.03 34.56 34.15 32.41 32.95 35.18 36.38 34.93 35.15 36.81 37.01 34.29 35.48 33.52 36.62 36.90 36.96 40.09 38.34 38.68 32.54 34.49 33.02 38.27 39.18 37.59 41.51 41.82 41.70 42.60 43.16 43.40 42.16 48.66 50.03 50.67 50.71 51.25 51.50 51.19 52.16
39.08 40.01 36.53 33.75 34.10 32.51 33.56 34.02 33.87 36.62 37.63 39.05 37.68 37.08 36.10 37.86 40.48 41.39 42.18 40.90 40.56 38.46 36.86 35.77 33.55 33.39 29.18 36.40 37.41 34.29 39.17 40.63 41.66 43.45 43.08 39.46 43.61 48.38 48.00 48.39 49.46 49.95 50.85 50.43 51.24

GFSSW_sfc_wetblb_075.txt.gz
Wetbulb
53.11 53.40 53.64 53.79 53.83 54.00 53.87 54.21 54.51 53.97 54.22 54.29 54.50 54.56 55.15 55.37 54.20 49.51 46.55 51.52 54.41 59.04 58.41 52.98 51.72 53.06 52.19 49.80 49.34 47.17 41.40 38.47 39.81 41.68 44.58 49.39 49.47 49.23 50.68 48.04 51.20 52.91 52.95 59.41 63.15
53.12 53.20 53.28 53.36 53.93 54.23 54.24 54.41 54.60 54.08 53.91 54.12 54.36 54.54 55.15 54.85 49.91 46.50 53.99 60.28 60.51 58.93 50.79 48.67 47.10 50.76 47.69 47.30 47.08 44.68 39.55 40.74 45.22 46.23 45.70 47.51 44.77 48.61 49.26 48.54 49.75 51.68 60.08 62.58 61.98
51.86 52.61 52.77 52.55 52.77 53.64 54.13 54.13 54.32 53.57 53.93 54.09 54.26 54.52 54.49 53.44 46.05 49.97 59.70 60.73 60.71 60.92 55.19 52.14 48.63 47.50 46.57 48.13 46.13 44.69 41.32 44.79 46.57 48.66 48.88 46.04 45.68 47.83 46.31 44.99 49.93 50.84 56.47 59.23 58.77
51.65 52.28 52.65 53.13 53.41 53.39 53.67 53.60 53.31 53.04 53.17 53.14 53.43 53.84 54.12 49.97 37.93 48.16 59.05 60.88 61.31 59.54 56.57 52.24 47.64 42.13 42.10 43.88 47.57 43.12 46.32 46.93 47.18 48.90 48.28 46.60 46.70 46.78 47.42 48.78 52.38 50.54 53.66 58.41 57.86
51.94 51.86 52.26 52.41 52.42 52.57 53.15 53.19 53.25 52.78 52.72 52.94 53.38 53.65 49.76 43.11 44.30 52.86 61.03 61.31 59.26 56.36 52.64 51.26 46.75 44.18 42.13 44.85 46.50 45.21 46.20 47.41 48.23 48.19 48.26 48.13 46.29 45.98 47.27 48.87 49.95 51.94 57.33 55.98 56.70
51.82 51.85 51.38 51.47 51.77 51.80 52.48 52.36 52.21 52.42 52.77 52.60 53.25 53.26 47.00 37.12 49.14 51.00 50.28 50.86 49.81 46.69 47.45 51.00 49.50 48.61 46.64 46.27 44.89 47.72 47.55 47.30 48.00 47.31 47.08 46.52 46.55 44.86 47.99 49.79 49.71 50.41 55.49 56.56 56.56
51.24 51.30 50.70 51.00 51.38 51.21 52.00 51.98 51.61 51.83 52.17 52.03 53.03 51.17 44.88 41.54 48.26 49.71 50.13 48.98 50.49 49.61 45.43 46.90 46.75 44.86 47.28 45.15 49.08 48.06 44.36 46.16 46.49 46.60 45.10 47.30 43.67 44.84 47.20 48.92 48.53 48.66 51.36 56.54 56.30
50.16 51.08 50.78 51.31 51.38 51.72 51.48 51.04 51.02 51.41 51.80 52.35 53.44 49.51 41.63 51.48 50.81 50.29 50.17 49.58 51.54 52.17 50.17 48.23 47.24 44.41 45.65 48.43 47.60 44.38 44.23 38.98 44.84 46.23 47.31 44.49 40.53 45.71 47.70 46.17 45.98 46.82 48.38 55.68 56.59
50.48 50.55 50.29 50.79 51.26 51.16 50.86 50.56 50.43 51.06 52.27 53.34 49.24 47.00 42.38 54.89 49.35 51.23 51.22 48.66 49.80 50.55 49.22 50.65 47.14 42.13 45.49 41.03 39.21 40.28 35.63 38.21 42.18 47.18 46.00 44.72 41.87 46.78 48.16 48.34 47.50 46.51 49.44 53.65 55.27
49.96 50.15 50.46 50.71 50.67 50.38 49.96 49.90 49.52 50.85 51.76 52.33 50.96 45.30 48.51 46.51 49.03 49.37 50.19 53.19 50.31 48.21 47.04 44.83 41.27 37.06 39.53 37.08 31.99 36.08 37.40 38.21 39.52 44.59 45.02 43.05 42.82 46.27 48.64 48.42 48.39 48.09 48.58 51.78 54.81
49.38 49.55 50.30 50.43 50.48 50.06 47.70 42.34 42.17 42.32 43.66 42.92 44.99 45.19 47.63 49.64 48.97 45.61 48.02 49.89 49.64 46.70 39.40 42.72 34.23 32.15 35.70 40.83 41.82 41.81 40.98 39.30 42.72 46.03 45.36 44.41 43.96 45.07 47.21 46.45 47.00 47.11 48.30 50.41 54.63
49.65 49.55 50.11 50.33 50.40 50.00 45.45 40.99 45.13 43.80 37.28 45.24 45.20 44.61 46.71 46.80 41.68 45.34 47.32 43.48 43.87 39.31 42.50 39.32 32.78 38.70 41.93 43.22 42.66 41.66 39.54 38.53 43.02 46.33 45.64 44.64 45.18 44.89 45.60 45.51 46.96 48.83 48.19 49.56 53.94
49.87 49.21 49.25 50.12 49.75 45.71 42.97 45.16 50.26 48.36 36.47 39.69 44.59 44.25 45.38 47.19 42.65 43.50 45.51 41.96 41.76 38.89 39.88 37.07 41.44 44.85 42.50 39.58 39.32 37.90 36.86 40.05 40.33 44.40 45.64 43.97 41.78 42.17 46.41 47.45 48.49 49.61 51.11 51.46 55.27
49.32 49.38 49.35 49.48 43.91 42.09 41.31 47.69 49.76 48.64 32.43 36.13 41.97 44.83 47.32 47.55 42.54 47.86 47.57 42.43 43.09 39.27 40.31 39.69 43.17 41.30 41.06 38.73 39.59 33.77 41.48 42.48 42.64 41.10 34.80 44.06 34.41 40.15 44.17 45.80 48.00 47.88 49.18 50.36 55.49
48.94 48.98 48.90 48.89 41.80 38.71 43.62 48.08 48.97 45.47 20.40 42.23 43.08 50.44 48.75 43.82 44.74 43.94 47.19 42.50 39.63 39.88 39.91 36.27 39.54 38.89 38.41 39.49 41.07 37.44 44.03 42.83 42.44 39.11 38.61 39.19 36.44 39.07 43.58 43.53 45.87 47.45 48.11 48.80 55.69
48.54 48.90 48.58 44.49 41.48 42.69 46.37 46.07 45.01 31.24 21.62 38.76 43.66 41.81 41.99 43.35 44.20 44.23 42.41 44.77 44.27 40.15 41.37 39.17 42.51 41.11 40.00 43.11 42.83 44.02 40.96 42.08 40.81 38.96 32.04 37.88 37.34 36.49 40.35 43.60 46.69 48.78 49.44 49.43 55.24
48.09 48.14 45.70 45.63 36.82 44.42 45.08 42.27 30.27 23.91 38.66 36.84 38.97 42.89 41.26 40.35 41.49 41.56 38.41 36.60 34.07 30.38 30.94 35.87 37.30 41.46 42.50 38.17 42.08 40.73 37.88 31.71 31.03 31.06 29.93 40.83 37.72 39.25 44.04 47.07 48.14 47.26 47.67 49.52 55.51
47.58 47.44 45.00 44.06 43.45 44.61 42.64 34.86 22.68 32.22 32.11 39.87 40.67 39.88 36.29 38.57 38.18 39.39 36.50 32.57 37.56 35.93 31.85 28.41 27.57 38.21 41.80 38.89 37.78 38.93 37.84 33.26 27.59 27.37 31.52 40.97 34.48 39.74 46.79 49.24 48.95 48.77 49.15 51.93 54.93
46.09 41.51 40.20 42.24 44.12 43.90 36.81 23.97 25.25 30.91 36.94 36.35 37.63 34.28 34.50 37.69 37.16 38.25 36.47 35.15 38.24 37.42 30.41 30.75 32.14 40.93 42.32 43.25 41.70 38.11 35.25 40.12 35.28 36.41 32.47 38.19 40.08 44.69 47.19 48.06 47.92 48.77 49.20 49.29 53.55
40.86 39.24 38.39 43.23 43.98 40.37 31.64 25.96 29.61 35.89 38.12 36.80 31.97 35.77 31.07 33.42 36.26 37.00 37.11 39.97 39.46 41.61 40.78 36.18 29.98 39.35 41.57 43.57 43.37 40.52 42.86 33.31 34.16 28.16 27.80 34.27 37.44 36.13 42.85 44.37 46.24 46.45 46.97 48.82 51.66
40.05 35.19 38.57 43.47 43.49 35.04 25.75 27.31 32.39 37.31 37.89 35.21 33.65 33.30 34.23 33.36 34.78 34.27 36.45 38.32 40.56 39.37 40.47 38.96 35.05 34.91 39.87 38.27 36.98 38.07 36.84 37.84 37.29 35.97 30.63 30.45 35.80 44.85 46.04 47.80 46.50 47.47 49.29 50.98 51.07
37.90 29.01 38.94 44.79 31.19 33.31 27.08 30.73 36.08 34.66 37.81 36.57 36.53 35.42 33.81 34.19 32.93 33.35 34.75 38.01 40.96 39.86 36.49 39.09 37.02 30.64 33.78 41.11 43.31 40.30 38.94 38.69 33.62 33.03 35.86 33.31 34.57 48.60 48.11 49.21 48.35 49.04 49.98 50.50 53.38
33.79 32.92 39.25 41.40 26.62 27.53 31.39 31.70 33.42 33.03 34.73 35.27 34.57 36.77 37.14 33.35 30.11 34.30 37.53 40.91 41.30 39.26 35.14 36.77 34.55 29.36 30.59 36.16 40.51 37.51 40.31 40.54 38.98 38.20 34.19 31.84 35.25 48.63 48.88 48.35 48.83 48.80 49.30 50.32 51.65
33.10 26.73 31.24 33.35 33.32 31.58 28.79 29.78 30.64 36.82 35.34 36.27 35.49 36.74 35.18 33.50 35.60 32.34 35.73 40.25 41.10 40.15 41.13 39.65 34.00 30.85 28.02 32.55 35.79 34.80 38.82 40.68 38.42 34.66 34.87 36.29 40.43 44.88 46.09 46.28 47.80 48.60 48.78 50.08 51.43
32.55 30.10 32.86 20.14 29.42 31.54 32.49 32.96 30.78 31.00 36.84 37.64 34.45 34.23 33.28 29.89 32.22 31.60 35.48 38.21 40.12 40.60 39.06 37.76 30.52 33.91 35.34 35.99 36.94 36.33 36.33 38.44 37.82 38.23 35.88 39.39 40.91 43.39 45.61 46.28 47.26 49.44 50.10 50.27 50.70
31.78 30.69 34.12 32.42 33.36 32.58 31.43 30.37 29.87 32.20 33.63 33.32 33.16 34.97 35.00 30.23 32.20 31.45 35.04 34.74 34.95 38.64 37.32 37.76 30.27 33.16 31.42 36.43 35.59 34.58 37.85 38.22 40.50 39.75 39.73 41.03 40.54 45.66 47.96 48.24 47.85 48.10 48.69 49.22 49.83
37.31 36.73 33.80 30.98 30.40 29.72 30.82 31.73 32.12 34.85 35.40 37.16 36.06 34.70 33.35 35.86 37.85 38.20 38.27 38.38 38.36 36.76 35.99 35.19 31.75 29.18 27.03 34.29 33.45 31.68 37.00 39.02 40.36 42.28 41.74 38.40 42.54 46.08 46.34 47.08 46.96 47.18 48.31 48.72 49.95

GFSSW_sfc_wetblb_078.txt.gz
Wetbulb
52.96 53.19 53.42 53.46 53.27 53.45 53.24 53.47 53.98 53.61 53.75 53.82 53.70 53.92 54.45 55.04 54.13 49.77 43.99 50.47 53.23 58.96 58.80 51.77 51.83 51.36 49.94 46.70 46.74 44.59 35.45 32.81 36.42 39.51 42.22 47.55 45.90 48.36 49.79 46.83 50.70 52.01 54.14 57.57 62.35
52.04 52.26 52.88 53.21 53.29 53.30 53.71 53.61 53.97 53.30 53.38 53.40 53.46 53.67 54.66 54.61 49.38 45.72 53.06 57.21 59.53 60.46 49.88 47.71 46.21 47.19 45.44 45.28 46.42 41.93 34.60 37.80 43.06 42.98 43.20 46.51 42.94 45.47 47.10 47.64 47.78 54.67 59.84 61.18 61.44
51.66 51.76 52.20 52.51 52.71 52.96 53.19 53.72 53.66 52.87 52.72 52.93 53.42 53.84 54.22 53.13 44.46 46.10 59.12 58.67 61.67 59.61 52.17 51.10 48.06 45.36 44.10 44.96 44.62 41.81 40.85 43.26 43.79 44.81 45.87 45.23 44.65 48.70 45.17 44.14 47.69 51.23 57.60 59.44 59.82
51.34 51.11 51.32 51.87 52.19 52.06 52.68 52.77 52.53 52.21 52.07 52.29 52.51 53.22 54.11 49.87 33.61 48.24 61.25 61.58 61.16 58.86 55.62 51.21 47.93 40.52 39.22 41.72 45.55 40.62 45.07 44.76 45.73 46.83 45.96 45.05 47.33 46.05 45.20 47.37 50.81 53.70 59.24 59.03 57.87
50.93 50.86 50.86 50.96 51.22 51.54 52.21 52.36 52.25 51.69 51.56 51.78 52.19 53.01 49.11 41.73 42.20 50.10 58.94 58.58 58.97 55.44 52.18 50.43 45.45 41.69 38.58 41.16 42.68 42.64 45.02 47.06 47.85 47.23 46.64 47.28 45.58 45.82 46.38 47.81 48.76 51.72 57.54 57.20 56.50
51.47 51.51 50.78 50.15 50.16 50.50 51.31 51.79 51.73 51.79 51.35 51.24 51.64 52.31 46.44 35.44 47.35 48.82 48.12 48.97 55.39 50.80 48.65 48.20 47.90 47.08 43.47 42.93 41.87 44.77 45.12 45.93 46.97 46.34 46.70 45.21 45.27 44.36 47.14 48.11 47.71 51.14 54.10 56.73 56.30
50.89 51.17 50.83 50.20 49.97 50.28 50.95 51.46 51.14 51.16 50.72 50.80 51.42 49.90 43.69 39.77 47.57 45.99 48.22 47.70 47.77 48.01 46.27 46.56 44.99 41.87 42.53 41.94 46.84 46.00 41.81 44.70 45.43 45.36 44.27 45.31 42.19 43.28 46.05 47.23 46.52 46.77 50.76 53.95 55.52
50.00 50.72 51.12 50.59 50.63 50.81 51.12 50.62 50.58 50.76 50.66 50.78 51.54 49.18 40.66 49.95 48.58 48.58 48.09 47.62 49.20 49.47 48.90 49.66 46.99 42.68 41.64 45.41 45.20 41.90 41.25 36.89 43.44 44.88 45.33 43.00 38.88 45.13 46.68 45.15 44.78 45.12 45.41 53.39 54.18
50.00 50.42 50.97 50.62 50.63 50.48 50.35 50.16 50.17 50.84 50.81 51.20 48.73 46.14 39.50 53.28 48.89 50.80 49.21 47.02 49.31 49.16 48.39 51.37 45.92 40.90 40.82 38.33 36.11 38.05 34.63 36.30 39.46 44.88 44.08 43.26 40.71 45.34 47.65 45.92 44.96 45.28 44.26 51.11 53.80
49.94 49.87 50.40 50.47 50.24 49.99 49.81 49.58 49.29 50.80 50.66 51.29 50.09 44.26 46.19 45.02 48.53 47.36 47.65 50.01 48.69 48.18 45.34 42.99 39.46 34.82 35.87 35.27 30.46 32.89 34.27 34.63 35.94 41.37 44.34 42.87 41.48 45.29 47.06 45.96 45.62 44.96 45.64 50.96 53.80
49.83 49.44 49.40 50.20 50.07 49.60 47.29 42.13 42.36 40.08 43.02 41.89 43.32 43.70 46.02 49.80 49.01 45.69 47.05 45.21 47.95 45.17 37.96 40.86 33.79 30.67 32.23 36.55 39.28 39.06 37.52 36.32 39.49 44.23 43.62 41.75 41.91 44.55 47.85 47.21 45.36 45.24 45.11 50.49 53.88
49.65 48.83 48.81 49.21 49.53 49.46 44.22 40.05 42.28 45.15 36.55 43.87 43.78 43.30 45.71 46.67 41.54 44.94 46.82 40.45 43.23 38.18 40.21 37.95 32.35 37.55 39.01 39.27 38.35 38.36 36.68 36.34 40.40 44.40 43.65 41.18 40.73 44.88 46.97 46.66 47.05 46.76 45.27 48.89 51.42
49.33 48.83 48.49 49.25 48.98 43.92 38.76 40.66 47.04 46.61 35.38 39.13 42.71 41.96 43.06 44.88 40.10 40.50 44.07 40.93 39.86 37.70 38.34 35.59 39.38 42.03 39.32 39.25 38.59 36.61 35.81 35.96 36.13 41.60 43.47 41.24 39.41 41.34 46.24 46.77 46.13 46.16 47.79 48.68 52.92
49.18 49.33 49.03 49.20 40.97 40.24 39.75 44.85 45.56 44.64 29.13 33.71 39.40 42.86 45.03 45.35 39.66 45.75 45.90 40.87 39.04 37.69 39.19 37.98 41.93 41.10 39.29 38.21 39.51 34.70 39.90 39.54 38.93 38.24 32.70 40.13 30.11 39.54 43.69 45.34 45.79 45.39 45.67 47.57 53.47
48.37 48.06 48.70 48.37 39.94 37.05 40.94 44.40 44.80 42.16 16.56 37.67 41.42 48.61 46.43 42.61 43.20 42.80 45.68 41.98 38.75 38.45 38.80 35.63 37.52 37.68 37.30 38.73 41.24 37.61 41.09 39.86 39.81 36.74 36.08 36.84 32.41 37.77 43.15 42.03 44.45 45.45 45.02 47.85 53.89
47.53 47.96 48.28 43.12 39.07 40.59 42.75 43.22 41.70 27.97 18.36 35.17 42.61 40.52 40.99 42.73 43.03 42.45 41.39 44.28 42.81 39.08 39.28 37.64 40.65 40.19 39.09 41.29 42.32 43.11 39.12 38.99 39.63 36.82 29.06 35.44 35.25 35.99 40.01 42.91 45.48 46.56 46.62 48.50 53.53
46.88 47.73 45.51 44.36 36.58 40.54 41.50 38.92 26.02 21.64 34.85 34.85 37.88 40.57 40.08 38.66 39.91 39.20 37.02 36.67 33.10 29.75 29.85 34.23 35.45 38.97 41.71 36.91 41.18 39.74 36.53 29.66 27.80 28.23 26.76 39.07 36.48 38.01 44.36 45.70 45.96 46.92 48.12 49.08 53.76
46.67 46.47 43.59 43.21 41.22 40.28 41.26 33.96 21.13 28.32 29.55 37.03 36.61 38.95 35.93 38.92 38.58 38.25 34.98 31.97 36.29 34.63 30.61 26.53 25.56 36.42 40.72 37.68 36.59 36.41 37.05 31.42 24.41 26.47 29.72 39.56 32.91 38.70 46.77 48.81 48.62 48.42 45.97 51.58 53.25
46.20 38.96 37.95 39.60 41.36 39.69 35.46 24.51 23.44 28.64 34.19 32.66 34.58 33.64 34.64 36.32 36.00 36.41 33.36 32.22 35.15 36.20 29.59 28.94 30.11 38.31 40.54 40.86 40.07 37.60 35.45 40.00 34.70 36.30 30.83 34.98 39.10 44.40 46.74 46.25 46.65 45.96 49.01 51.64 52.77
40.23 37.58 36.73 41.20 40.74 39.01 31.33 25.30 27.53 33.58 34.64 33.65 28.02 33.37 29.78 32.33 33.29 33.30 35.30 39.08 37.96 38.91 38.43 35.02 28.18 37.11 40.47 41.65 42.55 39.03 42.13 33.70 34.66 27.08 26.61 33.03 35.68 36.79 43.65 44.22 45.49 44.48 46.97 51.65 53.22
36.76 33.42 37.15 40.40 40.19 34.33 22.72 24.46 29.57 34.40 34.91 32.75 30.83 29.53 31.56 31.18 32.03 31.12 35.29 38.11 39.20 37.57 39.58 36.99 33.61 32.90 39.36 37.15 36.55 37.50 36.79 37.81 37.11 34.45 30.67 28.56 34.46 45.02 44.38 45.91 45.78 45.27 47.01 50.45 52.76
33.80 27.15 36.72 41.00 30.04 30.42 25.33 28.52 34.06 31.91 35.69 33.64 34.51 33.24 32.47 32.88 31.46 31.72 34.26 37.28 40.09 38.87 34.87 38.45 35.10 28.93 32.02 39.26 42.58 40.99 37.28 38.43 31.46 31.25 34.77 32.74 33.75 47.58 47.17 47.10 47.50 47.61 49.02 48.01 53.60
32.70 31.07 36.87 39.90 25.19 24.51 28.74 29.76 31.38 30.20 30.94 32.81 32.65 34.70 35.11 31.89 28.39 33.31 35.86 40.02 40.44 37.68 34.48 35.97 32.73 26.52 28.74 35.12 40.07 36.46 38.47 39.19 39.71 38.00 34.36 31.21 34.00 47.03 47.86 46.98 48.43 47.21 48.61 49.73 50.52
32.91 24.73 29.23 31.26 31.03 29.61 26.62 26.68 27.72 34.35 32.86 33.14 32.57 34.88 32.94 31.67 34.31 31.08 34.21 39.13 39.94 39.50 41.11 38.91 32.84 28.95 25.12 30.21 35.10 33.53 35.89 36.48 37.88 32.93 33.08 34.15 37.83 41.41 45.08 45.91 47.28 47.95 48.79 49.85 50.94
32.25 23.65 30.96 25.85 27.97 29.67 30.09 29.06 27.85 27.54 33.90 35.43 33.42 32.97 31.56 28.32 30.23 29.13 34.57 36.78 39.41 40.96 38.30 36.41 28.91 31.73 33.28 35.09 35.28 34.87 35.54 36.52 34.73 36.14 34.03 36.92 38.33 42.88 45.59 46.37 47.26 47.89 49.18 49.75 50.71
29.83 29.04 32.53 31.72 32.73 30.22 31.69 28.52 29.26 30.71 33.08 31.90 32.14 34.63 34.24 30.77 31.99 29.86 33.49 33.66 33.60 36.16 36.05 36.44 28.07 30.69 29.44 34.38 36.01 34.04 36.13 36.07 36.68 37.31 36.72 38.51 39.42 45.25 48.40 48.61 47.24 46.81 48.44 49.21 49.74
36.72 35.53 33.17 29.45 28.70 26.92 27.51 28.47 32.03 34.46 34.36 35.00 34.06 33.33 32.81 35.18 37.54 37.66 37.50 37.27 36.50 35.59 34.74 33.71 32.75 27.80 23.30 32.83 31.98 29.30 34.14 35.89 37.17 40.01 39.91 36.14 41.01 45.97 46.45 45.51 45.32 46.10 48.04 48.61 47.99

GFSSW_sfc_wetblb_081.txt.gz
Wetbulb
52.21 52.36 52.50 52.96 53.03 53.08 53.63 53.54 53.26 53.05 53.04 53.12 53.13 53.17 53.40 54.45 53.62 48.67 42.61 47.64 49.95 56.90 57.96 50.94 51.53 50.44 48.18 45.12 45.04 41.82 33.99 30.00 35.07 37.99 40.68 45.31 44.47 45.98 46.89 45.35 47.57 51.68 55.90 56.95 61.38
51.89 51.89 51.85 51.88 52.28 52.70 52.49 52.50 52.88 52.45 52.40 52.49 52.41 52.58 53.80 54.07 48.69 44.55 50.56 56.61 58.03 59.44 50.52 47.71 45.45 47.06 43.96 43.39 44.44 40.82 33.46 34.97 40.36 42.73 41.98 44.03 39.72 44.60 45.06 46.17 46.17 49.79 57.98 60.07 61.18
51.79 51.49 51.24 51.27 51.44 51.49 52.09 52.24 51.98 51.91 51.88 51.92 51.97 52.02 53.26 52.59 43.52 40.70 58.05 57.92 58.88 59.53 50.65 48.78 46.32 44.95 42.01 43.32 43.09 41.61 38.59 40.12 42.41 44.87 44.35 43.15 41.15 44.63 43.37 43.13 46.04 45.88 53.13 58.57 59.01
51.35 51.10 51.11 51.03 50.94 50.60 51.37 51.79 51.14 51.34 51.26 51.40 51.62 51.83 53.21 48.46 31.56 45.98 60.17 60.48 60.54 57.84 52.86 51.29 45.95 40.60 38.50 39.89 43.94 39.51 42.38 44.79 43.55 44.79 43.06 43.07 44.68 43.28 43.40 45.36 48.89 47.95 53.91 58.20 58.07
51.05 50.77 50.63 50.80 50.75 50.60 51.06 51.29 50.93 50.85 50.85 50.98 51.23 51.49 48.45 40.96 40.45 47.81 56.37 52.74 55.54 55.29 52.90 49.83 44.16 40.56 37.16 38.66 40.54 41.00 43.53 44.62 45.66 45.29 44.17 45.02 43.71 43.73 45.34 47.18 48.49 47.21 56.31 57.45 57.74
50.96 50.42 50.35 50.61 50.63 50.22 50.52 51.04 51.31 51.10 50.53 50.52 50.55 50.95 44.86 35.24 45.72 47.22 46.74 47.51 49.11 51.81 49.57 48.03 47.04 45.93 41.77 40.15 38.70 41.92 42.74 43.13 44.47 44.65 45.09 44.25 44.75 42.41 45.97 47.19 46.81 45.33 48.68 57.13 57.16
50.77 50.81 50.41 50.26 50.19 49.76 50.61 50.89 50.79 50.78 50.36 50.30 50.65 48.16 43.08 39.31 46.81 45.99 46.98 46.40 47.17 47.45 44.30 45.99 44.60 40.98 41.41 39.12 44.13 44.41 40.26 41.99 42.74 41.72 41.76 44.39 41.31 40.69 45.12 45.70 45.46 45.07 48.20 54.35 56.35
50.79 50.25 51.06 50.57 50.45 50.41 50.60 50.41 50.34 50.87 51.25 50.95 50.86 47.61 39.92 49.42 47.07 47.19 46.57 46.60 48.00 48.10 47.25 48.30 46.93 42.38 39.39 41.65 42.00 39.65 39.13 34.59 40.12 42.93 43.55 42.32 37.94 44.32 45.73 44.06 43.46 44.29 43.52 51.15 54.21
50.49 50.47 50.66 50.32 50.22 50.08 49.86 49.60 50.07 51.21 51.86 50.48 47.62 45.28 39.21 51.74 48.18 50.61 48.47 45.61 47.35 48.23 46.95 50.03 44.45 40.12 38.81 34.99 33.11 35.22 32.28 33.91 37.08 43.61 42.15 40.25 39.07 43.40 44.09 44.36 43.46 43.55 43.88 43.42 51.09
50.21 50.30 50.08 50.03 49.88 49.29 48.99 49.56 49.94 50.23 50.36 50.21 49.44 42.97 44.83 43.56 49.18 48.82 47.81 48.20 46.14 46.96 44.66 42.12 37.93 33.94 33.96 32.65 26.44 30.11 32.19 31.79 32.64 39.64 40.75 38.77 39.37 43.05 44.90 44.40 43.37 43.47 44.15 42.77 47.98
49.80 49.74 49.07 49.59 49.34 49.23 46.83 42.36 40.24 39.77 41.75 39.47 41.91 42.90 44.57 48.50 49.40 45.84 46.73 44.55 45.77 43.85 37.51 39.54 33.20 29.59 31.77 34.88 36.10 36.29 35.10 34.07 36.45 41.10 39.95 39.61 39.52 42.29 45.24 43.70 43.46 45.97 45.92 43.94 47.46
48.90 48.95 49.03 49.26 49.29 49.28 40.58 38.39 39.71 41.02 33.92 42.07 43.01 42.66 45.38 46.58 40.66 43.96 46.90 39.99 41.95 37.41 39.37 36.91 31.78 36.96 37.71 36.46 34.83 34.71 32.79 32.58 37.60 41.34 40.49 37.45 38.33 42.14 44.15 44.53 45.64 44.91 46.29 44.15 48.85
48.39 48.45 48.44 48.95 49.30 41.29 37.57 39.22 43.41 42.68 35.18 38.49 42.11 41.20 42.37 44.01 38.83 39.54 43.37 40.53 38.95 37.32 37.56 34.14 38.00 41.98 38.05 35.51 35.06 35.44 34.23 33.77 34.20 38.72 40.11 38.35 36.95 39.64 44.01 44.90 46.39 47.56 46.59 45.48 49.98
48.16 47.91 48.44 48.72 39.56 38.70 35.56 41.93 43.39 43.77 29.52 31.77 37.24 40.18 42.81 42.84 37.11 44.10 44.37 40.84 36.84 36.13 37.32 36.62 40.67 39.99 37.64 37.23 38.15 33.28 39.69 38.48 36.36 35.19 29.14 38.58 28.83 37.90 41.13 42.73 45.13 46.85 43.87 44.20 50.45
47.77 47.64 48.50 47.69 39.54 36.06 39.19 42.43 43.55 40.37 14.37 34.54 39.12 46.94 44.16 39.22 41.34 39.31 44.42 40.31 35.39 38.13 37.93 34.70 36.81 36.31 35.81 37.09 39.89 35.23 40.89 38.38 37.38 34.01 33.56 33.80 32.16 33.60 40.48 39.91 43.43 45.87 45.56 43.54 49.99
47.15 47.09 47.43 42.23 37.89 38.74 40.67 41.36 40.41 26.03 16.12 31.46 40.92 38.77 37.96 40.56 41.02 40.26 39.75 42.34 42.06 38.57 37.54 35.99 39.19 39.19 37.69 39.94 40.27 41.48 38.75 37.05 35.72 34.83 28.18 32.86 32.56 31.45 36.47 40.76 44.82 47.30 46.37 44.95 49.06
47.09 46.85 45.06 43.70 35.39 39.68 40.10 37.12 24.44 19.09 31.81 30.62 33.07 36.46 36.87 36.94 38.30 37.83 35.95 34.97 32.23 29.51 29.86 33.02 34.51 37.46 40.66 35.48 39.01 38.02 34.77 24.76 22.92 25.10 24.74 35.52 32.18 34.83 40.74 44.80 46.37 47.08 47.63 45.23 50.59
46.41 46.10 43.34 42.47 39.93 39.57 37.55 29.99 18.30 25.32 26.78 34.77 34.04 34.40 32.51 37.48 37.27 36.21 33.36 30.41 34.33 32.59 29.08 26.49 24.63 34.24 39.62 36.41 34.03 35.21 34.71 27.50 22.62 23.14 27.65 35.49 29.29 35.13 44.42 47.51 48.85 48.62 48.32 45.92 49.75
44.63 37.84 37.12 38.19 40.05 38.78 31.48 22.12 21.57 25.80 31.60 30.21 32.54 31.17 31.58 34.52 34.05 34.60 32.13 32.08 34.22 35.24 29.16 28.05 29.05 36.85 39.20 39.59 38.60 36.39 33.52 37.89 33.70 34.13 31.07 31.52 37.12 42.00 46.68 46.04 47.56 47.65 47.49 45.93 50.37
37.84 37.36 34.99 38.66 40.12 36.06 26.80 23.12 26.43 32.37 32.08 30.80 26.55 31.29 27.11 29.62 30.85 31.72 32.29 37.99 36.44 37.50 37.35 33.90 27.81 35.75 39.74 40.00 40.52 37.67 41.05 33.94 32.85 25.19 25.30 30.42 33.10 36.30 41.69 43.24 45.37 45.29 45.54 46.97 52.18
34.10 28.22 34.57 39.27 38.92 33.52 22.57 23.28 27.88 32.87 32.97 30.02 29.21 29.07 30.38 28.98 31.03 29.96 34.21 37.32 38.43 37.58 39.04 36.43 32.92 31.59 38.15 36.22 34.18 37.14 34.31 35.80 36.47 33.65 28.99 28.26 33.09 43.35 42.93 44.68 44.33 45.63 46.86 48.64 51.69
31.82 19.71 36.38 39.57 27.06 27.20 24.98 27.40 31.76 30.13 33.21 30.83 32.63 31.91 30.00 31.01 29.28 31.55 33.10 37.29 40.63 39.98 34.93 37.24 35.03 28.27 30.15 37.18 40.43 38.85 36.36 37.52 32.13 31.89 33.91 31.87 30.96 46.04 44.51 45.04 46.59 46.15 48.31 47.47 51.83
29.35 31.10 35.09 35.94 22.42 25.47 28.24 28.54 29.93 28.62 28.97 29.36 30.48 33.35 33.56 30.31 26.89 32.65 35.42 39.72 39.48 37.31 34.58 35.43 32.18 24.31 25.75 33.01 38.95 36.92 37.85 37.65 37.78 36.56 31.38 27.83 30.53 45.52 45.69 44.82 46.96 46.37 48.90 49.50 51.04
32.28 23.37 25.45 30.23 25.73 22.29 24.09 26.51 25.69 31.78 31.02 32.24 30.76 31.95 29.92 29.26 32.28 31.25 34.17 38.40 39.10 38.33 40.93 38.20 31.56 27.95 23.21 25.97 33.54 30.65 34.70 36.06 34.13 31.36 32.95 32.46 35.32 41.02 43.38 43.49 45.98 47.33 49.23 49.33 50.01
32.39 23.26 26.06 15.66 24.10 27.22 25.74 23.83 24.88 25.02 31.47 32.06 30.08 31.34 29.92 28.07 29.37 29.22 34.76 36.54 38.12 40.45 37.23 34.08 27.22 30.47 31.39 32.59 33.14 32.62 32.78 34.09 32.85 33.34 30.66 33.14 35.72 41.47 43.54 44.20 46.19 47.80 48.52 46.68 46.44
26.81 27.29 29.36 24.93 30.69 28.40 27.70 28.38 27.96 27.75 31.36 29.61 29.23 32.56 33.22 30.31 31.57 30.02 32.95 32.31 32.89 35.34 34.91 35.38 27.75 29.88 28.23 31.60 32.53 31.35 32.61 34.49 34.59 35.34 35.64 35.84 35.44 43.95 46.98 47.37 46.79 46.56 46.51 44.45 44.50
35.71 34.99 33.63 26.55 26.94 26.09 26.27 27.88 27.97 31.09 33.74 34.59 33.45 32.11 31.49 33.68 36.24 36.25 35.95 35.83 35.18 34.47 33.30 33.26 30.33 27.50 21.15 28.70 28.66 25.69 32.35 35.21 36.36 37.73 35.99 32.50 38.23 45.48 45.57 46.64 46.09 46.58 44.32 41.94 42.03

GFSSW_sfc_wetblb_084.txt.gz
Wetbulb
52.05 52.12 51.70 51.80 51.74 51.77 51.70 51.88 51.96 52.15 52.14 52.27 52.23 52.21 52.51 53.44 53.19 47.96 42.34 46.50 49.62 56.46 58.18 52.37 50.72 49.38 47.58 44.10 43.52 39.85 32.71 28.27 32.83 35.33 38.51 43.15 42.73 43.61 45.03 44.44 45.13 48.25 51.42 56.09 59.67
51.78 51.75 51.73 51.62 51.24 51.19 51.08 50.90 50.84 51.31 51.42 51.48 51.64 51.75 52.01 53.07 47.95 43.64 49.34 54.12 56.19 56.88 49.49 47.05 44.70 47.25 43.12 41.78 42.44 38.94 32.18 33.36 38.06 40.01 39.09 41.10 39.82 42.35 43.07 43.36 44.23 45.59 51.26 58.47 60.67
51.49 51.49 51.51 51.29 51.12 51.17 51.05 51.45 50.73 50.91 51.10 51.23 51.23 51.51 52.21 51.40 42.14 38.96 59.58 56.85 57.74 58.99 50.35 47.93 45.73 45.54 40.95 41.94 41.62 39.99 36.05 38.47 40.46 41.82 41.94 41.64 40.59 43.16 40.78 40.50 44.74 44.68 46.59 56.24 58.47
51.42 51.27 51.14 51.21 51.02 50.86 51.03 51.38 50.26 50.53 50.74 51.10 51.13 51.21 51.59 46.86 30.17 45.33 57.72 58.00 59.72 56.04 50.66 49.64 44.55 38.86 37.19 37.68 42.49 37.79 41.57 43.07 41.41 44.00 42.35 41.86 42.43 42.68 42.13 44.21 48.00 46.50 46.99 53.65 57.19
51.45 50.99 50.93 50.94 50.75 50.40 50.84 51.06 50.51 50.43 50.52 50.76 50.77 50.64 46.17 39.39 39.12 46.16 53.76 51.06 53.08 54.44 50.58 49.36 43.17 39.91 36.51 37.93 38.68 39.09 41.75 43.51 44.29 44.04 43.16 43.85 42.49 43.57 42.94 45.18 46.94 46.57 46.16 50.43 55.94
51.19 50.96 50.60 50.46 50.37 49.91 50.43 50.66 50.84 50.66 50.35 50.71 50.76 50.31 43.10 32.67 44.58 45.06 45.77 46.21 46.87 51.01 48.91 49.08 46.55 44.24 39.95 39.15 37.64 39.64 39.41 40.73 42.34 42.99 43.21 43.13 43.80 41.58 43.86 45.73 45.24 44.79 44.16 47.86 53.35
50.96 50.64 50.52 50.39 50.15 49.54 49.73 50.31 50.26 50.43 50.62 51.19 51.24 47.98 41.86 37.59 46.31 46.60 47.13 44.59 45.05 48.61 45.21 44.96 44.79 40.35 39.74 37.12 41.42 42.00 38.26 40.29 41.06 41.13 41.02 42.65 39.80 40.01 44.88 45.10 43.79 44.17 44.03 44.31 51.24
50.70 50.64 51.19 50.50 50.03 50.09 50.01 49.47 49.91 50.79 51.90 52.26 51.44 46.48 38.94 48.75 48.53 46.92 45.76 45.83 46.61 46.63 45.84 46.93 45.88 42.47 38.57 40.52 40.10 37.71 36.73 32.26 38.76 40.53 42.44 41.13 36.41 41.83 44.49 43.43 43.60 42.72 42.87 43.18 47.21
49.34 49.81 50.60 50.27 49.92 49.58 49.36 49.41 49.62 51.25 51.32 50.92 46.26 43.83 37.59 51.11 47.18 50.33 48.21 45.44 45.98 45.62 45.35 48.89 43.60 39.71 37.90 33.98 30.80 32.50 28.55 31.46 35.72 41.53 40.53 38.63 37.34 40.32 43.14 42.62 41.61 41.94 42.15 42.38 43.05
48.91 48.97 49.15 49.93 49.78 49.21 48.98 47.80 48.67 49.86 49.43 49.60 48.32 41.17 43.31 42.25 49.11 49.33 48.48 48.23 45.40 45.75 42.97 41.68 37.48 33.29 32.41 31.09 24.57 27.38 29.67 27.87 30.79 37.77 38.57 36.92 37.59 41.21 43.65 43.63 43.50 42.84 42.73 42.26 41.85
48.65 48.59 48.55 48.81 48.93 49.09 44.52 39.20 37.58 37.03 39.31 36.41 38.14 41.63 43.04 47.48 49.02 45.71 47.49 45.01 44.38 43.96 37.33 38.30 32.47 28.15 31.33 33.86 33.81 33.75 32.13 30.41 32.09 38.01 37.22 36.82 37.75 40.65 42.48 41.25 40.86 41.66 42.71 43.32 43.71
48.24 48.21 48.01 47.91 47.92 48.05 38.72 36.80 37.48 38.38 31.84 38.82 39.11 39.37 42.71 44.82 39.43 43.18 46.70 40.18 41.62 37.53 39.44 36.93 31.03 35.31 36.20 34.83 33.54 32.15 29.86 29.40 33.97 38.04 37.15 35.47 35.93 40.22 41.20 42.25 43.57 42.72 43.43 43.56 42.95
47.70 47.90 47.96 48.08 47.86 40.16 35.56 37.34 41.15 41.62 31.63 36.12 40.49 39.72 41.02 43.07 37.83 39.08 42.99 39.94 37.58 37.34 37.38 34.36 37.13 40.91 37.31 35.45 32.91 32.17 31.18 31.96 33.08 37.30 37.33 35.52 34.17 37.07 41.35 43.04 44.28 44.01 45.16 45.02 44.99
47.67 47.41 47.50 48.31 39.22 38.06 33.85 40.37 41.40 40.67 28.59 30.13 36.03 39.05 41.53 42.09 36.40 43.21 44.09 40.50 36.59 35.41 37.52 35.77 38.94 38.78 36.16 34.53 34.36 30.97 38.17 37.63 35.30 32.67 26.29 35.91 26.58 35.06 38.29 40.69 43.07 43.69 43.63 45.26 45.08
47.38 47.22 47.06 47.12 37.77 35.04 38.11 40.64 41.67 38.71 14.49 31.31 36.19 44.88 42.48 37.34 38.58 38.60 43.34 39.42 34.43 36.32 37.83 33.77 36.63 36.88 35.62 36.63 38.75 34.93 39.81 37.31 36.21 32.33 31.75 31.55 28.22 31.38 37.58 37.87 40.37 42.66 43.82 45.03 45.32
46.53 47.08 46.89 41.22 37.13 37.53 39.47 39.66 38.51 25.49 14.68 28.43 36.94 36.09 35.60 38.35 38.97 38.72 38.00 42.27 40.76 38.24 37.19 35.06 38.66 37.93 36.61 38.75 39.40 40.01 36.82 35.89 34.80 34.80 25.71 30.11 29.89 28.63 33.76 37.38 40.74 43.52 45.22 46.52 45.37
45.97 46.47 44.65 42.95 34.56 38.57 38.91 35.67 22.58 17.45 29.69 26.53 30.25 33.33 34.07 33.22 36.62 35.92 34.71 34.58 32.11 28.91 29.65 33.15 34.59 37.69 40.17 34.86 37.98 36.20 32.40 23.28 22.55 26.27 23.67 32.74 29.80 32.20 39.04 41.80 42.93 43.98 45.45 46.54 46.67
45.46 44.71 42.56 41.48 38.64 38.94 35.82 28.41 16.39 23.59 24.09 32.31 31.00 32.91 31.81 33.94 34.24 36.18 32.75 29.89 33.27 31.82 28.47 26.16 24.43 33.78 38.68 35.30 33.06 34.13 32.80 26.66 20.88 22.66 25.91 34.21 26.49 32.38 44.48 46.59 46.80 47.33 46.97 45.97 45.21
44.67 36.32 35.26 36.88 38.32 37.25 28.34 19.65 19.75 23.91 29.15 27.59 28.96 29.32 29.48 33.18 32.17 31.98 31.07 30.08 32.97 34.23 28.01 27.27 27.40 35.89 38.16 38.24 37.73 35.42 31.78 36.30 31.72 31.64 29.09 30.49 34.14 40.81 44.91 44.81 46.09 46.19 47.04 47.04 46.66
35.25 33.18 32.91 37.36 38.72 34.16 25.29 21.09 24.37 29.90 30.10 29.98 23.46 30.19 26.41 28.76 29.59 29.21 30.69 35.65 34.04 36.18 35.64 32.47 26.84 34.69 38.07 38.62 38.41 36.37 40.31 33.10 32.90 21.92 22.29 28.02 30.05 34.80 39.85 41.15 44.30 44.82 45.91 48.67 48.90
32.76 27.65 32.39 37.54 37.62 33.54 19.23 22.63 25.46 30.54 30.74 27.86 26.48 25.32 27.95 27.51 30.06 29.02 32.38 36.74 36.92 35.76 37.46 35.40 31.86 31.04 36.88 34.64 32.86 35.84 34.15 35.72 34.91 33.58 26.16 23.07 28.93 43.01 41.92 42.39 43.64 45.10 47.70 48.84 47.66
29.99 21.21 34.24 38.24 26.69 26.51 18.43 26.19 30.83 28.66 31.91 29.23 30.29 29.30 27.72 29.07 27.47 29.34 31.13 36.09 38.91 38.36 34.54 37.29 33.41 27.37 29.95 35.34 38.82 37.21 34.79 35.31 31.17 28.31 31.86 28.26 28.49 44.79 45.80 43.52 45.84 45.97 47.84 49.15 50.65
28.01 27.14 33.74 33.85 12.09 17.15 28.12 27.36 29.56 27.91 28.19 27.96 27.48 30.03 33.32 28.25 24.94 30.09 32.84 39.50 40.69 37.43 36.18 36.49 31.01 23.69 24.84 31.57 37.27 35.99 37.15 37.22 35.06 35.19 31.06 29.35 29.11 44.13 44.59 45.25 45.48 45.71 47.45 47.74 49.95
26.15 22.67 24.48 31.92 24.71 22.41 23.70 23.85 24.36 30.96 29.29 30.12 29.14 30.66 28.80 27.33 29.63 27.62 30.50 36.64 39.70 38.79 40.69 37.47 30.85 26.85 22.46 24.69 30.48 27.14 32.39 34.66 34.29 27.89 27.26 30.71 32.28 37.24 41.67 43.16 44.58 46.66 46.81 46.53 48.34
28.99 20.96 25.01 19.01 21.75 23.35 27.42 25.75 23.60 23.70 29.26 30.71 27.92 27.78 27.02 25.90 28.87 29.10 32.62 35.38 38.37 39.45 36.91 33.10 27.64 29.71 29.67 31.12 31.33 30.72 30.44 31.69 30.92 31.89 28.55 30.08 31.68 36.50 40.41 43.81 45.09 46.89 45.21 44.86 44.78
25.17 26.95 30.40 22.84 26.77 24.98 26.47 24.47 24.64 27.28 29.49 27.23 27.19 28.87 30.34 28.41 30.19 29.79 31.34 32.78 33.45 35.19 33.83 34.93 27.16 29.36 27.68 29.95 29.87 29.13 30.50 30.00 30.19 31.52 32.22 33.08 33.09 40.75 43.79 47.21 45.92 43.43 42.08 41.67 42.02
35.97 35.66 31.78 26.16 25.36 21.28 23.20 25.51 27.09 29.65 31.01 31.82 31.87 31.34 30.51 33.13 34.71 36.57 37.15 36.37 35.36 33.19 31.66 31.90 28.23 25.14 19.53 26.66 27.07 23.08 28.85 32.31 33.01 35.62 35.23 31.88 36.44 42.70 44.05 45.85 45.38 41.83 39.93 38.86 39.12

GFSSW_sfc_wetblb_087.txt.gz
Wetbulb
51.99 51.93 51.93 51.93 51.55 51.67 51.62 51.63 51.39 51.13 51.39 51.59 51.80 51.86 52.09 52.19 52.37 48.50 43.24 48.06 50.37 54.28 57.01 54.39 52.94 52.38 51.37 48.80 47.64 45.34 40.11 36.78 38.45 39.38 41.96 45.85 45.54 48.58 49.61 48.62 48.89 50.92 53.54 55.98 62.45
51.87 52.04 51.98 51.74 51.54 51.35 51.28 51.07 50.88 50.79 50.99 51.27 51.48 51.67 51.73 51.77 47.64 43.85 50.06 53.69 54.77 57.10 51.38 51.03 48.83 50.35 48.10 47.31 47.18 44.66 39.48 39.27 42.23 43.94 43.27 44.88 46.14 47.10 46.94 47.11 47.83 49.28 52.55 57.79 62.57
51.51 51.67 51.54 51.48 51.26 51.21 50.88 50.41 50.19 50.65 50.71 50.94 51.14 51.35 51.46 51.06 41.30 40.37 59.43 58.34 56.03 57.92 51.73 49.97 49.24 49.12 44.94 46.43 45.74 44.39 40.31 42.33 43.23 44.71 45.06 44.82 44.34 47.01 45.55 44.41 47.69 47.94 51.04 56.38 58.19
51.44 51.38 51.41 51.36 51.00 51.03 50.74 50.95 49.96 50.24 50.60 50.77 51.20 51.08 51.09 47.59 33.10 48.71 55.33 56.14 58.93 56.74 52.24 50.00 45.52 43.46 41.82 41.79 46.18 41.34 43.86 44.92 44.76 46.02 46.03 44.77 47.18 45.26 46.08 47.27 50.94 51.31 52.15 51.40 54.20
51.60 51.14 51.08 51.13 50.94 50.41 50.33 50.56 49.63 49.69 50.21 50.80 51.23 51.32 47.35 38.69 38.32 47.06 51.43 50.66 52.94 54.23 50.24 49.79 44.02 42.04 39.45 40.53 41.87 42.58 43.97 45.94 46.60 46.93 46.49 47.04 45.45 45.78 46.36 49.56 51.14 51.14 49.82 50.40 51.50
51.14 51.09 50.84 50.55 50.40 49.91 49.59 50.24 49.99 49.90 50.25 50.99 51.41 50.54 43.97 33.05 45.50 46.92 47.71 48.11 46.04 52.98 50.63 51.11 47.82 46.07 42.60 41.34 40.85 42.66 42.66 43.46 44.78 45.00 45.58 44.33 45.23 46.56 47.49 50.12 49.65 49.80 49.75 50.39 51.38
49.50 49.67 49.90 50.29 49.80 49.50 49.30 49.88 49.78 50.44 50.97 52.58 52.08 48.54 41.96 38.90 46.84 47.97 47.75 46.89 46.87 47.07 48.52 50.43 50.61 44.58 43.97 40.44 43.62 43.25 39.63 42.76 43.92 45.43 44.67 45.72 42.34 42.73 48.33 49.78 48.39 49.29 50.49 50.56 51.37
49.26 49.20 49.50 49.55 49.38 49.20 49.40 49.64 49.98 49.77 51.96 52.11 52.00 47.02 39.81 48.80 49.98 48.47 48.68 47.14 48.24 47.73 46.33 48.19 47.63 45.07 43.13 44.05 41.84 39.61 40.26 35.80 42.09 43.44 44.79 44.58 38.16 45.42 48.65 47.61 47.52 48.16 49.17 49.83 50.39
48.80 48.63 48.59 48.97 49.00 49.10 49.23 49.51 49.37 50.25 51.28 51.49 46.94 44.08 38.24 50.71 46.86 50.77 49.65 46.41 47.21 47.19 46.84 48.68 46.75 43.41 41.23 38.30 35.46 35.93 32.58 34.82 38.17 44.00 43.55 42.99 40.03 44.40 47.80 47.62 47.29 48.52 49.17 49.00 49.49
48.29 48.37 48.23 48.37 48.90 48.75 48.79 48.16 48.29 50.33 48.14 49.68 47.80 40.29 43.45 42.62 48.22 49.48 50.00 48.86 46.03 44.69 43.03 43.33 41.76 38.88 37.31 36.04 28.07 30.68 32.08 34.90 35.91 41.14 41.84 39.65 39.59 43.49 45.83 46.07 46.73 48.22 49.54 49.69 50.17
48.03 48.09 48.26 48.03 48.51 48.90 44.78 41.04 37.45 37.01 37.92 33.64 35.69 36.63 38.83 42.69 47.61 46.52 48.38 46.03 44.79 44.87 37.27 40.59 36.30 32.97 35.64 37.95 36.97 36.06 34.71 33.59 36.27 39.65 37.96 37.64 38.59 41.45 44.42 45.24 45.47 46.69 48.05 49.08 50.21
47.62 47.94 47.92 48.05 48.18 47.15 40.82 36.71 36.43 37.19 31.20 38.26 38.01 38.38 41.12 42.63 36.87 41.56 46.72 40.77 41.40 37.76 40.70 37.95 33.98 38.21 38.62 37.78 36.65 35.65 33.29 33.03 36.77 39.04 39.32 39.12 39.03 42.44 44.27 44.44 45.26 46.41 47.62 48.80 49.85
47.42 47.73 47.61 47.62 46.85 41.47 38.18 38.13 42.25 40.67 32.41 34.85 39.25 38.76 39.87 41.59 36.54 37.61 42.43 41.21 38.74 37.29 38.43 35.49 38.02 41.00 37.32 35.68 33.83 34.34 33.27 33.81 34.39 39.01 41.05 38.76 37.26 39.87 43.21 45.08 46.08 46.89 48.09 49.09 49.81
46.70 47.38 47.37 47.72 39.76 39.68 36.26 41.09 41.82 41.21 28.52 29.92 35.35 39.72 41.79 42.59 36.80 43.98 43.83 41.64 38.57 35.80 38.87 38.07 41.20 39.54 37.29 36.16 36.94 32.54 38.49 37.70 37.18 35.46 30.46 39.50 29.80 38.07 41.31 42.99 45.07 46.78 47.84 48.31 49.57
45.99 46.50 46.94 46.02 40.10 36.78 39.70 41.90 42.14 39.93 15.13 32.19 35.80 45.87 42.96 38.29 39.53 40.18 44.33 41.00 36.41 37.24 39.17 35.60 37.85 37.31 36.35 37.60 38.92 36.51 40.85 38.55 37.49 35.33 34.37 34.00 31.48 35.85 41.07 41.04 43.98 46.59 48.19 49.51 50.93
45.72 45.98 46.38 41.67 39.30 39.85 40.86 40.80 40.27 25.67 15.07 27.88 35.48 33.48 33.32 37.33 38.92 39.93 39.29 42.47 41.21 39.02 39.48 37.21 41.73 40.65 39.65 40.77 41.47 41.62 37.95 37.57 37.50 35.48 27.84 33.02 33.02 34.16 38.30 40.79 44.32 47.78 49.19 49.52 50.88
45.60 45.64 43.78 43.46 36.12 40.44 40.56 37.56 24.46 16.84 29.73 26.36 28.38 31.47 31.44 34.21 36.48 37.01 34.67 33.13 33.26 29.29 30.83 35.34 36.73 40.00 41.57 37.26 39.90 38.68 34.88 28.54 26.60 26.10 25.80 34.70 32.14 35.63 41.63 45.42 46.97 47.39 48.92 50.72 51.60
45.43 44.80 41.12 41.86 40.66 40.38 37.86 29.79 15.82 23.64 24.55 31.42 29.69 30.49 28.46 33.63 34.31 34.60 33.46 30.49 36.33 34.24 31.25 28.73 26.64 36.28 40.48 38.05 35.53 35.80 34.86 29.33 21.77 24.46 28.33 35.97 30.87 36.78 46.09 47.41 48.71 49.64 50.37 52.05 52.86
44.07 37.29 36.56 38.47 40.10 38.57 31.41 19.04 20.13 25.32 27.96 26.21 28.61 26.67 28.96 31.32 31.72 32.11 31.13 32.16 35.51 36.45 30.89 28.87 29.48 37.91 39.51 40.18 40.23 36.16 32.70 38.01 31.52 32.97 28.82 32.64 37.75 41.59 46.41 46.77 47.86 48.49 49.88 50.11 51.49
36.97 34.49 33.93 38.55 40.19 36.55 26.41 21.03 24.25 28.64 28.87 28.01 21.89 28.20 23.14 26.17 25.65 28.19 29.17 36.04 35.07 37.89 39.06 34.66 29.40 36.78 38.74 40.78 40.37 38.62 41.02 31.92 32.41 22.92 22.56 30.59 32.89 35.55 41.94 43.36 45.84 46.81 48.41 49.83 51.10
34.48 29.77 34.48 39.47 39.94 32.95 20.81 22.76 26.23 30.59 30.62 26.61 24.84 23.63 24.68 24.13 27.48 26.36 28.65 35.71 38.67 37.46 39.07 37.42 34.75 33.08 38.55 35.92 34.55 36.25 34.37 34.92 35.23 33.29 27.47 26.38 32.38 44.45 43.06 44.45 45.02 46.58 48.16 49.05 49.78
31.95 22.75 35.69 39.04 26.97 27.98 23.89 26.88 30.46 28.70 31.31 28.69 29.08 27.48 25.46 26.55 27.51 27.11 27.61 31.15 35.45 38.21 35.57 38.09 34.44 29.64 31.69 37.47 40.61 39.29 36.14 35.85 29.54 27.92 32.06 30.72 31.97 45.41 43.39 45.48 46.62 47.10 47.66 48.37 48.84
28.61 28.18 35.39 35.72 18.60 21.70 26.21 26.67 28.27 27.34 27.90 27.84 26.99 29.08 29.64 26.50 22.86 27.23 30.44 36.22 35.39 35.65 36.88 38.17 32.42 25.92 29.51 34.83 38.62 35.63 36.74 34.80 33.58 32.42 29.47 27.66 32.32 45.09 42.73 43.63 46.25 46.34 46.49 46.95 46.79
27.60 20.27 26.64 32.91 27.67 25.00 23.69 24.00 24.50 30.43 29.20 30.04 28.55 30.44 27.37 25.68 29.09 26.59 27.72 34.06 35.04 38.91 40.42 39.46 32.91 28.78 24.90 27.84 32.43 29.65 32.73 33.89 33.73 28.44 28.61 29.41 31.61 36.82 39.29 40.37 44.44 45.06 45.31 44.97 43.96
28.53 23.41 26.87 19.88 24.43 26.47 25.46 24.71 23.46 23.84 29.60 30.46 27.57 27.54 26.53 23.69 27.63 26.82 31.45 32.89 35.79 38.74 38.46 36.28 29.82 31.80 31.73 32.44 32.48 31.62 31.48 32.73 30.93 31.83 27.53 30.55 31.47 35.94 39.52 40.90 44.54 43.51 42.95 41.42 40.51
28.05 26.55 30.54 27.03 26.71 22.34 25.31 23.58 24.13 26.47 28.37 26.58 26.99 28.22 29.02 25.72 28.88 27.83 32.04 32.49 32.35 36.67 35.97 36.90 29.52 31.16 28.65 31.46 31.26 29.13 31.60 31.98 31.58 32.05 32.05 32.99 33.33 41.22 43.79 45.37 43.58 41.34 40.06 38.07 37.47
35.94 36.09 30.74 25.92 26.04 23.44 22.98 24.86 26.77 29.45 30.44 31.13 29.82 29.68 28.52 31.04 35.36 36.49 36.93 36.98 36.50 34.47 34.11 33.03 31.21 28.65 24.22 28.74 29.00 24.71 29.74 31.90 33.25 35.67 36.02 30.93 37.00 40.29 41.63 40.52 40.65 38.78 37.47 35.56 35.22

GFSSW_sfc_wetblb_090.txt.gz
Wetbulb
51.83 51.58 52.04 51.87 51.90 51.60 51.51 51.46 50.85 50.98 51.32 51.54 51.77 51.90 52.34 52.52 52.42 51.13 47.29 51.01 52.99 57.08 54.62 57.24 54.15 53.53 53.64 52.58 53.21 52.27 44.84 42.76 44.14 43.56 45.05 48.82 47.45 50.83 52.15 50.89 51.72 53.40 53.89 56.34 61.16
51.49 51.71 51.69 51.70 51.58 51.37 51.37 50.98 50.57 50.54 50.94 51.28 51.47 51.72 51.81 52.12 49.74 47.20 54.65 56.46 55.16 56.22 51.12 52.57 51.54 53.17 49.92 49.77 50.79 48.48 45.15 45.24 48.98 48.06 47.10 48.59 48.19 49.12 48.81 49.15 50.00 51.82 54.38 55.54 58.15
51.70 51.52 51.54 51.50 51.40 51.35 50.96 50.58 50.18 50.41 50.46 50.83 51.34 51.78 52.06 51.96 46.33 43.99 56.27 58.35 56.12 56.18 55.19 52.65 52.20 52.41 49.06 50.81 49.74 48.43 44.76 48.77 48.04 48.80 49.61 48.56 48.63 50.06 48.05 46.73 49.47 49.96 52.25 54.12 57.34
51.72 51.35 51.46 51.60 51.27 50.83 50.54 50.68 49.84 49.87 50.23 50.93 51.37 51.77 51.94 50.00 37.37 52.13 53.34 55.10 56.77 58.03 54.19 51.66 49.79 47.75 46.15 45.73 49.51 45.24 48.05 48.59 49.13 49.34 48.49 47.27 49.23 48.03 48.86 49.43 52.03 52.32 53.31 54.03 54.55
51.06 50.92 51.00 50.76 50.68 50.45 50.19 50.32 49.70 49.54 50.45 51.42 51.96 51.50 50.07 43.20 42.51 48.69 51.34 53.76 54.65 55.12 52.24 50.07 47.41 46.90 43.37 44.91 46.57 45.61 46.50 47.70 48.87 48.86 48.77 49.24 47.62 48.19 49.27 52.03 53.12 53.40 53.78 54.37 54.61
49.49 49.57 49.78 49.98 50.11 49.83 49.40 50.08 49.95 49.65 50.55 51.44 52.58 50.80 47.66 39.34 47.34 49.92 49.83 49.61 49.38 53.23 51.23 51.24 49.26 49.17 46.00 45.24 44.14 46.63 46.08 47.12 47.77 47.68 48.21 46.70 47.89 49.02 50.15 52.43 52.13 52.80 53.43 54.33 54.81
49.12 48.90 48.92 49.10 49.07 49.01 49.03 49.27 49.53 50.19 50.49 52.86 52.81 51.26 45.97 44.14 50.70 51.42 50.00 48.86 49.37 48.95 49.60 51.60 52.44 49.76 48.30 45.95 48.59 46.78 43.59 46.32 47.21 47.84 47.30 49.17 46.03 47.12 51.08 52.30 51.42 52.17 53.27 54.00 54.99
48.95 48.75 48.55 48.73 48.93 48.78 49.10 49.62 49.91 49.89 51.75 52.18 52.77 50.34 43.36 51.55 53.50 52.17 53.65 51.88 51.64 50.00 48.30 49.26 50.28 49.13 48.07 47.89 45.39 42.47 43.17 39.10 44.37 46.27 47.17 47.48 41.71 47.75 50.46 50.46 50.01 51.58 52.64 53.36 54.55
48.51 48.31 48.38 48.65 48.55 49.40 49.78 49.81 49.13 50.13 51.74 52.10 50.27 48.06 42.36 51.79 49.40 53.32 53.57 50.17 50.92 50.49 49.54 48.14 48.47 45.79 45.06 41.12 39.25 40.87 36.12 38.38 40.60 46.22 45.86 45.85 43.02 47.25 50.36 49.92 49.68 51.28 52.43 53.25 54.20
48.12 47.92 48.32 48.37 48.56 49.23 48.53 48.24 49.15 51.27 49.93 51.21 50.93 43.70 47.01 43.71 46.59 51.14 51.10 51.38 48.55 47.50 45.44 43.67 44.00 41.44 40.58 38.93 32.51 35.22 35.30 36.96 37.81 42.89 44.80 43.28 43.11 46.55 48.51 48.18 48.27 49.32 51.20 52.29 53.11
47.62 48.17 48.17 48.11 48.12 48.51 47.69 48.84 43.20 43.22 42.12 38.66 39.87 39.35 40.56 44.77 46.92 44.97 47.62 48.68 48.86 45.32 38.75 40.84 37.88 36.64 39.14 39.51 39.36 38.03 36.97 37.45 40.97 42.99 40.78 40.53 41.08 43.58 46.67 47.56 48.14 48.87 49.90 50.73 52.33
47.30 47.88 48.08 48.15 47.94 46.67 47.19 41.24 39.41 40.78 33.85 41.64 41.67 41.50 43.69 44.99 39.29 44.93 46.88 42.71 43.43 40.04 41.61 38.59 35.72 40.44 41.42 40.59 38.75 38.06 35.65 35.74 39.27 41.69 41.45 41.35 41.89 45.79 47.08 47.66 48.76 49.12 49.97 50.99 52.19
46.75 47.50 47.69 47.59 46.35 46.57 43.81 41.79 46.17 44.69 35.07 39.10 41.51 41.80 43.18 44.06 40.65 42.45 44.63 42.09 39.88 39.71 40.95 36.63 39.78 41.99 39.76 38.13 36.31 37.37 36.03 36.91 36.92 40.57 43.14 42.34 40.66 43.48 46.02 48.20 49.05 50.06 51.24 51.76 52.11
46.18 46.49 47.07 46.93 43.92 44.53 42.68 45.69 47.10 45.88 33.22 34.21 37.98 43.08 43.07 44.73 40.41 46.15 47.24 43.64 39.64 36.59 40.46 40.35 43.47 40.92 40.07 38.11 38.49 34.54 40.38 38.84 37.99 38.12 34.96 41.67 34.17 41.04 43.92 45.04 48.04 50.08 52.23 53.04 53.66
45.90 46.08 46.26 45.57 43.89 42.26 43.18 46.82 46.92 44.58 22.02 34.53 37.91 47.82 43.23 38.63 40.65 41.81 47.58 44.03 38.43 38.06 40.56 38.20 39.10 38.64 37.88 39.04 40.72 37.51 42.35 40.90 40.30 39.12 38.20 39.02 36.34 40.35 44.03 43.88 46.86 51.01 53.26 54.55 55.31
45.71 45.70 45.45 44.87 45.98 44.78 46.51 46.69 45.92 31.34 21.93 30.95 36.29 36.02 35.88 37.15 39.21 42.89 42.63 44.83 43.59 39.05 40.97 40.49 44.58 42.31 41.58 42.75 42.86 43.77 41.17 40.48 40.26 38.65 32.33 37.94 37.57 39.44 43.41 44.34 48.28 51.78 53.52 54.76 55.84
45.55 45.43 44.55 45.91 40.24 46.31 46.28 43.22 29.85 23.31 32.43 29.32 30.80 34.27 33.83 33.99 36.66 39.09 37.59 37.35 34.68 30.85 33.11 38.12 38.94 42.63 43.60 40.02 42.73 41.59 37.35 31.12 30.02 29.82 30.14 38.87 36.81 40.51 44.91 48.46 50.22 50.92 53.09 55.27 56.53
45.14 43.34 42.99 44.76 45.98 45.99 44.00 34.48 21.32 27.42 28.18 33.84 32.50 32.57 30.36 34.81 34.46 36.78 35.30 34.09 38.57 37.53 34.74 32.15 29.55 38.22 42.54 40.29 37.37 38.44 38.43 33.00 25.47 28.46 33.45 38.58 34.03 41.37 48.31 50.71 51.79 52.85 53.47 54.79 55.73
43.63 45.51 44.18 44.89 46.71 46.03 37.60 24.99 25.67 27.70 29.90 28.41 30.22 27.90 30.05 33.23 32.03 32.78 33.14 32.28 36.77 39.38 32.73 32.13 32.20 40.50 42.02 42.86 42.26 38.20 35.02 40.77 33.99 35.80 32.38 36.44 40.26 45.61 48.37 48.94 50.21 51.03 52.16 53.09 55.05
43.52 42.35 41.25 45.65 46.88 43.31 33.68 23.73 26.98 31.10 31.47 30.28 23.88 28.40 25.01 28.97 27.90 29.84 30.46 34.59 35.46 39.66 42.15 37.67 31.18 39.11 40.99 43.34 43.16 41.12 43.14 33.30 35.87 25.54 25.74 33.97 36.20 40.21 42.98 45.15 47.83 49.08 50.53 52.33 54.47
42.84 37.30 42.21 46.08 45.48 38.11 27.72 26.66 28.99 33.04 32.71 28.34 26.80 25.87 27.04 25.91 27.97 27.96 29.13 33.16 33.07 35.49 38.32 38.11 37.42 35.92 40.04 38.15 37.30 38.15 36.95 37.73 37.58 35.71 29.33 30.49 36.51 46.37 44.23 45.35 45.50 48.41 50.44 51.74 52.52
40.71 32.84 43.06 44.28 33.99 33.87 29.42 28.98 31.53 31.23 33.48 31.41 31.33 30.00 28.17 29.15 28.05 28.50 28.91 32.37 36.72 34.74 30.59 41.01 37.77 32.97 35.03 40.95 43.23 41.34 38.66 38.69 33.09 30.72 34.63 31.91 35.32 47.34 47.15 45.55 45.70 47.67 49.73 51.13 48.99
36.47 36.53 42.49 41.96 28.22 30.06 30.35 29.30 30.80 30.42 30.57 29.95 29.23 31.65 32.69 28.40 24.14 29.03 30.54 36.24 36.19 33.71 34.18 40.86 36.39 30.35 31.69 36.29 40.18 37.62 38.53 38.29 36.41 36.37 32.23 29.98 36.47 47.28 45.89 44.46 46.50 47.32 49.14 48.76 46.08
37.45 30.97 35.88 38.77 34.63 27.97 26.65 27.23 27.62 32.86 31.62 32.13 30.85 32.91 30.74 28.73 31.34 26.76 28.49 32.93 33.93 33.77 36.97 40.42 36.69 33.48 30.08 32.93 37.27 33.80 36.01 37.84 36.67 32.29 33.11 34.29 35.99 39.57 41.73 43.75 46.39 47.67 48.40 46.82 43.30
37.26 31.61 32.55 29.70 30.68 29.95 28.97 27.69 26.53 26.80 31.83 32.75 30.45 30.20 29.06 25.59 27.86 27.57 31.11 32.85 34.33 37.31 39.38 39.96 33.19 35.30 35.15 35.91 35.62 34.71 34.39 35.64 34.48 34.96 30.70 34.43 34.51 38.92 42.46 44.28 45.63 47.25 45.53 44.10 40.07
33.18 34.16 33.07 31.48 30.15 28.26 27.43 26.69 26.50 28.36 28.91 28.52 28.72 30.87 30.42 28.50 30.00 25.99 30.56 31.40 33.39 35.93 34.78 38.67 31.89 33.55 30.80 34.07 34.06 31.42 33.78 35.14 35.23 35.40 35.67 36.32 36.19 42.74 44.97 45.83 43.76 40.82 40.49 39.45 38.26
40.21 38.34 35.72 30.25 28.99 28.42 28.33 27.60 27.48 30.00 31.01 31.43 31.84 30.22 29.76 32.49 36.04 36.18 37.16 37.29 36.32 34.39 33.68 34.82 33.62 30.64 26.41 31.69 31.32 28.01 32.43 34.01 35.17 37.27 37.40 33.49 38.55 42.33 40.81 40.06 39.45 38.76 36.80 36.35 35.20

GFSSW_sfc_wetblb_093.txt.gz
Wetbulb
51.50 51.51 51.77 51.91 51.86 51.89 51.85 51.59 51.24 51.06 51.30 51.55 51.83 52.31 52.58 52.81 52.72 53.03 49.62 52.43 53.70 56.84 54.44 53.11 57.62 56.83 54.70 52.38 55.89 55.15 47.24 45.10 46.64 47.06 48.78 51.05 48.96 52.07 53.41 51.47 52.50 53.78 54.02 58.09 59.79
51.30 51.65 51.60 51.69 51.80 51.75 51.51 51.24 50.92 50.57 50.73 51.08 51.55 51.98 52.62 53.10 51.21 50.20 54.87 58.41 58.54 55.05 52.90 50.04 51.64 52.66 51.44 51.98 53.33 50.92 47.01 46.87 50.35 50.90 49.87 50.10 50.02 50.90 50.13 50.20 50.77 52.02 55.11 56.55 57.01
51.62 51.51 51.92 51.75 51.75 51.37 51.25 50.98 50.55 50.42 50.33 50.93 51.79 52.15 52.69 53.05 49.22 49.14 55.59 56.60 58.24 56.40 54.98 52.18 52.39 51.76 49.62 50.96 50.71 50.51 46.49 49.96 50.79 52.03 52.15 50.65 50.42 52.52 50.41 48.85 51.57 51.49 53.29 55.05 55.28
51.48 51.31 51.49 51.36 51.09 50.91 50.76 50.33 50.21 50.16 50.29 50.96 51.97 52.68 52.72 52.22 40.78 54.00 53.16 53.51 57.08 57.64 56.32 53.95 50.66 47.87 47.88 47.25 50.76 47.53 49.90 50.43 51.16 51.69 51.22 49.62 51.27 50.04 50.88 51.43 53.63 53.59 54.21 54.50 54.68
49.57 49.57 49.89 50.34 50.28 50.06 49.89 49.77 49.77 50.01 50.33 51.22 52.15 52.81 52.23 47.49 46.31 52.17 51.94 53.92 55.22 56.83 54.10 51.92 50.05 48.91 46.09 47.99 48.37 47.90 48.66 49.81 51.08 50.69 50.57 51.09 49.21 49.45 50.23 53.20 54.47 54.48 54.26 54.38 54.46
49.27 49.22 49.32 49.50 49.69 49.67 49.66 49.60 49.64 49.98 50.37 51.28 52.82 52.55 50.46 43.15 49.42 50.66 50.47 49.83 49.75 52.88 52.66 52.73 50.83 50.98 48.44 47.37 46.48 47.56 47.20 47.75 48.21 48.62 49.65 47.51 48.37 49.92 51.18 53.51 53.25 53.53 54.01 54.79 55.29
49.13 48.98 49.10 49.30 49.53 49.60 49.64 49.70 49.66 50.33 50.71 52.03 53.51 52.91 48.45 46.70 52.37 53.04 52.05 50.66 50.07 49.58 48.30 51.75 53.01 50.86 50.52 47.33 50.03 48.95 45.50 47.32 47.83 47.82 47.52 49.80 46.29 46.83 51.60 52.84 52.46 52.99 53.85 54.34 55.18
48.78 48.86 48.75 48.84 49.15 49.13 49.67 50.25 49.91 50.20 51.24 52.74 53.53 52.81 45.88 52.18 54.01 51.90 54.41 53.25 53.39 50.94 48.88 50.35 52.38 50.93 49.84 50.83 47.96 43.34 44.21 40.10 45.05 46.26 47.21 47.17 42.07 48.62 51.67 51.69 51.54 52.38 53.06 53.93 55.22
48.41 48.30 48.39 48.92 48.90 49.54 49.84 49.98 49.67 50.77 52.16 52.53 53.09 50.46 45.26 51.60 50.99 52.98 53.73 50.84 52.21 52.93 52.05 49.08 48.11 45.93 46.32 42.74 40.70 42.42 36.20 38.03 41.73 46.21 45.45 45.83 43.53 48.47 51.10 50.74 50.46 51.75 52.99 53.70 54.78
47.91 48.04 48.35 48.55 48.97 49.36 49.33 48.93 50.26 51.44 51.66 52.29 52.00 46.09 49.08 45.11 47.17 47.23 49.66 51.27 49.68 50.15 48.43 45.64 44.27 41.84 42.22 40.73 34.02 36.43 36.20 38.90 38.47 43.14 44.50 43.22 44.33 47.40 49.19 49.55 49.51 50.14 51.01 51.92 53.24
47.66 48.13 48.42 48.53 48.36 49.10 48.78 49.90 45.63 46.26 45.58 41.75 42.67 42.59 42.94 47.54 50.84 48.50 48.74 45.89 46.69 47.73 42.67 45.09 38.97 37.23 39.87 42.13 41.28 39.94 38.53 38.20 39.97 43.64 43.39 42.48 42.75 43.87 46.41 47.00 46.67 48.34 49.58 50.28 51.27
46.97 47.53 47.84 47.80 47.82 48.47 49.98 44.19 42.42 43.48 38.24 44.35 44.08 43.87 46.06 47.45 43.01 47.22 49.30 42.28 42.83 40.42 44.22 42.08 37.23 41.60 43.12 42.71 40.75 39.12 37.93 37.82 40.28 42.14 41.40 40.74 41.46 44.64 46.40 47.42 48.29 48.93 49.98 50.84 51.98
46.46 46.61 47.17 47.28 47.82 48.47 46.55 44.27 48.34 47.81 39.16 41.97 44.14 44.40 45.55 46.53 43.62 44.99 47.33 45.32 41.08 39.04 39.93 39.41 41.46 43.42 41.24 40.62 38.31 38.79 37.94 37.79 37.73 40.41 43.24 41.75 39.62 42.78 46.89 48.78 49.30 50.12 51.05 51.87 52.61
46.18 46.18 46.49 46.36 45.10 47.33 45.29 47.46 49.03 48.93 36.01 38.22 39.30 44.29 45.43 45.29 41.28 48.46 46.92 45.84 43.25 39.01 38.89 40.18 43.99 41.91 41.53 39.59 39.84 35.00 41.15 39.33 38.62 37.62 32.93 43.89 35.12 42.71 45.54 45.89 47.52 49.51 51.88 54.92 56.04
45.72 46.01 46.02 46.11 45.83 44.92 45.26 48.83 49.23 46.86 25.73 37.11 40.02 49.42 44.99 40.17 40.73 41.83 47.87 45.14 39.66 40.61 41.31 36.54 37.89 40.10 39.53 40.20 41.57 37.75 41.99 40.61 40.09 37.37 37.15 39.48 37.26 40.36 45.10 43.18 47.16 50.54 53.16 55.11 56.57
45.75 45.74 46.23 46.77 48.12 46.90 48.50 49.03 47.40 35.17 25.82 33.95 38.10 38.17 38.10 39.66 39.27 40.99 42.33 46.83 45.01 40.59 41.56 40.51 42.37 43.05 42.32 44.11 43.38 43.41 41.37 41.38 40.63 38.77 32.65 36.87 36.91 39.09 42.25 45.39 47.93 51.66 53.75 55.40 56.85
45.42 45.26 45.92 47.39 43.38 48.37 48.80 45.32 33.47 27.81 35.73 32.29 33.43 36.59 35.59 34.80 35.78 38.08 38.89 38.94 36.64 33.42 33.86 38.50 38.29 42.15 44.34 40.43 43.38 41.77 39.00 31.13 29.58 30.48 29.01 40.33 38.06 39.64 46.54 49.73 50.07 51.34 53.38 55.24 57.03
44.95 43.88 43.62 46.92 49.17 49.09 45.98 37.76 25.32 31.31 31.28 36.67 34.77 34.04 31.33 34.44 35.22 36.46 35.88 34.50 39.69 37.79 35.16 31.32 28.92 39.29 43.68 41.32 38.82 38.85 38.39 32.02 26.07 28.40 33.19 40.34 34.74 39.72 49.75 51.38 52.05 53.06 54.17 55.17 55.83
44.49 46.83 47.44 47.68 49.70 48.20 40.65 29.62 29.97 31.11 33.39 31.21 31.97 29.88 31.22 34.45 32.69 33.88 34.15 34.10 37.17 37.19 32.02 32.46 32.12 41.46 43.46 43.63 42.76 38.40 35.75 41.12 35.51 36.81 33.76 37.18 41.15 47.26 49.07 48.64 49.44 50.90 52.72 53.32 54.76
45.65 44.48 43.60 48.58 49.45 45.38 38.25 27.59 30.57 33.70 33.53 32.75 26.48 30.17 26.82 30.24 30.23 30.92 31.18 36.05 34.88 36.61 36.76 37.78 30.37 38.79 41.66 43.45 43.19 41.06 42.61 33.97 36.46 27.07 26.77 33.99 36.73 38.96 43.87 44.80 47.48 48.34 50.80 52.60 53.53
44.18 40.24 44.65 47.82 47.53 41.15 32.00 31.06 31.74 35.26 34.65 30.51 29.14 28.19 29.18 28.44 30.43 29.91 30.26 34.93 35.67 34.83 35.80 36.31 37.38 36.31 40.85 38.26 36.89 37.88 37.08 38.24 38.57 36.89 30.48 29.98 35.14 46.37 44.81 45.64 45.37 47.52 50.52 51.79 51.55
44.12 37.47 46.11 47.06 37.25 37.85 32.71 31.27 33.58 33.36 35.97 33.78 33.53 31.26 29.82 30.65 29.08 29.01 29.12 33.56 36.98 35.93 31.59 36.10 37.00 32.30 35.99 41.90 43.01 41.81 39.33 39.44 33.06 31.84 35.83 34.95 35.70 47.27 47.42 46.43 47.56 48.73 50.42 51.67 50.84
41.51 40.21 45.96 44.83 32.08 34.02 33.13 32.10 33.21 32.51 32.98 32.55 31.09 32.99 33.48 30.33 25.95 30.47 31.95 37.48 37.23 34.37 33.58 35.07 34.71 30.54 31.00 37.54 41.85 38.93 40.58 41.11 39.40 38.41 33.78 31.47 35.27 47.34 45.55 45.47 48.38 48.76 50.00 50.54 48.72
41.37 34.25 38.49 41.09 37.44 31.60 29.58 30.00 30.07 35.59 33.95 34.35 33.14 34.83 32.44 30.15 33.55 29.85 31.24 34.54 35.61 34.93 38.00 36.43 32.43 34.06 29.19 34.60 38.85 35.08 37.75 39.79 38.44 33.41 33.78 35.54 37.53 41.57 42.77 44.73 46.37 49.15 48.08 49.12 46.38
41.51 35.17 36.47 33.46 33.02 32.77 30.89 29.63 28.98 28.56 34.22 35.01 32.40 32.25 30.52 27.51 29.78 30.01 32.57 33.53 35.75 36.82 36.56 34.75 34.69 36.39 37.28 38.88 39.27 38.10 37.38 38.07 36.14 36.83 32.56 35.83 36.09 40.10 43.50 44.28 46.18 45.94 46.30 45.00 42.65
36.81 37.09 36.95 34.80 32.57 28.78 31.09 28.91 28.73 29.85 30.29 30.06 29.67 32.20 32.63 29.73 30.87 27.74 30.93 32.37 32.81 37.00 34.97 37.41 33.32 36.72 33.89 37.22 37.04 34.51 35.91 36.55 36.76 36.78 36.79 37.64 37.37 44.07 44.97 45.23 43.09 42.36 41.15 40.42 38.30
43.52 41.89 38.98 31.97 33.41 31.79 32.32 29.85 29.92 32.45 32.85 33.76 32.71 31.78 31.73 34.07 37.46 37.67 38.73 37.31 36.47 34.95 34.71 34.90 35.85 34.21 28.36 34.38 33.15 29.61 33.90 35.24 36.24 39.12 37.80 34.17 38.33 42.48 41.11 38.78 34.52 34.85 36.34 35.34 35.81

GFSSW_sfc_wetblb_096.txt.gz
Wetbulb
52.00 52.32 52.10 52.11 52.25 52.18 52.28 52.24 51.80 51.51 51.43 51.69 51.91 52.26 52.83 53.48 53.34 52.10 49.03 54.10 54.36 56.27 54.63 49.81 49.91 55.49 54.22 52.19 55.25 54.89 46.34 43.86 45.28 46.28 48.04 52.23 50.55 53.30 53.00 51.01 52.00 53.54 53.67 57.82 62.38
51.75 52.16 52.32 52.40 52.32 52.35 52.00 51.99 51.58 51.22 51.21 51.33 51.56 52.22 53.14 53.73 50.24 49.32 57.36 58.52 59.29 55.82 51.12 47.87 46.30 52.45 50.44 50.49 50.10 48.49 46.58 45.59 49.28 50.04 49.13 51.02 50.80 51.27 50.26 49.96 50.26 52.02 55.36 56.55 58.35
51.73 52.15 52.11 52.09 51.84 51.43 51.50 51.28 50.74 50.86 50.78 50.98 51.38 52.34 53.40 53.15 48.76 50.75 57.52 58.38 58.29 57.81 53.54 53.57 49.95 49.19 47.51 48.98 48.73 48.06 45.58 49.49 50.20 51.23 51.47 50.30 50.40 52.33 49.39 48.23 51.24 51.26 53.48 55.41 55.79
51.60 51.13 50.42 50.48 50.78 50.62 50.31 50.53 50.34 50.58 50.63 51.07 51.84 52.59 53.73 51.96 41.18 52.64 56.91 56.43 57.49 56.37 52.91 52.37 51.57 46.12 45.06 44.91 48.93 45.06 48.34 49.51 50.24 51.09 50.34 49.25 51.53 50.11 50.94 51.49 53.95 53.75 54.60 55.18 54.69
49.72 49.78 49.83 49.83 49.96 50.24 50.04 50.12 50.36 50.59 50.76 51.11 51.91 52.93 52.33 48.36 48.35 53.11 56.49 55.43 53.10 55.27 53.67 52.09 49.49 48.29 43.88 45.16 46.07 45.81 47.13 48.75 50.28 50.43 50.31 50.95 48.86 49.36 49.97 52.52 53.42 53.83 54.08 53.96 53.91
49.45 49.51 49.53 49.64 49.81 50.08 50.12 50.08 50.46 50.29 50.57 51.10 52.18 53.23 48.78 42.97 51.03 51.60 50.82 49.88 49.34 49.16 51.86 51.63 49.68 50.48 47.52 46.37 45.77 47.23 47.16 46.84 47.99 48.50 48.74 47.36 47.74 48.54 49.80 52.28 52.07 52.61 52.44 53.52 54.14
49.29 49.63 49.44 49.22 49.43 49.82 49.84 50.20 50.74 50.50 50.74 51.62 52.90 52.94 48.01 46.88 52.85 53.50 52.00 50.56 50.19 48.27 46.30 49.84 51.41 49.14 49.03 46.41 49.05 47.18 43.62 45.33 46.19 46.45 45.97 47.93 44.28 45.63 49.82 50.77 50.19 51.33 52.67 53.32 54.12
49.29 49.33 48.98 49.07 49.44 49.50 49.53 50.42 50.67 50.65 51.22 52.57 53.99 52.01 46.17 53.98 53.59 51.25 51.95 51.86 53.74 52.65 48.76 48.75 49.21 47.76 47.41 49.15 46.86 44.14 44.40 39.43 45.49 46.98 47.51 47.03 40.77 46.64 49.72 49.63 49.68 51.03 51.99 52.77 53.71
48.90 48.57 48.83 49.05 49.51 50.04 50.15 50.22 50.55 50.97 52.02 53.10 51.96 51.41 45.12 52.72 48.09 53.30 53.43 50.60 52.15 52.57 52.74 51.17 46.86 44.04 45.87 42.47 40.24 41.83 37.00 38.87 41.23 45.20 44.33 43.98 41.60 46.14 49.14 48.54 48.13 50.03 52.12 52.49 53.10
48.16 48.14 48.73 48.86 49.53 49.41 49.54 49.74 51.11 50.63 52.01 52.89 52.54 45.81 49.17 46.04 47.88 49.19 49.90 47.92 47.60 47.36 48.17 47.71 43.87 39.57 39.85 38.61 32.80 36.09 36.88 38.75 38.64 42.56 43.12 41.28 42.28 45.35 47.68 48.53 49.24 49.54 50.89 51.42 52.27
47.61 47.79 48.21 48.13 48.61 48.97 48.46 50.13 45.26 45.36 48.42 43.09 43.56 46.54 46.34 47.10 48.92 48.31 50.44 48.30 46.01 42.92 39.38 45.08 39.00 35.12 37.98 39.94 39.73 39.63 38.90 38.03 40.93 43.04 41.99 41.34 41.16 43.32 47.19 47.39 45.87 47.24 48.54 49.04 50.38
47.04 47.11 47.38 47.58 47.78 48.97 48.51 44.53 43.38 43.64 36.99 44.03 44.07 44.19 45.61 46.10 42.32 46.72 50.19 43.35 41.73 37.08 40.12 40.16 37.57 41.68 41.93 40.58 40.07 39.56 37.86 37.72 40.61 42.56 41.19 39.99 39.78 42.26 43.79 44.45 45.83 45.98 46.86 48.09 49.61
46.56 46.72 47.01 46.89 47.09 46.70 46.81 44.16 48.38 48.38 38.18 41.51 45.57 43.85 44.78 46.48 43.12 44.43 47.24 45.19 41.79 38.86 38.64 36.21 39.40 43.34 41.69 39.71 37.71 38.83 37.95 37.60 37.21 40.22 41.12 39.85 37.56 40.82 44.26 46.08 47.04 47.60 48.86 50.14 50.61
46.10 46.38 46.65 47.07 44.23 47.25 45.97 47.62 49.08 49.69 34.09 38.83 40.10 43.41 46.08 45.98 40.71 47.19 48.09 44.48 40.76 37.70 39.59 38.83 41.45 38.81 38.75 39.02 39.43 34.99 41.13 40.09 38.55 36.68 31.60 39.76 31.14 38.36 43.84 45.15 46.27 47.12 48.27 50.64 55.00
45.90 46.38 46.63 46.66 45.89 44.84 45.71 48.62 48.92 47.45 25.86 39.26 41.04 49.42 45.98 41.13 41.33 41.27 45.96 41.98 36.64 37.69 38.78 36.06 37.99 38.13 36.07 38.38 41.65 38.25 42.00 39.97 39.28 36.57 35.77 35.75 33.25 37.74 43.31 42.46 45.00 49.37 52.62 55.27 56.70
46.07 46.11 46.34 47.01 47.88 47.50 48.40 48.42 46.69 33.49 26.17 35.24 39.20 38.63 38.10 39.97 39.59 40.68 40.26 42.39 41.63 38.42 39.68 38.01 41.59 40.32 39.86 40.04 42.00 43.37 40.25 39.53 39.02 36.72 29.24 35.05 34.67 35.52 39.57 43.10 47.11 51.04 52.97 54.67 55.68
45.63 45.89 45.17 46.48 43.36 48.61 48.65 44.70 32.85 27.76 36.95 33.57 34.48 37.10 35.78 34.34 35.76 36.85 35.57 34.66 32.81 30.51 31.12 35.71 37.17 41.27 42.20 36.56 41.54 41.26 36.99 28.37 26.98 27.86 27.00 37.24 35.11 37.66 42.62 48.68 50.01 50.50 52.10 54.06 55.54
45.24 45.23 47.31 46.97 48.80 49.25 46.18 37.52 25.76 33.70 33.26 36.35 35.03 34.09 31.39 34.66 35.71 36.36 34.97 32.61 36.97 35.07 30.39 28.52 27.76 37.29 41.73 39.55 36.57 37.96 37.51 30.25 23.47 25.57 29.65 37.50 31.84 37.97 46.40 50.61 51.51 52.01 52.79 53.47 53.49
44.92 45.55 46.53 47.64 49.66 48.40 40.21 29.70 30.62 31.66 33.73 31.59 32.44 30.16 30.75 33.51 33.79 33.86 33.23 32.20 35.17 36.54 28.44 27.93 29.68 40.72 41.55 41.23 39.64 37.58 34.22 40.16 33.41 34.26 29.64 34.26 38.59 45.02 47.39 48.11 49.67 49.92 50.80 51.29 51.70
42.16 43.97 43.46 47.74 49.06 44.95 37.01 30.28 32.00 35.24 34.64 33.08 26.41 30.48 26.35 29.32 29.42 30.18 30.68 34.68 34.03 37.37 37.28 31.90 25.50 37.99 40.06 41.61 40.69 39.65 41.88 32.87 34.38 26.66 25.14 31.76 33.46 35.62 41.59 44.78 46.29 46.58 48.98 50.09 50.50
41.64 39.35 44.73 47.82 47.42 40.02 31.35 32.16 32.83 35.91 35.01 30.97 29.25 28.00 28.59 27.59 29.51 28.78 29.69 34.01 36.34 36.16 36.47 34.41 31.19 31.99 37.92 34.80 35.11 37.78 35.48 36.71 36.54 34.39 26.98 27.91 33.33 42.84 40.66 42.91 44.73 47.59 49.12 48.96 48.25
42.98 36.26 45.35 46.82 36.81 36.74 32.88 32.36 34.90 33.79 36.25 34.30 33.63 31.63 29.64 29.81 28.04 28.40 28.31 32.29 37.84 36.99 30.37 34.92 34.14 27.96 33.78 40.37 41.83 40.37 37.96 37.65 31.15 30.43 34.65 33.45 32.92 43.43 44.36 45.09 47.22 47.87 48.81 48.27 47.11
39.68 39.12 44.76 45.13 32.07 32.72 34.29 33.07 34.09 33.46 33.73 33.49 31.97 33.42 33.92 30.13 25.77 30.14 31.48 36.69 36.91 34.30 31.49 34.44 30.45 26.52 29.44 35.61 40.78 37.45 38.81 39.23 38.14 37.77 32.36 30.02 32.86 42.50 43.11 45.44 46.49 45.33 46.33 46.65 45.12
40.60 34.24 38.31 40.48 37.11 32.88 30.31 31.18 30.74 36.17 34.44 35.56 33.46 34.68 32.17 29.80 32.58 29.15 31.22 35.59 37.45 36.57 37.84 36.26 29.79 26.74 24.12 31.35 37.68 34.81 37.54 38.85 37.34 32.12 32.19 33.21 33.96 38.59 41.51 42.37 43.13 43.39 44.35 44.55 43.10
41.07 36.25 37.28 32.37 33.45 33.27 32.19 30.76 29.62 29.25 34.27 34.70 32.37 32.52 30.68 26.98 29.06 28.90 32.24 32.82 35.31 37.02 36.84 34.98 28.75 31.47 32.50 33.29 38.65 36.84 36.28 36.20 34.59 36.10 31.97 34.33 34.81 38.01 40.02 40.28 40.35 40.96 41.19 40.23 38.48
36.31 36.39 36.28 34.82 34.96 31.84 32.76 30.29 29.59 30.87 30.73 29.83 30.03 31.71 31.26 28.66 30.30 28.39 31.28 31.32 31.96 36.18 35.46 36.33 31.64 33.22 30.94 36.28 37.28 33.91 34.78 36.21 36.86 36.81 36.25 36.91 36.09 39.81 40.52 37.07 35.35 35.08 34.88 33.56 33.01
42.34 41.70 38.25 34.05 33.73 32.56 32.78 31.21 31.16 33.46 33.59 34.33 32.61 31.23 30.37 33.27 35.58 35.99 36.84 36.88 36.67 34.19 34.79 33.97 32.66 32.76 28.05 34.49 34.47 29.41 34.51 36.08 36.53 36.17 35.46 30.72 34.02 36.77 35.25 31.04 29.83 29.87 30.30 29.64 29.87

GFSSW_sfc_wetblb_099.txt.gz
Wetbulb
52.38 52.54 52.91 52.78 52.89 52.83 52.82 52.71 52.47 52.33 52.09 52.01 52.17 52.09 52.67 53.56 53.58 49.55 45.33 50.99 52.96 57.18 55.33 48.93 46.13 45.43 48.65 46.10 46.43 48.53 42.33 39.74 40.76 42.18 44.63 49.73 48.75 51.60 50.32 46.97 48.84 51.49 52.26 58.81 62.25
51.90 52.54 52.88 52.67 52.69 52.65 52.26 52.01 51.89 51.55 51.52 51.52 51.53 51.82 52.47 53.64 49.27 46.66 53.06 58.56 57.78 56.57 49.14 46.01 42.39 43.39 45.22 44.48 43.99 40.70 39.14 41.35 45.33 46.28 45.53 48.36 46.74 47.16 48.19 47.61 47.44 50.25 53.74 58.69 60.08
51.98 52.42 52.46 51.94 51.34 51.33 51.32 50.99 50.94 51.13 51.26 51.25 51.32 51.89 53.05 53.06 46.56 49.17 59.69 58.99 59.16 58.16 51.11 49.95 49.29 44.14 41.37 44.58 44.19 41.86 39.45 43.52 45.51 48.47 49.26 46.84 46.88 48.36 46.81 45.21 47.77 48.05 49.94 51.96 53.57
51.89 51.38 50.57 50.68 50.62 50.53 50.65 51.21 50.64 50.94 51.11 51.22 51.32 52.18 53.24 50.36 38.52 47.88 58.06 58.80 58.88 54.56 51.75 48.40 47.47 42.95 38.49 38.43 42.90 40.10 44.38 44.73 45.40 47.64 48.09 47.04 48.08 47.00 47.59 47.86 50.55 49.60 50.53 51.44 51.12
50.23 49.76 50.02 50.22 50.30 50.12 50.43 51.03 50.85 50.98 50.79 50.94 51.58 52.35 50.59 44.12 46.40 52.04 57.19 56.10 54.90 52.89 49.97 48.73 46.68 45.12 40.81 40.65 41.56 40.93 42.63 45.20 46.63 46.94 47.13 47.55 46.17 46.54 47.28 47.85 50.24 50.92 50.76 49.92 50.39
49.48 49.58 49.89 49.96 49.89 49.85 50.15 50.76 50.67 50.38 50.91 51.37 51.70 52.53 47.65 37.94 50.20 51.76 51.00 48.59 48.27 46.31 48.82 49.82 47.22 47.12 44.24 43.55 41.18 43.29 43.40 43.43 44.89 45.27 44.63 44.57 44.96 44.33 46.97 47.62 48.47 49.53 48.91 49.77 50.05
49.51 49.64 49.59 49.70 49.53 49.78 49.95 50.10 50.49 50.42 51.05 51.46 52.17 51.32 45.69 42.91 51.05 49.19 49.79 46.36 46.85 46.43 43.26 44.74 44.74 42.14 43.70 41.94 45.99 45.00 40.69 43.14 43.23 42.26 42.00 43.50 40.66 41.49 44.92 46.97 47.12 48.25 49.05 49.63 50.24
49.68 49.42 49.28 48.94 49.31 49.51 49.81 50.54 50.61 50.44 51.04 52.05 52.91 49.50 41.84 53.14 49.66 49.02 47.97 47.50 48.92 48.18 47.32 46.47 45.45 41.82 39.91 42.96 42.87 40.12 39.65 34.85 41.66 43.43 44.40 41.10 37.16 43.31 45.80 45.77 45.86 46.94 48.05 49.76 50.87
49.42 49.13 48.64 49.08 49.46 49.98 49.98 50.13 50.48 50.69 51.10 52.62 48.84 46.88 44.00 53.60 48.06 47.81 47.53 46.67 46.99 50.04 48.69 50.69 45.70 39.28 38.34 34.31 33.57 35.80 31.50 34.25 37.82 42.96 42.54 40.08 38.53 43.39 45.14 46.33 45.88 46.62 47.24 48.39 49.68
48.77 48.38 48.25 48.58 49.16 49.24 49.24 49.60 49.99 50.91 50.46 51.31 49.62 43.84 48.01 45.53 46.19 47.12 46.97 47.89 44.55 42.91 41.50 41.99 41.07 36.33 32.15 30.19 26.37 28.93 31.66 34.15 34.69 40.43 41.03 39.34 38.55 41.86 43.09 43.54 42.86 43.38 45.17 46.39 47.94
47.76 47.50 47.68 47.86 48.26 48.86 46.86 43.09 40.28 40.64 44.30 42.36 43.08 43.41 45.78 46.78 45.41 43.85 47.49 46.24 44.86 40.09 32.66 36.92 34.38 32.27 31.86 34.03 35.17 34.70 33.64 32.47 35.99 39.91 38.84 38.05 35.82 39.56 42.26 42.87 42.33 42.94 41.90 43.01 46.68
47.04 46.97 47.09 47.24 47.51 48.35 45.54 39.94 40.38 40.00 33.39 41.83 41.57 41.64 43.98 44.41 40.20 42.43 46.63 41.81 39.84 33.98 35.86 32.96 30.09 36.79 40.06 38.18 36.11 34.91 32.33 31.91 36.19 39.68 39.00 36.61 35.33 36.99 39.16 39.65 41.79 41.67 42.29 43.04 43.38
46.27 46.63 46.74 47.02 47.32 45.19 42.79 41.52 45.51 45.32 32.69 38.47 43.00 42.75 44.22 43.99 39.67 41.00 44.69 42.49 38.76 35.93 36.11 32.41 35.29 39.88 38.33 37.37 36.23 35.68 33.24 33.10 33.65 37.73 37.30 35.39 34.16 35.63 40.77 41.97 43.54 44.85 43.92 45.31 44.76
45.96 46.06 46.72 47.50 44.47 44.58 41.83 45.32 45.61 45.23 28.49 36.77 39.81 42.72 45.51 44.96 39.83 44.77 45.24 41.15 38.71 34.89 35.79 34.52 39.11 37.98 36.23 35.22 35.74 31.38 38.22 36.99 35.47 34.66 28.12 34.35 26.39 34.36 38.03 40.28 42.19 43.87 46.04 45.80 45.23
45.49 46.16 46.75 46.30 40.92 41.17 43.29 45.49 45.12 43.20 23.42 39.39 40.28 48.02 45.43 40.28 40.34 40.49 43.31 39.39 33.51 33.62 33.85 30.97 33.20 33.84 33.23 34.78 37.70 34.37 38.79 37.80 36.43 34.57 30.47 31.84 26.95 32.52 38.82 38.63 41.64 45.43 44.41 45.72 47.15
45.82 46.21 46.58 44.62 42.12 43.74 45.68 45.32 42.77 31.67 23.63 34.35 40.23 38.74 37.15 38.20 37.42 38.77 38.50 40.25 38.72 34.11 34.08 32.99 38.21 36.59 35.92 38.13 38.13 38.85 37.16 37.31 35.90 32.95 24.98 31.67 30.17 30.40 35.65 39.14 42.55 48.05 50.23 51.61 52.27
45.43 45.72 44.18 44.81 39.55 45.21 44.44 40.20 29.85 25.06 36.81 31.64 32.20 34.27 33.02 32.13 33.86 35.29 35.04 32.64 28.89 25.04 26.22 32.37 33.54 37.34 39.14 34.68 37.77 36.49 33.15 24.45 23.53 24.16 22.78 34.43 31.20 32.81 40.05 42.77 45.72 47.81 48.40 49.17 49.95
44.93 45.53 43.98 45.44 44.61 45.25 42.27 33.69 22.43 32.29 29.89 33.94 32.25 32.46 29.65 32.79 32.91 33.01 31.47 28.69 33.44 32.39 27.80 24.47 22.30 32.56 38.17 34.22 32.95 33.29 33.38 26.19 19.50 21.58 25.39 34.73 28.48 34.43 42.30 45.37 48.18 49.51 48.66 48.40 48.45
44.58 41.35 42.13 44.22 45.07 43.95 36.77 26.30 26.15 29.40 31.87 29.83 30.38 27.32 28.20 30.58 29.92 29.81 28.84 28.41 32.08 34.77 25.92 24.47 24.19 34.29 35.18 38.28 38.68 33.32 30.09 34.52 29.46 32.66 27.74 31.70 36.76 42.73 43.99 45.42 45.28 46.95 46.17 45.75 45.47
39.22 40.49 39.98 44.23 44.90 41.31 33.26 28.95 30.97 33.75 32.97 31.49 24.49 28.27 23.15 26.22 26.15 26.83 27.76 32.57 31.68 35.55 35.67 30.55 22.36 32.17 35.88 38.24 39.67 37.09 39.12 29.62 31.48 23.88 22.42 31.03 32.99 32.34 36.76 38.92 43.46 44.07 42.98 43.07 43.32
37.55 35.02 40.79 44.03 43.73 36.91 25.78 29.86 32.23 34.50 34.47 29.98 27.59 26.02 26.86 25.63 27.26 25.75 27.09 31.53 32.75 34.36 34.68 31.21 28.59 27.80 34.07 33.71 32.80 34.02 32.50 33.86 34.62 32.03 26.99 25.92 30.56 35.61 37.65 42.72 43.06 42.18 41.82 41.06 40.12
37.38 31.12 41.76 43.20 32.98 33.70 27.65 32.02 35.07 33.15 35.56 33.22 32.15 30.58 28.01 28.25 26.31 26.02 25.71 29.83 35.92 34.06 28.42 33.11 30.05 24.33 27.91 36.18 39.11 38.24 34.28 35.03 26.86 28.06 31.98 30.75 29.63 39.84 41.42 43.19 42.23 42.23 42.20 40.75 39.37
35.29 33.74 41.01 41.60 26.92 27.33 32.20 32.28 33.66 32.63 32.38 31.85 31.02 32.56 31.66 28.18 23.69 28.23 29.52 35.73 36.16 32.75 29.92 32.75 28.07 19.50 23.95 33.65 37.33 34.74 36.61 37.30 37.20 34.39 30.87 27.91 29.28 40.77 42.04 39.41 39.63 38.57 38.96 37.73 37.05
35.97 29.17 33.23 36.06 32.82 29.74 27.92 29.90 29.41 35.27 33.11 33.46 31.10 32.11 30.45 28.23 30.68 27.54 28.68 33.75 36.14 34.46 37.74 35.09 29.92 24.37 19.72 27.18 31.59 29.47 33.41 38.13 36.40 29.93 31.72 31.83 31.13 34.86 35.23 34.02 34.30 34.65 34.96 34.59 34.13
36.35 32.33 34.08 28.25 27.72 28.82 29.60 30.09 28.35 27.80 33.13 32.84 30.20 30.86 28.79 24.77 26.19 25.95 29.34 29.82 34.01 36.12 35.75 33.47 27.49 29.05 29.12 30.58 31.69 31.03 32.17 35.71 34.95 33.90 31.16 30.26 28.21 32.31 31.20 31.11 31.05 32.42 32.64 31.87 31.25
31.74 32.55 30.79 30.90 32.41 27.21 29.48 27.90 28.05 29.90 29.68 28.31 28.49 29.90 29.93 26.03 28.73 27.16 29.66 30.17 30.13 35.17 34.90 35.34 28.48 32.43 30.70 34.40 34.43 33.35 35.38 34.34 32.80 32.54 32.27 32.00 28.20 34.06 32.25 30.65 29.14 29.05 29.05 28.42 29.09
38.13 36.77 33.75 31.39 29.19 27.28 28.37 30.11 28.82 29.46 32.07 33.47 30.97 31.13 29.24 31.16 34.09 34.12 34.79 34.48 33.30 31.30 30.60 33.30 31.26 30.42 27.19 32.92 32.63 29.17 31.74 30.78 29.57 30.06 30.89 25.37 28.09 32.54 27.79 26.83 26.24 26.61 27.01 26.78 27.36

GFSSW_sfc_wetblb_102.txt.gz
Wetbulb
52.70 52.39 53.01 53.15 53.10 53.32 53.06 52.62 52.25 52.29 52.13 52.26 52.22 52.27 52.69 53.15 53.41 49.40 43.33 48.52 51.12 57.47 55.49 47.75 45.35 43.37 45.28 43.59 46.43 46.05 36.61 35.21 36.65 39.84 42.06 47.91 46.98 49.99 48.51 46.54 48.28 49.09 49.24 54.35 62.38
52.38 52.46 52.87 53.07 52.77 52.06 51.90 51.88 51.52 51.52 51.67 51.90 52.09 52.12 52.35 53.24 49.42 46.10 52.14 57.08 58.45 56.51 47.37 45.28 42.63 40.84 39.94 41.49 43.17 40.24 35.83 39.05 44.08 44.20 44.18 46.97 45.86 46.88 46.60 46.63 47.28 47.90 52.08 59.12 61.48
52.33 52.59 52.75 52.28 51.44 51.17 50.95 51.16 51.17 51.26 51.60 51.67 51.73 51.89 52.66 52.65 45.34 48.13 59.25 58.00 58.79 57.08 49.65 48.59 47.54 45.23 37.38 41.18 41.93 38.55 39.00 43.41 43.89 44.54 45.21 44.21 44.97 47.72 46.29 43.85 47.48 47.10 48.56 51.03 54.36
52.19 52.23 51.37 51.01 50.89 50.83 50.59 51.57 50.94 51.24 51.28 51.52 51.53 51.85 52.76 50.14 33.64 47.50 59.83 59.44 59.68 54.09 50.14 46.78 44.88 40.79 36.64 35.60 39.91 39.09 43.39 43.32 43.37 44.96 43.90 43.70 46.25 45.35 45.82 46.78 49.89 48.66 49.15 49.37 49.83
51.57 50.48 50.45 50.63 50.77 50.61 50.41 50.91 50.68 50.77 50.89 51.38 51.87 52.13 49.37 43.27 44.03 51.94 58.41 58.39 53.17 51.02 47.72 46.92 44.46 42.67 39.19 39.82 39.01 37.76 40.26 42.16 43.71 44.84 44.95 45.83 44.13 44.97 46.11 47.58 48.81 48.36 48.87 48.63 48.51
50.99 50.08 50.21 50.44 50.46 50.28 49.92 50.55 50.70 50.34 50.76 51.38 51.77 52.22 46.38 36.24 46.49 52.26 51.27 48.90 48.26 50.03 48.00 47.58 46.91 45.44 42.19 40.93 39.43 42.18 41.57 41.58 42.25 41.54 42.49 42.26 43.03 41.83 45.62 47.21 45.99 46.90 46.23 47.33 48.03
50.63 50.05 50.20 50.17 49.98 49.72 49.85 50.04 50.17 50.19 50.91 51.34 52.16 50.66 45.44 40.77 47.87 47.21 49.09 45.19 45.15 44.45 42.47 43.65 42.87 39.56 39.30 37.36 42.16 41.93 37.73 40.40 42.04 40.67 40.45 40.70 39.32 40.09 42.59 45.06 45.09 45.08 45.35 47.28 47.09
50.61 50.04 49.83 49.55 49.44 49.68 49.68 49.94 50.10 50.17 50.68 51.28 52.27 48.75 40.62 50.52 48.55 49.00 46.92 46.02 47.00 46.41 45.71 46.09 45.04 41.11 38.40 39.88 38.37 36.31 36.43 31.11 38.34 40.50 41.55 40.60 35.91 42.67 42.71 42.57 42.78 44.16 46.36 47.21 48.15
50.71 49.78 49.31 48.99 49.24 49.57 49.22 49.55 49.93 50.32 50.87 51.13 47.12 45.94 41.82 54.55 49.71 52.07 47.19 45.18 45.41 46.15 45.56 47.43 45.27 39.78 38.28 31.96 29.09 31.83 29.09 31.13 35.02 39.75 39.61 38.92 36.69 42.72 43.15 43.68 44.13 45.18 45.96 46.70 47.47
50.60 49.16 48.49 48.45 49.05 49.15 49.06 49.28 49.04 49.28 49.81 50.42 48.74 42.53 46.51 44.84 44.82 45.91 45.83 46.12 43.69 42.98 41.09 39.01 37.81 35.07 31.03 28.55 23.13 24.08 28.01 28.61 30.64 37.24 38.23 36.94 37.27 41.45 44.10 42.56 41.74 42.00 43.39 44.64 46.02
49.59 48.27 47.82 47.75 47.97 48.56 46.23 41.47 37.33 37.21 41.74 41.17 42.02 42.59 44.87 46.28 44.76 43.48 45.45 44.64 43.18 39.61 32.61 34.82 28.99 26.34 31.66 32.19 34.14 32.47 30.35 28.76 32.47 36.81 35.64 34.68 35.20 38.27 42.05 38.33 39.08 41.45 40.40 40.99 42.85
47.95 47.00 47.13 47.23 47.41 48.13 43.98 38.23 39.69 38.48 32.51 40.66 40.29 42.56 45.79 45.35 39.78 42.21 44.26 39.60 39.24 33.68 35.55 31.55 27.35 32.82 36.26 36.63 34.10 32.53 29.89 29.43 33.53 36.49 35.44 34.12 34.19 38.28 38.14 38.89 39.28 39.10 39.06 39.97 40.85
47.00 46.31 46.60 47.11 47.45 44.73 40.12 40.03 45.17 43.04 31.13 37.18 41.14 40.94 41.78 43.39 39.23 39.02 42.31 40.64 37.35 34.55 34.77 30.60 33.71 38.43 36.57 33.95 32.47 32.77 31.43 31.67 31.71 35.64 36.71 33.65 32.34 35.50 39.20 39.18 41.02 42.19 42.31 42.05 41.71
46.30 45.72 46.47 47.10 43.82 42.43 40.15 44.00 43.69 43.72 29.80 35.74 39.35 42.99 45.25 44.52 38.67 43.74 41.41 39.16 35.00 31.75 33.35 32.50 36.62 35.77 33.49 32.07 33.58 28.54 35.12 34.61 33.32 31.29 26.51 32.89 24.26 34.03 37.20 38.43 40.66 41.77 42.38 42.98 43.84
45.50 45.79 46.35 46.11 39.13 38.57 42.80 43.56 43.53 42.83 20.87 38.75 40.33 47.28 44.97 39.05 38.23 39.51 41.54 37.85 31.55 31.98 31.26 29.24 30.89 30.07 29.71 31.30 33.92 30.59 36.37 34.37 33.93 30.82 29.99 30.83 26.27 32.60 36.06 35.66 38.08 40.28 46.32 47.94 48.93
45.54 45.84 45.76 43.36 41.09 41.96 43.46 43.41 42.22 30.71 21.86 34.16 37.97 34.68 34.49 35.90 36.03 37.19 37.45 39.77 37.44 32.76 32.48 31.22 33.96 31.94 31.86 36.02 36.22 37.51 34.36 34.20 34.74 31.28 23.01 28.68 28.42 29.58 33.24 36.24 39.03 46.68 47.95 47.59 47.45
45.56 45.15 43.24 44.31 38.11 43.08 42.66 39.97 29.84 24.20 35.56 29.77 29.81 33.12 32.19 30.91 32.86 33.20 31.57 29.38 26.85 23.51 24.08 30.52 31.63 34.51 36.71 31.70 34.93 33.70 29.05 22.30 19.36 21.94 21.19 32.12 28.61 31.14 38.11 41.14 41.92 44.44 45.46 46.00 46.02
44.67 44.20 42.89 43.42 42.14 43.42 41.16 33.04 23.28 30.47 28.79 33.08 31.18 31.35 28.51 30.10 30.28 30.32 28.89 25.58 30.58 29.18 25.79 22.63 20.49 30.50 34.88 31.30 28.14 28.53 30.35 23.11 16.85 19.25 24.10 32.34 25.51 30.77 42.32 45.31 46.36 46.20 44.82 43.34 42.29
44.00 38.91 38.67 41.86 44.09 42.91 36.02 22.72 24.84 28.87 31.03 28.84 30.20 26.41 26.36 29.04 28.17 27.66 26.71 26.12 29.99 32.57 24.58 24.25 23.76 33.38 34.07 34.74 35.49 32.00 28.83 33.62 26.81 28.47 24.98 30.16 33.93 39.99 42.63 42.45 42.35 41.89 40.98 39.61 38.75
37.88 39.54 39.15 42.70 43.89 40.79 32.17 29.24 28.70 32.94 32.62 31.37 24.32 27.67 22.22 25.08 24.64 25.08 25.92 30.54 29.61 33.02 33.78 29.44 21.16 30.71 33.07 35.17 36.04 35.08 38.01 25.43 27.87 19.29 19.56 28.07 31.54 32.62 34.91 38.96 40.19 37.34 36.64 36.68 36.46
37.93 35.01 40.59 42.51 42.53 36.13 25.97 29.52 31.21 34.64 34.38 29.85 27.17 25.69 25.95 24.71 25.54 23.61 26.01 29.82 31.16 32.54 34.16 30.47 26.65 25.80 30.75 31.33 31.13 33.69 31.76 32.31 31.71 30.01 23.21 23.87 27.54 33.51 33.90 36.45 36.32 36.32 35.52 34.73 34.32
37.06 31.00 40.72 42.18 31.89 32.50 27.95 31.64 35.31 33.02 35.06 32.61 31.32 29.81 27.38 26.81 25.06 24.84 25.00 28.35 34.12 32.68 26.55 32.20 27.60 22.24 25.63 33.18 35.67 36.33 33.55 32.99 24.70 26.15 30.47 28.71 27.84 36.16 34.61 34.40 34.38 33.74 34.11 34.02 33.43
34.82 32.81 39.71 40.64 24.00 25.58 31.77 32.47 33.71 32.32 32.14 31.27 30.13 30.82 30.26 26.14 22.95 27.45 28.94 35.00 35.09 32.04 28.98 32.25 24.57 19.43 21.52 31.60 35.63 33.43 35.20 35.54 35.25 33.40 30.05 27.49 27.43 35.78 33.97 31.92 32.21 31.33 31.94 32.10 31.42
35.62 26.26 31.45 34.70 31.48 29.73 28.12 28.89 29.25 34.50 32.72 32.56 30.62 31.16 29.34 26.65 29.53 25.05 26.69 31.76 34.64 32.73 37.05 35.23 27.55 23.95 19.57 25.32 30.22 28.21 31.39 34.08 34.46 28.83 28.33 26.23 27.78 29.27 29.19 28.16 29.16 29.39 30.30 30.77 30.19
32.56 28.82 33.04 25.73 27.52 28.99 28.86 29.31 27.91 27.21 32.61 31.95 29.23 29.98 27.35 24.22 25.18 24.84 28.49 28.24 31.42 35.04 35.19 33.36 27.89 29.09 27.84 28.96 29.55 29.00 32.39 33.34 32.23 32.44 27.75 26.84 26.33 27.30 26.97 26.99 27.05 28.30 28.99 28.63 27.65
30.30 29.60 31.96 30.18 29.90 26.15 29.00 27.76 27.34 29.00 28.72 27.84 27.21 29.39 28.82 25.60 26.23 24.03 28.42 27.92 27.54 33.89 33.86 32.85 27.60 30.09 27.23 31.08 30.33 29.70 32.56 30.15 29.78 30.65 30.03 28.16 26.02 29.07 28.07 27.45 25.90 26.17 26.03 25.83 26.12
36.45 35.93 32.39 31.37 28.56 26.78 26.93 29.52 28.22 28.43 31.19 32.48 30.59 30.02 29.76 31.59 33.64 33.93 34.00 33.52 32.44 29.61 28.80 29.16 29.41 29.64 26.93 31.80 32.15 25.06 27.81 27.20 26.83 27.85 27.26 23.43 27.59 27.53 24.34 24.09 23.91 24.02 24.48 24.19 24.97

GFSSW_sfc_wetblb_105.txt.gz
Wetbulb
53.14 52.85 52.79 53.37 53.36 53.23 52.51 51.90 51.97 51.84 51.99 52.35 52.54 52.54 52.80 52.60 53.05 48.89 42.86 45.62 49.68 55.82 55.86 47.23 44.46 42.56 44.15 41.83 43.93 43.68 35.65 30.56 33.78 37.10 39.03 45.79 45.27 47.24 47.54 45.32 47.45 48.99 48.29 52.28 60.51
53.43 52.75 52.83 53.19 53.00 51.90 51.57 51.29 51.27 51.38 51.65 51.97 52.14 52.21 52.29 52.89 48.44 45.28 50.61 55.50 57.09 58.79 45.93 43.72 41.62 39.88 37.86 40.81 41.39 39.96 33.86 36.47 41.48 41.53 41.22 45.24 42.44 45.72 45.29 45.64 45.43 47.58 50.81 51.60 56.92
53.29 52.72 53.05 52.84 51.95 51.41 51.10 51.02 50.87 51.23 51.46 51.70 51.93 52.16 52.77 52.29 43.14 43.64 58.51 57.30 58.84 56.35 47.42 47.23 46.37 44.11 36.29 38.83 39.93 36.78 37.10 41.02 42.11 43.58 43.76 40.55 42.62 45.22 44.11 43.34 46.08 46.57 48.00 49.68 50.18
53.03 52.56 52.48 51.63 51.32 51.19 50.90 51.09 50.63 51.10 51.19 51.27 51.78 52.33 52.86 49.12 32.74 46.23 58.48 58.53 59.48 52.50 48.42 45.09 43.35 40.09 36.20 34.31 36.56 36.43 41.05 41.26 40.37 43.12 42.06 42.06 43.98 43.16 43.64 44.57 48.32 48.43 48.67 48.32 49.18
53.10 52.42 51.55 50.94 50.79 50.90 50.76 50.25 50.27 50.77 50.96 50.99 51.88 52.26 48.33 41.06 41.91 48.60 59.80 59.57 53.01 50.24 45.52 44.08 41.71 40.67 37.62 39.14 39.58 36.72 38.68 39.97 41.51 41.84 42.06 43.30 41.92 42.39 43.52 46.33 47.11 48.07 47.86 47.42 48.16
52.97 51.93 50.87 50.67 50.77 50.72 50.14 49.86 50.03 50.20 50.50 51.03 51.60 52.18 45.84 35.10 44.14 49.36 50.33 47.51 46.46 47.15 45.71 45.95 44.77 44.45 38.64 37.23 35.47 39.98 39.52 39.16 40.99 40.84 39.70 39.31 40.73 39.35 42.71 45.08 44.72 45.78 45.27 45.99 46.74
52.70 51.58 50.59 50.61 50.31 50.11 49.90 49.83 49.81 49.69 49.94 50.86 51.50 50.34 44.86 39.09 45.59 45.33 46.97 44.52 44.06 44.69 41.05 42.01 42.42 38.22 37.85 35.77 39.08 38.31 35.38 38.10 40.38 39.37 39.08 40.24 38.78 38.63 41.82 43.38 42.54 42.74 43.80 45.23 45.52
52.48 51.41 51.03 49.90 49.77 49.49 49.37 49.20 49.07 49.22 50.09 50.75 51.73 49.09 39.38 48.62 47.27 48.34 46.81 46.00 46.15 44.31 43.72 44.56 43.06 39.84 36.90 37.90 36.91 34.47 33.61 30.79 37.53 38.61 40.47 37.35 34.19 40.24 42.59 40.82 41.25 42.06 44.14 44.75 44.75
52.26 51.61 50.62 49.50 49.26 49.21 48.84 48.74 49.09 49.92 50.41 50.67 46.59 43.50 38.54 52.37 48.83 50.53 49.29 45.11 44.56 44.61 43.65 46.35 42.86 38.15 36.58 31.38 28.35 29.68 26.20 28.18 31.70 37.87 37.34 35.75 33.70 38.64 42.29 42.64 42.34 43.44 43.26 43.72 45.55
52.12 51.34 49.60 48.93 48.60 49.05 48.87 48.54 48.66 48.59 49.52 49.46 48.12 40.29 42.68 42.40 44.44 43.58 44.81 45.05 42.21 42.22 41.19 38.64 36.80 33.20 30.72 29.80 21.67 23.50 25.23 25.42 27.20 33.23 34.23 32.08 32.15 36.74 39.59 39.55 39.66 41.35 42.78 43.42 43.76
51.64 50.48 48.89 48.09 47.50 48.22 45.22 39.79 35.23 35.42 41.69 39.22 40.18 39.86 43.12 44.54 44.45 42.16 44.25 42.24 41.22 38.42 32.43 34.96 29.26 26.56 30.83 32.91 33.78 32.01 29.84 28.93 32.72 36.05 33.23 32.57 32.74 35.24 38.29 38.60 38.31 39.40 39.95 40.58 41.57
51.17 49.20 47.98 47.51 46.90 47.39 43.02 36.67 37.19 37.67 30.25 38.59 39.80 42.30 45.22 45.15 39.53 42.95 42.95 37.39 37.61 32.52 33.56 30.68 26.69 32.32 33.95 34.03 33.11 32.22 29.51 28.54 32.18 35.15 33.82 33.18 32.92 36.54 37.92 37.93 39.09 39.70 40.43 39.69 39.93
50.53 48.47 47.04 46.59 46.92 43.23 38.61 38.98 43.72 40.86 28.91 35.07 39.68 39.14 40.43 41.49 37.14 38.54 41.40 39.30 36.02 32.42 32.69 29.23 32.75 37.21 34.05 32.21 30.62 30.32 28.76 28.66 29.18 33.40 33.82 31.96 30.44 33.59 37.71 39.26 40.22 41.51 40.33 40.32 42.74
48.60 47.34 46.13 46.13 41.16 39.95 39.56 42.93 42.11 42.85 27.90 33.58 37.58 41.40 43.47 42.76 38.62 43.04 41.51 36.90 33.70 30.60 31.13 29.31 34.02 32.38 29.93 29.03 30.42 25.74 31.79 31.61 30.38 28.35 23.29 29.52 21.19 30.99 35.34 36.97 39.48 40.83 41.95 45.66 45.70
47.34 46.18 46.30 45.78 38.36 38.19 41.27 42.28 42.01 40.63 18.28 37.47 39.07 43.71 40.88 37.77 37.48 38.08 40.56 36.80 31.77 31.80 30.25 27.85 29.25 28.63 27.32 29.06 31.57 28.49 32.48 31.70 31.54 28.27 27.62 28.35 24.07 28.97 34.65 33.76 37.07 39.30 45.17 44.50 45.59
46.44 46.21 45.85 43.38 39.79 40.78 42.18 42.31 40.90 27.67 18.80 31.89 35.10 34.25 34.97 36.21 35.56 36.10 35.90 38.02 36.58 31.89 31.17 29.37 32.86 30.37 29.52 33.27 33.65 35.49 32.07 31.41 30.52 28.06 20.70 26.84 25.30 26.55 30.11 34.36 37.35 42.56 42.45 42.32 42.27
46.10 46.16 43.84 43.15 37.43 40.76 41.40 38.81 28.18 22.87 33.87 28.02 29.32 33.08 31.98 30.21 32.14 32.28 31.03 29.23 25.26 22.14 22.79 28.25 29.20 32.53 34.94 29.71 32.18 30.60 26.52 18.35 14.93 17.78 18.43 29.03 25.85 28.55 38.44 41.51 41.91 41.29 40.44 40.10 39.70
46.03 44.81 43.14 43.28 42.20 42.68 38.96 30.74 20.93 28.98 27.67 32.11 30.86 31.42 27.26 29.85 29.58 29.58 27.52 23.99 29.57 28.00 23.79 21.07 19.18 28.36 33.10 29.70 26.62 26.86 26.24 20.09 14.55 16.24 20.20 29.79 24.25 31.28 40.61 41.42 41.04 39.91 38.28 37.75 37.30
44.84 38.92 39.27 41.84 42.20 42.03 34.50 20.50 22.96 26.73 30.30 28.87 29.54 26.44 26.00 28.62 26.77 26.55 25.12 24.15 27.61 29.33 21.65 22.39 22.57 31.31 32.07 32.94 31.32 28.91 21.97 29.53 24.53 25.99 21.41 23.98 30.69 38.02 36.15 35.96 36.04 35.05 35.66 35.17 34.50
38.39 38.58 39.43 43.07 42.87 38.62 29.28 27.47 27.42 32.30 32.18 31.31 24.75 27.48 22.42 24.32 24.24 23.72 23.74 28.53 27.72 30.16 32.37 27.86 19.91 28.98 31.07 32.87 32.51 31.55 33.35 22.33 25.49 18.35 15.67 24.22 27.68 26.46 29.62 31.53 34.25 33.01 33.31 33.40 33.03
38.65 34.76 39.45 41.98 42.18 34.45 24.91 28.06 30.47 34.14 34.14 30.02 26.94 25.68 25.22 23.92 25.19 23.68 25.25 28.59 28.85 30.12 31.50 28.38 25.61 25.01 29.13 26.83 25.52 30.33 30.09 30.79 29.62 27.39 19.44 19.45 23.19 31.92 29.82 31.18 31.45 32.02 32.17 31.84 30.55
37.24 30.20 40.19 41.77 31.69 31.78 27.71 32.27 35.18 32.81 34.79 32.47 31.26 29.63 27.02 26.34 24.75 24.38 24.40 27.38 31.79 31.17 25.83 29.81 24.58 21.23 23.58 30.78 33.16 31.52 29.29 33.04 26.47 24.35 28.16 27.02 22.39 34.25 31.74 31.65 31.17 30.02 30.86 30.77 30.17
33.05 32.85 39.16 39.97 25.11 27.22 31.89 31.87 33.35 31.77 31.24 30.39 29.46 30.05 29.50 25.88 22.67 26.66 27.12 33.58 33.59 30.29 28.01 30.36 24.57 16.81 21.23 30.26 33.30 31.54 33.25 33.20 35.28 33.46 26.80 23.71 23.02 32.92 31.50 29.00 29.27 28.40 28.96 28.76 28.61
33.47 26.30 31.82 34.55 31.29 29.34 27.80 28.24 28.84 33.39 31.65 31.63 29.77 30.45 28.11 26.12 28.11 24.14 26.73 30.08 32.95 31.45 36.63 33.27 25.25 21.78 16.90 22.99 29.12 26.53 29.37 31.41 32.24 28.44 25.63 25.35 23.41 26.00 25.92 25.41 26.24 26.87 27.66 27.77 27.47
33.79 28.54 32.38 26.22 27.74 28.63 28.93 28.79 27.33 26.45 31.72 30.81 28.71 29.10 27.08 23.55 24.70 24.05 26.41 26.34 29.77 33.08 32.96 33.13 25.71 27.52 27.34 28.14 28.79 29.28 30.14 31.14 29.91 31.93 24.84 24.67 22.77 23.99 24.16 23.92 24.62 25.81 26.03 25.55 25.14
32.17 29.34 32.37 29.15 29.81 28.04 28.73 27.51 27.07 28.51 28.52 27.52 26.72 28.67 27.74 25.13 26.01 22.97 26.56 26.67 25.16 30.40 32.94 33.60 24.08 28.12 25.38 29.73 30.60 25.87 26.69 26.81 28.57 29.31 28.50 25.53 21.57 26.07 25.80 25.31 23.39 23.45 23.49 23.23 23.75
35.40 35.18 33.03 30.02 27.13 26.82 26.17 28.82 28.52 28.21 30.99 31.69 29.31 27.56 27.84 30.24 33.14 33.07 33.75 33.08 32.72 30.17 29.33 29.17 26.57 26.74 25.12 29.59 27.03 17.53 24.52 24.63 25.03 25.58 26.24 22.85 23.82 24.79 22.26 22.10 22.38 22.15 22.62 22.51 23.45

GFSSW_sfc_wetblb_108.txt.gz
Wetbulb
54.35 53.75 53.19 52.88 53.12 53.04 52.05 51.62 51.45 51.51 51.68 52.31 52.38 52.50 52.81 52.66 52.47 47.86 41.21 45.05 48.80 55.40 55.82 46.25 43.29 41.40 42.47 40.56 42.23 41.36 33.59 28.89 32.76 35.71 37.43 44.36 43.68 46.20 46.31 44.64 46.31 48.26 47.89 49.69 56.11
54.74 54.23 53.51 53.13 53.28 52.13 51.66 51.21 51.08 50.96 51.42 51.57 51.85 52.42 52.78 52.90 47.79 44.25 49.62 53.57 55.48 57.51 45.90 42.77 40.33 39.25 36.11 38.95 39.39 38.52 33.18 34.05 40.20 40.04 39.96 43.83 40.57 44.39 44.29 44.06 44.85 46.84 49.52 50.74 54.73
55.14 54.53 53.58 53.31 52.80 51.89 51.48 51.21 50.82 50.94 51.13 51.34 51.55 52.35 52.85 52.20 40.98 38.67 58.15 56.14 57.25 57.11 46.42 46.03 44.69 42.35 34.21 37.94 38.33 36.19 33.66 39.09 41.27 42.94 42.52 40.55 41.64 43.93 42.39 41.13 44.57 45.40 46.98 48.91 48.48
55.70 54.45 53.47 53.08 52.08 51.39 51.24 51.10 50.70 50.78 51.04 51.14 51.65 52.62 52.83 47.83 32.12 42.56 57.69 57.23 59.21 51.06 47.24 44.28 42.19 38.13 35.54 33.47 34.72 34.49 38.85 39.53 39.47 41.81 41.17 41.07 41.67 41.14 42.33 43.29 46.59 46.76 47.39 47.07 48.16
55.11 53.86 53.12 52.48 51.17 51.06 51.06 50.74 50.29 50.38 50.65 51.05 51.75 52.65 47.25 37.20 38.49 45.16 59.23 58.53 54.05 48.96 43.22 42.57 40.43 39.24 35.79 36.67 36.92 35.20 37.07 38.11 39.83 40.38 39.47 40.71 38.52 39.73 41.09 43.78 45.26 45.75 46.53 46.08 46.65
54.53 53.37 52.67 51.59 50.92 50.85 50.57 50.20 49.93 49.99 49.99 50.35 51.71 52.27 43.31 32.24 41.72 48.00 49.67 49.66 46.30 45.65 44.74 44.56 43.85 43.27 36.27 35.03 33.07 36.87 35.68 36.25 37.44 38.95 39.13 38.47 39.94 38.62 41.77 43.74 43.29 43.23 43.52 45.11 45.25
54.31 53.55 52.52 51.04 50.51 50.48 50.20 49.56 49.37 49.39 49.50 49.95 51.03 49.96 43.19 36.99 44.40 44.83 47.13 43.47 43.44 44.95 40.80 42.12 41.09 36.87 36.35 35.31 37.16 36.16 32.47 34.03 35.81 35.61 36.68 38.08 33.69 36.01 40.22 41.77 40.99 41.27 41.52 42.63 43.86
54.31 53.45 52.35 50.75 50.07 49.78 49.46 49.14 48.86 48.81 49.60 50.07 50.86 48.08 37.87 47.43 45.98 47.56 46.00 46.46 45.73 43.84 42.00 43.03 41.87 39.03 36.39 37.39 36.25 32.19 30.27 26.40 33.24 36.02 36.41 35.56 30.63 36.71 38.81 40.01 39.49 40.02 41.38 42.90 43.38
54.12 53.38 51.87 50.71 49.58 49.17 48.61 48.47 48.49 49.65 50.56 50.03 46.14 41.91 35.75 49.58 47.04 49.63 48.06 45.14 43.91 43.16 42.00 45.90 41.16 36.71 35.15 30.80 27.79 27.61 22.66 24.41 28.98 33.76 33.88 32.90 31.12 35.45 40.17 38.08 38.21 39.16 37.89 39.47 42.43
53.75 52.72 51.60 49.92 49.43 48.86 48.55 48.24 48.31 48.32 48.78 49.30 47.91 38.22 40.00 40.50 44.17 42.68 47.23 43.44 40.79 40.68 40.00 37.18 34.32 31.04 29.94 28.66 21.01 22.30 23.07 22.53 24.24 32.31 33.37 30.32 31.34 36.24 37.30 36.92 37.65 38.38 38.83 39.02 40.50
53.08 51.79 51.23 49.29 48.44 48.16 44.63 40.39 34.15 33.55 41.47 36.95 37.25 37.21 40.77 44.86 44.73 40.39 42.91 40.62 39.96 37.38 32.36 32.96 27.91 25.62 30.35 31.45 31.50 28.73 27.57 27.01 29.71 33.95 31.70 30.67 31.52 34.71 37.32 36.22 36.49 37.59 38.86 39.14 39.64
52.37 51.70 50.32 48.77 47.24 47.08 42.80 37.09 36.51 36.10 30.09 37.19 40.96 41.31 43.95 43.66 39.17 41.64 41.90 36.42 36.09 30.87 32.05 29.24 25.61 31.87 32.02 31.80 31.17 29.29 26.98 25.91 30.01 33.15 31.78 30.10 30.52 34.17 35.98 35.59 36.97 38.46 38.94 39.19 39.76
52.07 51.01 49.27 46.68 46.41 43.81 39.73 38.60 42.13 38.71 27.33 32.85 38.03 37.17 37.93 40.96 36.05 36.27 39.66 37.04 34.23 31.77 31.25 28.14 31.78 35.04 32.41 29.63 28.76 28.10 26.59 26.78 27.77 29.39 30.51 28.71 27.32 30.18 34.96 37.55 39.03 39.83 41.03 41.81 43.81
50.26 49.89 47.90 46.17 40.45 41.12 38.47 42.34 42.03 40.60 25.98 31.07 35.36 39.02 40.58 39.96 35.89 40.05 39.93 37.40 34.21 31.17 31.49 29.63 33.10 32.06 29.51 27.84 29.43 23.47 30.86 30.33 28.24 25.31 21.35 29.51 19.01 28.64 31.91 34.22 36.84 38.71 40.17 42.71 43.86
50.47 48.66 46.37 45.10 40.00 38.30 40.59 42.42 42.85 39.29 19.04 35.02 35.88 41.60 39.41 36.85 35.71 35.68 39.22 36.09 31.86 32.24 31.65 28.85 29.34 28.52 26.80 28.77 30.62 26.95 31.41 28.99 27.96 25.07 24.54 25.29 20.70 26.14 32.15 31.09 35.36 40.25 41.44 40.25 40.56
48.81 47.36 45.86 44.12 40.35 41.19 42.73 41.50 41.53 26.60 18.93 30.66 34.05 33.03 33.11 34.09 33.24 34.30 34.65 36.90 35.34 30.97 30.34 29.77 32.55 31.11 30.22 32.06 32.19 33.33 30.30 29.39 27.84 24.33 17.64 24.18 21.84 23.39 27.41 34.74 36.76 39.66 39.62 39.61 38.89
47.67 46.48 44.48 43.78 38.20 42.50 42.25 39.90 27.34 22.20 32.44 26.92 28.19 31.51 29.57 28.35 30.00 31.64 29.81 27.06 24.58 23.05 23.13 28.04 28.48 30.32 33.46 27.81 30.72 29.35 24.38 16.18 13.56 17.24 16.19 25.64 22.76 25.10 34.41 35.54 35.18 35.02 35.84 36.42 36.45
46.58 46.07 44.57 43.85 42.23 43.02 40.65 32.40 20.87 27.61 26.84 30.62 29.40 29.24 25.23 28.12 27.65 28.69 27.74 24.93 30.17 26.55 22.51 20.82 18.18 26.93 31.54 28.95 24.95 24.12 24.82 19.05 12.41 15.00 17.80 26.53 20.37 30.45 35.76 36.06 36.15 36.03 35.61 34.32 33.45
45.61 39.48 39.36 41.33 41.90 42.00 33.68 22.87 21.81 25.36 29.26 28.14 28.61 24.65 24.21 28.12 27.16 26.63 24.75 24.14 28.15 28.09 20.37 20.60 21.44 29.58 31.45 32.01 30.31 25.96 21.87 27.41 21.78 23.08 18.19 21.57 26.68 34.00 32.99 32.58 33.41 33.52 33.39 31.82 31.01
38.84 38.53 38.62 41.81 42.75 38.26 29.59 26.49 25.31 30.63 31.10 30.25 24.92 26.10 21.74 23.57 24.06 23.89 23.24 28.63 27.92 30.33 30.85 27.51 19.87 28.18 30.27 31.51 30.88 28.36 31.85 21.04 24.44 12.84 14.60 20.05 23.38 22.36 26.41 28.45 30.50 30.33 30.40 29.95 30.27
39.67 34.23 38.75 42.51 41.88 33.16 21.32 26.80 29.96 33.39 33.34 29.81 26.62 24.77 25.12 23.81 24.37 23.36 24.72 28.47 29.66 29.84 31.60 27.55 25.02 23.66 27.72 25.42 22.85 27.24 26.36 26.80 26.05 25.04 17.83 14.40 19.08 30.37 27.32 28.38 27.78 28.96 29.47 28.98 29.05
37.15 26.56 39.04 40.99 31.05 29.79 26.40 31.76 34.95 32.04 34.47 32.21 31.44 29.39 26.55 26.13 24.28 24.46 24.56 27.03 31.67 30.85 24.72 27.57 24.14 20.80 22.64 30.13 31.94 29.07 26.78 27.07 20.55 24.25 26.71 23.75 20.80 31.33 29.18 28.86 28.08 27.23 28.12 28.47 29.13
33.65 33.21 39.15 39.51 26.43 26.75 31.06 31.18 33.14 31.53 31.05 30.27 28.73 29.83 29.30 25.58 22.07 25.80 27.19 32.46 32.40 28.75 27.34 29.79 23.92 15.89 20.61 27.83 33.13 29.79 31.74 33.19 31.12 29.17 27.06 17.80 17.98 29.59 28.36 26.33 26.36 25.51 26.44 26.85 27.19
32.85 26.22 32.94 35.97 30.70 29.83 28.17 29.02 28.09 33.36 31.31 31.18 29.63 30.08 27.61 25.83 27.72 24.08 26.48 29.51 31.58 30.21 35.45 31.62 24.92 19.73 15.99 21.88 26.70 24.27 28.01 30.76 29.53 24.18 23.69 20.63 22.77 23.41 24.10 22.60 23.55 24.37 25.35 25.82 25.84
33.07 26.98 32.78 27.47 26.28 29.39 29.69 29.68 27.35 26.75 31.36 30.51 27.91 28.53 26.83 23.36 24.58 23.82 25.70 25.10 28.21 32.15 30.51 28.94 23.64 24.98 25.96 27.29 27.96 28.04 26.65 26.26 29.50 30.41 25.11 23.56 20.92 22.11 22.67 22.36 22.75 24.27 24.24 24.11 24.23
31.52 30.11 31.84 29.51 31.02 29.21 30.05 27.62 27.25 28.23 28.39 26.67 26.40 27.77 27.41 24.97 25.48 22.08 26.34 25.70 24.02 28.36 31.15 34.37 23.83 26.33 22.85 27.76 29.58 23.83 25.43 24.55 24.22 26.81 24.52 23.02 20.17 24.84 24.81 24.54 22.85 22.04 22.60 22.32 23.19
35.27 35.61 32.25 28.53 27.56 26.56 26.47 28.37 28.16 28.15 30.25 30.77 28.52 27.52 27.35 28.86 31.68 31.42 32.82 31.94 32.11 30.36 29.67 28.89 26.53 24.85 22.76 26.69 25.90 19.97 23.16 23.84 23.02 24.05 25.50 22.42 22.61 24.44 21.66 21.22 20.69 21.21 21.91 21.71 22.54

GFSSW_sfc_wetblb_114.txt.gz
Wetbulb
56.66 55.75 54.91 54.28 53.15 53.37 52.65 52.21 52.04 52.04 51.97 52.68 52.83 52.94 53.64 54.18 53.87 52.16 47.76 50.82 52.98 55.72 56.22 53.31 51.55 51.92 51.60 49.61 52.35 51.04 44.24 42.93 44.76 44.63 46.38 49.30 48.54 51.88 53.71 52.03 52.95 54.15 54.10 56.25 57.48
56.98 56.19 55.53 54.78 53.35 53.25 52.51 52.08 51.97 51.89 51.67 52.11 52.49 52.83 53.91 54.46 51.57 47.84 53.13 53.01 54.90 58.08 52.62 49.88 47.59 48.90 47.14 46.93 48.53 46.47 43.54 44.29 47.23 47.86 46.64 48.33 49.34 50.16 49.76 50.38 50.85 52.35 55.01 55.16 55.14
57.66 56.63 55.93 55.29 53.81 52.97 51.95 51.77 51.84 51.75 51.32 51.78 51.92 52.78 54.14 53.54 47.16 48.05 59.61 56.26 56.07 57.11 52.59 51.29 49.25 47.04 44.75 47.07 46.68 45.67 42.96 45.99 46.83 48.26 48.84 48.38 48.83 50.40 48.16 46.80 49.83 49.25 50.81 52.86 54.05
58.02 57.27 56.46 55.58 53.93 52.85 51.37 51.38 51.63 51.20 50.98 51.47 51.82 52.77 53.90 51.26 39.61 49.91 58.67 57.03 56.62 57.23 52.03 49.04 47.87 45.08 42.75 42.70 46.61 42.94 45.64 45.70 46.42 48.11 47.65 45.90 47.56 46.27 47.23 48.02 50.90 51.34 52.08 52.12 51.92
57.30 56.58 56.48 55.54 54.27 52.61 51.17 51.02 51.29 51.11 50.52 50.79 51.39 52.75 51.97 43.59 42.55 51.10 57.37 58.68 56.46 52.71 48.81 47.29 45.76 44.90 42.31 43.23 44.10 43.20 43.88 45.03 46.89 46.32 46.03 46.55 45.15 45.59 46.46 49.64 50.83 50.15 50.35 50.48 50.80
56.87 56.21 55.99 55.76 54.23 52.30 51.10 51.08 50.93 50.76 50.13 50.11 50.92 52.23 47.17 39.81 48.02 50.39 53.26 55.24 52.90 51.05 48.78 48.64 46.67 47.15 44.59 43.71 43.20 44.18 44.71 44.42 44.77 44.80 45.20 43.41 44.15 45.65 46.82 48.22 48.13 47.71 48.22 49.27 50.01
56.69 56.06 55.80 55.22 53.89 52.03 51.13 50.93 50.67 50.12 49.66 49.79 50.49 50.94 45.16 43.55 49.96 52.18 51.44 51.30 51.46 50.80 48.50 49.89 49.79 46.84 45.11 42.28 44.43 43.23 40.08 42.21 43.15 43.82 43.01 44.38 42.15 43.03 47.14 47.47 46.56 47.33 48.12 48.43 49.20
57.27 56.00 55.18 54.43 53.45 51.74 50.61 50.33 50.03 49.41 49.89 50.82 50.19 49.94 41.86 48.78 51.81 50.20 50.30 50.94 52.35 51.42 49.79 49.45 49.22 47.35 45.44 45.75 43.72 41.44 41.06 37.23 42.00 42.42 43.11 42.77 38.23 43.05 47.10 46.47 45.95 46.63 47.25 47.61 48.93
57.12 56.09 54.70 53.50 52.14 50.94 49.89 49.18 48.94 50.35 50.97 51.03 49.52 47.55 41.15 50.47 47.88 51.72 51.07 47.21 50.16 50.06 50.27 48.33 48.29 45.95 45.07 41.98 39.93 40.41 35.90 36.79 37.96 42.06 41.48 40.82 38.43 42.43 45.64 45.22 44.77 45.87 46.52 47.19 48.17
56.81 55.81 54.28 52.78 51.01 49.89 48.08 47.96 48.01 50.29 51.36 51.78 50.78 42.38 45.70 42.14 49.21 48.54 54.01 50.62 47.35 47.29 45.61 45.75 45.31 42.34 42.38 40.40 34.03 36.31 35.60 37.37 36.56 39.76 41.26 39.88 39.88 43.23 44.36 44.27 44.36 45.18 45.73 46.61 46.84
56.39 55.55 53.78 51.97 50.03 48.08 46.94 44.79 44.73 44.27 46.55 44.28 42.89 41.74 43.41 49.86 50.64 46.64 49.21 47.30 47.19 45.61 40.80 43.46 39.83 37.66 40.50 41.36 40.36 38.35 36.91 35.91 38.87 41.46 39.38 39.04 39.65 41.07 43.05 43.07 43.00 43.77 44.82 45.31 48.40
55.91 54.93 52.99 50.94 49.10 48.06 46.06 40.47 40.77 42.60 40.48 44.91 44.15 44.60 46.28 48.63 43.67 45.58 48.41 43.37 42.93 39.62 42.56 40.10 37.10 41.63 41.79 40.26 38.28 37.85 35.90 36.15 38.77 39.70 38.80 37.83 37.46 40.24 42.07 42.10 42.66 43.18 46.17 48.24 48.49
55.37 53.86 52.16 49.94 48.57 44.56 42.25 42.31 48.10 45.62 39.10 41.26 42.18 41.60 43.06 45.80 40.99 42.98 45.54 43.84 40.73 38.89 39.33 37.35 39.23 40.05 39.18 38.01 36.29 36.96 35.61 35.79 35.10 37.32 38.45 37.43 36.00 39.36 40.51 41.62 43.88 46.38 46.70 46.68 45.36
54.47 52.53 50.26 47.91 44.49 41.74 39.23 44.70 49.21 47.65 31.19 39.33 37.31 40.25 42.31 43.77 39.11 44.06 44.43 42.92 39.99 36.52 38.45 38.05 40.46 38.02 37.45 36.04 37.08 33.47 38.16 35.55 34.36 33.69 31.16 37.48 28.81 37.11 40.26 39.73 42.01 43.38 44.32 43.88 44.14
53.20 51.00 48.44 50.38 42.59 41.41 45.32 46.03 48.39 45.47 26.69 38.49 39.06 46.61 43.51 40.17 40.62 39.73 43.58 42.05 38.29 37.72 38.02 35.76 35.65 35.70 34.98 35.84 37.05 34.37 36.81 35.63 34.95 33.22 33.05 33.96 31.20 35.99 39.21 37.04 39.11 40.41 41.38 42.58 43.06
52.11 49.46 48.24 44.43 45.65 45.52 45.47 47.30 44.89 32.40 26.27 34.25 38.92 38.05 38.40 38.67 38.17 39.77 40.19 42.68 41.30 37.61 38.13 37.78 39.35 37.66 37.49 37.34 37.31 37.84 35.51 35.69 35.47 33.36 26.69 33.22 32.56 33.44 36.87 34.14 35.15 37.47 37.29 40.03 40.53
50.82 49.14 48.13 45.83 42.01 45.71 45.86 42.42 30.17 28.63 36.63 33.28 34.66 37.17 38.16 35.09 35.26 36.75 36.44 36.04 34.88 31.20 32.53 35.10 35.52 37.76 37.83 33.76 37.12 35.98 32.60 27.21 25.82 26.09 25.79 32.68 29.78 33.36 36.61 35.92 35.40 34.71 36.01 38.26 38.85
49.69 47.68 44.57 44.73 46.19 45.80 45.12 35.09 25.96 33.57 33.25 34.94 35.18 35.80 34.35 34.44 33.61 33.65 32.79 33.17 35.49 34.48 32.57 30.36 28.20 34.05 37.04 34.82 33.11 33.45 32.54 27.13 20.15 23.79 27.83 32.59 26.98 34.83 37.65 38.35 38.58 37.56 37.13 36.88 36.12
46.80 43.60 43.08 43.97 45.85 46.45 37.27 26.59 34.17 35.58 37.15 34.10 34.09 32.81 31.89 32.57 32.91 32.65 31.69 33.24 34.74 35.26 29.47 28.92 27.71 35.42 35.66 36.17 34.52 31.52 27.96 34.41 27.45 29.13 25.00 29.00 33.18 36.29 36.53 35.95 36.08 35.17 35.04 33.94 33.95
41.49 40.09 40.93 44.94 46.97 43.06 33.46 31.19 35.06 35.85 35.91 36.33 31.58 34.44 31.27 31.52 30.64 30.94 31.72 33.98 32.76 35.10 35.59 30.98 24.78 32.48 34.47 35.90 36.25 32.94 35.72 26.21 28.06 18.53 19.12 28.22 29.98 31.59 29.18 29.98 31.70 30.74 30.61 31.23 31.91
40.07 35.85 39.83 45.82 46.27 37.60 29.18 31.66 35.02 36.69 36.93 34.27 33.38 30.98 32.39 30.43 31.71 30.73 30.56 32.66 34.26 34.07 35.84 33.50 29.11 28.00 31.58 30.09 30.43 31.18 29.35 30.54 31.50 29.00 23.05 22.90 27.76 30.44 27.94 28.05 27.75 30.57 31.40 31.40 30.16
40.16 30.50 40.35 44.85 33.91 34.81 32.60 35.58 37.51 35.85 37.31 34.91 35.53 33.73 32.77 32.29 30.49 30.00 29.38 31.63 36.06 35.98 30.03 33.78 30.31 25.37 28.50 34.54 36.22 34.63 32.15 32.25 25.55 24.96 28.78 27.54 27.17 30.32 28.59 28.64 29.00 29.46 30.75 31.14 30.78
35.31 34.05 42.38 41.85 29.91 31.43 35.67 34.73 36.18 34.68 35.07 34.54 33.40 34.48 33.94 31.29 28.42 31.26 30.40 35.01 36.56 34.82 32.07 34.55 29.20 23.67 25.78 31.01 34.90 31.39 32.67 33.02 32.26 31.13 26.62 24.07 26.61 30.62 29.68 28.32 28.19 27.26 29.59 30.25 30.11
36.74 30.51 34.25 36.57 39.26 35.55 33.64 33.38 31.95 36.73 35.57 35.54 33.13 34.32 32.48 31.33 32.96 28.92 29.64 33.29 35.86 35.36 35.55 36.32 29.97 25.66 24.65 27.20 30.73 27.23 30.33 32.18 30.21 26.78 28.01 29.01 25.72 25.62 25.98 25.45 26.01 27.08 28.56 29.36 29.12
39.55 33.92 37.06 30.48 32.58 35.60 36.08 34.66 31.70 30.51 34.74 35.12 31.28 33.09 32.56 28.18 29.09 27.60 31.05 31.78 33.41 34.80 35.44 34.29 26.15 28.97 29.02 30.54 31.05 29.78 29.11 29.87 27.07 27.87 24.94 27.44 24.38 23.75 24.71 24.93 25.42 26.97 27.38 27.28 26.66
36.28 35.60 38.06 36.23 36.34 34.86 34.70 32.52 31.28 31.13 31.50 31.12 32.06 33.61 33.65 29.22 30.30 28.04 31.11 31.40 31.49 34.50 32.88 34.36 26.88 29.22 26.35 31.58 30.93 27.83 27.29 29.31 27.10 25.07 26.11 25.50 22.38 26.89 27.22 27.07 26.23 25.83 25.37 24.94 25.20
40.84 43.84 40.85 34.76 34.91 33.39 33.58 32.49 32.39 33.96 34.31 36.09 35.24 33.04 30.75 33.19 36.08 36.32 37.57 36.50 36.07 33.57 32.30 32.17 29.29 28.09 24.78 28.23 28.08 24.07 24.90 25.75 25.95 27.46 27.36 27.05 25.20 27.35 25.58 24.76 23.93 24.69 25.05 24.25 24.45

GFSSW_sfc_wetblb_117.txt.gz
Wetbulb
57.50 56.58 55.82 54.95 54.09 53.57 53.08 52.66 52.61 52.53 52.49 52.55 53.14 53.38 53.49 54.93 54.06 54.04 50.44 51.63 54.15 56.88 55.34 54.21 53.69 53.61 53.18 52.38 53.96 53.69 46.50 45.41 47.10 47.43 49.11 52.43 49.48 53.29 54.42 53.22 54.17 54.95 55.46 57.32 58.84
57.87 57.19 56.42 55.66 54.43 53.71 52.98 52.43 52.31 52.23 52.48 52.00 52.82 53.08 53.89 54.54 52.53 50.87 53.43 54.62 54.01 57.56 52.13 50.91 49.34 50.72 49.60 49.55 50.84 49.31 46.48 46.91 50.25 49.36 48.62 49.79 49.95 50.97 50.97 51.08 52.03 53.35 56.27 56.90 56.70
58.51 57.75 56.83 56.14 54.98 54.10 52.93 52.19 52.06 52.28 52.10 51.63 52.25 52.74 53.71 53.90 50.17 51.51 59.62 55.68 56.26 56.68 54.95 52.52 51.45 49.28 47.51 49.44 49.32 48.52 45.56 49.06 49.61 49.59 50.17 48.57 48.67 50.73 49.11 47.70 50.92 50.91 52.65 54.08 54.66
58.68 58.46 57.63 56.38 55.59 54.36 52.96 51.90 51.87 51.88 51.72 51.18 51.89 52.34 53.99 53.82 44.22 53.77 58.34 57.19 56.91 58.69 53.52 50.91 49.41 46.94 45.67 45.33 48.94 45.58 47.87 48.12 48.47 48.76 48.42 47.17 49.33 47.43 48.28 49.10 51.76 52.02 52.81 53.22 53.24
57.95 58.00 57.60 56.74 55.91 54.46 52.88 51.94 51.86 51.59 51.22 51.01 51.45 52.33 53.88 49.07 49.28 55.93 58.54 57.56 57.03 54.57 50.33 48.62 47.24 47.40 44.92 46.51 46.69 44.58 46.03 46.94 47.28 47.24 47.42 47.50 45.42 45.64 46.69 49.69 51.13 51.66 51.55 51.94 52.09
57.66 57.32 56.95 56.84 56.46 54.79 52.94 51.99 51.83 51.28 51.08 50.45 50.96 51.41 50.33 45.73 50.66 50.83 52.92 54.43 53.97 51.67 49.35 48.61 46.83 48.19 45.87 45.32 45.50 47.14 46.08 46.48 47.07 46.64 46.28 44.20 44.35 45.23 46.76 49.60 49.76 49.96 50.02 50.24 50.62
57.58 56.98 56.40 56.34 55.83 54.62 52.63 51.77 51.43 51.03 50.63 50.19 50.69 50.99 48.04 49.52 52.80 52.92 51.61 50.24 52.52 50.99 49.01 50.85 50.86 49.05 47.61 44.78 47.24 45.65 42.42 44.29 45.01 45.56 44.68 45.62 42.03 42.88 47.86 49.64 48.74 48.93 49.84 49.83 50.37
57.97 56.99 56.04 55.70 54.89 53.67 52.49 51.30 50.84 50.45 50.06 51.94 51.49 50.63 46.45 52.25 52.50 50.42 50.96 50.75 51.64 51.56 51.18 51.21 51.23 48.48 47.10 47.71 45.67 43.03 43.97 40.30 45.47 44.45 44.88 43.79 39.34 45.16 48.05 47.55 47.40 48.01 48.43 48.80 49.69
57.79 57.05 56.02 54.92 53.86 52.43 51.24 50.41 50.16 49.62 52.05 51.70 51.01 50.52 47.50 50.61 47.92 51.89 51.71 47.80 50.22 51.35 51.88 50.71 49.65 46.42 46.80 43.27 41.59 43.22 39.18 41.23 42.80 45.33 43.70 43.46 40.87 44.62 46.63 46.94 45.77 47.14 48.06 48.55 49.00
57.41 56.83 55.60 54.14 52.70 51.33 50.07 48.80 49.82 50.15 51.91 53.18 52.41 46.06 49.72 45.15 50.17 50.10 53.66 50.27 48.05 49.09 47.77 47.04 45.75 43.30 43.91 41.69 36.23 40.02 40.53 41.85 40.55 43.69 43.69 41.69 41.88 44.77 46.40 46.33 45.96 46.89 47.47 47.89 48.31
57.37 56.87 55.24 53.50 51.91 49.36 47.19 45.08 45.59 48.09 49.92 49.58 50.28 48.67 47.54 50.87 51.76 48.76 53.18 51.03 48.29 46.62 42.14 45.19 41.60 39.72 42.56 44.26 43.66 42.22 40.42 39.04 41.44 43.70 42.14 41.43 41.57 43.31 45.21 45.36 45.25 45.59 46.19 46.74 49.23
57.02 55.95 54.42 52.90 50.74 48.82 47.40 40.30 46.73 47.83 46.84 51.46 49.24 49.02 50.03 49.55 45.01 48.06 50.28 45.37 45.26 41.67 44.54 42.87 39.48 43.88 44.24 43.57 42.11 40.83 38.58 38.40 41.22 43.11 41.72 40.76 40.31 42.48 43.95 44.52 45.42 45.42 45.68 49.46 49.99
56.17 55.35 53.31 51.27 49.55 46.50 45.02 43.55 50.56 49.27 45.35 48.72 50.96 48.68 48.63 47.79 44.09 44.96 47.98 45.78 43.25 41.56 42.20 40.43 43.13 43.84 41.20 40.85 39.49 39.18 37.78 38.16 38.00 40.64 41.49 39.60 38.16 41.49 44.68 44.05 44.68 47.98 48.34 48.00 47.86
55.55 53.72 51.26 49.51 46.14 44.65 41.39 49.23 50.27 50.47 39.13 44.46 42.67 43.60 44.85 45.58 41.87 48.21 47.99 46.21 43.24 39.84 41.13 40.64 43.55 41.10 40.60 38.62 39.74 36.03 40.76 39.50 37.74 36.15 32.90 40.79 31.80 39.38 42.67 43.25 44.39 46.16 46.38 46.61 46.58
54.53 52.20 49.35 51.24 45.94 41.62 49.26 51.52 51.07 49.95 28.79 43.52 41.06 47.19 45.60 41.91 42.56 42.32 46.53 43.77 39.49 40.67 40.31 38.34 39.57 38.67 37.45 38.46 40.85 37.70 40.87 38.15 37.71 35.85 35.18 35.56 32.20 37.65 42.07 40.73 43.20 43.77 43.60 44.40 45.26
53.20 50.80 49.88 45.99 46.36 46.56 49.13 48.84 46.36 34.75 29.41 39.47 42.27 40.65 40.61 41.80 41.66 42.94 42.34 45.00 44.50 40.85 41.56 40.32 42.94 40.67 40.14 41.09 40.08 40.73 38.03 37.43 36.80 34.23 27.54 34.43 34.44 35.61 39.24 38.41 40.04 40.95 41.85 42.40 43.08
52.11 50.33 50.23 49.57 42.99 48.84 49.05 44.37 33.65 31.11 41.32 38.40 38.28 40.83 40.59 38.49 39.48 40.16 39.45 38.98 37.61 33.94 34.88 38.95 39.27 41.29 40.18 37.72 40.49 38.35 35.01 28.48 27.42 27.97 27.46 37.25 34.95 36.02 40.24 40.12 38.84 38.63 39.99 40.95 41.02
51.28 50.02 49.04 47.65 48.24 49.75 45.50 36.92 29.02 38.17 39.74 39.84 39.00 39.50 37.71 39.81 38.75 38.63 38.32 37.07 40.22 38.18 35.44 32.10 30.06 38.88 40.76 37.81 36.17 36.68 35.82 29.02 21.93 24.47 28.74 36.10 30.77 36.35 41.01 41.71 40.93 39.68 39.34 38.43 37.57
49.79 45.37 44.63 46.65 47.39 46.01 39.64 31.66 35.22 39.74 42.60 37.85 38.08 36.11 36.86 38.34 37.05 37.52 37.40 37.60 39.88 40.22 33.04 31.72 32.02 38.36 38.36 39.67 37.97 34.79 31.87 36.55 29.50 30.53 26.62 30.87 35.11 39.62 39.89 38.58 37.79 36.62 36.75 34.83 34.99
44.47 42.37 41.75 47.04 46.89 43.09 36.57 34.74 39.76 43.60 41.87 40.58 35.24 38.39 35.73 36.66 34.67 35.89 36.50 38.48 37.04 38.44 38.44 34.78 28.07 36.74 37.23 38.27 38.63 35.50 37.53 28.66 29.66 19.87 20.63 29.24 32.17 29.76 29.39 30.73 33.23 33.03 33.83 33.57 33.56
44.53 36.73 42.29 47.02 46.03 38.13 34.14 38.81 41.80 43.12 41.62 39.21 38.10 37.42 37.82 37.25 36.71 35.99 34.75 36.54 37.67 37.12 38.21 36.41 32.95 32.52 34.44 33.06 31.94 33.94 31.08 31.86 32.37 30.38 24.42 23.95 28.08 31.30 28.06 29.37 30.04 32.79 34.05 33.58 32.48
41.39 32.19 43.19 45.59 33.53 35.22 37.30 40.69 41.87 41.39 40.94 39.30 39.76 39.52 36.86 37.47 34.96 34.78 33.94 35.78 39.08 38.46 33.11 36.77 32.78 28.14 31.24 36.95 38.20 36.55 34.36 33.55 26.28 25.82 29.33 28.63 28.91 31.71 30.32 31.62 31.51 30.67 32.25 33.57 32.82
34.55 33.74 41.93 42.78 32.18 35.50 40.46 40.84 41.07 39.64 38.46 38.28 37.06 39.10 38.96 36.64 32.16 35.22 34.69 38.38 37.85 37.08 34.17 36.25 30.61 24.10 27.95 32.78 36.61 33.88 35.62 35.15 34.38 32.94 27.61 24.86 28.06 32.04 31.51 30.67 30.19 29.49 31.43 31.63 31.29
35.96 29.57 33.20 35.18 37.29 39.76 38.29 37.10 37.03 41.07 39.29 39.70 38.30 38.79 36.79 34.64 36.68 33.49 34.54 36.20 38.26 37.64 36.70 37.19 31.50 28.08 25.07 27.26 33.31 30.11 32.96 34.56 32.94 27.55 28.81 29.65 28.79 27.57 28.20 27.55 28.70 28.85 30.06 30.09 30.01
38.11 34.54 38.45 29.35 31.30 37.14 38.91 39.04 36.56 34.79 39.34 39.51 36.84 36.65 34.95 31.99 34.00 32.79 34.93 34.84 36.03 37.07 36.30 34.94 27.54 30.42 30.66 32.40 32.89 31.71 31.76 32.58 30.39 31.69 27.42 30.28 26.66 25.88 26.96 27.34 27.86 28.91 28.58 28.05 27.68
35.85 38.57 40.50 40.80 37.10 35.72 37.32 37.30 36.86 36.72 36.74 35.23 34.50 35.38 36.41 33.78 35.17 31.86 34.27 33.97 31.98 35.58 34.17 36.62 27.99 30.44 26.67 32.95 33.23 30.92 32.41 32.39 31.64 30.45 27.39 27.97 24.99 28.85 29.41 29.36 27.79 27.09 27.06 25.76 25.97
43.78 46.94 43.30 39.14 36.15 35.51 37.75 38.64 38.27 38.64 37.64 37.81 35.98 36.31 35.73 37.46 38.67 38.90 39.92 38.96 38.08 35.04 33.33 33.39 31.26 28.73 26.49 31.71 29.72 26.85 29.32 29.50 29.58 28.32 30.18 26.63 26.98 29.23 27.29 26.55 25.39 26.08 26.24 24.69 25.27

GFSSW_sfc_wetblb_120.txt.gz
Wetbulb
58.52 57.47 56.65 55.87 55.35 54.28 54.26 53.70 53.16 52.98 53.09 52.92 53.03 53.65 53.87 54.45 53.93 53.59 51.51 51.09 52.86 58.56 55.48 53.16 53.27 53.18 53.00 50.82 54.01 53.79 45.91 43.26 45.78 47.13 48.37 51.76 50.55 52.77 53.89 52.10 53.40 54.72 54.74 56.93 58.82
58.85 58.12 57.47 56.67 55.93 54.70 54.25 53.37 53.11 52.87 52.95 52.78 52.60 53.03 54.10 54.20 51.21 52.02 53.88 58.03 55.25 57.70 49.24 50.45 49.66 50.63 49.13 49.55 50.28 48.21 45.38 46.11 49.92 49.88 48.45 49.74 49.66 49.44 48.92 49.66 50.75 52.49 55.89 57.39 56.55
59.45 58.72 57.95 57.47 56.53 55.06 54.39 53.28 52.87 52.75 52.68 52.57 52.27 53.20 53.47 53.01 50.80 52.84 58.62 56.71 56.12 55.41 53.41 53.56 51.71 49.65 46.64 48.37 48.49 48.07 44.31 48.04 48.82 50.00 49.20 48.14 48.29 50.22 48.31 47.03 50.26 49.94 51.70 53.81 54.64
59.48 59.13 58.75 58.03 57.15 55.59 54.73 53.30 52.56 52.63 52.45 52.34 51.94 52.69 53.46 52.59 45.30 54.30 59.31 58.26 57.37 57.46 55.99 51.57 49.65 46.69 45.10 44.56 47.96 44.81 47.52 48.14 48.55 48.37 47.77 46.49 48.56 46.86 47.61 48.52 50.75 50.97 52.24 53.42 52.99
58.53 58.46 58.56 58.28 57.56 56.51 55.23 53.39 52.59 52.09 52.05 52.05 51.78 52.30 52.48 50.40 51.74 55.59 59.78 57.94 55.51 54.54 50.34 48.64 47.00 46.68 44.26 46.12 47.11 45.48 46.24 47.18 47.77 47.65 46.71 47.17 45.52 45.24 45.32 47.58 49.30 49.98 50.73 53.82 51.99
57.89 57.90 57.87 57.87 57.33 56.41 55.10 53.31 52.39 52.01 51.80 51.79 51.19 51.57 49.11 44.96 52.96 54.42 54.27 54.75 53.75 52.60 49.87 48.87 46.52 47.29 45.23 45.01 44.29 45.94 45.94 46.19 46.33 46.35 45.99 45.04 44.79 44.94 45.89 47.88 47.38 49.23 49.44 50.70 51.14
58.16 57.69 57.69 57.48 56.90 56.07 54.95 53.40 52.50 51.67 51.55 51.40 51.11 50.25 47.01 48.55 56.68 54.18 52.49 49.86 51.46 51.47 48.19 50.24 50.44 47.90 48.19 45.15 47.42 46.10 42.75 44.40 44.73 45.13 44.60 46.12 42.41 42.81 47.33 48.26 47.56 48.50 49.34 49.75 50.60
58.78 58.06 57.25 56.75 56.07 55.14 53.92 52.78 51.97 51.22 51.19 51.26 52.91 50.12 45.20 56.45 53.86 51.31 51.83 50.03 51.27 50.69 49.96 50.93 51.24 48.37 46.10 46.92 44.76 42.47 43.01 39.11 44.87 47.11 45.48 44.10 38.37 45.05 48.06 47.29 46.81 47.88 48.71 49.07 49.41
58.24 57.78 56.85 55.57 55.19 53.93 52.90 51.21 51.30 51.11 50.54 52.63 50.27 49.61 47.76 52.56 48.98 51.57 50.22 47.61 49.05 50.39 50.50 50.59 49.11 45.48 45.39 41.48 39.88 42.85 37.68 40.22 42.94 46.54 44.74 43.33 40.22 45.04 47.42 46.32 45.93 46.98 47.06 47.72 48.82
57.91 57.35 56.49 55.37 54.34 52.81 51.28 49.65 50.85 49.32 51.42 53.70 52.61 46.99 51.04 47.60 50.18 51.90 52.06 51.36 47.06 48.61 47.26 46.80 44.90 41.21 41.99 39.79 33.68 38.37 39.78 41.47 41.18 44.75 44.53 42.49 41.45 44.14 46.34 46.34 46.37 46.54 47.42 47.77 48.04
57.63 57.33 56.51 54.83 53.30 51.40 48.76 46.47 43.87 45.76 49.55 49.30 50.98 49.91 51.89 54.90 52.77 50.13 51.96 50.01 47.10 45.61 40.86 44.83 39.82 37.36 40.90 43.41 43.51 42.44 40.78 39.63 42.20 44.88 42.47 41.83 41.64 43.06 45.33 45.71 45.36 45.84 46.18 47.32 48.38
57.01 56.89 55.61 54.23 52.51 50.15 48.74 44.38 47.75 46.39 43.57 52.32 50.95 51.69 53.56 53.76 47.94 50.18 51.95 46.69 45.75 40.28 43.15 41.26 38.26 42.83 44.75 44.64 42.75 41.21 39.36 39.01 41.47 42.96 42.14 41.07 40.28 42.81 44.23 44.49 45.04 45.29 46.93 48.19 48.55
56.27 56.39 54.77 52.78 50.50 48.59 46.30 45.86 52.30 51.23 43.54 48.84 51.93 51.18 51.70 52.00 47.57 47.62 50.37 46.46 43.51 42.05 41.98 40.08 42.97 46.13 43.73 41.46 39.50 39.82 38.74 38.47 37.74 40.67 41.54 39.75 37.53 40.08 43.79 45.97 46.65 47.46 48.12 47.87 46.77
55.91 54.81 52.28 50.42 48.05 49.00 45.83 51.61 53.59 51.21 40.72 42.27 46.59 48.28 51.15 48.69 43.61 49.78 50.49 47.04 43.79 40.43 41.68 41.23 44.13 42.18 41.44 40.04 40.61 36.12 41.34 40.01 38.34 36.35 31.45 39.37 29.86 37.21 40.84 41.96 44.57 45.57 45.42 44.62 44.80
54.82 52.48 50.13 52.49 49.47 45.61 51.22 52.52 52.14 49.82 27.09 43.56 43.60 48.81 46.98 43.62 43.72 43.99 50.34 45.85 41.11 42.03 41.95 38.65 40.25 39.89 38.61 38.71 41.01 37.72 41.30 39.31 38.11 35.23 34.34 34.32 31.60 35.97 40.86 39.47 40.80 42.33 42.81 42.88 43.31
53.57 51.25 50.71 47.71 48.20 51.30 52.35 48.94 48.91 36.78 27.72 41.04 43.05 40.83 41.16 42.53 42.92 43.59 42.97 44.95 44.39 40.35 40.61 39.93 44.01 42.37 40.55 41.72 41.32 41.40 38.32 37.62 37.09 34.96 27.56 32.97 32.86 33.52 37.22 38.65 38.64 40.03 40.66 40.93 40.60
52.66 51.30 51.40 49.91 45.11 50.38 48.97 44.74 35.16 30.90 42.69 39.74 40.06 41.93 40.88 39.91 40.40 40.81 39.39 38.30 36.68 33.37 34.21 38.91 39.66 42.34 42.67 37.90 40.36 39.07 34.49 26.77 25.66 27.24 26.60 36.44 33.99 33.65 38.10 38.67 38.27 37.64 38.32 38.38 38.45
52.48 50.76 52.23 51.52 51.76 50.01 45.50 38.83 30.09 37.24 38.59 42.46 41.25 41.20 38.22 41.22 40.01 39.91 38.64 37.18 40.55 39.10 35.77 32.50 31.30 39.80 42.29 38.85 35.80 36.03 34.77 27.91 20.24 22.67 26.89 34.66 28.85 32.13 39.90 39.99 39.07 38.54 38.05 37.26 35.83
52.16 48.21 46.23 47.84 49.23 48.56 41.86 32.40 34.11 38.00 42.70 41.90 40.26 37.15 37.10 39.98 39.60 39.11 38.13 37.45 40.33 41.21 33.65 32.79 33.24 40.07 39.72 40.07 38.62 34.41 30.99 36.44 29.79 30.72 25.71 29.19 33.43 37.86 37.88 35.61 35.82 36.03 35.63 34.23 33.88
45.74 43.47 42.70 48.12 48.95 45.17 38.43 34.16 38.84 43.89 44.95 43.68 36.61 38.69 35.48 38.10 36.15 36.30 36.89 40.52 39.29 41.07 40.96 36.32 29.13 37.36 38.88 40.35 38.82 35.92 37.68 28.32 29.97 19.44 18.42 27.28 29.36 27.05 29.03 30.09 32.42 32.87 32.93 33.09 33.23
44.82 38.43 43.61 47.11 47.20 39.86 32.73 35.85 41.24 46.00 46.42 40.82 39.83 38.11 38.67 37.83 39.00 36.83 36.83 38.17 39.62 38.54 39.52 37.03 33.54 32.54 37.04 34.64 32.93 33.89 32.15 31.86 31.22 28.15 21.03 20.55 26.19 31.32 28.56 29.83 30.21 31.53 32.83 32.66 31.93
42.01 33.51 43.99 46.04 33.69 33.68 34.78 40.45 43.22 44.20 46.74 42.31 41.78 40.09 39.09 39.22 38.07 37.90 36.33 38.73 40.42 39.41 34.10 37.61 33.46 27.55 31.35 37.94 38.67 36.39 33.10 33.20 25.85 23.56 27.99 26.85 26.51 32.11 30.59 31.87 31.40 30.70 31.85 32.15 31.88
36.03 34.78 43.79 42.86 30.81 31.94 37.73 40.41 43.12 42.55 42.73 39.65 38.95 40.27 41.86 38.75 34.70 37.74 37.72 39.50 39.94 37.74 35.37 36.66 30.65 24.10 26.75 32.65 35.75 32.33 34.58 35.06 34.44 32.24 26.14 23.41 25.47 32.07 31.90 30.67 30.67 29.28 30.45 30.54 30.22
36.18 29.90 33.14 36.05 37.45 35.92 36.84 38.71 38.58 44.33 42.72 41.82 39.55 40.82 39.39 36.93 38.91 34.62 36.11 37.92 39.17 37.74 38.03 37.76 31.80 27.62 22.78 27.59 31.92 28.97 32.78 34.96 33.42 27.42 27.49 28.04 26.42 27.69 28.20 28.03 28.46 28.77 29.37 29.14 28.90
38.67 34.52 37.20 28.52 31.92 34.72 38.74 39.14 37.61 38.17 41.29 41.79 38.52 38.72 36.89 33.18 35.10 34.29 36.53 36.11 36.95 38.63 36.70 35.21 26.90 29.15 30.12 31.20 31.36 31.04 30.87 32.22 30.77 31.95 27.62 29.87 28.42 26.81 27.40 27.54 27.87 28.65 28.46 27.08 27.11
35.23 38.98 39.55 39.55 36.86 34.02 34.77 38.33 37.98 39.63 38.92 37.36 36.56 38.37 38.21 34.63 35.28 33.17 36.08 35.76 32.56 36.21 34.19 35.57 26.69 30.31 25.56 30.96 31.22 28.94 31.63 32.32 32.20 32.59 31.32 29.64 28.49 29.51 29.87 29.50 27.78 27.04 26.22 25.18 25.39
44.67 47.26 42.89 38.69 36.40 33.18 34.39 37.89 38.97 41.47 41.53 40.91 39.48 38.03 36.48 37.21 39.59 40.92 39.77 39.72 37.92 34.63 33.05 32.57 30.97 26.87 23.44 32.21 31.50 26.84 31.27 32.59 33.49 33.48 31.91 27.21 28.78 28.96 27.18 25.78 25.38 25.73 25.64 24.39 23.99

GFSSW_sfc_wetblb_123.txt.gz
Wetbulb
59.11 58.58 58.05 57.35 56.57 56.28 55.39 55.24 54.73 53.88 53.78 53.63 53.77 53.71 54.34 54.87 53.51 51.44 49.41 49.31 50.92 57.16 56.36 48.52 49.34 49.88 48.36 44.81 45.11 45.37 37.88 34.95 38.90 40.78 43.17 47.89 47.09 48.16 48.81 47.52 50.77 53.07 53.34 53.98 55.19
59.76 59.20 58.56 57.97 57.16 56.52 55.75 55.29 54.46 54.07 53.80 53.85 53.40 53.97 54.23 54.15 49.54 49.48 55.89 58.35 57.34 58.61 46.75 45.86 47.28 47.09 42.83 43.10 43.55 41.22 36.21 38.77 44.75 43.94 42.14 44.92 43.16 45.43 46.14 46.26 47.06 49.54 52.33 52.93 52.92
59.86 59.46 59.07 58.44 57.66 56.95 56.00 55.19 54.39 53.71 53.84 53.83 53.89 53.93 53.64 52.40 48.74 49.91 59.79 58.95 58.98 57.13 49.42 50.84 50.21 47.11 42.05 41.15 41.46 39.97 38.02 43.27 45.23 45.45 45.54 42.09 43.28 45.24 43.26 42.31 47.09 46.14 48.40 50.93 51.60
59.72 59.45 59.12 58.79 58.24 57.39 56.10 55.14 54.22 53.63 53.16 53.03 53.19 53.58 53.37 51.03 42.45 49.55 59.51 59.18 59.83 55.59 54.16 51.44 46.87 42.55 40.59 38.90 42.28 38.12 42.91 44.01 44.20 45.73 43.44 41.80 43.14 42.76 43.70 44.23 46.71 45.58 47.40 49.49 50.17
58.80 58.82 58.88 59.04 58.47 57.46 56.29 55.11 54.30 53.69 53.06 52.82 52.95 52.44 49.62 46.28 48.57 54.66 59.61 58.05 54.75 53.33 50.34 46.68 43.76 42.73 40.18 40.94 41.17 39.90 41.91 43.30 44.18 43.43 43.17 43.94 41.72 41.99 42.65 44.54 45.75 46.49 47.31 47.16 47.86
58.19 58.21 58.41 58.53 58.32 57.55 56.36 55.07 53.94 53.39 52.92 52.50 52.31 52.59 46.49 42.52 51.86 55.00 54.64 52.76 51.71 50.56 49.50 46.95 44.21 44.74 42.18 41.99 40.84 43.04 42.90 42.07 43.16 42.40 42.40 41.83 41.23 40.49 43.37 44.39 44.57 44.96 44.29 46.65 47.24
58.20 58.06 57.94 57.98 57.94 57.32 56.49 54.96 53.68 53.13 52.58 52.31 52.01 50.26 44.40 44.50 53.73 50.60 50.86 47.13 47.97 47.68 46.88 48.76 48.17 45.55 44.70 41.52 45.55 43.10 39.13 40.66 41.77 42.88 40.88 42.47 38.09 38.73 42.82 44.31 44.10 43.09 44.75 46.06 45.64
58.83 57.96 57.40 57.26 57.08 56.58 55.62 53.93 52.76 52.47 52.31 51.86 52.94 48.45 41.34 54.53 50.79 49.25 47.85 47.94 49.35 49.28 47.68 48.41 48.54 45.88 43.82 44.00 42.23 38.80 38.78 33.71 40.66 42.69 43.90 40.50 35.36 39.92 42.65 42.42 41.12 43.54 44.67 44.67 45.16
58.42 57.78 56.80 56.38 56.20 55.62 54.49 53.29 52.33 52.29 52.21 52.41 48.17 45.99 44.20 54.43 48.88 51.28 46.77 46.51 47.18 47.98 47.81 49.55 47.55 43.14 42.67 37.74 35.05 37.41 32.12 35.41 38.95 44.13 40.60 38.22 35.67 41.19 43.28 43.05 42.14 42.28 42.66 43.13 43.35
57.82 57.64 57.04 56.20 55.37 54.30 53.05 51.65 51.59 49.88 49.66 50.03 50.92 43.66 48.29 48.51 49.97 50.98 49.21 49.40 47.03 45.64 45.52 44.03 40.85 36.50 35.56 33.34 27.16 32.32 34.32 36.12 36.08 40.68 40.05 37.06 36.11 39.45 42.70 42.08 40.56 39.57 41.15 41.68 45.04
57.44 57.46 56.88 55.92 54.93 52.53 49.46 47.23 42.50 42.91 44.00 45.20 46.84 45.96 50.69 53.96 50.91 48.84 50.39 48.16 46.90 41.72 37.05 40.91 34.33 31.29 34.61 37.00 38.32 38.16 37.21 35.12 37.31 41.68 39.66 37.84 37.38 38.10 40.88 39.52 38.89 40.29 40.22 44.14 44.00
56.70 56.64 56.84 55.59 53.54 51.63 48.65 46.46 45.99 45.30 39.53 49.07 48.92 49.31 52.21 53.82 48.35 49.53 50.98 44.64 43.50 36.26 38.51 36.67 33.03 38.86 41.19 40.97 39.92 38.83 35.71 34.70 38.41 41.60 39.66 36.42 35.35 37.81 39.01 39.59 40.32 41.61 42.04 41.89 41.99
56.32 56.24 56.20 53.92 52.10 49.21 46.54 48.04 49.44 48.09 37.71 45.13 49.26 49.44 50.40 51.45 46.84 46.95 47.98 44.80 41.04 38.35 38.38 34.84 38.45 43.43 41.84 39.80 38.66 36.74 35.07 34.84 34.88 37.27 35.84 34.41 33.14 35.57 39.64 41.02 43.81 42.59 41.94 41.32 40.05
55.60 55.34 53.29 51.52 48.92 48.05 46.58 50.37 50.47 47.01 33.57 40.31 44.70 48.59 50.68 49.85 44.13 48.39 50.21 45.79 41.19 37.54 38.79 37.72 42.13 41.35 39.25 37.35 38.35 32.39 38.54 37.98 36.42 32.42 26.08 33.69 23.74 33.16 37.22 38.81 40.13 39.50 38.34 37.74 37.79
55.13 53.19 51.03 52.63 47.82 45.78 49.13 51.09 48.31 46.25 22.29 42.35 41.54 48.21 47.93 44.47 42.29 42.83 47.97 44.67 39.31 39.00 38.88 35.74 37.52 36.92 36.01 37.18 39.18 35.06 39.33 36.30 34.92 30.14 28.65 31.01 24.16 31.28 36.56 34.52 35.45 36.43 36.72 35.94 36.26
54.11 52.10 51.36 49.44 47.69 47.76 51.13 48.57 46.74 33.38 24.62 39.18 40.77 40.03 40.09 42.20 42.16 41.38 42.78 42.66 41.60 38.24 39.04 37.39 40.28 38.26 37.41 40.09 39.17 39.38 35.90 34.28 32.71 28.81 21.62 29.62 27.78 26.52 30.71 33.36 34.27 35.76 35.42 35.10 34.09
53.41 52.24 51.60 49.06 45.03 48.46 48.24 45.57 34.24 28.27 41.48 37.46 37.13 39.52 38.56 37.70 38.94 38.93 37.12 34.78 31.63 28.56 29.20 35.14 36.38 39.23 40.72 35.42 37.51 35.15 29.68 19.84 19.41 19.58 20.67 32.89 30.12 31.93 33.54 34.51 34.64 34.16 34.05 34.27 33.11
53.05 51.57 51.81 50.12 49.83 47.45 45.71 38.91 28.91 34.75 36.03 43.02 41.28 39.29 35.83 38.99 37.65 38.28 35.65 31.91 35.75 34.66 30.48 27.60 25.39 36.59 40.09 36.09 32.75 32.82 30.99 23.34 17.90 17.53 21.07 31.10 25.23 28.93 34.48 36.00 36.45 35.62 34.44 33.58 31.89
52.34 49.61 46.85 49.64 49.76 48.03 41.65 31.41 30.58 35.19 40.50 39.53 40.13 35.77 35.15 38.64 37.94 36.46 34.20 33.47 36.25 36.95 29.02 28.60 29.95 37.72 38.51 38.39 36.27 32.62 26.19 33.93 27.22 26.57 22.01 24.99 28.97 32.87 34.34 32.38 33.69 33.10 32.92 30.44 30.05
46.63 44.08 43.26 48.40 49.34 44.92 38.57 34.01 36.11 41.63 42.82 41.87 36.31 37.39 32.36 34.96 34.58 33.87 34.01 38.25 37.21 39.38 37.96 33.64 24.96 35.64 37.36 38.24 36.64 33.12 35.32 22.67 23.97 17.24 16.28 21.99 26.15 27.30 28.14 29.13 31.54 31.28 30.77 30.06 29.75
44.07 39.94 44.14 48.03 47.48 38.97 32.07 35.08 38.71 43.39 43.66 40.84 38.84 36.99 36.49 35.15 35.45 32.87 34.68 36.99 38.43 36.65 36.84 33.26 29.04 29.26 34.64 31.86 30.40 31.28 27.30 29.38 27.68 24.16 16.55 13.34 15.00 30.54 26.85 29.69 29.51 30.39 31.15 29.88 29.09
42.55 34.61 44.66 47.03 33.51 33.25 32.88 37.14 41.42 41.38 43.86 42.38 42.16 38.58 36.90 37.05 34.78 34.86 34.46 38.33 38.77 37.04 31.75 33.82 29.48 22.14 28.11 35.26 36.79 33.58 30.70 30.47 19.26 21.22 24.53 22.96 19.11 30.80 29.54 31.63 30.50 29.60 30.40 29.89 29.17
38.10 35.25 43.65 43.39 30.72 30.34 34.72 37.40 40.34 40.25 40.80 41.04 40.27 39.52 38.02 34.36 30.12 35.15 34.70 38.42 38.13 35.46 32.42 33.46 26.02 18.96 22.80 28.53 33.67 30.65 33.20 33.59 32.16 27.88 23.60 18.10 18.18 31.43 31.71 29.77 29.80 28.21 28.75 28.41 27.72
35.42 28.94 34.16 37.37 36.36 33.97 32.97 34.72 36.31 42.17 41.36 42.49 40.10 39.19 35.55 33.78 36.30 31.75 32.86 37.19 37.81 35.95 39.58 36.06 28.52 23.52 19.30 24.26 28.86 24.93 29.60 32.53 31.80 25.72 22.08 21.05 19.10 27.28 28.63 28.03 27.58 27.56 27.59 27.15 26.53
37.70 31.97 33.27 27.23 30.78 34.03 36.84 36.26 34.70 36.22 41.14 42.25 39.43 36.46 34.28 29.97 30.96 30.02 33.72 32.91 35.60 37.92 35.13 31.10 23.71 22.63 26.51 29.85 29.65 27.92 27.24 28.99 24.83 28.38 22.04 21.60 24.04 25.70 28.19 27.28 26.98 27.46 26.98 26.01 24.91
34.71 34.55 33.53 31.87 34.02 33.78 35.23 35.68 35.69 37.83 38.84 36.65 35.50 36.53 35.45 30.63 32.04 29.50 32.75 31.19 28.94 34.04 32.05 32.08 22.46 21.31 16.85 29.09 28.90 25.82 27.75 28.64 26.24 27.63 24.08 24.89 24.58 28.80 29.18 28.82 26.60 25.82 25.17 23.86 23.64
41.89 40.05 35.78 34.12 32.01 31.94 32.40 34.10 36.44 38.10 40.17 39.88 37.42 34.98 33.45 35.30 37.67 36.55 36.09 36.18 35.62 31.67 29.44 27.27 22.93 17.65 17.73 28.96 30.08 21.32 24.44 26.59 28.01 30.86 30.67 26.26 27.04 28.36 26.56 25.73 24.98 24.74 24.21 22.77 22.57